<?xml version="1.0" encoding="UTF-8" standalone="no" ?>
<gpx xmlns="http://www.topografix.com/GPX/1/1" xmlns:xsi="http://www.w3.org/2001/XMLSchema-instance" xsi:schemaLocation="http://www.topografix.com/GPX/1/1 http://www.topografix.com/GPX/1/1/gpx.xsd" version="1.1" creator="VisuGPX - https://www.visugpx.com">
  <metadata>
    <name>Le tour du Mont Rivel</name>
  </metadata>
  <trk>
    <name><![CDATA[Le tour du Mont Rivel_1]]></name>
    <trkseg>
      <trkpt lat="46.74702" lon="5.91089">
        <ele>541.1</ele>
        <time>2019-10-31T08:02:47Z</time>
      </trkpt>
      <trkpt lat="46.74709" lon="5.91095">
        <ele>538.6</ele>
        <time>2019-10-31T08:03:09Z</time>
      </trkpt>
      <trkpt lat="46.74713" lon="5.91104">
        <ele>535.3</ele>
        <time>2019-10-31T08:03:16Z</time>
      </trkpt>
      <trkpt lat="46.74715" lon="5.91111">
        <ele>534.6</ele>
        <time>2019-10-31T08:03:19Z</time>
      </trkpt>
      <trkpt lat="46.74718" lon="5.91118">
        <ele>533.8</ele>
        <time>2019-10-31T08:03:27Z</time>
      </trkpt>
      <trkpt lat="46.74722" lon="5.91129">
        <ele>534.1</ele>
        <time>2019-10-31T08:03:38Z</time>
      </trkpt>
      <trkpt lat="46.74723" lon="5.91137">
        <ele>534.3</ele>
        <time>2019-10-31T08:03:41Z</time>
      </trkpt>
      <trkpt lat="46.74726" lon="5.91143">
        <ele>534.3</ele>
        <time>2019-10-31T08:03:46Z</time>
      </trkpt>
      <trkpt lat="46.74727" lon="5.9115">
        <ele>534</ele>
        <time>2019-10-31T08:03:54Z</time>
      </trkpt>
      <trkpt lat="46.74729" lon="5.91157">
        <ele>533.8</ele>
        <time>2019-10-31T08:04:02Z</time>
      </trkpt>
      <trkpt lat="46.74731" lon="5.91163">
        <ele>533.8</ele>
        <time>2019-10-31T08:04:05Z</time>
      </trkpt>
      <trkpt lat="46.74732" lon="5.91171">
        <ele>533.9</ele>
        <time>2019-10-31T08:04:10Z</time>
      </trkpt>
      <trkpt lat="46.74734" lon="5.91178">
        <ele>534.2</ele>
        <time>2019-10-31T08:04:15Z</time>
      </trkpt>
      <trkpt lat="46.74736" lon="5.91184">
        <ele>534.3</ele>
        <time>2019-10-31T08:04:19Z</time>
      </trkpt>
      <trkpt lat="46.74738" lon="5.91191">
        <ele>534.4</ele>
        <time>2019-10-31T08:04:23Z</time>
      </trkpt>
      <trkpt lat="46.7474" lon="5.91197">
        <ele>534.2</ele>
        <time>2019-10-31T08:04:29Z</time>
      </trkpt>
      <trkpt lat="46.74742" lon="5.91205">
        <ele>534</ele>
        <time>2019-10-31T08:04:34Z</time>
      </trkpt>
      <trkpt lat="46.74743" lon="5.91211">
        <ele>533.6</ele>
        <time>2019-10-31T08:04:38Z</time>
      </trkpt>
      <trkpt lat="46.74745" lon="5.91218">
        <ele>533.1</ele>
        <time>2019-10-31T08:04:43Z</time>
      </trkpt>
      <trkpt lat="46.74748" lon="5.91224">
        <ele>532.7</ele>
        <time>2019-10-31T08:04:47Z</time>
      </trkpt>
      <trkpt lat="46.7475" lon="5.9123">
        <ele>532.4</ele>
        <time>2019-10-31T08:04:51Z</time>
      </trkpt>
      <trkpt lat="46.74753" lon="5.91236">
        <ele>531.9</ele>
        <time>2019-10-31T08:04:57Z</time>
      </trkpt>
      <trkpt lat="46.74755" lon="5.91242">
        <ele>531.6</ele>
        <time>2019-10-31T08:05:02Z</time>
      </trkpt>
      <trkpt lat="46.74756" lon="5.91248">
        <ele>531.6</ele>
        <time>2019-10-31T08:05:12Z</time>
      </trkpt>
      <trkpt lat="46.74758" lon="5.91255">
        <ele>532.4</ele>
        <time>2019-10-31T08:05:23Z</time>
      </trkpt>
      <trkpt lat="46.74758" lon="5.91262">
        <ele>532.9</ele>
        <time>2019-10-31T08:05:29Z</time>
      </trkpt>
      <trkpt lat="46.74758" lon="5.9127">
        <ele>533.3</ele>
        <time>2019-10-31T08:05:34Z</time>
      </trkpt>
      <trkpt lat="46.74758" lon="5.91278">
        <ele>533.7</ele>
        <time>2019-10-31T08:05:40Z</time>
      </trkpt>
      <trkpt lat="46.74758" lon="5.91285">
        <ele>533.8</ele>
        <time>2019-10-31T08:05:44Z</time>
      </trkpt>
      <trkpt lat="46.74759" lon="5.91294">
        <ele>533.8</ele>
        <time>2019-10-31T08:05:48Z</time>
      </trkpt>
      <trkpt lat="46.74759" lon="5.913">
        <ele>533.6</ele>
        <time>2019-10-31T08:05:52Z</time>
      </trkpt>
      <trkpt lat="46.74758" lon="5.91307">
        <ele>533.5</ele>
        <time>2019-10-31T08:05:58Z</time>
      </trkpt>
      <trkpt lat="46.74757" lon="5.91314">
        <ele>533.7</ele>
        <time>2019-10-31T08:06:04Z</time>
      </trkpt>
      <trkpt lat="46.74755" lon="5.91322">
        <ele>533.8</ele>
        <time>2019-10-31T08:06:09Z</time>
      </trkpt>
      <trkpt lat="46.74755" lon="5.91329">
        <ele>533.9</ele>
        <time>2019-10-31T08:06:13Z</time>
      </trkpt>
      <trkpt lat="46.74752" lon="5.91335">
        <ele>533.9</ele>
        <time>2019-10-31T08:06:18Z</time>
      </trkpt>
      <trkpt lat="46.7475" lon="5.91342">
        <ele>534.4</ele>
        <time>2019-10-31T08:06:24Z</time>
      </trkpt>
      <trkpt lat="46.74747" lon="5.91348">
        <ele>535.1</ele>
        <time>2019-10-31T08:06:31Z</time>
      </trkpt>
      <trkpt lat="46.74743" lon="5.91354">
        <ele>535.7</ele>
        <time>2019-10-31T08:06:36Z</time>
      </trkpt>
      <trkpt lat="46.7474" lon="5.91359">
        <ele>536.4</ele>
        <time>2019-10-31T08:06:41Z</time>
      </trkpt>
      <trkpt lat="46.74735" lon="5.91362">
        <ele>537.3</ele>
        <time>2019-10-31T08:06:47Z</time>
      </trkpt>
      <trkpt lat="46.74731" lon="5.91365">
        <ele>537.9</ele>
        <time>2019-10-31T08:06:52Z</time>
      </trkpt>
      <trkpt lat="46.74729" lon="5.91372">
        <ele>538.5</ele>
        <time>2019-10-31T08:06:59Z</time>
      </trkpt>
      <trkpt lat="46.7473" lon="5.91379">
        <ele>538.5</ele>
        <time>2019-10-31T08:07:02Z</time>
      </trkpt>
      <trkpt lat="46.74731" lon="5.91386">
        <ele>538.5</ele>
        <time>2019-10-31T08:07:07Z</time>
      </trkpt>
      <trkpt lat="46.74734" lon="5.91391">
        <ele>538.4</ele>
        <time>2019-10-31T08:07:12Z</time>
      </trkpt>
      <trkpt lat="46.74738" lon="5.91394">
        <ele>538.4</ele>
        <time>2019-10-31T08:07:16Z</time>
      </trkpt>
      <trkpt lat="46.74741" lon="5.914">
        <ele>538.4</ele>
        <time>2019-10-31T08:07:20Z</time>
      </trkpt>
      <trkpt lat="46.74744" lon="5.91408">
        <ele>538.4</ele>
        <time>2019-10-31T08:07:25Z</time>
      </trkpt>
      <trkpt lat="46.74747" lon="5.91415">
        <ele>538.5</ele>
        <time>2019-10-31T08:07:28Z</time>
      </trkpt>
      <trkpt lat="46.7475" lon="5.91421">
        <ele>538.8</ele>
        <time>2019-10-31T08:07:32Z</time>
      </trkpt>
      <trkpt lat="46.74753" lon="5.91427">
        <ele>539.5</ele>
        <time>2019-10-31T08:07:39Z</time>
      </trkpt>
      <trkpt lat="46.74755" lon="5.91433">
        <ele>539.8</ele>
        <time>2019-10-31T08:07:44Z</time>
      </trkpt>
      <trkpt lat="46.74758" lon="5.9144">
        <ele>540.2</ele>
        <time>2019-10-31T08:07:53Z</time>
      </trkpt>
      <trkpt lat="46.74761" lon="5.91445">
        <ele>539.9</ele>
        <time>2019-10-31T08:07:59Z</time>
      </trkpt>
      <trkpt lat="46.74765" lon="5.9145">
        <ele>539.6</ele>
        <time>2019-10-31T08:08:04Z</time>
      </trkpt>
      <trkpt lat="46.7477" lon="5.91455">
        <ele>539.4</ele>
        <time>2019-10-31T08:08:08Z</time>
      </trkpt>
      <trkpt lat="46.74774" lon="5.91458">
        <ele>539.3</ele>
        <time>2019-10-31T08:08:11Z</time>
      </trkpt>
      <trkpt lat="46.74778" lon="5.91462">
        <ele>539.2</ele>
        <time>2019-10-31T08:08:15Z</time>
      </trkpt>
      <trkpt lat="46.74782" lon="5.91468">
        <ele>539.4</ele>
        <time>2019-10-31T08:08:20Z</time>
      </trkpt>
      <trkpt lat="46.74784" lon="5.91474">
        <ele>539.6</ele>
        <time>2019-10-31T08:08:26Z</time>
      </trkpt>
      <trkpt lat="46.74785" lon="5.91481">
        <ele>539.8</ele>
        <time>2019-10-31T08:08:30Z</time>
      </trkpt>
      <trkpt lat="46.74785" lon="5.91489">
        <ele>539.9</ele>
        <time>2019-10-31T08:08:35Z</time>
      </trkpt>
      <trkpt lat="46.74784" lon="5.91496">
        <ele>540.1</ele>
        <time>2019-10-31T08:08:40Z</time>
      </trkpt>
      <trkpt lat="46.74783" lon="5.91502">
        <ele>540.1</ele>
        <time>2019-10-31T08:08:44Z</time>
      </trkpt>
      <trkpt lat="46.74783" lon="5.91509">
        <ele>539.9</ele>
        <time>2019-10-31T08:08:47Z</time>
      </trkpt>
      <trkpt lat="46.74785" lon="5.91517">
        <ele>539.7</ele>
        <time>2019-10-31T08:08:51Z</time>
      </trkpt>
      <trkpt lat="46.74785" lon="5.91525">
        <ele>539.4</ele>
        <time>2019-10-31T08:08:56Z</time>
      </trkpt>
      <trkpt lat="46.74786" lon="5.91532">
        <ele>539</ele>
        <time>2019-10-31T08:09:01Z</time>
      </trkpt>
      <trkpt lat="46.74786" lon="5.91539">
        <ele>538.6</ele>
        <time>2019-10-31T08:09:07Z</time>
      </trkpt>
      <trkpt lat="46.74786" lon="5.91546">
        <ele>538.5</ele>
        <time>2019-10-31T08:09:12Z</time>
      </trkpt>
      <trkpt lat="46.74786" lon="5.91554">
        <ele>538.3</ele>
        <time>2019-10-31T08:09:16Z</time>
      </trkpt>
      <trkpt lat="46.74786" lon="5.91562">
        <ele>537.8</ele>
        <time>2019-10-31T08:09:21Z</time>
      </trkpt>
      <trkpt lat="46.74786" lon="5.91569">
        <ele>537.6</ele>
        <time>2019-10-31T08:09:26Z</time>
      </trkpt>
      <trkpt lat="46.74787" lon="5.91577">
        <ele>537.3</ele>
        <time>2019-10-31T08:09:31Z</time>
      </trkpt>
      <trkpt lat="46.74789" lon="5.91585">
        <ele>537.2</ele>
        <time>2019-10-31T08:09:35Z</time>
      </trkpt>
      <trkpt lat="46.74791" lon="5.91592">
        <ele>537.1</ele>
        <time>2019-10-31T08:09:40Z</time>
      </trkpt>
      <trkpt lat="46.74794" lon="5.91599">
        <ele>537.2</ele>
        <time>2019-10-31T08:09:45Z</time>
      </trkpt>
      <trkpt lat="46.74797" lon="5.91605">
        <ele>537.3</ele>
        <time>2019-10-31T08:09:48Z</time>
      </trkpt>
      <trkpt lat="46.74798" lon="5.91611">
        <ele>537.3</ele>
        <time>2019-10-31T08:09:52Z</time>
      </trkpt>
      <trkpt lat="46.748" lon="5.91619">
        <ele>537.3</ele>
        <time>2019-10-31T08:09:56Z</time>
      </trkpt>
      <trkpt lat="46.74802" lon="5.91626">
        <ele>537.2</ele>
        <time>2019-10-31T08:09:59Z</time>
      </trkpt>
      <trkpt lat="46.74804" lon="5.91632">
        <ele>537</ele>
        <time>2019-10-31T08:10:02Z</time>
      </trkpt>
      <trkpt lat="46.74805" lon="5.91639">
        <ele>536.6</ele>
        <time>2019-10-31T08:10:07Z</time>
      </trkpt>
      <trkpt lat="46.74806" lon="5.91646">
        <ele>536.3</ele>
        <time>2019-10-31T08:10:12Z</time>
      </trkpt>
      <trkpt lat="46.74807" lon="5.91654">
        <ele>536.2</ele>
        <time>2019-10-31T08:10:18Z</time>
      </trkpt>
      <trkpt lat="46.74808" lon="5.91662">
        <ele>536.4</ele>
        <time>2019-10-31T08:10:24Z</time>
      </trkpt>
      <trkpt lat="46.74807" lon="5.9167">
        <ele>536.6</ele>
        <time>2019-10-31T08:10:28Z</time>
      </trkpt>
      <trkpt lat="46.74807" lon="5.91677">
        <ele>536.8</ele>
        <time>2019-10-31T08:10:32Z</time>
      </trkpt>
      <trkpt lat="46.74807" lon="5.91684">
        <ele>537.1</ele>
        <time>2019-10-31T08:10:36Z</time>
      </trkpt>
      <trkpt lat="46.74806" lon="5.91691">
        <ele>537.4</ele>
        <time>2019-10-31T08:10:40Z</time>
      </trkpt>
      <trkpt lat="46.74807" lon="5.91698">
        <ele>537.6</ele>
        <time>2019-10-31T08:10:45Z</time>
      </trkpt>
      <trkpt lat="46.74808" lon="5.91706">
        <ele>537.4</ele>
        <time>2019-10-31T08:10:50Z</time>
      </trkpt>
      <trkpt lat="46.74809" lon="5.91713">
        <ele>537.1</ele>
        <time>2019-10-31T08:10:54Z</time>
      </trkpt>
      <trkpt lat="46.74808" lon="5.91721">
        <ele>536.8</ele>
        <time>2019-10-31T08:10:59Z</time>
      </trkpt>
      <trkpt lat="46.74808" lon="5.91728">
        <ele>536.7</ele>
        <time>2019-10-31T08:11:05Z</time>
      </trkpt>
      <trkpt lat="46.74807" lon="5.91734">
        <ele>536.7</ele>
        <time>2019-10-31T08:11:10Z</time>
      </trkpt>
      <trkpt lat="46.74806" lon="5.91743">
        <ele>536.6</ele>
        <time>2019-10-31T08:11:15Z</time>
      </trkpt>
      <trkpt lat="46.74804" lon="5.91749">
        <ele>536.6</ele>
        <time>2019-10-31T08:11:18Z</time>
      </trkpt>
      <trkpt lat="46.74803" lon="5.91756">
        <ele>536.5</ele>
        <time>2019-10-31T08:11:22Z</time>
      </trkpt>
      <trkpt lat="46.74802" lon="5.91764">
        <ele>536.7</ele>
        <time>2019-10-31T08:11:27Z</time>
      </trkpt>
      <trkpt lat="46.74801" lon="5.9177">
        <ele>537.3</ele>
        <time>2019-10-31T08:11:33Z</time>
      </trkpt>
      <trkpt lat="46.748" lon="5.91779">
        <ele>537.7</ele>
        <time>2019-10-31T08:11:37Z</time>
      </trkpt>
      <trkpt lat="46.748" lon="5.91786">
        <ele>537.9</ele>
        <time>2019-10-31T08:11:40Z</time>
      </trkpt>
      <trkpt lat="46.74798" lon="5.91793">
        <ele>538.3</ele>
        <time>2019-10-31T08:11:45Z</time>
      </trkpt>
      <trkpt lat="46.74798" lon="5.918">
        <ele>538.8</ele>
        <time>2019-10-31T08:11:50Z</time>
      </trkpt>
      <trkpt lat="46.74797" lon="5.91807">
        <ele>539.2</ele>
        <time>2019-10-31T08:11:55Z</time>
      </trkpt>
      <trkpt lat="46.74796" lon="5.91815">
        <ele>539.6</ele>
        <time>2019-10-31T08:12:01Z</time>
      </trkpt>
      <trkpt lat="46.74795" lon="5.91822">
        <ele>539.8</ele>
        <time>2019-10-31T08:12:05Z</time>
      </trkpt>
      <trkpt lat="46.74794" lon="5.91829">
        <ele>539.9</ele>
        <time>2019-10-31T08:12:08Z</time>
      </trkpt>
      <trkpt lat="46.74793" lon="5.91836">
        <ele>539.8</ele>
        <time>2019-10-31T08:12:13Z</time>
      </trkpt>
      <trkpt lat="46.74793" lon="5.91844">
        <ele>539.7</ele>
        <time>2019-10-31T08:12:17Z</time>
      </trkpt>
      <trkpt lat="46.74792" lon="5.91852">
        <ele>539.6</ele>
        <time>2019-10-31T08:12:21Z</time>
      </trkpt>
      <trkpt lat="46.74792" lon="5.91858">
        <ele>539.4</ele>
        <time>2019-10-31T08:12:26Z</time>
      </trkpt>
      <trkpt lat="46.74792" lon="5.91866">
        <ele>539.2</ele>
        <time>2019-10-31T08:12:31Z</time>
      </trkpt>
      <trkpt lat="46.7479" lon="5.91873">
        <ele>539.3</ele>
        <time>2019-10-31T08:12:35Z</time>
      </trkpt>
      <trkpt lat="46.7479" lon="5.9188">
        <ele>539.3</ele>
        <time>2019-10-31T08:12:39Z</time>
      </trkpt>
      <trkpt lat="46.7479" lon="5.91887">
        <ele>539.4</ele>
        <time>2019-10-31T08:12:43Z</time>
      </trkpt>
      <trkpt lat="46.74788" lon="5.91894">
        <ele>539.7</ele>
        <time>2019-10-31T08:12:48Z</time>
      </trkpt>
      <trkpt lat="46.74786" lon="5.91901">
        <ele>540.3</ele>
        <time>2019-10-31T08:12:53Z</time>
      </trkpt>
      <trkpt lat="46.74784" lon="5.91908">
        <ele>540.8</ele>
        <time>2019-10-31T08:12:57Z</time>
      </trkpt>
      <trkpt lat="46.74783" lon="5.91914">
        <ele>541</ele>
        <time>2019-10-31T08:13:01Z</time>
      </trkpt>
      <trkpt lat="46.74782" lon="5.91921">
        <ele>541.2</ele>
        <time>2019-10-31T08:13:05Z</time>
      </trkpt>
      <trkpt lat="46.74782" lon="5.91929">
        <ele>541.2</ele>
        <time>2019-10-31T08:13:09Z</time>
      </trkpt>
      <trkpt lat="46.74782" lon="5.91935">
        <ele>541</ele>
        <time>2019-10-31T08:13:14Z</time>
      </trkpt>
      <trkpt lat="46.74781" lon="5.91943">
        <ele>540.9</ele>
        <time>2019-10-31T08:13:20Z</time>
      </trkpt>
      <trkpt lat="46.74782" lon="5.91951">
        <ele>540.9</ele>
        <time>2019-10-31T08:13:24Z</time>
      </trkpt>
      <trkpt lat="46.74781" lon="5.91959">
        <ele>541</ele>
        <time>2019-10-31T08:13:29Z</time>
      </trkpt>
      <trkpt lat="46.7478" lon="5.91966">
        <ele>541</ele>
        <time>2019-10-31T08:13:33Z</time>
      </trkpt>
      <trkpt lat="46.74779" lon="5.91973">
        <ele>541.1</ele>
        <time>2019-10-31T08:13:36Z</time>
      </trkpt>
      <trkpt lat="46.74778" lon="5.91979">
        <ele>541.2</ele>
        <time>2019-10-31T08:13:41Z</time>
      </trkpt>
      <trkpt lat="46.74777" lon="5.91986">
        <ele>541</ele>
        <time>2019-10-31T08:13:47Z</time>
      </trkpt>
      <trkpt lat="46.74776" lon="5.91992">
        <ele>540.8</ele>
        <time>2019-10-31T08:13:51Z</time>
      </trkpt>
      <trkpt lat="46.74775" lon="5.92">
        <ele>540.7</ele>
        <time>2019-10-31T08:13:56Z</time>
      </trkpt>
      <trkpt lat="46.74773" lon="5.92007">
        <ele>540.8</ele>
        <time>2019-10-31T08:14:00Z</time>
      </trkpt>
      <trkpt lat="46.74772" lon="5.92013">
        <ele>540.9</ele>
        <time>2019-10-31T08:14:04Z</time>
      </trkpt>
      <trkpt lat="46.74774" lon="5.9202">
        <ele>540.9</ele>
        <time>2019-10-31T08:14:08Z</time>
      </trkpt>
      <trkpt lat="46.74773" lon="5.92027">
        <ele>541</ele>
        <time>2019-10-31T08:14:12Z</time>
      </trkpt>
      <trkpt lat="46.74772" lon="5.92035">
        <ele>541.2</ele>
        <time>2019-10-31T08:14:17Z</time>
      </trkpt>
      <trkpt lat="46.74771" lon="5.92041">
        <ele>541.4</ele>
        <time>2019-10-31T08:14:21Z</time>
      </trkpt>
      <trkpt lat="46.74769" lon="5.92048">
        <ele>541.3</ele>
        <time>2019-10-31T08:14:25Z</time>
      </trkpt>
      <trkpt lat="46.74769" lon="5.92055">
        <ele>541.2</ele>
        <time>2019-10-31T08:14:29Z</time>
      </trkpt>
      <trkpt lat="46.74769" lon="5.92063">
        <ele>541.3</ele>
        <time>2019-10-31T08:14:33Z</time>
      </trkpt>
      <trkpt lat="46.74769" lon="5.9207">
        <ele>541.4</ele>
        <time>2019-10-31T08:14:37Z</time>
      </trkpt>
      <trkpt lat="46.74768" lon="5.92077">
        <ele>541.6</ele>
        <time>2019-10-31T08:14:41Z</time>
      </trkpt>
      <trkpt lat="46.74767" lon="5.92084">
        <ele>541.7</ele>
        <time>2019-10-31T08:14:45Z</time>
      </trkpt>
      <trkpt lat="46.74767" lon="5.92091">
        <ele>541.8</ele>
        <time>2019-10-31T08:14:51Z</time>
      </trkpt>
      <trkpt lat="46.74765" lon="5.92098">
        <ele>541.9</ele>
        <time>2019-10-31T08:14:56Z</time>
      </trkpt>
      <trkpt lat="46.74764" lon="5.92105">
        <ele>542.3</ele>
        <time>2019-10-31T08:15:01Z</time>
      </trkpt>
      <trkpt lat="46.74764" lon="5.92112">
        <ele>542.8</ele>
        <time>2019-10-31T08:15:06Z</time>
      </trkpt>
      <trkpt lat="46.74764" lon="5.9212">
        <ele>543.3</ele>
        <time>2019-10-31T08:15:12Z</time>
      </trkpt>
      <trkpt lat="46.74763" lon="5.92126">
        <ele>543.5</ele>
        <time>2019-10-31T08:15:15Z</time>
      </trkpt>
      <trkpt lat="46.74761" lon="5.92133">
        <ele>543.8</ele>
        <time>2019-10-31T08:15:19Z</time>
      </trkpt>
      <trkpt lat="46.74758" lon="5.92141">
        <ele>544</ele>
        <time>2019-10-31T08:15:23Z</time>
      </trkpt>
      <trkpt lat="46.74756" lon="5.92148">
        <ele>544.1</ele>
        <time>2019-10-31T08:15:27Z</time>
      </trkpt>
      <trkpt lat="46.74755" lon="5.92155">
        <ele>544.2</ele>
        <time>2019-10-31T08:15:34Z</time>
      </trkpt>
      <trkpt lat="46.74757" lon="5.92161">
        <ele>544.1</ele>
        <time>2019-10-31T08:15:38Z</time>
      </trkpt>
      <trkpt lat="46.74755" lon="5.92168">
        <ele>543.6</ele>
        <time>2019-10-31T08:15:45Z</time>
      </trkpt>
      <trkpt lat="46.7475" lon="5.92171">
        <ele>543.5</ele>
        <time>2019-10-31T08:15:51Z</time>
      </trkpt>
      <trkpt lat="46.74746" lon="5.92172">
        <ele>543.5</ele>
        <time>2019-10-31T08:15:55Z</time>
      </trkpt>
      <trkpt lat="46.74741" lon="5.92176">
        <ele>543.5</ele>
        <time>2019-10-31T08:15:59Z</time>
      </trkpt>
      <trkpt lat="46.74737" lon="5.92179">
        <ele>543.7</ele>
        <time>2019-10-31T08:16:03Z</time>
      </trkpt>
      <trkpt lat="46.74734" lon="5.92183">
        <ele>543.9</ele>
        <time>2019-10-31T08:16:07Z</time>
      </trkpt>
      <trkpt lat="46.74731" lon="5.92189">
        <ele>544.2</ele>
        <time>2019-10-31T08:16:11Z</time>
      </trkpt>
      <trkpt lat="46.74727" lon="5.92195">
        <ele>544.7</ele>
        <time>2019-10-31T08:16:16Z</time>
      </trkpt>
      <trkpt lat="46.74725" lon="5.92201">
        <ele>544.8</ele>
        <time>2019-10-31T08:16:21Z</time>
      </trkpt>
      <trkpt lat="46.74723" lon="5.92208">
        <ele>544.8</ele>
        <time>2019-10-31T08:16:26Z</time>
      </trkpt>
      <trkpt lat="46.74723" lon="5.92215">
        <ele>544.5</ele>
        <time>2019-10-31T08:16:31Z</time>
      </trkpt>
      <trkpt lat="46.74723" lon="5.92223">
        <ele>543.9</ele>
        <time>2019-10-31T08:16:36Z</time>
      </trkpt>
      <trkpt lat="46.74724" lon="5.9223">
        <ele>543.4</ele>
        <time>2019-10-31T08:16:41Z</time>
      </trkpt>
      <trkpt lat="46.74727" lon="5.92237">
        <ele>543.2</ele>
        <time>2019-10-31T08:16:45Z</time>
      </trkpt>
      <trkpt lat="46.7473" lon="5.92244">
        <ele>542.9</ele>
        <time>2019-10-31T08:16:49Z</time>
      </trkpt>
      <trkpt lat="46.74732" lon="5.9225">
        <ele>542.8</ele>
        <time>2019-10-31T08:16:52Z</time>
      </trkpt>
      <trkpt lat="46.74736" lon="5.92255">
        <ele>542.4</ele>
        <time>2019-10-31T08:16:57Z</time>
      </trkpt>
      <trkpt lat="46.74738" lon="5.92261">
        <ele>542.1</ele>
        <time>2019-10-31T08:17:01Z</time>
      </trkpt>
      <trkpt lat="46.74739" lon="5.92268">
        <ele>541.8</ele>
        <time>2019-10-31T08:17:06Z</time>
      </trkpt>
      <trkpt lat="46.74741" lon="5.92276">
        <ele>541.6</ele>
        <time>2019-10-31T08:17:11Z</time>
      </trkpt>
      <trkpt lat="46.74742" lon="5.92283">
        <ele>541.5</ele>
        <time>2019-10-31T08:17:17Z</time>
      </trkpt>
      <trkpt lat="46.74745" lon="5.92288">
        <ele>541.4</ele>
        <time>2019-10-31T08:17:24Z</time>
      </trkpt>
      <trkpt lat="46.7475" lon="5.92293">
        <ele>541.5</ele>
        <time>2019-10-31T08:17:28Z</time>
      </trkpt>
      <trkpt lat="46.74754" lon="5.92298">
        <ele>541.7</ele>
        <time>2019-10-31T08:17:32Z</time>
      </trkpt>
      <trkpt lat="46.74758" lon="5.92304">
        <ele>541.9</ele>
        <time>2019-10-31T08:17:36Z</time>
      </trkpt>
      <trkpt lat="46.74761" lon="5.9231">
        <ele>542.2</ele>
        <time>2019-10-31T08:17:40Z</time>
      </trkpt>
      <trkpt lat="46.74764" lon="5.92315">
        <ele>542.4</ele>
        <time>2019-10-31T08:17:46Z</time>
      </trkpt>
      <trkpt lat="46.74769" lon="5.92314">
        <ele>542.5</ele>
        <time>2019-10-31T08:17:52Z</time>
      </trkpt>
      <trkpt lat="46.74773" lon="5.92311">
        <ele>542.7</ele>
        <time>2019-10-31T08:17:59Z</time>
      </trkpt>
      <trkpt lat="46.74778" lon="5.92308">
        <ele>543</ele>
        <time>2019-10-31T08:18:04Z</time>
      </trkpt>
      <trkpt lat="46.74783" lon="5.92304">
        <ele>543.1</ele>
        <time>2019-10-31T08:18:09Z</time>
      </trkpt>
      <trkpt lat="46.74787" lon="5.923">
        <ele>543</ele>
        <time>2019-10-31T08:18:14Z</time>
      </trkpt>
      <trkpt lat="46.7479" lon="5.92295">
        <ele>542.7</ele>
        <time>2019-10-31T08:18:19Z</time>
      </trkpt>
      <trkpt lat="46.74795" lon="5.92292">
        <ele>542.6</ele>
        <time>2019-10-31T08:18:23Z</time>
      </trkpt>
      <trkpt lat="46.74799" lon="5.92288">
        <ele>542.6</ele>
        <time>2019-10-31T08:18:27Z</time>
      </trkpt>
      <trkpt lat="46.74802" lon="5.92283">
        <ele>542.6</ele>
        <time>2019-10-31T08:18:32Z</time>
      </trkpt>
      <trkpt lat="46.74806" lon="5.9228">
        <ele>542.8</ele>
        <time>2019-10-31T08:18:39Z</time>
      </trkpt>
      <trkpt lat="46.7481" lon="5.92277">
        <ele>543.2</ele>
        <time>2019-10-31T08:18:44Z</time>
      </trkpt>
      <trkpt lat="46.74815" lon="5.92272">
        <ele>543.7</ele>
        <time>2019-10-31T08:18:49Z</time>
      </trkpt>
      <trkpt lat="46.74819" lon="5.92267">
        <ele>544.2</ele>
        <time>2019-10-31T08:18:53Z</time>
      </trkpt>
      <trkpt lat="46.74822" lon="5.92262">
        <ele>544.5</ele>
        <time>2019-10-31T08:18:56Z</time>
      </trkpt>
      <trkpt lat="46.74826" lon="5.92256">
        <ele>544.8</ele>
        <time>2019-10-31T08:18:59Z</time>
      </trkpt>
      <trkpt lat="46.7483" lon="5.92251">
        <ele>545</ele>
        <time>2019-10-31T08:19:03Z</time>
      </trkpt>
      <trkpt lat="46.74835" lon="5.92249">
        <ele>545.3</ele>
        <time>2019-10-31T08:19:08Z</time>
      </trkpt>
      <trkpt lat="46.74839" lon="5.92245">
        <ele>545.5</ele>
        <time>2019-10-31T08:19:12Z</time>
      </trkpt>
      <trkpt lat="46.74843" lon="5.9224">
        <ele>545.7</ele>
        <time>2019-10-31T08:19:17Z</time>
      </trkpt>
      <trkpt lat="46.74848" lon="5.92235">
        <ele>546</ele>
        <time>2019-10-31T08:19:22Z</time>
      </trkpt>
      <trkpt lat="46.74852" lon="5.9223">
        <ele>546.5</ele>
        <time>2019-10-31T08:19:27Z</time>
      </trkpt>
      <trkpt lat="46.74856" lon="5.92226">
        <ele>547.1</ele>
        <time>2019-10-31T08:19:31Z</time>
      </trkpt>
      <trkpt lat="46.74859" lon="5.9222">
        <ele>547.8</ele>
        <time>2019-10-31T08:19:36Z</time>
      </trkpt>
      <trkpt lat="46.74863" lon="5.92214">
        <ele>548.3</ele>
        <time>2019-10-31T08:19:40Z</time>
      </trkpt>
      <trkpt lat="46.74866" lon="5.92209">
        <ele>548.7</ele>
        <time>2019-10-31T08:19:45Z</time>
      </trkpt>
      <trkpt lat="46.7487" lon="5.92206">
        <ele>548.8</ele>
        <time>2019-10-31T08:19:49Z</time>
      </trkpt>
      <trkpt lat="46.74874" lon="5.92201">
        <ele>549</ele>
        <time>2019-10-31T08:19:53Z</time>
      </trkpt>
      <trkpt lat="46.74878" lon="5.92197">
        <ele>549.1</ele>
        <time>2019-10-31T08:19:59Z</time>
      </trkpt>
      <trkpt lat="46.74882" lon="5.92193">
        <ele>549.1</ele>
        <time>2019-10-31T08:20:05Z</time>
      </trkpt>
      <trkpt lat="46.74886" lon="5.92188">
        <ele>549</ele>
        <time>2019-10-31T08:20:10Z</time>
      </trkpt>
      <trkpt lat="46.7489" lon="5.92184">
        <ele>548.9</ele>
        <time>2019-10-31T08:20:15Z</time>
      </trkpt>
      <trkpt lat="46.74895" lon="5.92181">
        <ele>548.8</ele>
        <time>2019-10-31T08:20:20Z</time>
      </trkpt>
      <trkpt lat="46.749" lon="5.92178">
        <ele>548.6</ele>
        <time>2019-10-31T08:20:24Z</time>
      </trkpt>
      <trkpt lat="46.74904" lon="5.92173">
        <ele>548.5</ele>
        <time>2019-10-31T08:20:27Z</time>
      </trkpt>
      <trkpt lat="46.74908" lon="5.92169">
        <ele>548.3</ele>
        <time>2019-10-31T08:20:31Z</time>
      </trkpt>
      <trkpt lat="46.74913" lon="5.92165">
        <ele>548.1</ele>
        <time>2019-10-31T08:20:36Z</time>
      </trkpt>
      <trkpt lat="46.74916" lon="5.92158">
        <ele>548.1</ele>
        <time>2019-10-31T08:20:40Z</time>
      </trkpt>
      <trkpt lat="46.7492" lon="5.92153">
        <ele>548.2</ele>
        <time>2019-10-31T08:20:44Z</time>
      </trkpt>
      <trkpt lat="46.74925" lon="5.9215">
        <ele>548.4</ele>
        <time>2019-10-31T08:20:49Z</time>
      </trkpt>
      <trkpt lat="46.74929" lon="5.92145">
        <ele>548.6</ele>
        <time>2019-10-31T08:20:53Z</time>
      </trkpt>
      <trkpt lat="46.74933" lon="5.92141">
        <ele>548.9</ele>
        <time>2019-10-31T08:20:58Z</time>
      </trkpt>
      <trkpt lat="46.74936" lon="5.92134">
        <ele>549.2</ele>
        <time>2019-10-31T08:21:02Z</time>
      </trkpt>
      <trkpt lat="46.74938" lon="5.92127">
        <ele>549.6</ele>
        <time>2019-10-31T08:21:07Z</time>
      </trkpt>
      <trkpt lat="46.74942" lon="5.92123">
        <ele>549.9</ele>
        <time>2019-10-31T08:21:12Z</time>
      </trkpt>
      <trkpt lat="46.74945" lon="5.92118">
        <ele>550.1</ele>
        <time>2019-10-31T08:21:17Z</time>
      </trkpt>
      <trkpt lat="46.7495" lon="5.92112">
        <ele>550.3</ele>
        <time>2019-10-31T08:21:22Z</time>
      </trkpt>
      <trkpt lat="46.74954" lon="5.92108">
        <ele>550.5</ele>
        <time>2019-10-31T08:21:26Z</time>
      </trkpt>
      <trkpt lat="46.74959" lon="5.92104">
        <ele>550.9</ele>
        <time>2019-10-31T08:21:31Z</time>
      </trkpt>
      <trkpt lat="46.74963" lon="5.92099">
        <ele>551.2</ele>
        <time>2019-10-31T08:21:35Z</time>
      </trkpt>
      <trkpt lat="46.74968" lon="5.92095">
        <ele>551.4</ele>
        <time>2019-10-31T08:21:39Z</time>
      </trkpt>
      <trkpt lat="46.74972" lon="5.92091">
        <ele>551.3</ele>
        <time>2019-10-31T08:21:43Z</time>
      </trkpt>
      <trkpt lat="46.74976" lon="5.92087">
        <ele>551.2</ele>
        <time>2019-10-31T08:21:47Z</time>
      </trkpt>
      <trkpt lat="46.74979" lon="5.9208">
        <ele>551.1</ele>
        <time>2019-10-31T08:21:52Z</time>
      </trkpt>
      <trkpt lat="46.74982" lon="5.92075">
        <ele>550.9</ele>
        <time>2019-10-31T08:21:56Z</time>
      </trkpt>
      <trkpt lat="46.74987" lon="5.92071">
        <ele>550.9</ele>
        <time>2019-10-31T08:22:01Z</time>
      </trkpt>
      <trkpt lat="46.74991" lon="5.92067">
        <ele>550.9</ele>
        <time>2019-10-31T08:22:05Z</time>
      </trkpt>
      <trkpt lat="46.74995" lon="5.92062">
        <ele>550.8</ele>
        <time>2019-10-31T08:22:09Z</time>
      </trkpt>
      <trkpt lat="46.74998" lon="5.92058">
        <ele>550.8</ele>
        <time>2019-10-31T08:22:13Z</time>
      </trkpt>
      <trkpt lat="46.75002" lon="5.92053">
        <ele>550.5</ele>
        <time>2019-10-31T08:22:17Z</time>
      </trkpt>
      <trkpt lat="46.75006" lon="5.92047">
        <ele>550.1</ele>
        <time>2019-10-31T08:22:22Z</time>
      </trkpt>
      <trkpt lat="46.75009" lon="5.92041">
        <ele>549.4</ele>
        <time>2019-10-31T08:22:27Z</time>
      </trkpt>
      <trkpt lat="46.75012" lon="5.92035">
        <ele>548.6</ele>
        <time>2019-10-31T08:22:32Z</time>
      </trkpt>
      <trkpt lat="46.75016" lon="5.9203">
        <ele>548</ele>
        <time>2019-10-31T08:22:36Z</time>
      </trkpt>
      <trkpt lat="46.75021" lon="5.92026">
        <ele>547.2</ele>
        <time>2019-10-31T08:22:41Z</time>
      </trkpt>
      <trkpt lat="46.75025" lon="5.92024">
        <ele>546.6</ele>
        <time>2019-10-31T08:22:45Z</time>
      </trkpt>
      <trkpt lat="46.75029" lon="5.92019">
        <ele>546.2</ele>
        <time>2019-10-31T08:22:49Z</time>
      </trkpt>
      <trkpt lat="46.75033" lon="5.92014">
        <ele>546</ele>
        <time>2019-10-31T08:22:53Z</time>
      </trkpt>
      <trkpt lat="46.75035" lon="5.92008">
        <ele>545.9</ele>
        <time>2019-10-31T08:22:58Z</time>
      </trkpt>
      <trkpt lat="46.75037" lon="5.92002">
        <ele>545.9</ele>
        <time>2019-10-31T08:23:02Z</time>
      </trkpt>
      <trkpt lat="46.7504" lon="5.91995">
        <ele>546.1</ele>
        <time>2019-10-31T08:23:06Z</time>
      </trkpt>
      <trkpt lat="46.75043" lon="5.9199">
        <ele>546.2</ele>
        <time>2019-10-31T08:23:11Z</time>
      </trkpt>
      <trkpt lat="46.75046" lon="5.91985">
        <ele>546.4</ele>
        <time>2019-10-31T08:23:15Z</time>
      </trkpt>
      <trkpt lat="46.7505" lon="5.91979">
        <ele>546.4</ele>
        <time>2019-10-31T08:23:18Z</time>
      </trkpt>
      <trkpt lat="46.75053" lon="5.91974">
        <ele>546.6</ele>
        <time>2019-10-31T08:23:22Z</time>
      </trkpt>
      <trkpt lat="46.75056" lon="5.91967">
        <ele>547.1</ele>
        <time>2019-10-31T08:23:27Z</time>
      </trkpt>
      <trkpt lat="46.75058" lon="5.9196">
        <ele>547.6</ele>
        <time>2019-10-31T08:23:31Z</time>
      </trkpt>
      <trkpt lat="46.75061" lon="5.91953">
        <ele>548.1</ele>
        <time>2019-10-31T08:23:35Z</time>
      </trkpt>
      <trkpt lat="46.75065" lon="5.9195">
        <ele>548.5</ele>
        <time>2019-10-31T08:23:38Z</time>
      </trkpt>
      <trkpt lat="46.75069" lon="5.91947">
        <ele>548.8</ele>
        <time>2019-10-31T08:23:42Z</time>
      </trkpt>
      <trkpt lat="46.75073" lon="5.91943">
        <ele>549</ele>
        <time>2019-10-31T08:23:46Z</time>
      </trkpt>
      <trkpt lat="46.75077" lon="5.91939">
        <ele>549.2</ele>
        <time>2019-10-31T08:23:51Z</time>
      </trkpt>
      <trkpt lat="46.7508" lon="5.91933">
        <ele>549.3</ele>
        <time>2019-10-31T08:23:56Z</time>
      </trkpt>
      <trkpt lat="46.75083" lon="5.91927">
        <ele>549.5</ele>
        <time>2019-10-31T08:23:59Z</time>
      </trkpt>
      <trkpt lat="46.75086" lon="5.91921">
        <ele>549.6</ele>
        <time>2019-10-31T08:24:03Z</time>
      </trkpt>
      <trkpt lat="46.7509" lon="5.91917">
        <ele>549.7</ele>
        <time>2019-10-31T08:24:07Z</time>
      </trkpt>
      <trkpt lat="46.75094" lon="5.91912">
        <ele>549.8</ele>
        <time>2019-10-31T08:24:11Z</time>
      </trkpt>
      <trkpt lat="46.75098" lon="5.91909">
        <ele>550</ele>
        <time>2019-10-31T08:24:16Z</time>
      </trkpt>
      <trkpt lat="46.75102" lon="5.91907">
        <ele>550.3</ele>
        <time>2019-10-31T08:24:20Z</time>
      </trkpt>
      <trkpt lat="46.75106" lon="5.91904">
        <ele>550.6</ele>
        <time>2019-10-31T08:24:24Z</time>
      </trkpt>
      <trkpt lat="46.75109" lon="5.91898">
        <ele>550.9</ele>
        <time>2019-10-31T08:24:28Z</time>
      </trkpt>
      <trkpt lat="46.75112" lon="5.91893">
        <ele>551</ele>
        <time>2019-10-31T08:24:32Z</time>
      </trkpt>
      <trkpt lat="46.75114" lon="5.91886">
        <ele>550.9</ele>
        <time>2019-10-31T08:24:36Z</time>
      </trkpt>
      <trkpt lat="46.75117" lon="5.91879">
        <ele>550.7</ele>
        <time>2019-10-31T08:24:40Z</time>
      </trkpt>
      <trkpt lat="46.7512" lon="5.91874">
        <ele>550.7</ele>
        <time>2019-10-31T08:24:45Z</time>
      </trkpt>
      <trkpt lat="46.75124" lon="5.91867">
        <ele>550.6</ele>
        <time>2019-10-31T08:24:51Z</time>
      </trkpt>
      <trkpt lat="46.75129" lon="5.91862">
        <ele>550.5</ele>
        <time>2019-10-31T08:24:55Z</time>
      </trkpt>
      <trkpt lat="46.75133" lon="5.91857">
        <ele>550.4</ele>
        <time>2019-10-31T08:24:59Z</time>
      </trkpt>
      <trkpt lat="46.75137" lon="5.91853">
        <ele>550</ele>
        <time>2019-10-31T08:25:05Z</time>
      </trkpt>
      <trkpt lat="46.75141" lon="5.91849">
        <ele>549.5</ele>
        <time>2019-10-31T08:25:09Z</time>
      </trkpt>
      <trkpt lat="46.75145" lon="5.91844">
        <ele>549.2</ele>
        <time>2019-10-31T08:25:13Z</time>
      </trkpt>
      <trkpt lat="46.75148" lon="5.91839">
        <ele>548.8</ele>
        <time>2019-10-31T08:25:17Z</time>
      </trkpt>
      <trkpt lat="46.75151" lon="5.91833">
        <ele>548.7</ele>
        <time>2019-10-31T08:25:22Z</time>
      </trkpt>
      <trkpt lat="46.75153" lon="5.91826">
        <ele>548.7</ele>
        <time>2019-10-31T08:25:26Z</time>
      </trkpt>
      <trkpt lat="46.75156" lon="5.91821">
        <ele>548.6</ele>
        <time>2019-10-31T08:25:30Z</time>
      </trkpt>
      <trkpt lat="46.75161" lon="5.91818">
        <ele>548.4</ele>
        <time>2019-10-31T08:25:35Z</time>
      </trkpt>
      <trkpt lat="46.75165" lon="5.91813">
        <ele>548.3</ele>
        <time>2019-10-31T08:25:39Z</time>
      </trkpt>
      <trkpt lat="46.75169" lon="5.91808">
        <ele>548.2</ele>
        <time>2019-10-31T08:25:44Z</time>
      </trkpt>
      <trkpt lat="46.75173" lon="5.91804">
        <ele>547.9</ele>
        <time>2019-10-31T08:25:48Z</time>
      </trkpt>
      <trkpt lat="46.75178" lon="5.91802">
        <ele>547.8</ele>
        <time>2019-10-31T08:25:52Z</time>
      </trkpt>
      <trkpt lat="46.75182" lon="5.91799">
        <ele>547.5</ele>
        <time>2019-10-31T08:25:56Z</time>
      </trkpt>
      <trkpt lat="46.75192" lon="5.91786">
        <ele>545.8</ele>
        <time>2019-10-31T08:26:10Z</time>
      </trkpt>
      <trkpt lat="46.75196" lon="5.91781">
        <ele>545.8</ele>
        <time>2019-10-31T08:26:14Z</time>
      </trkpt>
      <trkpt lat="46.75197" lon="5.91775">
        <ele>545.7</ele>
        <time>2019-10-31T08:26:17Z</time>
      </trkpt>
      <trkpt lat="46.75199" lon="5.91768">
        <ele>545.7</ele>
        <time>2019-10-31T08:26:20Z</time>
      </trkpt>
      <trkpt lat="46.75202" lon="5.91761">
        <ele>545.4</ele>
        <time>2019-10-31T08:26:25Z</time>
      </trkpt>
      <trkpt lat="46.75204" lon="5.91755">
        <ele>545.2</ele>
        <time>2019-10-31T08:26:28Z</time>
      </trkpt>
      <trkpt lat="46.75207" lon="5.9175">
        <ele>545</ele>
        <time>2019-10-31T08:26:31Z</time>
      </trkpt>
      <trkpt lat="46.7521" lon="5.91743">
        <ele>544.8</ele>
        <time>2019-10-31T08:26:36Z</time>
      </trkpt>
      <trkpt lat="46.75213" lon="5.91736">
        <ele>544.6</ele>
        <time>2019-10-31T08:26:41Z</time>
      </trkpt>
      <trkpt lat="46.75216" lon="5.9173">
        <ele>544.6</ele>
        <time>2019-10-31T08:26:45Z</time>
      </trkpt>
      <trkpt lat="46.75219" lon="5.91724">
        <ele>544.8</ele>
        <time>2019-10-31T08:26:49Z</time>
      </trkpt>
      <trkpt lat="46.75222" lon="5.91718">
        <ele>544.9</ele>
        <time>2019-10-31T08:26:54Z</time>
      </trkpt>
      <trkpt lat="46.75225" lon="5.91712">
        <ele>545.2</ele>
        <time>2019-10-31T08:27:00Z</time>
      </trkpt>
      <trkpt lat="46.75228" lon="5.91706">
        <ele>545.5</ele>
        <time>2019-10-31T08:27:06Z</time>
      </trkpt>
      <trkpt lat="46.75231" lon="5.917">
        <ele>545.7</ele>
        <time>2019-10-31T08:27:11Z</time>
      </trkpt>
      <trkpt lat="46.75234" lon="5.91695">
        <ele>545.9</ele>
        <time>2019-10-31T08:27:16Z</time>
      </trkpt>
      <trkpt lat="46.75237" lon="5.91691">
        <ele>546.1</ele>
        <time>2019-10-31T08:27:21Z</time>
      </trkpt>
      <trkpt lat="46.75241" lon="5.91686">
        <ele>546.5</ele>
        <time>2019-10-31T08:27:26Z</time>
      </trkpt>
      <trkpt lat="46.75246" lon="5.91683">
        <ele>546.7</ele>
        <time>2019-10-31T08:27:31Z</time>
      </trkpt>
      <trkpt lat="46.7525" lon="5.9168">
        <ele>546.9</ele>
        <time>2019-10-31T08:27:35Z</time>
      </trkpt>
      <trkpt lat="46.75254" lon="5.91676">
        <ele>547.1</ele>
        <time>2019-10-31T08:27:40Z</time>
      </trkpt>
      <trkpt lat="46.75261" lon="5.91665">
        <ele>547.4</ele>
        <time>2019-10-31T08:27:52Z</time>
      </trkpt>
      <trkpt lat="46.75262" lon="5.91659">
        <ele>547.5</ele>
        <time>2019-10-31T08:27:56Z</time>
      </trkpt>
      <trkpt lat="46.75265" lon="5.91653">
        <ele>547.8</ele>
        <time>2019-10-31T08:28:01Z</time>
      </trkpt>
      <trkpt lat="46.75269" lon="5.91647">
        <ele>548</ele>
        <time>2019-10-31T08:28:05Z</time>
      </trkpt>
      <trkpt lat="46.75271" lon="5.91641">
        <ele>548.3</ele>
        <time>2019-10-31T08:28:09Z</time>
      </trkpt>
      <trkpt lat="46.75273" lon="5.91635">
        <ele>548.6</ele>
        <time>2019-10-31T08:28:13Z</time>
      </trkpt>
      <trkpt lat="46.75275" lon="5.91628">
        <ele>548.8</ele>
        <time>2019-10-31T08:28:16Z</time>
      </trkpt>
      <trkpt lat="46.75277" lon="5.91621">
        <ele>549.1</ele>
        <time>2019-10-31T08:28:20Z</time>
      </trkpt>
      <trkpt lat="46.7528" lon="5.91615">
        <ele>549.5</ele>
        <time>2019-10-31T08:28:24Z</time>
      </trkpt>
      <trkpt lat="46.75284" lon="5.9161">
        <ele>550</ele>
        <time>2019-10-31T08:28:28Z</time>
      </trkpt>
      <trkpt lat="46.75287" lon="5.91605">
        <ele>550.6</ele>
        <time>2019-10-31T08:28:33Z</time>
      </trkpt>
      <trkpt lat="46.7529" lon="5.91599">
        <ele>551.4</ele>
        <time>2019-10-31T08:28:38Z</time>
      </trkpt>
      <trkpt lat="46.75292" lon="5.91593">
        <ele>552.2</ele>
        <time>2019-10-31T08:28:43Z</time>
      </trkpt>
      <trkpt lat="46.75295" lon="5.91588">
        <ele>552.9</ele>
        <time>2019-10-31T08:28:48Z</time>
      </trkpt>
      <trkpt lat="46.75299" lon="5.91582">
        <ele>553.5</ele>
        <time>2019-10-31T08:28:53Z</time>
      </trkpt>
      <trkpt lat="46.75303" lon="5.91578">
        <ele>554.1</ele>
        <time>2019-10-31T08:28:57Z</time>
      </trkpt>
      <trkpt lat="46.75307" lon="5.91574">
        <ele>554.7</ele>
        <time>2019-10-31T08:29:01Z</time>
      </trkpt>
      <trkpt lat="46.75311" lon="5.9157">
        <ele>555.3</ele>
        <time>2019-10-31T08:29:06Z</time>
      </trkpt>
      <trkpt lat="46.75314" lon="5.91566">
        <ele>555.7</ele>
        <time>2019-10-31T08:29:10Z</time>
      </trkpt>
      <trkpt lat="46.75318" lon="5.91561">
        <ele>556</ele>
        <time>2019-10-31T08:29:14Z</time>
      </trkpt>
      <trkpt lat="46.75322" lon="5.91557">
        <ele>556.3</ele>
        <time>2019-10-31T08:29:19Z</time>
      </trkpt>
      <trkpt lat="46.75326" lon="5.91553">
        <ele>556.6</ele>
        <time>2019-10-31T08:29:23Z</time>
      </trkpt>
      <trkpt lat="46.7533" lon="5.91548">
        <ele>557</ele>
        <time>2019-10-31T08:29:28Z</time>
      </trkpt>
      <trkpt lat="46.75335" lon="5.91544">
        <ele>557.4</ele>
        <time>2019-10-31T08:29:33Z</time>
      </trkpt>
      <trkpt lat="46.7534" lon="5.9154">
        <ele>558.1</ele>
        <time>2019-10-31T08:29:38Z</time>
      </trkpt>
      <trkpt lat="46.75343" lon="5.91536">
        <ele>558.8</ele>
        <time>2019-10-31T08:29:43Z</time>
      </trkpt>
      <trkpt lat="46.75348" lon="5.91532">
        <ele>559.4</ele>
        <time>2019-10-31T08:29:48Z</time>
      </trkpt>
      <trkpt lat="46.75352" lon="5.91527">
        <ele>560</ele>
        <time>2019-10-31T08:29:52Z</time>
      </trkpt>
      <trkpt lat="46.75356" lon="5.91523">
        <ele>560.5</ele>
        <time>2019-10-31T08:29:56Z</time>
      </trkpt>
      <trkpt lat="46.7536" lon="5.91518">
        <ele>560.9</ele>
        <time>2019-10-31T08:30:01Z</time>
      </trkpt>
      <trkpt lat="46.75363" lon="5.91513">
        <ele>561.2</ele>
        <time>2019-10-31T08:30:05Z</time>
      </trkpt>
      <trkpt lat="46.75367" lon="5.91508">
        <ele>561.5</ele>
        <time>2019-10-31T08:30:09Z</time>
      </trkpt>
      <trkpt lat="46.75371" lon="5.91504">
        <ele>562</ele>
        <time>2019-10-31T08:30:13Z</time>
      </trkpt>
      <trkpt lat="46.75375" lon="5.91499">
        <ele>562.6</ele>
        <time>2019-10-31T08:30:18Z</time>
      </trkpt>
      <trkpt lat="46.75378" lon="5.91493">
        <ele>562.9</ele>
        <time>2019-10-31T08:30:23Z</time>
      </trkpt>
      <trkpt lat="46.75382" lon="5.91488">
        <ele>563</ele>
        <time>2019-10-31T08:30:28Z</time>
      </trkpt>
      <trkpt lat="46.75386" lon="5.91482">
        <ele>563</ele>
        <time>2019-10-31T08:30:33Z</time>
      </trkpt>
      <trkpt lat="46.75389" lon="5.91477">
        <ele>563.1</ele>
        <time>2019-10-31T08:30:37Z</time>
      </trkpt>
      <trkpt lat="46.75392" lon="5.9147">
        <ele>563.2</ele>
        <time>2019-10-31T08:30:42Z</time>
      </trkpt>
      <trkpt lat="46.75395" lon="5.91464">
        <ele>563.3</ele>
        <time>2019-10-31T08:30:47Z</time>
      </trkpt>
      <trkpt lat="46.75399" lon="5.9146">
        <ele>563.6</ele>
        <time>2019-10-31T08:30:52Z</time>
      </trkpt>
      <trkpt lat="46.75403" lon="5.91455">
        <ele>563.9</ele>
        <time>2019-10-31T08:30:58Z</time>
      </trkpt>
      <trkpt lat="46.75407" lon="5.9145">
        <ele>564.3</ele>
        <time>2019-10-31T08:31:03Z</time>
      </trkpt>
      <trkpt lat="46.7541" lon="5.91444">
        <ele>564.8</ele>
        <time>2019-10-31T08:31:08Z</time>
      </trkpt>
      <trkpt lat="46.75413" lon="5.91438">
        <ele>565.2</ele>
        <time>2019-10-31T08:31:12Z</time>
      </trkpt>
      <trkpt lat="46.75416" lon="5.91433">
        <ele>565.5</ele>
        <time>2019-10-31T08:31:16Z</time>
      </trkpt>
      <trkpt lat="46.75419" lon="5.91428">
        <ele>565.8</ele>
        <time>2019-10-31T08:31:21Z</time>
      </trkpt>
      <trkpt lat="46.75421" lon="5.91421">
        <ele>565.9</ele>
        <time>2019-10-31T08:31:25Z</time>
      </trkpt>
      <trkpt lat="46.75425" lon="5.91417">
        <ele>566</ele>
        <time>2019-10-31T08:31:29Z</time>
      </trkpt>
      <trkpt lat="46.7543" lon="5.91415">
        <ele>566.3</ele>
        <time>2019-10-31T08:31:34Z</time>
      </trkpt>
      <trkpt lat="46.75435" lon="5.91412">
        <ele>566.6</ele>
        <time>2019-10-31T08:31:40Z</time>
      </trkpt>
      <trkpt lat="46.75439" lon="5.91408">
        <ele>567</ele>
        <time>2019-10-31T08:31:46Z</time>
      </trkpt>
      <trkpt lat="46.75442" lon="5.91401">
        <ele>567.5</ele>
        <time>2019-10-31T08:31:51Z</time>
      </trkpt>
      <trkpt lat="46.75444" lon="5.91395">
        <ele>567.5</ele>
        <time>2019-10-31T08:31:55Z</time>
      </trkpt>
      <trkpt lat="46.75455" lon="5.91385">
        <ele>566.3</ele>
        <time>2019-10-31T08:32:06Z</time>
      </trkpt>
      <trkpt lat="46.7546" lon="5.91383">
        <ele>566</ele>
        <time>2019-10-31T08:32:10Z</time>
      </trkpt>
      <trkpt lat="46.75465" lon="5.91383">
        <ele>565.7</ele>
        <time>2019-10-31T08:32:15Z</time>
      </trkpt>
      <trkpt lat="46.75469" lon="5.91382">
        <ele>565.6</ele>
        <time>2019-10-31T08:32:21Z</time>
      </trkpt>
      <trkpt lat="46.75473" lon="5.91386">
        <ele>565.6</ele>
        <time>2019-10-31T08:32:28Z</time>
      </trkpt>
      <trkpt lat="46.75478" lon="5.9139">
        <ele>565.5</ele>
        <time>2019-10-31T08:32:33Z</time>
      </trkpt>
      <trkpt lat="46.75481" lon="5.91395">
        <ele>565.4</ele>
        <time>2019-10-31T08:32:39Z</time>
      </trkpt>
      <trkpt lat="46.75483" lon="5.91402">
        <ele>565.6</ele>
        <time>2019-10-31T08:32:46Z</time>
      </trkpt>
      <trkpt lat="46.75484" lon="5.91408">
        <ele>565.9</ele>
        <time>2019-10-31T08:32:51Z</time>
      </trkpt>
      <trkpt lat="46.75485" lon="5.91415">
        <ele>566.2</ele>
        <time>2019-10-31T08:32:56Z</time>
      </trkpt>
      <trkpt lat="46.75488" lon="5.91421">
        <ele>566.4</ele>
        <time>2019-10-31T08:33:02Z</time>
      </trkpt>
      <trkpt lat="46.75491" lon="5.91427">
        <ele>566.2</ele>
        <time>2019-10-31T08:33:08Z</time>
      </trkpt>
      <trkpt lat="46.75493" lon="5.91433">
        <ele>566</ele>
        <time>2019-10-31T08:33:14Z</time>
      </trkpt>
      <trkpt lat="46.75494" lon="5.9144">
        <ele>566</ele>
        <time>2019-10-31T08:33:21Z</time>
      </trkpt>
      <trkpt lat="46.75491" lon="5.91445">
        <ele>566.1</ele>
        <time>2019-10-31T08:33:29Z</time>
      </trkpt>
      <trkpt lat="46.75487" lon="5.91448">
        <ele>566.5</ele>
        <time>2019-10-31T08:33:36Z</time>
      </trkpt>
      <trkpt lat="46.75482" lon="5.91447">
        <ele>566.5</ele>
        <time>2019-10-31T08:33:43Z</time>
      </trkpt>
      <trkpt lat="46.75478" lon="5.91441">
        <ele>566.6</ele>
        <time>2019-10-31T08:33:50Z</time>
      </trkpt>
      <trkpt lat="46.75474" lon="5.91437">
        <ele>566.8</ele>
        <time>2019-10-31T08:33:54Z</time>
      </trkpt>
      <trkpt lat="46.7547" lon="5.91432">
        <ele>567.3</ele>
        <time>2019-10-31T08:33:58Z</time>
      </trkpt>
      <trkpt lat="46.75466" lon="5.91427">
        <ele>568</ele>
        <time>2019-10-31T08:34:02Z</time>
      </trkpt>
      <trkpt lat="46.75461" lon="5.91427">
        <ele>569.3</ele>
        <time>2019-10-31T08:34:10Z</time>
      </trkpt>
      <trkpt lat="46.75463" lon="5.91433">
        <ele>570</ele>
        <time>2019-10-31T08:34:19Z</time>
      </trkpt>
      <trkpt lat="46.75467" lon="5.91439">
        <ele>570.4</ele>
        <time>2019-10-31T08:34:25Z</time>
      </trkpt>
      <trkpt lat="46.7547" lon="5.91445">
        <ele>570.7</ele>
        <time>2019-10-31T08:34:30Z</time>
      </trkpt>
      <trkpt lat="46.75472" lon="5.9145">
        <ele>571.2</ele>
        <time>2019-10-31T08:34:35Z</time>
      </trkpt>
      <trkpt lat="46.75475" lon="5.91456">
        <ele>571.7</ele>
        <time>2019-10-31T08:34:41Z</time>
      </trkpt>
      <trkpt lat="46.75479" lon="5.91462">
        <ele>572.2</ele>
        <time>2019-10-31T08:34:46Z</time>
      </trkpt>
      <trkpt lat="46.75483" lon="5.91467">
        <ele>572.6</ele>
        <time>2019-10-31T08:34:50Z</time>
      </trkpt>
      <trkpt lat="46.75487" lon="5.91471">
        <ele>573.1</ele>
        <time>2019-10-31T08:34:54Z</time>
      </trkpt>
      <trkpt lat="46.75492" lon="5.91473">
        <ele>573.9</ele>
        <time>2019-10-31T08:34:59Z</time>
      </trkpt>
      <trkpt lat="46.75497" lon="5.91476">
        <ele>574.6</ele>
        <time>2019-10-31T08:35:06Z</time>
      </trkpt>
      <trkpt lat="46.75501" lon="5.91476">
        <ele>575.8</ele>
        <time>2019-10-31T08:35:14Z</time>
      </trkpt>
      <trkpt lat="46.75507" lon="5.91476">
        <ele>576.5</ele>
        <time>2019-10-31T08:35:19Z</time>
      </trkpt>
      <trkpt lat="46.75512" lon="5.91474">
        <ele>577</ele>
        <time>2019-10-31T08:35:23Z</time>
      </trkpt>
      <trkpt lat="46.75516" lon="5.91474">
        <ele>577.6</ele>
        <time>2019-10-31T08:35:27Z</time>
      </trkpt>
      <trkpt lat="46.75522" lon="5.91473">
        <ele>578.7</ele>
        <time>2019-10-31T08:35:36Z</time>
      </trkpt>
      <trkpt lat="46.75527" lon="5.91473">
        <ele>579.5</ele>
        <time>2019-10-31T08:35:43Z</time>
      </trkpt>
      <trkpt lat="46.75532" lon="5.91473">
        <ele>580.4</ele>
        <time>2019-10-31T08:35:49Z</time>
      </trkpt>
      <trkpt lat="46.75536" lon="5.91472">
        <ele>581.1</ele>
        <time>2019-10-31T08:35:54Z</time>
      </trkpt>
      <trkpt lat="46.75541" lon="5.91471">
        <ele>581.5</ele>
        <time>2019-10-31T08:35:59Z</time>
      </trkpt>
      <trkpt lat="46.75546" lon="5.91471">
        <ele>582</ele>
        <time>2019-10-31T08:36:06Z</time>
      </trkpt>
      <trkpt lat="46.75551" lon="5.91474">
        <ele>582.3</ele>
        <time>2019-10-31T08:36:11Z</time>
      </trkpt>
      <trkpt lat="46.75556" lon="5.91472">
        <ele>582.8</ele>
        <time>2019-10-31T08:36:16Z</time>
      </trkpt>
      <trkpt lat="46.75561" lon="5.91471">
        <ele>583.1</ele>
        <time>2019-10-31T08:36:20Z</time>
      </trkpt>
      <trkpt lat="46.75566" lon="5.91473">
        <ele>583.3</ele>
        <time>2019-10-31T08:36:26Z</time>
      </trkpt>
      <trkpt lat="46.7557" lon="5.91474">
        <ele>583.5</ele>
        <time>2019-10-31T08:36:31Z</time>
      </trkpt>
      <trkpt lat="46.75575" lon="5.91476">
        <ele>583.7</ele>
        <time>2019-10-31T08:36:35Z</time>
      </trkpt>
      <trkpt lat="46.7558" lon="5.91477">
        <ele>584</ele>
        <time>2019-10-31T08:36:40Z</time>
      </trkpt>
      <trkpt lat="46.75584" lon="5.9148">
        <ele>584.5</ele>
        <time>2019-10-31T08:36:45Z</time>
      </trkpt>
      <trkpt lat="46.75589" lon="5.91482">
        <ele>585.2</ele>
        <time>2019-10-31T08:36:50Z</time>
      </trkpt>
      <trkpt lat="46.75593" lon="5.91484">
        <ele>585.9</ele>
        <time>2019-10-31T08:36:55Z</time>
      </trkpt>
      <trkpt lat="46.75598" lon="5.91486">
        <ele>586.7</ele>
        <time>2019-10-31T08:37:00Z</time>
      </trkpt>
      <trkpt lat="46.75603" lon="5.91487">
        <ele>587.7</ele>
        <time>2019-10-31T08:37:06Z</time>
      </trkpt>
      <trkpt lat="46.75608" lon="5.91489">
        <ele>588.6</ele>
        <time>2019-10-31T08:37:11Z</time>
      </trkpt>
      <trkpt lat="46.75613" lon="5.9149">
        <ele>589.4</ele>
        <time>2019-10-31T08:37:16Z</time>
      </trkpt>
      <trkpt lat="46.75618" lon="5.91492">
        <ele>590</ele>
        <time>2019-10-31T08:37:20Z</time>
      </trkpt>
      <trkpt lat="46.75622" lon="5.91495">
        <ele>590.5</ele>
        <time>2019-10-31T08:37:24Z</time>
      </trkpt>
      <trkpt lat="46.75626" lon="5.91499">
        <ele>590.9</ele>
        <time>2019-10-31T08:37:30Z</time>
      </trkpt>
      <trkpt lat="46.75631" lon="5.91501">
        <ele>591.4</ele>
        <time>2019-10-31T08:37:35Z</time>
      </trkpt>
      <trkpt lat="46.75636" lon="5.91502">
        <ele>591.7</ele>
        <time>2019-10-31T08:37:40Z</time>
      </trkpt>
      <trkpt lat="46.75641" lon="5.91504">
        <ele>591.8</ele>
        <time>2019-10-31T08:37:45Z</time>
      </trkpt>
      <trkpt lat="46.75646" lon="5.91505">
        <ele>591.8</ele>
        <time>2019-10-31T08:37:50Z</time>
      </trkpt>
      <trkpt lat="46.7565" lon="5.91506">
        <ele>591.8</ele>
        <time>2019-10-31T08:37:55Z</time>
      </trkpt>
      <trkpt lat="46.75655" lon="5.91504">
        <ele>591.9</ele>
        <time>2019-10-31T08:38:01Z</time>
      </trkpt>
      <trkpt lat="46.75659" lon="5.91501">
        <ele>592.3</ele>
        <time>2019-10-31T08:38:07Z</time>
      </trkpt>
      <trkpt lat="46.75663" lon="5.91502">
        <ele>593.6</ele>
        <time>2019-10-31T08:38:19Z</time>
      </trkpt>
      <trkpt lat="46.75664" lon="5.91496">
        <ele>597.3</ele>
        <time>2019-10-31T08:39:38Z</time>
      </trkpt>
      <trkpt lat="46.75659" lon="5.91496">
        <ele>599.3</ele>
        <time>2019-10-31T08:40:24Z</time>
      </trkpt>
      <trkpt lat="46.75663" lon="5.91494">
        <ele>597.7</ele>
        <time>2019-10-31T08:40:50Z</time>
      </trkpt>
      <trkpt lat="46.75665" lon="5.91486">
        <ele>597.3</ele>
        <time>2019-10-31T08:40:56Z</time>
      </trkpt>
      <trkpt lat="46.75668" lon="5.9148">
        <ele>596.8</ele>
        <time>2019-10-31T08:41:01Z</time>
      </trkpt>
      <trkpt lat="46.75671" lon="5.91474">
        <ele>596.6</ele>
        <time>2019-10-31T08:41:04Z</time>
      </trkpt>
      <trkpt lat="46.75675" lon="5.9147">
        <ele>596.2</ele>
        <time>2019-10-31T08:41:09Z</time>
      </trkpt>
      <trkpt lat="46.75676" lon="5.91463">
        <ele>595.6</ele>
        <time>2019-10-31T08:41:17Z</time>
      </trkpt>
      <trkpt lat="46.75682" lon="5.91439">
        <ele>592.8</ele>
        <time>2019-10-31T08:41:41Z</time>
      </trkpt>
      <trkpt lat="46.75683" lon="5.91433">
        <ele>591.7</ele>
        <time>2019-10-31T08:41:48Z</time>
      </trkpt>
      <trkpt lat="46.75685" lon="5.91419">
        <ele>589.1</ele>
        <time>2019-10-31T08:42:02Z</time>
      </trkpt>
      <trkpt lat="46.75691" lon="5.91405">
        <ele>587.4</ele>
        <time>2019-10-31T08:42:12Z</time>
      </trkpt>
      <trkpt lat="46.75693" lon="5.91399">
        <ele>587.3</ele>
        <time>2019-10-31T08:42:15Z</time>
      </trkpt>
      <trkpt lat="46.75696" lon="5.91394">
        <ele>587.2</ele>
        <time>2019-10-31T08:42:19Z</time>
      </trkpt>
      <trkpt lat="46.75699" lon="5.91388">
        <ele>587.3</ele>
        <time>2019-10-31T08:42:24Z</time>
      </trkpt>
      <trkpt lat="46.75703" lon="5.91384">
        <ele>587.4</ele>
        <time>2019-10-31T08:42:29Z</time>
      </trkpt>
      <trkpt lat="46.75706" lon="5.91377">
        <ele>587.6</ele>
        <time>2019-10-31T08:42:36Z</time>
      </trkpt>
      <trkpt lat="46.75709" lon="5.91371">
        <ele>587.7</ele>
        <time>2019-10-31T08:42:42Z</time>
      </trkpt>
      <trkpt lat="46.75713" lon="5.91367">
        <ele>588.5</ele>
        <time>2019-10-31T08:42:50Z</time>
      </trkpt>
      <trkpt lat="46.75713" lon="5.9136">
        <ele>588.8</ele>
        <time>2019-10-31T08:42:53Z</time>
      </trkpt>
      <trkpt lat="46.75716" lon="5.91353">
        <ele>589.4</ele>
        <time>2019-10-31T08:42:57Z</time>
      </trkpt>
      <trkpt lat="46.75718" lon="5.91347">
        <ele>590.1</ele>
        <time>2019-10-31T08:43:02Z</time>
      </trkpt>
      <trkpt lat="46.75719" lon="5.9134">
        <ele>590.6</ele>
        <time>2019-10-31T08:43:06Z</time>
      </trkpt>
      <trkpt lat="46.75723" lon="5.91337">
        <ele>590.9</ele>
        <time>2019-10-31T08:43:10Z</time>
      </trkpt>
      <trkpt lat="46.75728" lon="5.91335">
        <ele>590.9</ele>
        <time>2019-10-31T08:43:14Z</time>
      </trkpt>
      <trkpt lat="46.75733" lon="5.91331">
        <ele>590.7</ele>
        <time>2019-10-31T08:43:19Z</time>
      </trkpt>
      <trkpt lat="46.75736" lon="5.91325">
        <ele>590.4</ele>
        <time>2019-10-31T08:43:24Z</time>
      </trkpt>
      <trkpt lat="46.75739" lon="5.9132">
        <ele>589.9</ele>
        <time>2019-10-31T08:43:31Z</time>
      </trkpt>
      <trkpt lat="46.75741" lon="5.91312">
        <ele>589.5</ele>
        <time>2019-10-31T08:43:38Z</time>
      </trkpt>
      <trkpt lat="46.75742" lon="5.91305">
        <ele>589.5</ele>
        <time>2019-10-31T08:43:42Z</time>
      </trkpt>
      <trkpt lat="46.75742" lon="5.91297">
        <ele>589.6</ele>
        <time>2019-10-31T08:43:47Z</time>
      </trkpt>
      <trkpt lat="46.75745" lon="5.91292">
        <ele>589.7</ele>
        <time>2019-10-31T08:43:51Z</time>
      </trkpt>
      <trkpt lat="46.75749" lon="5.91288">
        <ele>589.9</ele>
        <time>2019-10-31T08:43:56Z</time>
      </trkpt>
      <trkpt lat="46.75753" lon="5.91285">
        <ele>590.3</ele>
        <time>2019-10-31T08:44:01Z</time>
      </trkpt>
      <trkpt lat="46.75757" lon="5.91282">
        <ele>590.6</ele>
        <time>2019-10-31T08:44:06Z</time>
      </trkpt>
      <trkpt lat="46.7576" lon="5.91277">
        <ele>590.9</ele>
        <time>2019-10-31T08:44:12Z</time>
      </trkpt>
      <trkpt lat="46.75764" lon="5.91274">
        <ele>590.9</ele>
        <time>2019-10-31T08:44:19Z</time>
      </trkpt>
      <trkpt lat="46.75769" lon="5.91272">
        <ele>591</ele>
        <time>2019-10-31T08:44:23Z</time>
      </trkpt>
      <trkpt lat="46.75774" lon="5.91268">
        <ele>591.3</ele>
        <time>2019-10-31T08:44:27Z</time>
      </trkpt>
      <trkpt lat="46.75778" lon="5.91265">
        <ele>591.6</ele>
        <time>2019-10-31T08:44:32Z</time>
      </trkpt>
      <trkpt lat="46.75783" lon="5.91263">
        <ele>592</ele>
        <time>2019-10-31T08:44:39Z</time>
      </trkpt>
      <trkpt lat="46.75787" lon="5.91261">
        <ele>592.2</ele>
        <time>2019-10-31T08:44:46Z</time>
      </trkpt>
      <trkpt lat="46.75791" lon="5.91256">
        <ele>592.2</ele>
        <time>2019-10-31T08:44:52Z</time>
      </trkpt>
      <trkpt lat="46.75797" lon="5.91255">
        <ele>592.1</ele>
        <time>2019-10-31T08:44:56Z</time>
      </trkpt>
      <trkpt lat="46.75802" lon="5.91255">
        <ele>592.1</ele>
        <time>2019-10-31T08:45:00Z</time>
      </trkpt>
      <trkpt lat="46.75806" lon="5.91253">
        <ele>592.2</ele>
        <time>2019-10-31T08:45:06Z</time>
      </trkpt>
      <trkpt lat="46.75811" lon="5.91251">
        <ele>592.4</ele>
        <time>2019-10-31T08:45:12Z</time>
      </trkpt>
      <trkpt lat="46.75815" lon="5.91246">
        <ele>592.3</ele>
        <time>2019-10-31T08:45:19Z</time>
      </trkpt>
      <trkpt lat="46.75819" lon="5.91241">
        <ele>592.1</ele>
        <time>2019-10-31T08:45:24Z</time>
      </trkpt>
      <trkpt lat="46.75822" lon="5.91235">
        <ele>591.8</ele>
        <time>2019-10-31T08:45:29Z</time>
      </trkpt>
      <trkpt lat="46.75823" lon="5.91228">
        <ele>591.5</ele>
        <time>2019-10-31T08:45:34Z</time>
      </trkpt>
      <trkpt lat="46.75821" lon="5.91222">
        <ele>591.3</ele>
        <time>2019-10-31T08:45:43Z</time>
      </trkpt>
      <trkpt lat="46.75817" lon="5.91218">
        <ele>591.8</ele>
        <time>2019-10-31T08:46:02Z</time>
      </trkpt>
      <trkpt lat="46.75823" lon="5.91219">
        <ele>592.5</ele>
        <time>2019-10-31T08:46:20Z</time>
      </trkpt>
      <trkpt lat="46.75827" lon="5.91216">
        <ele>592.4</ele>
        <time>2019-10-31T08:46:23Z</time>
      </trkpt>
      <trkpt lat="46.75831" lon="5.91213">
        <ele>592.2</ele>
        <time>2019-10-31T08:46:27Z</time>
      </trkpt>
      <trkpt lat="46.75834" lon="5.91208">
        <ele>591.9</ele>
        <time>2019-10-31T08:46:32Z</time>
      </trkpt>
      <trkpt lat="46.75837" lon="5.91202">
        <ele>591.6</ele>
        <time>2019-10-31T08:46:37Z</time>
      </trkpt>
      <trkpt lat="46.75839" lon="5.91196">
        <ele>591</ele>
        <time>2019-10-31T08:46:42Z</time>
      </trkpt>
      <trkpt lat="46.75841" lon="5.91189">
        <ele>590.5</ele>
        <time>2019-10-31T08:46:47Z</time>
      </trkpt>
      <trkpt lat="46.75841" lon="5.91182">
        <ele>589.7</ele>
        <time>2019-10-31T08:46:53Z</time>
      </trkpt>
      <trkpt lat="46.75839" lon="5.91177">
        <ele>589.1</ele>
        <time>2019-10-31T08:46:59Z</time>
      </trkpt>
      <trkpt lat="46.75837" lon="5.9117">
        <ele>588.6</ele>
        <time>2019-10-31T08:47:06Z</time>
      </trkpt>
      <trkpt lat="46.75836" lon="5.91163">
        <ele>588</ele>
        <time>2019-10-31T08:47:16Z</time>
      </trkpt>
      <trkpt lat="46.7584" lon="5.91159">
        <ele>587.8</ele>
        <time>2019-10-31T08:47:23Z</time>
      </trkpt>
      <trkpt lat="46.75844" lon="5.91156">
        <ele>587.7</ele>
        <time>2019-10-31T08:47:29Z</time>
      </trkpt>
      <trkpt lat="46.75849" lon="5.91153">
        <ele>587.4</ele>
        <time>2019-10-31T08:47:36Z</time>
      </trkpt>
      <trkpt lat="46.75854" lon="5.91151">
        <ele>587.1</ele>
        <time>2019-10-31T08:47:41Z</time>
      </trkpt>
      <trkpt lat="46.75858" lon="5.91146">
        <ele>586.2</ele>
        <time>2019-10-31T08:47:50Z</time>
      </trkpt>
      <trkpt lat="46.75862" lon="5.91142">
        <ele>583.9</ele>
        <time>2019-10-31T08:48:09Z</time>
      </trkpt>
      <trkpt lat="46.75864" lon="5.91136">
        <ele>583.4</ele>
        <time>2019-10-31T08:48:13Z</time>
      </trkpt>
      <trkpt lat="46.75873" lon="5.9113">
        <ele>581.5</ele>
        <time>2019-10-31T08:48:28Z</time>
      </trkpt>
      <trkpt lat="46.75878" lon="5.9113">
        <ele>581</ele>
        <time>2019-10-31T08:48:33Z</time>
      </trkpt>
      <trkpt lat="46.75882" lon="5.91128">
        <ele>580.5</ele>
        <time>2019-10-31T08:48:38Z</time>
      </trkpt>
      <trkpt lat="46.75887" lon="5.91122">
        <ele>580.1</ele>
        <time>2019-10-31T08:48:42Z</time>
      </trkpt>
      <trkpt lat="46.75891" lon="5.91116">
        <ele>579.6</ele>
        <time>2019-10-31T08:48:47Z</time>
      </trkpt>
      <trkpt lat="46.75894" lon="5.91112">
        <ele>579.1</ele>
        <time>2019-10-31T08:48:51Z</time>
      </trkpt>
      <trkpt lat="46.75898" lon="5.91108">
        <ele>578.5</ele>
        <time>2019-10-31T08:48:56Z</time>
      </trkpt>
      <trkpt lat="46.75904" lon="5.91093">
        <ele>577.1</ele>
        <time>2019-10-31T08:49:09Z</time>
      </trkpt>
      <trkpt lat="46.75906" lon="5.91086">
        <ele>576.9</ele>
        <time>2019-10-31T08:49:13Z</time>
      </trkpt>
      <trkpt lat="46.7591" lon="5.91081">
        <ele>576.5</ele>
        <time>2019-10-31T08:49:17Z</time>
      </trkpt>
      <trkpt lat="46.75929" lon="5.91064">
        <ele>572.2</ele>
        <time>2019-10-31T08:49:42Z</time>
      </trkpt>
      <trkpt lat="46.75933" lon="5.91058">
        <ele>572.3</ele>
        <time>2019-10-31T08:49:44Z</time>
      </trkpt>
      <trkpt lat="46.75937" lon="5.91053">
        <ele>572.6</ele>
        <time>2019-10-31T08:49:48Z</time>
      </trkpt>
      <trkpt lat="46.75943" lon="5.9105">
        <ele>573.5</ele>
        <time>2019-10-31T08:49:54Z</time>
      </trkpt>
      <trkpt lat="46.75947" lon="5.91046">
        <ele>573.9</ele>
        <time>2019-10-31T08:49:56Z</time>
      </trkpt>
      <trkpt lat="46.75951" lon="5.91041">
        <ele>574.6</ele>
        <time>2019-10-31T08:49:59Z</time>
      </trkpt>
      <trkpt lat="46.75955" lon="5.91035">
        <ele>575.7</ele>
        <time>2019-10-31T08:50:03Z</time>
      </trkpt>
      <trkpt lat="46.75959" lon="5.91028">
        <ele>577.8</ele>
        <time>2019-10-31T08:50:11Z</time>
      </trkpt>
      <trkpt lat="46.75963" lon="5.91024">
        <ele>579.3</ele>
        <time>2019-10-31T08:50:17Z</time>
      </trkpt>
      <trkpt lat="46.75967" lon="5.91021">
        <ele>580.7</ele>
        <time>2019-10-31T08:50:22Z</time>
      </trkpt>
      <trkpt lat="46.75971" lon="5.91018">
        <ele>581.2</ele>
        <time>2019-10-31T08:50:24Z</time>
      </trkpt>
      <trkpt lat="46.75976" lon="5.91012">
        <ele>582.2</ele>
        <time>2019-10-31T08:50:28Z</time>
      </trkpt>
      <trkpt lat="46.75979" lon="5.91005">
        <ele>583</ele>
        <time>2019-10-31T08:50:31Z</time>
      </trkpt>
      <trkpt lat="46.75982" lon="5.91">
        <ele>584</ele>
        <time>2019-10-31T08:50:36Z</time>
      </trkpt>
      <trkpt lat="46.75987" lon="5.90997">
        <ele>585.3</ele>
        <time>2019-10-31T08:50:45Z</time>
      </trkpt>
      <trkpt lat="46.75991" lon="5.90994">
        <ele>585.9</ele>
        <time>2019-10-31T08:50:50Z</time>
      </trkpt>
      <trkpt lat="46.75997" lon="5.90991">
        <ele>586.2</ele>
        <time>2019-10-31T08:50:54Z</time>
      </trkpt>
      <trkpt lat="46.76001" lon="5.90988">
        <ele>586.5</ele>
        <time>2019-10-31T08:50:59Z</time>
      </trkpt>
      <trkpt lat="46.76005" lon="5.90985">
        <ele>586.7</ele>
        <time>2019-10-31T08:51:05Z</time>
      </trkpt>
      <trkpt lat="46.7601" lon="5.9098">
        <ele>586.7</ele>
        <time>2019-10-31T08:51:11Z</time>
      </trkpt>
      <trkpt lat="46.76015" lon="5.90979">
        <ele>586.6</ele>
        <time>2019-10-31T08:51:16Z</time>
      </trkpt>
      <trkpt lat="46.76019" lon="5.90982">
        <ele>586.3</ele>
        <time>2019-10-31T08:51:20Z</time>
      </trkpt>
      <trkpt lat="46.76024" lon="5.9098">
        <ele>585.1</ele>
        <time>2019-10-31T08:51:29Z</time>
      </trkpt>
      <trkpt lat="46.76029" lon="5.90979">
        <ele>584.7</ele>
        <time>2019-10-31T08:51:33Z</time>
      </trkpt>
      <trkpt lat="46.76034" lon="5.9098">
        <ele>584.1</ele>
        <time>2019-10-31T08:51:38Z</time>
      </trkpt>
      <trkpt lat="46.76052" lon="5.90974">
        <ele>579.9</ele>
        <time>2019-10-31T08:52:00Z</time>
      </trkpt>
      <trkpt lat="46.76056" lon="5.9097">
        <ele>579.9</ele>
        <time>2019-10-31T08:52:03Z</time>
      </trkpt>
      <trkpt lat="46.76061" lon="5.90967">
        <ele>580</ele>
        <time>2019-10-31T08:52:06Z</time>
      </trkpt>
      <trkpt lat="46.76065" lon="5.90963">
        <ele>580.2</ele>
        <time>2019-10-31T08:52:11Z</time>
      </trkpt>
      <trkpt lat="46.76069" lon="5.90957">
        <ele>580.6</ele>
        <time>2019-10-31T08:52:17Z</time>
      </trkpt>
      <trkpt lat="46.76073" lon="5.90953">
        <ele>580.7</ele>
        <time>2019-10-31T08:52:20Z</time>
      </trkpt>
      <trkpt lat="46.76078" lon="5.90949">
        <ele>580.8</ele>
        <time>2019-10-31T08:52:24Z</time>
      </trkpt>
      <trkpt lat="46.76083" lon="5.90949">
        <ele>580.9</ele>
        <time>2019-10-31T08:52:29Z</time>
      </trkpt>
      <trkpt lat="46.76088" lon="5.9095">
        <ele>580.6</ele>
        <time>2019-10-31T08:52:37Z</time>
      </trkpt>
      <trkpt lat="46.76093" lon="5.90949">
        <ele>580.5</ele>
        <time>2019-10-31T08:52:46Z</time>
      </trkpt>
      <trkpt lat="46.76098" lon="5.90948">
        <ele>580.4</ele>
        <time>2019-10-31T08:52:50Z</time>
      </trkpt>
      <trkpt lat="46.76103" lon="5.90947">
        <ele>580</ele>
        <time>2019-10-31T08:52:57Z</time>
      </trkpt>
      <trkpt lat="46.76108" lon="5.90947">
        <ele>579.8</ele>
        <time>2019-10-31T08:53:04Z</time>
      </trkpt>
      <trkpt lat="46.76121" lon="5.90942">
        <ele>579.7</ele>
        <time>2019-10-31T08:53:19Z</time>
      </trkpt>
      <trkpt lat="46.76124" lon="5.90937">
        <ele>579.7</ele>
        <time>2019-10-31T08:53:25Z</time>
      </trkpt>
      <trkpt lat="46.76128" lon="5.90934">
        <ele>580</ele>
        <time>2019-10-31T08:53:31Z</time>
      </trkpt>
      <trkpt lat="46.76133" lon="5.90933">
        <ele>580.3</ele>
        <time>2019-10-31T08:53:36Z</time>
      </trkpt>
      <trkpt lat="46.76137" lon="5.90932">
        <ele>580.7</ele>
        <time>2019-10-31T08:53:42Z</time>
      </trkpt>
      <trkpt lat="46.76141" lon="5.90927">
        <ele>581.1</ele>
        <time>2019-10-31T08:53:49Z</time>
      </trkpt>
      <trkpt lat="46.76143" lon="5.9092">
        <ele>582</ele>
        <time>2019-10-31T08:53:56Z</time>
      </trkpt>
      <trkpt lat="46.76147" lon="5.90917">
        <ele>582.4</ele>
        <time>2019-10-31T08:54:00Z</time>
      </trkpt>
      <trkpt lat="46.76151" lon="5.90914">
        <ele>583</ele>
        <time>2019-10-31T08:54:07Z</time>
      </trkpt>
      <trkpt lat="46.76155" lon="5.9091">
        <ele>583.4</ele>
        <time>2019-10-31T08:54:14Z</time>
      </trkpt>
      <trkpt lat="46.7616" lon="5.9091">
        <ele>583.7</ele>
        <time>2019-10-31T08:54:19Z</time>
      </trkpt>
      <trkpt lat="46.76165" lon="5.90911">
        <ele>583.8</ele>
        <time>2019-10-31T08:54:22Z</time>
      </trkpt>
      <trkpt lat="46.7617" lon="5.9091">
        <ele>584.1</ele>
        <time>2019-10-31T08:54:27Z</time>
      </trkpt>
      <trkpt lat="46.76178" lon="5.90912">
        <ele>585.7</ele>
        <time>2019-10-31T08:54:42Z</time>
      </trkpt>
      <trkpt lat="46.76183" lon="5.90914">
        <ele>586.5</ele>
        <time>2019-10-31T08:54:49Z</time>
      </trkpt>
      <trkpt lat="46.76187" lon="5.90914">
        <ele>587.2</ele>
        <time>2019-10-31T08:54:53Z</time>
      </trkpt>
      <trkpt lat="46.76193" lon="5.90912">
        <ele>587.9</ele>
        <time>2019-10-31T08:54:57Z</time>
      </trkpt>
      <trkpt lat="46.76197" lon="5.90912">
        <ele>588.9</ele>
        <time>2019-10-31T08:55:04Z</time>
      </trkpt>
      <trkpt lat="46.76203" lon="5.9091">
        <ele>589.6</ele>
        <time>2019-10-31T08:55:10Z</time>
      </trkpt>
      <trkpt lat="46.76208" lon="5.90908">
        <ele>589.9</ele>
        <time>2019-10-31T08:55:15Z</time>
      </trkpt>
      <trkpt lat="46.76213" lon="5.90908">
        <ele>590.3</ele>
        <time>2019-10-31T08:55:20Z</time>
      </trkpt>
      <trkpt lat="46.76218" lon="5.9091">
        <ele>590.7</ele>
        <time>2019-10-31T08:55:26Z</time>
      </trkpt>
      <trkpt lat="46.76222" lon="5.90911">
        <ele>591.4</ele>
        <time>2019-10-31T08:55:34Z</time>
      </trkpt>
      <trkpt lat="46.76227" lon="5.90912">
        <ele>591.9</ele>
        <time>2019-10-31T08:55:39Z</time>
      </trkpt>
      <trkpt lat="46.76232" lon="5.9091">
        <ele>592.7</ele>
        <time>2019-10-31T08:55:48Z</time>
      </trkpt>
      <trkpt lat="46.76237" lon="5.90912">
        <ele>592.9</ele>
        <time>2019-10-31T08:55:52Z</time>
      </trkpt>
      <trkpt lat="46.76241" lon="5.90914">
        <ele>593.5</ele>
        <time>2019-10-31T08:55:59Z</time>
      </trkpt>
      <trkpt lat="46.76246" lon="5.90916">
        <ele>594</ele>
        <time>2019-10-31T08:56:04Z</time>
      </trkpt>
      <trkpt lat="46.7625" lon="5.90919">
        <ele>594.4</ele>
        <time>2019-10-31T08:56:10Z</time>
      </trkpt>
      <trkpt lat="46.7626" lon="5.90921">
        <ele>595.9</ele>
        <time>2019-10-31T08:56:26Z</time>
      </trkpt>
      <trkpt lat="46.76264" lon="5.90922">
        <ele>596.2</ele>
        <time>2019-10-31T08:56:31Z</time>
      </trkpt>
      <trkpt lat="46.7627" lon="5.9092">
        <ele>596.9</ele>
        <time>2019-10-31T08:56:38Z</time>
      </trkpt>
      <trkpt lat="46.76274" lon="5.90921">
        <ele>597.4</ele>
        <time>2019-10-31T08:56:43Z</time>
      </trkpt>
      <trkpt lat="46.76279" lon="5.90923">
        <ele>598.5</ele>
        <time>2019-10-31T08:56:50Z</time>
      </trkpt>
      <trkpt lat="46.76283" lon="5.90925">
        <ele>599.6</ele>
        <time>2019-10-31T08:56:59Z</time>
      </trkpt>
      <trkpt lat="46.76288" lon="5.90924">
        <ele>600.3</ele>
        <time>2019-10-31T08:57:05Z</time>
      </trkpt>
      <trkpt lat="46.76293" lon="5.90926">
        <ele>601</ele>
        <time>2019-10-31T08:57:11Z</time>
      </trkpt>
      <trkpt lat="46.76298" lon="5.90928">
        <ele>601.4</ele>
        <time>2019-10-31T08:57:15Z</time>
      </trkpt>
      <trkpt lat="46.76308" lon="5.90934">
        <ele>602.7</ele>
        <time>2019-10-31T08:57:27Z</time>
      </trkpt>
      <trkpt lat="46.76313" lon="5.90934">
        <ele>603.2</ele>
        <time>2019-10-31T08:57:33Z</time>
      </trkpt>
      <trkpt lat="46.76318" lon="5.90935">
        <ele>603.7</ele>
        <time>2019-10-31T08:57:40Z</time>
      </trkpt>
      <trkpt lat="46.76322" lon="5.90937">
        <ele>604.3</ele>
        <time>2019-10-31T08:57:46Z</time>
      </trkpt>
      <trkpt lat="46.76332" lon="5.90942">
        <ele>605.8</ele>
        <time>2019-10-31T08:57:57Z</time>
      </trkpt>
      <trkpt lat="46.76336" lon="5.90944">
        <ele>606.3</ele>
        <time>2019-10-31T08:58:02Z</time>
      </trkpt>
      <trkpt lat="46.76341" lon="5.90946">
        <ele>606.8</ele>
        <time>2019-10-31T08:58:08Z</time>
      </trkpt>
      <trkpt lat="46.76346" lon="5.90948">
        <ele>607.2</ele>
        <time>2019-10-31T08:58:13Z</time>
      </trkpt>
      <trkpt lat="46.76352" lon="5.90951">
        <ele>607.2</ele>
        <time>2019-10-31T08:58:43Z</time>
      </trkpt>
      <trkpt lat="46.76357" lon="5.90951">
        <ele>607.1</ele>
        <time>2019-10-31T08:58:59Z</time>
      </trkpt>
      <trkpt lat="46.76353" lon="5.90955">
        <ele>607</ele>
        <time>2019-10-31T09:00:15Z</time>
      </trkpt>
      <trkpt lat="46.76356" lon="5.90957">
        <ele>610.1</ele>
        <time>2019-10-31T09:00:53Z</time>
      </trkpt>
      <trkpt lat="46.76361" lon="5.90954">
        <ele>610.8</ele>
        <time>2019-10-31T09:00:59Z</time>
      </trkpt>
      <trkpt lat="46.76365" lon="5.90955">
        <ele>610.9</ele>
        <time>2019-10-31T09:01:02Z</time>
      </trkpt>
      <trkpt lat="46.76372" lon="5.90952">
        <ele>611.2</ele>
        <time>2019-10-31T09:01:06Z</time>
      </trkpt>
      <trkpt lat="46.76377" lon="5.90951">
        <ele>611.8</ele>
        <time>2019-10-31T09:01:12Z</time>
      </trkpt>
      <trkpt lat="46.76376" lon="5.90958">
        <ele>613.6</ele>
        <time>2019-10-31T09:01:32Z</time>
      </trkpt>
      <trkpt lat="46.76373" lon="5.90984">
        <ele>622</ele>
        <time>2019-10-31T09:02:03Z</time>
      </trkpt>
      <trkpt lat="46.76375" lon="5.91013">
        <ele>628</ele>
        <time>2019-10-31T09:02:42Z</time>
      </trkpt>
      <trkpt lat="46.76375" lon="5.9102">
        <ele>629.2</ele>
        <time>2019-10-31T09:02:50Z</time>
      </trkpt>
      <trkpt lat="46.76379" lon="5.91023">
        <ele>629.9</ele>
        <time>2019-10-31T09:03:01Z</time>
      </trkpt>
      <trkpt lat="46.76384" lon="5.91025">
        <ele>630.5</ele>
        <time>2019-10-31T09:03:10Z</time>
      </trkpt>
      <trkpt lat="46.76381" lon="5.91033">
        <ele>632.4</ele>
        <time>2019-10-31T09:03:25Z</time>
      </trkpt>
      <trkpt lat="46.76381" lon="5.9104">
        <ele>636.9</ele>
        <time>2019-10-31T09:03:54Z</time>
      </trkpt>
      <trkpt lat="46.76382" lon="5.91047">
        <ele>640.3</ele>
        <time>2019-10-31T09:04:17Z</time>
      </trkpt>
      <trkpt lat="46.7638" lon="5.91054">
        <ele>641.5</ele>
        <time>2019-10-31T09:04:24Z</time>
      </trkpt>
      <trkpt lat="46.76379" lon="5.91061">
        <ele>642.9</ele>
        <time>2019-10-31T09:04:36Z</time>
      </trkpt>
      <trkpt lat="46.76379" lon="5.91068">
        <ele>643.7</ele>
        <time>2019-10-31T09:04:48Z</time>
      </trkpt>
      <trkpt lat="46.76376" lon="5.91073">
        <ele>643.8</ele>
        <time>2019-10-31T09:04:56Z</time>
      </trkpt>
      <trkpt lat="46.7638" lon="5.91077">
        <ele>644.9</ele>
        <time>2019-10-31T09:05:13Z</time>
      </trkpt>
      <trkpt lat="46.76385" lon="5.91079">
        <ele>645.4</ele>
        <time>2019-10-31T09:05:18Z</time>
      </trkpt>
      <trkpt lat="46.7639" lon="5.9108">
        <ele>646</ele>
        <time>2019-10-31T09:05:24Z</time>
      </trkpt>
      <trkpt lat="46.76394" lon="5.91083">
        <ele>646.5</ele>
        <time>2019-10-31T09:05:32Z</time>
      </trkpt>
      <trkpt lat="46.76399" lon="5.91086">
        <ele>646.7</ele>
        <time>2019-10-31T09:05:35Z</time>
      </trkpt>
      <trkpt lat="46.76403" lon="5.91089">
        <ele>646.8</ele>
        <time>2019-10-31T09:05:40Z</time>
      </trkpt>
      <trkpt lat="46.76408" lon="5.91091">
        <ele>646.5</ele>
        <time>2019-10-31T09:05:45Z</time>
      </trkpt>
      <trkpt lat="46.76413" lon="5.91092">
        <ele>645.7</ele>
        <time>2019-10-31T09:05:52Z</time>
      </trkpt>
      <trkpt lat="46.76427" lon="5.91092">
        <ele>643.1</ele>
        <time>2019-10-31T09:06:11Z</time>
      </trkpt>
      <trkpt lat="46.76432" lon="5.91093">
        <ele>643</ele>
        <time>2019-10-31T09:06:16Z</time>
      </trkpt>
      <trkpt lat="46.76437" lon="5.91096">
        <ele>642.8</ele>
        <time>2019-10-31T09:06:20Z</time>
      </trkpt>
      <trkpt lat="46.76442" lon="5.91098">
        <ele>642.5</ele>
        <time>2019-10-31T09:06:27Z</time>
      </trkpt>
      <trkpt lat="46.76447" lon="5.91097">
        <ele>642</ele>
        <time>2019-10-31T09:06:35Z</time>
      </trkpt>
      <trkpt lat="46.76452" lon="5.91098">
        <ele>641.6</ele>
        <time>2019-10-31T09:06:40Z</time>
      </trkpt>
      <trkpt lat="46.76456" lon="5.91099">
        <ele>641.3</ele>
        <time>2019-10-31T09:06:45Z</time>
      </trkpt>
      <trkpt lat="46.76468" lon="5.91099">
        <ele>640.6</ele>
        <time>2019-10-31T09:07:04Z</time>
      </trkpt>
      <trkpt lat="46.76473" lon="5.91099">
        <ele>642.3</ele>
        <time>2019-10-31T09:07:14Z</time>
      </trkpt>
      <trkpt lat="46.76482" lon="5.91102">
        <ele>646.1</ele>
        <time>2019-10-31T09:07:32Z</time>
      </trkpt>
      <trkpt lat="46.76486" lon="5.91104">
        <ele>646.9</ele>
        <time>2019-10-31T09:07:36Z</time>
      </trkpt>
      <trkpt lat="46.76491" lon="5.91105">
        <ele>647.8</ele>
        <time>2019-10-31T09:07:42Z</time>
      </trkpt>
      <trkpt lat="46.76495" lon="5.91108">
        <ele>648.2</ele>
        <time>2019-10-31T09:07:45Z</time>
      </trkpt>
      <trkpt lat="46.76503" lon="5.91116">
        <ele>648.4</ele>
        <time>2019-10-31T09:07:47Z</time>
      </trkpt>
      <trkpt lat="46.7651" lon="5.91122">
        <ele>648.6</ele>
        <time>2019-10-31T09:07:49Z</time>
      </trkpt>
      <trkpt lat="46.76515" lon="5.91126">
        <ele>648.6</ele>
        <time>2019-10-31T09:07:51Z</time>
      </trkpt>
      <trkpt lat="46.7652" lon="5.91128">
        <ele>648.6</ele>
        <time>2019-10-31T09:07:54Z</time>
      </trkpt>
      <trkpt lat="46.76526" lon="5.91129">
        <ele>648.3</ele>
        <time>2019-10-31T09:07:58Z</time>
      </trkpt>
      <trkpt lat="46.76532" lon="5.91128">
        <ele>648.1</ele>
        <time>2019-10-31T09:08:01Z</time>
      </trkpt>
      <trkpt lat="46.76536" lon="5.91129">
        <ele>647.8</ele>
        <time>2019-10-31T09:08:05Z</time>
      </trkpt>
      <trkpt lat="46.76541" lon="5.91131">
        <ele>647.3</ele>
        <time>2019-10-31T09:08:10Z</time>
      </trkpt>
      <trkpt lat="46.76546" lon="5.91133">
        <ele>647</ele>
        <time>2019-10-31T09:08:14Z</time>
      </trkpt>
      <trkpt lat="46.7655" lon="5.91134">
        <ele>646.8</ele>
        <time>2019-10-31T09:08:18Z</time>
      </trkpt>
      <trkpt lat="46.76554" lon="5.91138">
        <ele>646.4</ele>
        <time>2019-10-31T09:08:24Z</time>
      </trkpt>
      <trkpt lat="46.76557" lon="5.91144">
        <ele>646.3</ele>
        <time>2019-10-31T09:08:27Z</time>
      </trkpt>
      <trkpt lat="46.76561" lon="5.91148">
        <ele>646</ele>
        <time>2019-10-31T09:08:32Z</time>
      </trkpt>
      <trkpt lat="46.76563" lon="5.91153">
        <ele>645.8</ele>
        <time>2019-10-31T09:08:37Z</time>
      </trkpt>
      <trkpt lat="46.76565" lon="5.9116">
        <ele>645.6</ele>
        <time>2019-10-31T09:08:44Z</time>
      </trkpt>
      <trkpt lat="46.76568" lon="5.91165">
        <ele>645.7</ele>
        <time>2019-10-31T09:08:47Z</time>
      </trkpt>
      <trkpt lat="46.76571" lon="5.91171">
        <ele>645.6</ele>
        <time>2019-10-31T09:08:52Z</time>
      </trkpt>
      <trkpt lat="46.76574" lon="5.91177">
        <ele>645.5</ele>
        <time>2019-10-31T09:08:58Z</time>
      </trkpt>
      <trkpt lat="46.76576" lon="5.91184">
        <ele>645.5</ele>
        <time>2019-10-31T09:09:04Z</time>
      </trkpt>
      <trkpt lat="46.76578" lon="5.91191">
        <ele>645.6</ele>
        <time>2019-10-31T09:09:10Z</time>
      </trkpt>
      <trkpt lat="46.7658" lon="5.91197">
        <ele>645.6</ele>
        <time>2019-10-31T09:09:14Z</time>
      </trkpt>
      <trkpt lat="46.76584" lon="5.91202">
        <ele>645.6</ele>
        <time>2019-10-31T09:09:19Z</time>
      </trkpt>
      <trkpt lat="46.76588" lon="5.91205">
        <ele>645.6</ele>
        <time>2019-10-31T09:09:22Z</time>
      </trkpt>
      <trkpt lat="46.76591" lon="5.91211">
        <ele>645.7</ele>
        <time>2019-10-31T09:09:27Z</time>
      </trkpt>
      <trkpt lat="46.76593" lon="5.91218">
        <ele>645.6</ele>
        <time>2019-10-31T09:09:32Z</time>
      </trkpt>
      <trkpt lat="46.76592" lon="5.91225">
        <ele>645.5</ele>
        <time>2019-10-31T09:09:37Z</time>
      </trkpt>
      <trkpt lat="46.7659" lon="5.91232">
        <ele>645.5</ele>
        <time>2019-10-31T09:09:47Z</time>
      </trkpt>
      <trkpt lat="46.76586" lon="5.91236">
        <ele>645.9</ele>
        <time>2019-10-31T09:09:54Z</time>
      </trkpt>
      <trkpt lat="46.76583" lon="5.91243">
        <ele>646</ele>
        <time>2019-10-31T09:10:01Z</time>
      </trkpt>
      <trkpt lat="46.7658" lon="5.91248">
        <ele>646.1</ele>
        <time>2019-10-31T09:10:06Z</time>
      </trkpt>
      <trkpt lat="46.76578" lon="5.91254">
        <ele>646.5</ele>
        <time>2019-10-31T09:10:11Z</time>
      </trkpt>
      <trkpt lat="46.76575" lon="5.91259">
        <ele>647.2</ele>
        <time>2019-10-31T09:10:19Z</time>
      </trkpt>
      <trkpt lat="46.76573" lon="5.91266">
        <ele>647.5</ele>
        <time>2019-10-31T09:10:25Z</time>
      </trkpt>
      <trkpt lat="46.7657" lon="5.91272">
        <ele>647.7</ele>
        <time>2019-10-31T09:10:30Z</time>
      </trkpt>
      <trkpt lat="46.7657" lon="5.91279">
        <ele>648.7</ele>
        <time>2019-10-31T09:10:40Z</time>
      </trkpt>
      <trkpt lat="46.76569" lon="5.91286">
        <ele>650.2</ele>
        <time>2019-10-31T09:11:01Z</time>
      </trkpt>
      <trkpt lat="46.76568" lon="5.91293">
        <ele>650.8</ele>
        <time>2019-10-31T09:11:07Z</time>
      </trkpt>
      <trkpt lat="46.76567" lon="5.913">
        <ele>651.5</ele>
        <time>2019-10-31T09:11:13Z</time>
      </trkpt>
      <trkpt lat="46.76565" lon="5.91307">
        <ele>652.2</ele>
        <time>2019-10-31T09:11:20Z</time>
      </trkpt>
      <trkpt lat="46.76564" lon="5.91313">
        <ele>652.4</ele>
        <time>2019-10-31T09:11:25Z</time>
      </trkpt>
      <trkpt lat="46.76564" lon="5.91321">
        <ele>652.6</ele>
        <time>2019-10-31T09:11:32Z</time>
      </trkpt>
      <trkpt lat="46.76564" lon="5.91327">
        <ele>652.7</ele>
        <time>2019-10-31T09:11:38Z</time>
      </trkpt>
      <trkpt lat="46.76564" lon="5.91334">
        <ele>652.7</ele>
        <time>2019-10-31T09:11:43Z</time>
      </trkpt>
      <trkpt lat="46.76566" lon="5.91341">
        <ele>652.7</ele>
        <time>2019-10-31T09:11:47Z</time>
      </trkpt>
      <trkpt lat="46.76566" lon="5.91348">
        <ele>652.7</ele>
        <time>2019-10-31T09:11:52Z</time>
      </trkpt>
      <trkpt lat="46.76565" lon="5.91355">
        <ele>652.7</ele>
        <time>2019-10-31T09:11:57Z</time>
      </trkpt>
      <trkpt lat="46.76563" lon="5.9137">
        <ele>653</ele>
        <time>2019-10-31T09:12:08Z</time>
      </trkpt>
      <trkpt lat="46.76563" lon="5.91378">
        <ele>653.1</ele>
        <time>2019-10-31T09:12:13Z</time>
      </trkpt>
      <trkpt lat="46.76563" lon="5.91385">
        <ele>653.3</ele>
        <time>2019-10-31T09:12:19Z</time>
      </trkpt>
      <trkpt lat="46.76564" lon="5.91392">
        <ele>653.6</ele>
        <time>2019-10-31T09:12:24Z</time>
      </trkpt>
      <trkpt lat="46.76565" lon="5.91399">
        <ele>654.1</ele>
        <time>2019-10-31T09:12:30Z</time>
      </trkpt>
      <trkpt lat="46.76567" lon="5.91405">
        <ele>654.6</ele>
        <time>2019-10-31T09:12:35Z</time>
      </trkpt>
      <trkpt lat="46.76568" lon="5.91412">
        <ele>655.2</ele>
        <time>2019-10-31T09:12:41Z</time>
      </trkpt>
      <trkpt lat="46.76568" lon="5.91419">
        <ele>655.8</ele>
        <time>2019-10-31T09:12:47Z</time>
      </trkpt>
      <trkpt lat="46.7657" lon="5.91427">
        <ele>656.1</ele>
        <time>2019-10-31T09:12:52Z</time>
      </trkpt>
      <trkpt lat="46.7657" lon="5.91434">
        <ele>656.4</ele>
        <time>2019-10-31T09:12:57Z</time>
      </trkpt>
      <trkpt lat="46.76568" lon="5.91442">
        <ele>656.6</ele>
        <time>2019-10-31T09:13:02Z</time>
      </trkpt>
      <trkpt lat="46.76568" lon="5.91448">
        <ele>657</ele>
        <time>2019-10-31T09:13:07Z</time>
      </trkpt>
      <trkpt lat="46.76568" lon="5.91455">
        <ele>657.3</ele>
        <time>2019-10-31T09:13:11Z</time>
      </trkpt>
      <trkpt lat="46.76567" lon="5.91462">
        <ele>657.4</ele>
        <time>2019-10-31T09:13:16Z</time>
      </trkpt>
      <trkpt lat="46.76568" lon="5.91478">
        <ele>657.4</ele>
        <time>2019-10-31T09:13:27Z</time>
      </trkpt>
      <trkpt lat="46.76568" lon="5.91485">
        <ele>657.5</ele>
        <time>2019-10-31T09:13:32Z</time>
      </trkpt>
      <trkpt lat="46.76568" lon="5.91492">
        <ele>657.6</ele>
        <time>2019-10-31T09:13:38Z</time>
      </trkpt>
      <trkpt lat="46.76568" lon="5.915">
        <ele>657.6</ele>
        <time>2019-10-31T09:13:43Z</time>
      </trkpt>
      <trkpt lat="46.76568" lon="5.91508">
        <ele>657.8</ele>
        <time>2019-10-31T09:13:50Z</time>
      </trkpt>
      <trkpt lat="46.76568" lon="5.91515">
        <ele>658.1</ele>
        <time>2019-10-31T09:13:55Z</time>
      </trkpt>
      <trkpt lat="46.76567" lon="5.91522">
        <ele>658.4</ele>
        <time>2019-10-31T09:14:01Z</time>
      </trkpt>
      <trkpt lat="46.76567" lon="5.9153">
        <ele>658.5</ele>
        <time>2019-10-31T09:14:06Z</time>
      </trkpt>
      <trkpt lat="46.76565" lon="5.91536">
        <ele>658.5</ele>
        <time>2019-10-31T09:14:09Z</time>
      </trkpt>
      <trkpt lat="46.76562" lon="5.91543">
        <ele>658.6</ele>
        <time>2019-10-31T09:14:13Z</time>
      </trkpt>
      <trkpt lat="46.76562" lon="5.91551">
        <ele>658.6</ele>
        <time>2019-10-31T09:14:18Z</time>
      </trkpt>
      <trkpt lat="46.7656" lon="5.91558">
        <ele>658.6</ele>
        <time>2019-10-31T09:14:23Z</time>
      </trkpt>
      <trkpt lat="46.76558" lon="5.91565">
        <ele>658.8</ele>
        <time>2019-10-31T09:14:29Z</time>
      </trkpt>
      <trkpt lat="46.76551" lon="5.91581">
        <ele>659</ele>
        <time>2019-10-31T09:14:37Z</time>
      </trkpt>
      <trkpt lat="46.76549" lon="5.91598">
        <ele>659</ele>
        <time>2019-10-31T09:14:50Z</time>
      </trkpt>
      <trkpt lat="46.7655" lon="5.91606">
        <ele>659</ele>
        <time>2019-10-31T09:14:56Z</time>
      </trkpt>
      <trkpt lat="46.7655" lon="5.91613">
        <ele>658.9</ele>
        <time>2019-10-31T09:15:01Z</time>
      </trkpt>
      <trkpt lat="46.76549" lon="5.9162">
        <ele>658.8</ele>
        <time>2019-10-31T09:15:06Z</time>
      </trkpt>
      <trkpt lat="46.76548" lon="5.91626">
        <ele>658.6</ele>
        <time>2019-10-31T09:15:16Z</time>
      </trkpt>
      <trkpt lat="46.76543" lon="5.91657">
        <ele>660.1</ele>
        <time>2019-10-31T09:15:39Z</time>
      </trkpt>
      <trkpt lat="46.76544" lon="5.91665">
        <ele>660.4</ele>
        <time>2019-10-31T09:15:47Z</time>
      </trkpt>
      <trkpt lat="46.76545" lon="5.91672">
        <ele>660.6</ele>
        <time>2019-10-31T09:15:49Z</time>
      </trkpt>
      <trkpt lat="46.76547" lon="5.9168">
        <ele>660.9</ele>
        <time>2019-10-31T09:15:51Z</time>
      </trkpt>
      <trkpt lat="46.76547" lon="5.91688">
        <ele>662.6</ele>
        <time>2019-10-31T09:15:58Z</time>
      </trkpt>
      <trkpt lat="46.76547" lon="5.91695">
        <ele>663.5</ele>
        <time>2019-10-31T09:16:01Z</time>
      </trkpt>
      <trkpt lat="46.76545" lon="5.91703">
        <ele>664.1</ele>
        <time>2019-10-31T09:16:03Z</time>
      </trkpt>
      <trkpt lat="46.76545" lon="5.91711">
        <ele>665.1</ele>
        <time>2019-10-31T09:16:06Z</time>
      </trkpt>
      <trkpt lat="46.76543" lon="5.91733">
        <ele>671.2</ele>
        <time>2019-10-31T09:16:28Z</time>
      </trkpt>
      <trkpt lat="46.76541" lon="5.9174">
        <ele>671.6</ele>
        <time>2019-10-31T09:16:32Z</time>
      </trkpt>
      <trkpt lat="46.7654" lon="5.91748">
        <ele>672.2</ele>
        <time>2019-10-31T09:16:37Z</time>
      </trkpt>
      <trkpt lat="46.76538" lon="5.91755">
        <ele>672.7</ele>
        <time>2019-10-31T09:16:42Z</time>
      </trkpt>
      <trkpt lat="46.76537" lon="5.91762">
        <ele>673.1</ele>
        <time>2019-10-31T09:16:47Z</time>
      </trkpt>
      <trkpt lat="46.76539" lon="5.9177">
        <ele>673.5</ele>
        <time>2019-10-31T09:16:51Z</time>
      </trkpt>
      <trkpt lat="46.76541" lon="5.91775">
        <ele>674.4</ele>
        <time>2019-10-31T09:16:56Z</time>
      </trkpt>
      <trkpt lat="46.76542" lon="5.918">
        <ele>682.7</ele>
        <time>2019-10-31T09:17:19Z</time>
      </trkpt>
      <trkpt lat="46.76541" lon="5.91808">
        <ele>683.3</ele>
        <time>2019-10-31T09:17:23Z</time>
      </trkpt>
      <trkpt lat="46.76544" lon="5.91814">
        <ele>683.7</ele>
        <time>2019-10-31T09:17:25Z</time>
      </trkpt>
      <trkpt lat="46.76543" lon="5.91834">
        <ele>686.5</ele>
        <time>2019-10-31T09:17:33Z</time>
      </trkpt>
      <trkpt lat="46.76542" lon="5.91841">
        <ele>687.5</ele>
        <time>2019-10-31T09:17:39Z</time>
      </trkpt>
      <trkpt lat="46.76541" lon="5.91849">
        <ele>688.3</ele>
        <time>2019-10-31T09:17:46Z</time>
      </trkpt>
      <trkpt lat="46.76539" lon="5.91856">
        <ele>688.8</ele>
        <time>2019-10-31T09:17:51Z</time>
      </trkpt>
      <trkpt lat="46.76534" lon="5.91861">
        <ele>688.4</ele>
        <time>2019-10-31T09:18:29Z</time>
      </trkpt>
      <trkpt lat="46.76533" lon="5.91868">
        <ele>688.2</ele>
        <time>2019-10-31T09:18:35Z</time>
      </trkpt>
      <trkpt lat="46.76532" lon="5.91878">
        <ele>688</ele>
        <time>2019-10-31T09:18:38Z</time>
      </trkpt>
      <trkpt lat="46.76529" lon="5.91887">
        <ele>688</ele>
        <time>2019-10-31T09:18:40Z</time>
      </trkpt>
      <trkpt lat="46.76527" lon="5.91894">
        <ele>688</ele>
        <time>2019-10-31T09:18:44Z</time>
      </trkpt>
      <trkpt lat="46.76525" lon="5.91902">
        <ele>688.2</ele>
        <time>2019-10-31T09:18:48Z</time>
      </trkpt>
      <trkpt lat="46.76523" lon="5.91908">
        <ele>688.9</ele>
        <time>2019-10-31T09:18:54Z</time>
      </trkpt>
      <trkpt lat="46.76522" lon="5.91919">
        <ele>691.7</ele>
        <time>2019-10-31T09:19:04Z</time>
      </trkpt>
      <trkpt lat="46.76521" lon="5.91926">
        <ele>693.1</ele>
        <time>2019-10-31T09:19:10Z</time>
      </trkpt>
      <trkpt lat="46.76522" lon="5.91934">
        <ele>693.9</ele>
        <time>2019-10-31T09:19:14Z</time>
      </trkpt>
      <trkpt lat="46.76521" lon="5.91942">
        <ele>694.6</ele>
        <time>2019-10-31T09:19:18Z</time>
      </trkpt>
      <trkpt lat="46.76521" lon="5.91949">
        <ele>695.4</ele>
        <time>2019-10-31T09:19:24Z</time>
      </trkpt>
      <trkpt lat="46.76519" lon="5.91956">
        <ele>696.6</ele>
        <time>2019-10-31T09:19:30Z</time>
      </trkpt>
      <trkpt lat="46.76517" lon="5.91962">
        <ele>698.3</ele>
        <time>2019-10-31T09:19:37Z</time>
      </trkpt>
      <trkpt lat="46.76516" lon="5.91969">
        <ele>699</ele>
        <time>2019-10-31T09:19:41Z</time>
      </trkpt>
      <trkpt lat="46.76513" lon="5.91981">
        <ele>690.6</ele>
        <time>2019-10-31T09:21:18Z</time>
      </trkpt>
      <trkpt lat="46.76514" lon="5.91997">
        <ele>686.5</ele>
        <time>2019-10-31T09:21:32Z</time>
      </trkpt>
      <trkpt lat="46.76514" lon="5.92005">
        <ele>685.3</ele>
        <time>2019-10-31T09:21:39Z</time>
      </trkpt>
      <trkpt lat="46.76509" lon="5.92014">
        <ele>683.4</ele>
        <time>2019-10-31T09:21:46Z</time>
      </trkpt>
      <trkpt lat="46.76507" lon="5.92022">
        <ele>683.1</ele>
        <time>2019-10-31T09:21:49Z</time>
      </trkpt>
      <trkpt lat="46.76506" lon="5.92029">
        <ele>682.9</ele>
        <time>2019-10-31T09:21:53Z</time>
      </trkpt>
      <trkpt lat="46.76504" lon="5.92038">
        <ele>683</ele>
        <time>2019-10-31T09:21:57Z</time>
      </trkpt>
      <trkpt lat="46.76504" lon="5.92045">
        <ele>683.5</ele>
        <time>2019-10-31T09:22:09Z</time>
      </trkpt>
      <trkpt lat="46.76502" lon="5.92055">
        <ele>683.9</ele>
        <time>2019-10-31T09:22:14Z</time>
      </trkpt>
      <trkpt lat="46.76506" lon="5.92097">
        <ele>684.8</ele>
        <time>2019-10-31T09:22:40Z</time>
      </trkpt>
      <trkpt lat="46.76505" lon="5.92104">
        <ele>686.6</ele>
        <time>2019-10-31T09:22:47Z</time>
      </trkpt>
      <trkpt lat="46.76504" lon="5.92112">
        <ele>688.5</ele>
        <time>2019-10-31T09:22:55Z</time>
      </trkpt>
      <trkpt lat="46.76504" lon="5.9212">
        <ele>689.4</ele>
        <time>2019-10-31T09:23:00Z</time>
      </trkpt>
      <trkpt lat="46.76503" lon="5.92128">
        <ele>690.4</ele>
        <time>2019-10-31T09:23:05Z</time>
      </trkpt>
      <trkpt lat="46.76504" lon="5.92135">
        <ele>691</ele>
        <time>2019-10-31T09:23:08Z</time>
      </trkpt>
      <trkpt lat="46.76505" lon="5.92141">
        <ele>691.8</ele>
        <time>2019-10-31T09:23:12Z</time>
      </trkpt>
      <trkpt lat="46.76502" lon="5.92148">
        <ele>692.5</ele>
        <time>2019-10-31T09:23:16Z</time>
      </trkpt>
      <trkpt lat="46.76502" lon="5.92157">
        <ele>693.4</ele>
        <time>2019-10-31T09:23:21Z</time>
      </trkpt>
      <trkpt lat="46.76501" lon="5.92165">
        <ele>693.9</ele>
        <time>2019-10-31T09:23:25Z</time>
      </trkpt>
      <trkpt lat="46.765" lon="5.92172">
        <ele>694.7</ele>
        <time>2019-10-31T09:23:29Z</time>
      </trkpt>
      <trkpt lat="46.76499" lon="5.92178">
        <ele>695.7</ele>
        <time>2019-10-31T09:23:35Z</time>
      </trkpt>
      <trkpt lat="46.76496" lon="5.92185">
        <ele>696.1</ele>
        <time>2019-10-31T09:23:40Z</time>
      </trkpt>
      <trkpt lat="46.76495" lon="5.92192">
        <ele>695.6</ele>
        <time>2019-10-31T09:23:46Z</time>
      </trkpt>
      <trkpt lat="46.76494" lon="5.922">
        <ele>694.7</ele>
        <time>2019-10-31T09:23:52Z</time>
      </trkpt>
      <trkpt lat="46.76494" lon="5.92207">
        <ele>693.3</ele>
        <time>2019-10-31T09:23:59Z</time>
      </trkpt>
      <trkpt lat="46.76494" lon="5.92216">
        <ele>692.4</ele>
        <time>2019-10-31T09:24:06Z</time>
      </trkpt>
      <trkpt lat="46.76493" lon="5.92223">
        <ele>692</ele>
        <time>2019-10-31T09:24:10Z</time>
      </trkpt>
      <trkpt lat="46.76492" lon="5.92231">
        <ele>691.8</ele>
        <time>2019-10-31T09:24:15Z</time>
      </trkpt>
      <trkpt lat="46.7649" lon="5.92237">
        <ele>691.4</ele>
        <time>2019-10-31T09:24:21Z</time>
      </trkpt>
      <trkpt lat="46.76488" lon="5.92244">
        <ele>691.1</ele>
        <time>2019-10-31T09:24:25Z</time>
      </trkpt>
      <trkpt lat="46.76485" lon="5.92254">
        <ele>690.9</ele>
        <time>2019-10-31T09:24:28Z</time>
      </trkpt>
      <trkpt lat="46.76483" lon="5.9226">
        <ele>690.8</ele>
        <time>2019-10-31T09:24:31Z</time>
      </trkpt>
      <trkpt lat="46.76481" lon="5.92267">
        <ele>690.5</ele>
        <time>2019-10-31T09:24:38Z</time>
      </trkpt>
      <trkpt lat="46.7648" lon="5.92275">
        <ele>689.8</ele>
        <time>2019-10-31T09:24:44Z</time>
      </trkpt>
      <trkpt lat="46.7648" lon="5.92282">
        <ele>689.3</ele>
        <time>2019-10-31T09:24:48Z</time>
      </trkpt>
      <trkpt lat="46.76481" lon="5.9229">
        <ele>688.6</ele>
        <time>2019-10-31T09:24:53Z</time>
      </trkpt>
      <trkpt lat="46.76483" lon="5.92296">
        <ele>687</ele>
        <time>2019-10-31T09:25:00Z</time>
      </trkpt>
      <trkpt lat="46.76486" lon="5.923">
        <ele>684.6</ele>
        <time>2019-10-31T09:25:08Z</time>
      </trkpt>
      <trkpt lat="46.7649" lon="5.92303">
        <ele>683</ele>
        <time>2019-10-31T09:25:13Z</time>
      </trkpt>
      <trkpt lat="46.76494" lon="5.92308">
        <ele>681.6</ele>
        <time>2019-10-31T09:25:18Z</time>
      </trkpt>
      <trkpt lat="46.76497" lon="5.92313">
        <ele>679.9</ele>
        <time>2019-10-31T09:25:25Z</time>
      </trkpt>
      <trkpt lat="46.765" lon="5.92318">
        <ele>678.7</ele>
        <time>2019-10-31T09:25:30Z</time>
      </trkpt>
      <trkpt lat="46.76504" lon="5.92323">
        <ele>677.3</ele>
        <time>2019-10-31T09:25:36Z</time>
      </trkpt>
      <trkpt lat="46.76506" lon="5.92329">
        <ele>676.1</ele>
        <time>2019-10-31T09:25:41Z</time>
      </trkpt>
      <trkpt lat="46.76509" lon="5.92335">
        <ele>675.1</ele>
        <time>2019-10-31T09:25:45Z</time>
      </trkpt>
      <trkpt lat="46.76512" lon="5.92341">
        <ele>673.6</ele>
        <time>2019-10-31T09:25:51Z</time>
      </trkpt>
      <trkpt lat="46.76516" lon="5.92347">
        <ele>672.3</ele>
        <time>2019-10-31T09:25:57Z</time>
      </trkpt>
      <trkpt lat="46.7652" lon="5.92351">
        <ele>671.2</ele>
        <time>2019-10-31T09:26:02Z</time>
      </trkpt>
      <trkpt lat="46.76539" lon="5.92378">
        <ele>666.4</ele>
        <time>2019-10-31T09:26:25Z</time>
      </trkpt>
      <trkpt lat="46.76543" lon="5.92382">
        <ele>666.1</ele>
        <time>2019-10-31T09:26:28Z</time>
      </trkpt>
      <trkpt lat="46.76546" lon="5.92387">
        <ele>665.4</ele>
        <time>2019-10-31T09:26:33Z</time>
      </trkpt>
      <trkpt lat="46.76557" lon="5.92406">
        <ele>661.3</ele>
        <time>2019-10-31T09:26:53Z</time>
      </trkpt>
      <trkpt lat="46.7656" lon="5.92411">
        <ele>660</ele>
        <time>2019-10-31T09:27:01Z</time>
      </trkpt>
      <trkpt lat="46.76563" lon="5.92417">
        <ele>659.4</ele>
        <time>2019-10-31T09:27:05Z</time>
      </trkpt>
      <trkpt lat="46.76567" lon="5.92424">
        <ele>659</ele>
        <time>2019-10-31T09:27:10Z</time>
      </trkpt>
      <trkpt lat="46.7657" lon="5.92429">
        <ele>658.9</ele>
        <time>2019-10-31T09:27:12Z</time>
      </trkpt>
      <trkpt lat="46.76575" lon="5.92433">
        <ele>658.7</ele>
        <time>2019-10-31T09:27:15Z</time>
      </trkpt>
      <trkpt lat="46.76578" lon="5.92437">
        <ele>658.4</ele>
        <time>2019-10-31T09:27:19Z</time>
      </trkpt>
      <trkpt lat="46.76582" lon="5.92442">
        <ele>658.2</ele>
        <time>2019-10-31T09:27:25Z</time>
      </trkpt>
      <trkpt lat="46.76586" lon="5.92446">
        <ele>658.3</ele>
        <time>2019-10-31T09:27:31Z</time>
      </trkpt>
      <trkpt lat="46.76589" lon="5.92451">
        <ele>658.1</ele>
        <time>2019-10-31T09:27:36Z</time>
      </trkpt>
      <trkpt lat="46.76593" lon="5.92456">
        <ele>657.9</ele>
        <time>2019-10-31T09:27:39Z</time>
      </trkpt>
      <trkpt lat="46.76597" lon="5.9246">
        <ele>657.9</ele>
        <time>2019-10-31T09:27:45Z</time>
      </trkpt>
      <trkpt lat="46.76602" lon="5.92463">
        <ele>657.9</ele>
        <time>2019-10-31T09:27:51Z</time>
      </trkpt>
      <trkpt lat="46.76607" lon="5.92465">
        <ele>658</ele>
        <time>2019-10-31T09:27:58Z</time>
      </trkpt>
      <trkpt lat="46.7662" lon="5.9247">
        <ele>659.2</ele>
        <time>2019-10-31T09:28:13Z</time>
      </trkpt>
      <trkpt lat="46.76626" lon="5.9247">
        <ele>659.2</ele>
        <time>2019-10-31T09:28:17Z</time>
      </trkpt>
      <trkpt lat="46.76631" lon="5.9247">
        <ele>659.2</ele>
        <time>2019-10-31T09:28:21Z</time>
      </trkpt>
      <trkpt lat="46.76636" lon="5.92469">
        <ele>659.6</ele>
        <time>2019-10-31T09:28:29Z</time>
      </trkpt>
      <trkpt lat="46.76641" lon="5.92468">
        <ele>659.6</ele>
        <time>2019-10-31T09:28:36Z</time>
      </trkpt>
      <trkpt lat="46.76646" lon="5.92468">
        <ele>659.3</ele>
        <time>2019-10-31T09:28:40Z</time>
      </trkpt>
      <trkpt lat="46.76651" lon="5.92468">
        <ele>658.6</ele>
        <time>2019-10-31T09:28:45Z</time>
      </trkpt>
      <trkpt lat="46.76656" lon="5.92467">
        <ele>657.5</ele>
        <time>2019-10-31T09:28:51Z</time>
      </trkpt>
      <trkpt lat="46.7666" lon="5.92468">
        <ele>656.5</ele>
        <time>2019-10-31T09:28:56Z</time>
      </trkpt>
      <trkpt lat="46.76665" lon="5.9247">
        <ele>655.3</ele>
        <time>2019-10-31T09:29:02Z</time>
      </trkpt>
      <trkpt lat="46.76669" lon="5.92472">
        <ele>654.1</ele>
        <time>2019-10-31T09:29:07Z</time>
      </trkpt>
      <trkpt lat="46.76675" lon="5.92471">
        <ele>652.8</ele>
        <time>2019-10-31T09:29:12Z</time>
      </trkpt>
      <trkpt lat="46.7668" lon="5.92471">
        <ele>651.2</ele>
        <time>2019-10-31T09:29:17Z</time>
      </trkpt>
      <trkpt lat="46.76694" lon="5.92476">
        <ele>647.3</ele>
        <time>2019-10-31T09:29:30Z</time>
      </trkpt>
      <trkpt lat="46.76699" lon="5.92476">
        <ele>646.8</ele>
        <time>2019-10-31T09:29:34Z</time>
      </trkpt>
      <trkpt lat="46.76704" lon="5.92475">
        <ele>645.9</ele>
        <time>2019-10-31T09:29:39Z</time>
      </trkpt>
      <trkpt lat="46.76708" lon="5.92474">
        <ele>644.8</ele>
        <time>2019-10-31T09:29:45Z</time>
      </trkpt>
      <trkpt lat="46.76714" lon="5.92475">
        <ele>643.9</ele>
        <time>2019-10-31T09:29:50Z</time>
      </trkpt>
      <trkpt lat="46.76718" lon="5.92474">
        <ele>643.4</ele>
        <time>2019-10-31T09:29:53Z</time>
      </trkpt>
      <trkpt lat="46.76724" lon="5.92474">
        <ele>642.8</ele>
        <time>2019-10-31T09:29:57Z</time>
      </trkpt>
      <trkpt lat="46.76729" lon="5.92473">
        <ele>642</ele>
        <time>2019-10-31T09:30:02Z</time>
      </trkpt>
      <trkpt lat="46.76734" lon="5.92471">
        <ele>641.4</ele>
        <time>2019-10-31T09:30:06Z</time>
      </trkpt>
      <trkpt lat="46.76739" lon="5.9247">
        <ele>641</ele>
        <time>2019-10-31T09:30:09Z</time>
      </trkpt>
      <trkpt lat="46.76743" lon="5.92469">
        <ele>640.5</ele>
        <time>2019-10-31T09:30:13Z</time>
      </trkpt>
      <trkpt lat="46.76749" lon="5.9247">
        <ele>640</ele>
        <time>2019-10-31T09:30:19Z</time>
      </trkpt>
      <trkpt lat="46.76752" lon="5.92474">
        <ele>639.5</ele>
        <time>2019-10-31T09:30:25Z</time>
      </trkpt>
      <trkpt lat="46.76756" lon="5.92479">
        <ele>639</ele>
        <time>2019-10-31T09:30:30Z</time>
      </trkpt>
      <trkpt lat="46.76761" lon="5.92481">
        <ele>638.2</ele>
        <time>2019-10-31T09:30:35Z</time>
      </trkpt>
      <trkpt lat="46.76766" lon="5.92483">
        <ele>637.3</ele>
        <time>2019-10-31T09:30:40Z</time>
      </trkpt>
      <trkpt lat="46.76771" lon="5.92486">
        <ele>636.5</ele>
        <time>2019-10-31T09:30:44Z</time>
      </trkpt>
      <trkpt lat="46.76775" lon="5.92489">
        <ele>635.4</ele>
        <time>2019-10-31T09:30:49Z</time>
      </trkpt>
      <trkpt lat="46.7678" lon="5.92491">
        <ele>634</ele>
        <time>2019-10-31T09:30:55Z</time>
      </trkpt>
      <trkpt lat="46.76784" lon="5.92493">
        <ele>632.6</ele>
        <time>2019-10-31T09:31:02Z</time>
      </trkpt>
      <trkpt lat="46.76789" lon="5.92496">
        <ele>631.7</ele>
        <time>2019-10-31T09:31:07Z</time>
      </trkpt>
      <trkpt lat="46.76793" lon="5.925">
        <ele>631</ele>
        <time>2019-10-31T09:31:11Z</time>
      </trkpt>
      <trkpt lat="46.76797" lon="5.92504">
        <ele>628.8</ele>
        <time>2019-10-31T09:31:31Z</time>
      </trkpt>
      <trkpt lat="46.76796" lon="5.92511">
        <ele>627.3</ele>
        <time>2019-10-31T09:33:06Z</time>
      </trkpt>
      <trkpt lat="46.76793" lon="5.92517">
        <ele>627.3</ele>
        <time>2019-10-31T09:33:11Z</time>
      </trkpt>
      <trkpt lat="46.76791" lon="5.92523">
        <ele>627.6</ele>
        <time>2019-10-31T09:33:16Z</time>
      </trkpt>
      <trkpt lat="46.76789" lon="5.92528">
        <ele>628</ele>
        <time>2019-10-31T09:33:22Z</time>
      </trkpt>
      <trkpt lat="46.76785" lon="5.92532">
        <ele>628.7</ele>
        <time>2019-10-31T09:33:27Z</time>
      </trkpt>
      <trkpt lat="46.76781" lon="5.92536">
        <ele>629.2</ele>
        <time>2019-10-31T09:33:33Z</time>
      </trkpt>
      <trkpt lat="46.76777" lon="5.92539">
        <ele>629.5</ele>
        <time>2019-10-31T09:33:37Z</time>
      </trkpt>
      <trkpt lat="46.76774" lon="5.92543">
        <ele>629.8</ele>
        <time>2019-10-31T09:33:42Z</time>
      </trkpt>
      <trkpt lat="46.7677" lon="5.9255">
        <ele>629.9</ele>
        <time>2019-10-31T09:33:47Z</time>
      </trkpt>
      <trkpt lat="46.76767" lon="5.92555">
        <ele>629.9</ele>
        <time>2019-10-31T09:33:52Z</time>
      </trkpt>
      <trkpt lat="46.76763" lon="5.9256">
        <ele>629.8</ele>
        <time>2019-10-31T09:34:00Z</time>
      </trkpt>
      <trkpt lat="46.76761" lon="5.92567">
        <ele>629.9</ele>
        <time>2019-10-31T09:34:06Z</time>
      </trkpt>
      <trkpt lat="46.76758" lon="5.92572">
        <ele>630</ele>
        <time>2019-10-31T09:34:11Z</time>
      </trkpt>
      <trkpt lat="46.76754" lon="5.92578">
        <ele>630.4</ele>
        <time>2019-10-31T09:34:17Z</time>
      </trkpt>
      <trkpt lat="46.76752" lon="5.92583">
        <ele>631</ele>
        <time>2019-10-31T09:34:23Z</time>
      </trkpt>
      <trkpt lat="46.76749" lon="5.9259">
        <ele>631.9</ele>
        <time>2019-10-31T09:34:30Z</time>
      </trkpt>
      <trkpt lat="46.76748" lon="5.92597">
        <ele>632.6</ele>
        <time>2019-10-31T09:34:35Z</time>
      </trkpt>
      <trkpt lat="46.76746" lon="5.92604">
        <ele>633.2</ele>
        <time>2019-10-31T09:34:40Z</time>
      </trkpt>
      <trkpt lat="46.76745" lon="5.9261">
        <ele>633.7</ele>
        <time>2019-10-31T09:34:45Z</time>
      </trkpt>
      <trkpt lat="46.76741" lon="5.92615">
        <ele>634.1</ele>
        <time>2019-10-31T09:34:49Z</time>
      </trkpt>
      <trkpt lat="46.76739" lon="5.92622">
        <ele>634.6</ele>
        <time>2019-10-31T09:34:55Z</time>
      </trkpt>
      <trkpt lat="46.76737" lon="5.9263">
        <ele>635</ele>
        <time>2019-10-31T09:35:00Z</time>
      </trkpt>
      <trkpt lat="46.76734" lon="5.92636">
        <ele>635.2</ele>
        <time>2019-10-31T09:35:04Z</time>
      </trkpt>
      <trkpt lat="46.76732" lon="5.92642">
        <ele>635.3</ele>
        <time>2019-10-31T09:35:08Z</time>
      </trkpt>
      <trkpt lat="46.7673" lon="5.92648">
        <ele>635.4</ele>
        <time>2019-10-31T09:35:14Z</time>
      </trkpt>
      <trkpt lat="46.76728" lon="5.92656">
        <ele>635.4</ele>
        <time>2019-10-31T09:35:20Z</time>
      </trkpt>
      <trkpt lat="46.76729" lon="5.92663">
        <ele>635.5</ele>
        <time>2019-10-31T09:35:26Z</time>
      </trkpt>
      <trkpt lat="46.76726" lon="5.92669">
        <ele>635.7</ele>
        <time>2019-10-31T09:35:31Z</time>
      </trkpt>
      <trkpt lat="46.76723" lon="5.92675">
        <ele>635.8</ele>
        <time>2019-10-31T09:35:35Z</time>
      </trkpt>
      <trkpt lat="46.76722" lon="5.92681">
        <ele>636.2</ele>
        <time>2019-10-31T09:35:40Z</time>
      </trkpt>
      <trkpt lat="46.76721" lon="5.92688">
        <ele>636.7</ele>
        <time>2019-10-31T09:35:45Z</time>
      </trkpt>
      <trkpt lat="46.76721" lon="5.92695">
        <ele>637.5</ele>
        <time>2019-10-31T09:35:51Z</time>
      </trkpt>
      <trkpt lat="46.7672" lon="5.92702">
        <ele>638.1</ele>
        <time>2019-10-31T09:35:55Z</time>
      </trkpt>
      <trkpt lat="46.76719" lon="5.9271">
        <ele>639</ele>
        <time>2019-10-31T09:36:00Z</time>
      </trkpt>
      <trkpt lat="46.76718" lon="5.92716">
        <ele>640.1</ele>
        <time>2019-10-31T09:36:06Z</time>
      </trkpt>
      <trkpt lat="46.76714" lon="5.92721">
        <ele>640.9</ele>
        <time>2019-10-31T09:36:12Z</time>
      </trkpt>
      <trkpt lat="46.76712" lon="5.92727">
        <ele>641.7</ele>
        <time>2019-10-31T09:36:17Z</time>
      </trkpt>
      <trkpt lat="46.76708" lon="5.92732">
        <ele>642.4</ele>
        <time>2019-10-31T09:36:23Z</time>
      </trkpt>
      <trkpt lat="46.76703" lon="5.92736">
        <ele>643.1</ele>
        <time>2019-10-31T09:36:29Z</time>
      </trkpt>
      <trkpt lat="46.767" lon="5.92739">
        <ele>643.8</ele>
        <time>2019-10-31T09:36:34Z</time>
      </trkpt>
      <trkpt lat="46.76695" lon="5.92743">
        <ele>644.5</ele>
        <time>2019-10-31T09:36:39Z</time>
      </trkpt>
      <trkpt lat="46.76691" lon="5.92747">
        <ele>645.3</ele>
        <time>2019-10-31T09:36:45Z</time>
      </trkpt>
      <trkpt lat="46.76687" lon="5.92749">
        <ele>645.8</ele>
        <time>2019-10-31T09:36:49Z</time>
      </trkpt>
      <trkpt lat="46.76681" lon="5.9275">
        <ele>646.5</ele>
        <time>2019-10-31T09:36:55Z</time>
      </trkpt>
      <trkpt lat="46.76676" lon="5.92752">
        <ele>647</ele>
        <time>2019-10-31T09:37:01Z</time>
      </trkpt>
      <trkpt lat="46.76672" lon="5.92755">
        <ele>647</ele>
        <time>2019-10-31T09:37:06Z</time>
      </trkpt>
      <trkpt lat="46.76667" lon="5.92757">
        <ele>647</ele>
        <time>2019-10-31T09:37:10Z</time>
      </trkpt>
      <trkpt lat="46.76662" lon="5.92758">
        <ele>647.1</ele>
        <time>2019-10-31T09:37:17Z</time>
      </trkpt>
      <trkpt lat="46.76659" lon="5.92763">
        <ele>647.2</ele>
        <time>2019-10-31T09:37:22Z</time>
      </trkpt>
      <trkpt lat="46.76655" lon="5.92765">
        <ele>647.3</ele>
        <time>2019-10-31T09:37:27Z</time>
      </trkpt>
      <trkpt lat="46.7665" lon="5.92761">
        <ele>647.3</ele>
        <time>2019-10-31T09:37:32Z</time>
      </trkpt>
      <trkpt lat="46.76645" lon="5.92758">
        <ele>647.6</ele>
        <time>2019-10-31T09:37:38Z</time>
      </trkpt>
      <trkpt lat="46.76639" lon="5.92758">
        <ele>648.5</ele>
        <time>2019-10-31T09:37:44Z</time>
      </trkpt>
      <trkpt lat="46.76635" lon="5.92758">
        <ele>649.7</ele>
        <time>2019-10-31T09:37:48Z</time>
      </trkpt>
      <trkpt lat="46.7663" lon="5.92756">
        <ele>651.6</ele>
        <time>2019-10-31T09:37:54Z</time>
      </trkpt>
      <trkpt lat="46.76625" lon="5.92753">
        <ele>653.2</ele>
        <time>2019-10-31T09:37:59Z</time>
      </trkpt>
      <trkpt lat="46.7662" lon="5.92749">
        <ele>654.2</ele>
        <time>2019-10-31T09:38:02Z</time>
      </trkpt>
      <trkpt lat="46.76609" lon="5.92738">
        <ele>657.9</ele>
        <time>2019-10-31T09:38:12Z</time>
      </trkpt>
      <trkpt lat="46.76605" lon="5.92734">
        <ele>658.4</ele>
        <time>2019-10-31T09:38:19Z</time>
      </trkpt>
      <trkpt lat="46.76597" lon="5.9273">
        <ele>658</ele>
        <time>2019-10-31T09:38:31Z</time>
      </trkpt>
      <trkpt lat="46.76588" lon="5.92728">
        <ele>657.8</ele>
        <time>2019-10-31T09:38:42Z</time>
      </trkpt>
      <trkpt lat="46.76584" lon="5.92725">
        <ele>657.8</ele>
        <time>2019-10-31T09:38:45Z</time>
      </trkpt>
      <trkpt lat="46.76579" lon="5.92723">
        <ele>658.2</ele>
        <time>2019-10-31T09:38:51Z</time>
      </trkpt>
      <trkpt lat="46.76575" lon="5.92719">
        <ele>658.7</ele>
        <time>2019-10-31T09:38:55Z</time>
      </trkpt>
      <trkpt lat="46.76561" lon="5.92719">
        <ele>664.7</ele>
        <time>2019-10-31T09:39:09Z</time>
      </trkpt>
      <trkpt lat="46.76541" lon="5.9272">
        <ele>669.5</ele>
        <time>2019-10-31T09:39:17Z</time>
      </trkpt>
      <trkpt lat="46.76531" lon="5.9273">
        <ele>675.1</ele>
        <time>2019-10-31T09:39:44Z</time>
      </trkpt>
      <trkpt lat="46.76526" lon="5.92742">
        <ele>678.2</ele>
        <time>2019-10-31T09:40:15Z</time>
      </trkpt>
      <trkpt lat="46.76526" lon="5.92751">
        <ele>678.8</ele>
        <time>2019-10-31T09:40:18Z</time>
      </trkpt>
      <trkpt lat="46.76524" lon="5.92758">
        <ele>679.4</ele>
        <time>2019-10-31T09:40:22Z</time>
      </trkpt>
      <trkpt lat="46.76529" lon="5.92772">
        <ele>678.5</ele>
        <time>2019-10-31T09:40:35Z</time>
      </trkpt>
      <trkpt lat="46.76532" lon="5.92778">
        <ele>677.9</ele>
        <time>2019-10-31T09:40:40Z</time>
      </trkpt>
      <trkpt lat="46.76536" lon="5.92785">
        <ele>677.5</ele>
        <time>2019-10-31T09:40:43Z</time>
      </trkpt>
      <trkpt lat="46.76539" lon="5.92791">
        <ele>677</ele>
        <time>2019-10-31T09:40:47Z</time>
      </trkpt>
      <trkpt lat="46.76541" lon="5.92797">
        <ele>676.3</ele>
        <time>2019-10-31T09:40:52Z</time>
      </trkpt>
      <trkpt lat="46.76543" lon="5.92804">
        <ele>675.9</ele>
        <time>2019-10-31T09:40:56Z</time>
      </trkpt>
      <trkpt lat="46.76544" lon="5.92811">
        <ele>675.5</ele>
        <time>2019-10-31T09:41:01Z</time>
      </trkpt>
      <trkpt lat="46.76546" lon="5.92818">
        <ele>675</ele>
        <time>2019-10-31T09:41:09Z</time>
      </trkpt>
      <trkpt lat="46.76547" lon="5.92825">
        <ele>674.5</ele>
        <time>2019-10-31T09:41:14Z</time>
      </trkpt>
      <trkpt lat="46.76548" lon="5.92831">
        <ele>674.2</ele>
        <time>2019-10-31T09:41:19Z</time>
      </trkpt>
      <trkpt lat="46.76549" lon="5.92838">
        <ele>673.9</ele>
        <time>2019-10-31T09:41:26Z</time>
      </trkpt>
      <trkpt lat="46.76551" lon="5.92845">
        <ele>673.8</ele>
        <time>2019-10-31T09:41:33Z</time>
      </trkpt>
      <trkpt lat="46.76552" lon="5.92851">
        <ele>674.1</ele>
        <time>2019-10-31T09:41:38Z</time>
      </trkpt>
      <trkpt lat="46.76553" lon="5.92858">
        <ele>674.5</ele>
        <time>2019-10-31T09:41:43Z</time>
      </trkpt>
      <trkpt lat="46.76555" lon="5.92866">
        <ele>674.6</ele>
        <time>2019-10-31T09:41:48Z</time>
      </trkpt>
      <trkpt lat="46.76556" lon="5.92872">
        <ele>674.5</ele>
        <time>2019-10-31T09:41:50Z</time>
      </trkpt>
      <trkpt lat="46.76557" lon="5.92879">
        <ele>673.9</ele>
        <time>2019-10-31T09:41:55Z</time>
      </trkpt>
      <trkpt lat="46.76557" lon="5.92886">
        <ele>673.1</ele>
        <time>2019-10-31T09:41:59Z</time>
      </trkpt>
      <trkpt lat="46.76557" lon="5.92893">
        <ele>672</ele>
        <time>2019-10-31T09:42:04Z</time>
      </trkpt>
      <trkpt lat="46.76557" lon="5.929">
        <ele>671.3</ele>
        <time>2019-10-31T09:42:08Z</time>
      </trkpt>
      <trkpt lat="46.76559" lon="5.92907">
        <ele>670.4</ele>
        <time>2019-10-31T09:42:13Z</time>
      </trkpt>
      <trkpt lat="46.76559" lon="5.92913">
        <ele>669.7</ele>
        <time>2019-10-31T09:42:17Z</time>
      </trkpt>
      <trkpt lat="46.7656" lon="5.9292">
        <ele>669</ele>
        <time>2019-10-31T09:42:21Z</time>
      </trkpt>
      <trkpt lat="46.76563" lon="5.92926">
        <ele>668</ele>
        <time>2019-10-31T09:42:26Z</time>
      </trkpt>
      <trkpt lat="46.76566" lon="5.92931">
        <ele>667.2</ele>
        <time>2019-10-31T09:42:30Z</time>
      </trkpt>
      <trkpt lat="46.76568" lon="5.92937">
        <ele>666.3</ele>
        <time>2019-10-31T09:42:35Z</time>
      </trkpt>
      <trkpt lat="46.7657" lon="5.92945">
        <ele>665.6</ele>
        <time>2019-10-31T09:42:40Z</time>
      </trkpt>
      <trkpt lat="46.76573" lon="5.9295">
        <ele>665.2</ele>
        <time>2019-10-31T09:42:45Z</time>
      </trkpt>
      <trkpt lat="46.76575" lon="5.92956">
        <ele>665.2</ele>
        <time>2019-10-31T09:42:50Z</time>
      </trkpt>
      <trkpt lat="46.76578" lon="5.92963">
        <ele>665.7</ele>
        <time>2019-10-31T09:42:54Z</time>
      </trkpt>
      <trkpt lat="46.7658" lon="5.9297">
        <ele>666.8</ele>
        <time>2019-10-31T09:42:59Z</time>
      </trkpt>
      <trkpt lat="46.76582" lon="5.92977">
        <ele>667.6</ele>
        <time>2019-10-31T09:43:02Z</time>
      </trkpt>
      <trkpt lat="46.76584" lon="5.92984">
        <ele>668.5</ele>
        <time>2019-10-31T09:43:06Z</time>
      </trkpt>
      <trkpt lat="46.76583" lon="5.92991">
        <ele>669</ele>
        <time>2019-10-31T09:43:09Z</time>
      </trkpt>
      <trkpt lat="46.76582" lon="5.92998">
        <ele>669.7</ele>
        <time>2019-10-31T09:43:14Z</time>
      </trkpt>
      <trkpt lat="46.76583" lon="5.93005">
        <ele>670.1</ele>
        <time>2019-10-31T09:43:18Z</time>
      </trkpt>
      <trkpt lat="46.76586" lon="5.93012">
        <ele>670.4</ele>
        <time>2019-10-31T09:43:23Z</time>
      </trkpt>
      <trkpt lat="46.76588" lon="5.93019">
        <ele>670.4</ele>
        <time>2019-10-31T09:43:27Z</time>
      </trkpt>
      <trkpt lat="46.7659" lon="5.93025">
        <ele>670.4</ele>
        <time>2019-10-31T09:43:33Z</time>
      </trkpt>
      <trkpt lat="46.76593" lon="5.93031">
        <ele>670.2</ele>
        <time>2019-10-31T09:43:40Z</time>
      </trkpt>
      <trkpt lat="46.76594" lon="5.93038">
        <ele>670</ele>
        <time>2019-10-31T09:43:45Z</time>
      </trkpt>
      <trkpt lat="46.76596" lon="5.93045">
        <ele>669.6</ele>
        <time>2019-10-31T09:43:50Z</time>
      </trkpt>
      <trkpt lat="46.76596" lon="5.93053">
        <ele>669.1</ele>
        <time>2019-10-31T09:43:55Z</time>
      </trkpt>
      <trkpt lat="46.76596" lon="5.9306">
        <ele>668.6</ele>
        <time>2019-10-31T09:44:01Z</time>
      </trkpt>
      <trkpt lat="46.76595" lon="5.93068">
        <ele>668.5</ele>
        <time>2019-10-31T09:44:05Z</time>
      </trkpt>
      <trkpt lat="46.76594" lon="5.93076">
        <ele>668.5</ele>
        <time>2019-10-31T09:44:08Z</time>
      </trkpt>
      <trkpt lat="46.76593" lon="5.93082">
        <ele>668.6</ele>
        <time>2019-10-31T09:44:11Z</time>
      </trkpt>
      <trkpt lat="46.76592" lon="5.9309">
        <ele>669</ele>
        <time>2019-10-31T09:44:15Z</time>
      </trkpt>
      <trkpt lat="46.76591" lon="5.93098">
        <ele>669.3</ele>
        <time>2019-10-31T09:44:19Z</time>
      </trkpt>
      <trkpt lat="46.7659" lon="5.93105">
        <ele>669.3</ele>
        <time>2019-10-31T09:44:22Z</time>
      </trkpt>
      <trkpt lat="46.76587" lon="5.9311">
        <ele>669.2</ele>
        <time>2019-10-31T09:44:27Z</time>
      </trkpt>
      <trkpt lat="46.76584" lon="5.93114">
        <ele>669.1</ele>
        <time>2019-10-31T09:44:32Z</time>
      </trkpt>
      <trkpt lat="46.76574" lon="5.93119">
        <ele>670.2</ele>
        <time>2019-10-31T09:44:53Z</time>
      </trkpt>
      <trkpt lat="46.76567" lon="5.9312">
        <ele>670.6</ele>
        <time>2019-10-31T09:44:57Z</time>
      </trkpt>
      <trkpt lat="46.76562" lon="5.9312">
        <ele>670.7</ele>
        <time>2019-10-31T09:45:02Z</time>
      </trkpt>
      <trkpt lat="46.76556" lon="5.9312">
        <ele>670.8</ele>
        <time>2019-10-31T09:45:05Z</time>
      </trkpt>
      <trkpt lat="46.76551" lon="5.93122">
        <ele>670.8</ele>
        <time>2019-10-31T09:45:08Z</time>
      </trkpt>
      <trkpt lat="46.76544" lon="5.93124">
        <ele>670.9</ele>
        <time>2019-10-31T09:45:11Z</time>
      </trkpt>
      <trkpt lat="46.76538" lon="5.93125">
        <ele>670.9</ele>
        <time>2019-10-31T09:45:13Z</time>
      </trkpt>
      <trkpt lat="46.76534" lon="5.93127">
        <ele>670.7</ele>
        <time>2019-10-31T09:45:16Z</time>
      </trkpt>
      <trkpt lat="46.7653" lon="5.93132">
        <ele>670.7</ele>
        <time>2019-10-31T09:45:21Z</time>
      </trkpt>
      <trkpt lat="46.76524" lon="5.93139">
        <ele>670.6</ele>
        <time>2019-10-31T09:45:24Z</time>
      </trkpt>
      <trkpt lat="46.7652" lon="5.93142">
        <ele>670.4</ele>
        <time>2019-10-31T09:45:28Z</time>
      </trkpt>
      <trkpt lat="46.7651" lon="5.93147">
        <ele>670.1</ele>
        <time>2019-10-31T09:45:42Z</time>
      </trkpt>
      <trkpt lat="46.76505" lon="5.93151">
        <ele>670.5</ele>
        <time>2019-10-31T09:45:46Z</time>
      </trkpt>
      <trkpt lat="46.76502" lon="5.93156">
        <ele>671.1</ele>
        <time>2019-10-31T09:45:50Z</time>
      </trkpt>
      <trkpt lat="46.76497" lon="5.93159">
        <ele>672.7</ele>
        <time>2019-10-31T09:45:55Z</time>
      </trkpt>
      <trkpt lat="46.76493" lon="5.93161">
        <ele>674</ele>
        <time>2019-10-31T09:45:58Z</time>
      </trkpt>
      <trkpt lat="46.76489" lon="5.93164">
        <ele>676.5</ele>
        <time>2019-10-31T09:46:03Z</time>
      </trkpt>
      <trkpt lat="46.76485" lon="5.93168">
        <ele>680.1</ele>
        <time>2019-10-31T09:46:10Z</time>
      </trkpt>
      <trkpt lat="46.76482" lon="5.93173">
        <ele>682.4</ele>
        <time>2019-10-31T09:46:15Z</time>
      </trkpt>
      <trkpt lat="46.76478" lon="5.93178">
        <ele>684.2</ele>
        <time>2019-10-31T09:46:20Z</time>
      </trkpt>
      <trkpt lat="46.76474" lon="5.93184">
        <ele>685</ele>
        <time>2019-10-31T09:46:23Z</time>
      </trkpt>
      <trkpt lat="46.76469" lon="5.93188">
        <ele>686</ele>
        <time>2019-10-31T09:46:28Z</time>
      </trkpt>
      <trkpt lat="46.76465" lon="5.9319">
        <ele>686.8</ele>
        <time>2019-10-31T09:46:34Z</time>
      </trkpt>
      <trkpt lat="46.7646" lon="5.93193">
        <ele>687.2</ele>
        <time>2019-10-31T09:46:39Z</time>
      </trkpt>
      <trkpt lat="46.76455" lon="5.93195">
        <ele>687.6</ele>
        <time>2019-10-31T09:46:45Z</time>
      </trkpt>
      <trkpt lat="46.7645" lon="5.93197">
        <ele>688.1</ele>
        <time>2019-10-31T09:46:51Z</time>
      </trkpt>
      <trkpt lat="46.76445" lon="5.93199">
        <ele>688.3</ele>
        <time>2019-10-31T09:46:57Z</time>
      </trkpt>
      <trkpt lat="46.76441" lon="5.93202">
        <ele>688.2</ele>
        <time>2019-10-31T09:47:04Z</time>
      </trkpt>
      <trkpt lat="46.76437" lon="5.93206">
        <ele>687.8</ele>
        <time>2019-10-31T09:47:10Z</time>
      </trkpt>
      <trkpt lat="46.76432" lon="5.93208">
        <ele>687.2</ele>
        <time>2019-10-31T09:47:19Z</time>
      </trkpt>
      <trkpt lat="46.76428" lon="5.93211">
        <ele>686.9</ele>
        <time>2019-10-31T09:47:24Z</time>
      </trkpt>
      <trkpt lat="46.76423" lon="5.93214">
        <ele>686.8</ele>
        <time>2019-10-31T09:47:29Z</time>
      </trkpt>
      <trkpt lat="46.76419" lon="5.93219">
        <ele>687</ele>
        <time>2019-10-31T09:47:34Z</time>
      </trkpt>
      <trkpt lat="46.76415" lon="5.93222">
        <ele>687.3</ele>
        <time>2019-10-31T09:47:39Z</time>
      </trkpt>
      <trkpt lat="46.7641" lon="5.93226">
        <ele>687.5</ele>
        <time>2019-10-31T09:47:45Z</time>
      </trkpt>
      <trkpt lat="46.76402" lon="5.93234">
        <ele>687.8</ele>
        <time>2019-10-31T09:47:55Z</time>
      </trkpt>
      <trkpt lat="46.76397" lon="5.93239">
        <ele>688.3</ele>
        <time>2019-10-31T09:48:01Z</time>
      </trkpt>
      <trkpt lat="46.76394" lon="5.93245">
        <ele>689</ele>
        <time>2019-10-31T09:48:06Z</time>
      </trkpt>
      <trkpt lat="46.76392" lon="5.93252">
        <ele>689.7</ele>
        <time>2019-10-31T09:48:10Z</time>
      </trkpt>
      <trkpt lat="46.76388" lon="5.93258">
        <ele>690.5</ele>
        <time>2019-10-31T09:48:15Z</time>
      </trkpt>
      <trkpt lat="46.76385" lon="5.93265">
        <ele>690.9</ele>
        <time>2019-10-31T09:48:19Z</time>
      </trkpt>
      <trkpt lat="46.76383" lon="5.93272">
        <ele>691</ele>
        <time>2019-10-31T09:48:24Z</time>
      </trkpt>
      <trkpt lat="46.76381" lon="5.93279">
        <ele>690.6</ele>
        <time>2019-10-31T09:48:29Z</time>
      </trkpt>
      <trkpt lat="46.76378" lon="5.93285">
        <ele>690</ele>
        <time>2019-10-31T09:48:33Z</time>
      </trkpt>
      <trkpt lat="46.76376" lon="5.93291">
        <ele>689.3</ele>
        <time>2019-10-31T09:48:37Z</time>
      </trkpt>
      <trkpt lat="46.76373" lon="5.93296">
        <ele>688.4</ele>
        <time>2019-10-31T09:48:42Z</time>
      </trkpt>
      <trkpt lat="46.76369" lon="5.933">
        <ele>687.6</ele>
        <time>2019-10-31T09:48:47Z</time>
      </trkpt>
      <trkpt lat="46.76365" lon="5.93304">
        <ele>687</ele>
        <time>2019-10-31T09:48:53Z</time>
      </trkpt>
      <trkpt lat="46.7636" lon="5.93303">
        <ele>686.4</ele>
        <time>2019-10-31T09:49:01Z</time>
      </trkpt>
      <trkpt lat="46.76353" lon="5.93301">
        <ele>685.3</ele>
        <time>2019-10-31T09:49:13Z</time>
      </trkpt>
      <trkpt lat="46.76338" lon="5.93303">
        <ele>684.7</ele>
        <time>2019-10-31T09:49:33Z</time>
      </trkpt>
      <trkpt lat="46.76331" lon="5.93304">
        <ele>687.8</ele>
        <time>2019-10-31T09:49:48Z</time>
      </trkpt>
      <trkpt lat="46.76325" lon="5.93304">
        <ele>689.5</ele>
        <time>2019-10-31T09:49:54Z</time>
      </trkpt>
      <trkpt lat="46.7632" lon="5.93306">
        <ele>691</ele>
        <time>2019-10-31T09:49:59Z</time>
      </trkpt>
      <trkpt lat="46.76316" lon="5.93312">
        <ele>692.5</ele>
        <time>2019-10-31T09:50:04Z</time>
      </trkpt>
      <trkpt lat="46.76312" lon="5.93315">
        <ele>693.9</ele>
        <time>2019-10-31T09:50:10Z</time>
      </trkpt>
      <trkpt lat="46.76308" lon="5.93318">
        <ele>695.4</ele>
        <time>2019-10-31T09:50:17Z</time>
      </trkpt>
      <trkpt lat="46.76303" lon="5.9332">
        <ele>696.3</ele>
        <time>2019-10-31T09:50:22Z</time>
      </trkpt>
      <trkpt lat="46.76298" lon="5.93323">
        <ele>697.5</ele>
        <time>2019-10-31T09:50:31Z</time>
      </trkpt>
      <trkpt lat="46.76289" lon="5.93322">
        <ele>696.8</ele>
        <time>2019-10-31T09:50:54Z</time>
      </trkpt>
      <trkpt lat="46.76284" lon="5.93321">
        <ele>695.8</ele>
        <time>2019-10-31T09:51:00Z</time>
      </trkpt>
      <trkpt lat="46.76279" lon="5.9332">
        <ele>694.8</ele>
        <time>2019-10-31T09:51:13Z</time>
      </trkpt>
      <trkpt lat="46.76274" lon="5.9332">
        <ele>694.8</ele>
        <time>2019-10-31T09:51:18Z</time>
      </trkpt>
      <trkpt lat="46.76268" lon="5.93322">
        <ele>695.2</ele>
        <time>2019-10-31T09:51:24Z</time>
      </trkpt>
      <trkpt lat="46.76264" lon="5.93324">
        <ele>695.6</ele>
        <time>2019-10-31T09:51:28Z</time>
      </trkpt>
      <trkpt lat="46.76259" lon="5.93325">
        <ele>696.2</ele>
        <time>2019-10-31T09:51:33Z</time>
      </trkpt>
      <trkpt lat="46.76254" lon="5.93327">
        <ele>697</ele>
        <time>2019-10-31T09:51:39Z</time>
      </trkpt>
      <trkpt lat="46.76249" lon="5.93325">
        <ele>697.7</ele>
        <time>2019-10-31T09:51:47Z</time>
      </trkpt>
      <trkpt lat="46.76244" lon="5.93323">
        <ele>697.9</ele>
        <time>2019-10-31T09:51:53Z</time>
      </trkpt>
      <trkpt lat="46.76241" lon="5.93318">
        <ele>698</ele>
        <time>2019-10-31T09:51:59Z</time>
      </trkpt>
      <trkpt lat="46.76237" lon="5.93314">
        <ele>697.8</ele>
        <time>2019-10-31T09:52:05Z</time>
      </trkpt>
      <trkpt lat="46.76232" lon="5.93314">
        <ele>697.5</ele>
        <time>2019-10-31T09:52:13Z</time>
      </trkpt>
      <trkpt lat="46.76227" lon="5.93311">
        <ele>697.2</ele>
        <time>2019-10-31T09:52:20Z</time>
      </trkpt>
      <trkpt lat="46.76214" lon="5.933">
        <ele>696.8</ele>
        <time>2019-10-31T09:52:33Z</time>
      </trkpt>
      <trkpt lat="46.7621" lon="5.93297">
        <ele>697</ele>
        <time>2019-10-31T09:52:38Z</time>
      </trkpt>
      <trkpt lat="46.76205" lon="5.93292">
        <ele>697.4</ele>
        <time>2019-10-31T09:52:44Z</time>
      </trkpt>
      <trkpt lat="46.76202" lon="5.93287">
        <ele>697.8</ele>
        <time>2019-10-31T09:52:49Z</time>
      </trkpt>
      <trkpt lat="46.76197" lon="5.93283">
        <ele>698.3</ele>
        <time>2019-10-31T09:52:54Z</time>
      </trkpt>
      <trkpt lat="46.76193" lon="5.93279">
        <ele>698.9</ele>
        <time>2019-10-31T09:53:00Z</time>
      </trkpt>
      <trkpt lat="46.7619" lon="5.93275">
        <ele>699.8</ele>
        <time>2019-10-31T09:53:07Z</time>
      </trkpt>
      <trkpt lat="46.76186" lon="5.93271">
        <ele>700.5</ele>
        <time>2019-10-31T09:53:13Z</time>
      </trkpt>
      <trkpt lat="46.76182" lon="5.93265">
        <ele>701.6</ele>
        <time>2019-10-31T09:53:21Z</time>
      </trkpt>
      <trkpt lat="46.76178" lon="5.9326">
        <ele>702.1</ele>
        <time>2019-10-31T09:53:26Z</time>
      </trkpt>
      <trkpt lat="46.76174" lon="5.93259">
        <ele>702.6</ele>
        <time>2019-10-31T09:53:31Z</time>
      </trkpt>
      <trkpt lat="46.7617" lon="5.93255">
        <ele>703</ele>
        <time>2019-10-31T09:53:39Z</time>
      </trkpt>
      <trkpt lat="46.76167" lon="5.93249">
        <ele>703.5</ele>
        <time>2019-10-31T09:53:44Z</time>
      </trkpt>
      <trkpt lat="46.76163" lon="5.93246">
        <ele>703.9</ele>
        <time>2019-10-31T09:53:50Z</time>
      </trkpt>
      <trkpt lat="46.76159" lon="5.93241">
        <ele>703.9</ele>
        <time>2019-10-31T09:53:56Z</time>
      </trkpt>
      <trkpt lat="46.76156" lon="5.93235">
        <ele>703.8</ele>
        <time>2019-10-31T09:54:04Z</time>
      </trkpt>
      <trkpt lat="46.76156" lon="5.93228">
        <ele>703.6</ele>
        <time>2019-10-31T09:54:12Z</time>
      </trkpt>
      <trkpt lat="46.7615" lon="5.9322">
        <ele>703.4</ele>
        <time>2019-10-31T09:54:26Z</time>
      </trkpt>
      <trkpt lat="46.76147" lon="5.93215">
        <ele>703.6</ele>
        <time>2019-10-31T09:54:32Z</time>
      </trkpt>
      <trkpt lat="46.76142" lon="5.9321">
        <ele>703.6</ele>
        <time>2019-10-31T09:54:39Z</time>
      </trkpt>
      <trkpt lat="46.76138" lon="5.93207">
        <ele>703.9</ele>
        <time>2019-10-31T09:54:46Z</time>
      </trkpt>
      <trkpt lat="46.76133" lon="5.93204">
        <ele>704.5</ele>
        <time>2019-10-31T09:54:53Z</time>
      </trkpt>
      <trkpt lat="46.76129" lon="5.93202">
        <ele>705.2</ele>
        <time>2019-10-31T09:54:57Z</time>
      </trkpt>
      <trkpt lat="46.76124" lon="5.93201">
        <ele>707</ele>
        <time>2019-10-31T09:55:05Z</time>
      </trkpt>
      <trkpt lat="46.7612" lon="5.93197">
        <ele>708.1</ele>
        <time>2019-10-31T09:55:10Z</time>
      </trkpt>
      <trkpt lat="46.76116" lon="5.93193">
        <ele>708.7</ele>
        <time>2019-10-31T09:55:13Z</time>
      </trkpt>
      <trkpt lat="46.76112" lon="5.93188">
        <ele>709.4</ele>
        <time>2019-10-31T09:55:17Z</time>
      </trkpt>
      <trkpt lat="46.76108" lon="5.93184">
        <ele>710</ele>
        <time>2019-10-31T09:55:23Z</time>
      </trkpt>
      <trkpt lat="46.76104" lon="5.93181">
        <ele>710.4</ele>
        <time>2019-10-31T09:55:33Z</time>
      </trkpt>
      <trkpt lat="46.76095" lon="5.93174">
        <ele>710.1</ele>
        <time>2019-10-31T09:55:44Z</time>
      </trkpt>
      <trkpt lat="46.76091" lon="5.93171">
        <ele>710</ele>
        <time>2019-10-31T09:55:54Z</time>
      </trkpt>
      <trkpt lat="46.76087" lon="5.93166">
        <ele>710.3</ele>
        <time>2019-10-31T09:55:59Z</time>
      </trkpt>
      <trkpt lat="46.76084" lon="5.93161">
        <ele>711.3</ele>
        <time>2019-10-31T09:56:07Z</time>
      </trkpt>
      <trkpt lat="46.76079" lon="5.93159">
        <ele>712</ele>
        <time>2019-10-31T09:56:18Z</time>
      </trkpt>
      <trkpt lat="46.76075" lon="5.93156">
        <ele>712.2</ele>
        <time>2019-10-31T09:56:23Z</time>
      </trkpt>
      <trkpt lat="46.76071" lon="5.93152">
        <ele>712.3</ele>
        <time>2019-10-31T09:56:27Z</time>
      </trkpt>
      <trkpt lat="46.76062" lon="5.93143">
        <ele>712.6</ele>
        <time>2019-10-31T09:56:37Z</time>
      </trkpt>
      <trkpt lat="46.76057" lon="5.9314">
        <ele>712.4</ele>
        <time>2019-10-31T09:56:42Z</time>
      </trkpt>
      <trkpt lat="46.76052" lon="5.93137">
        <ele>712.2</ele>
        <time>2019-10-31T09:56:46Z</time>
      </trkpt>
      <trkpt lat="46.76048" lon="5.93134">
        <ele>712</ele>
        <time>2019-10-31T09:56:50Z</time>
      </trkpt>
      <trkpt lat="46.76045" lon="5.93129">
        <ele>711.6</ele>
        <time>2019-10-31T09:56:55Z</time>
      </trkpt>
      <trkpt lat="46.76041" lon="5.93125">
        <ele>711.3</ele>
        <time>2019-10-31T09:57:04Z</time>
      </trkpt>
      <trkpt lat="46.76036" lon="5.93119">
        <ele>711.5</ele>
        <time>2019-10-31T09:57:07Z</time>
      </trkpt>
      <trkpt lat="46.76032" lon="5.93113">
        <ele>711.8</ele>
        <time>2019-10-31T09:57:10Z</time>
      </trkpt>
      <trkpt lat="46.76028" lon="5.93108">
        <ele>712.2</ele>
        <time>2019-10-31T09:57:14Z</time>
      </trkpt>
      <trkpt lat="46.76024" lon="5.93104">
        <ele>712.6</ele>
        <time>2019-10-31T09:57:19Z</time>
      </trkpt>
      <trkpt lat="46.7602" lon="5.931">
        <ele>712.8</ele>
        <time>2019-10-31T09:57:25Z</time>
      </trkpt>
      <trkpt lat="46.76" lon="5.93071">
        <ele>711.4</ele>
        <time>2019-10-31T09:58:03Z</time>
      </trkpt>
      <trkpt lat="46.75999" lon="5.93065">
        <ele>711.3</ele>
        <time>2019-10-31T09:58:08Z</time>
      </trkpt>
      <trkpt lat="46.75996" lon="5.9306">
        <ele>710.8</ele>
        <time>2019-10-31T09:58:14Z</time>
      </trkpt>
      <trkpt lat="46.75987" lon="5.93051">
        <ele>709.2</ele>
        <time>2019-10-31T09:58:30Z</time>
      </trkpt>
      <trkpt lat="46.75985" lon="5.93044">
        <ele>708.8</ele>
        <time>2019-10-31T09:58:37Z</time>
      </trkpt>
      <trkpt lat="46.75983" lon="5.93038">
        <ele>708.6</ele>
        <time>2019-10-31T09:58:40Z</time>
      </trkpt>
      <trkpt lat="46.75981" lon="5.93031">
        <ele>708.4</ele>
        <time>2019-10-31T09:58:51Z</time>
      </trkpt>
      <trkpt lat="46.75978" lon="5.93025">
        <ele>709.1</ele>
        <time>2019-10-31T09:59:03Z</time>
      </trkpt>
      <trkpt lat="46.75977" lon="5.93019">
        <ele>709.9</ele>
        <time>2019-10-31T09:59:12Z</time>
      </trkpt>
      <trkpt lat="46.75975" lon="5.93">
        <ele>714.2</ele>
        <time>2019-10-31T09:59:31Z</time>
      </trkpt>
      <trkpt lat="46.75971" lon="5.92994">
        <ele>715</ele>
        <time>2019-10-31T09:59:35Z</time>
      </trkpt>
      <trkpt lat="46.75966" lon="5.9299">
        <ele>716</ele>
        <time>2019-10-31T09:59:40Z</time>
      </trkpt>
      <trkpt lat="46.75958" lon="5.92978">
        <ele>718.3</ele>
        <time>2019-10-31T09:59:50Z</time>
      </trkpt>
      <trkpt lat="46.75953" lon="5.92976">
        <ele>718.9</ele>
        <time>2019-10-31T09:59:54Z</time>
      </trkpt>
      <trkpt lat="46.75949" lon="5.92969">
        <ele>719.2</ele>
        <time>2019-10-31T09:59:56Z</time>
      </trkpt>
      <trkpt lat="46.75947" lon="5.92963">
        <ele>719.9</ele>
        <time>2019-10-31T10:00:00Z</time>
      </trkpt>
      <trkpt lat="46.75942" lon="5.9296">
        <ele>720.8</ele>
        <time>2019-10-31T10:00:07Z</time>
      </trkpt>
      <trkpt lat="46.75939" lon="5.92955">
        <ele>721.7</ele>
        <time>2019-10-31T10:00:12Z</time>
      </trkpt>
      <trkpt lat="46.75935" lon="5.9295">
        <ele>722.8</ele>
        <time>2019-10-31T10:00:18Z</time>
      </trkpt>
      <trkpt lat="46.75932" lon="5.92944">
        <ele>723.3</ele>
        <time>2019-10-31T10:00:21Z</time>
      </trkpt>
      <trkpt lat="46.75929" lon="5.92938">
        <ele>724</ele>
        <time>2019-10-31T10:00:25Z</time>
      </trkpt>
      <trkpt lat="46.75926" lon="5.92933">
        <ele>725</ele>
        <time>2019-10-31T10:00:31Z</time>
      </trkpt>
      <trkpt lat="46.75925" lon="5.92926">
        <ele>725.6</ele>
        <time>2019-10-31T10:00:36Z</time>
      </trkpt>
      <trkpt lat="46.75922" lon="5.92921">
        <ele>726.5</ele>
        <time>2019-10-31T10:00:46Z</time>
      </trkpt>
      <trkpt lat="46.75918" lon="5.92917">
        <ele>727.1</ele>
        <time>2019-10-31T10:00:52Z</time>
      </trkpt>
      <trkpt lat="46.75916" lon="5.92911">
        <ele>727.5</ele>
        <time>2019-10-31T10:00:56Z</time>
      </trkpt>
      <trkpt lat="46.75913" lon="5.92905">
        <ele>727.8</ele>
        <time>2019-10-31T10:00:59Z</time>
      </trkpt>
      <trkpt lat="46.7591" lon="5.92899">
        <ele>727.4</ele>
        <time>2019-10-31T10:01:12Z</time>
      </trkpt>
      <trkpt lat="46.75906" lon="5.92895">
        <ele>727.1</ele>
        <time>2019-10-31T10:01:15Z</time>
      </trkpt>
      <trkpt lat="46.75903" lon="5.92888">
        <ele>726.4</ele>
        <time>2019-10-31T10:01:20Z</time>
      </trkpt>
      <trkpt lat="46.75902" lon="5.92882">
        <ele>725.5</ele>
        <time>2019-10-31T10:01:25Z</time>
      </trkpt>
      <trkpt lat="46.759" lon="5.92875">
        <ele>724.9</ele>
        <time>2019-10-31T10:01:30Z</time>
      </trkpt>
      <trkpt lat="46.75889" lon="5.9286">
        <ele>724.7</ele>
        <time>2019-10-31T10:01:41Z</time>
      </trkpt>
      <trkpt lat="46.75885" lon="5.92855">
        <ele>725.2</ele>
        <time>2019-10-31T10:01:47Z</time>
      </trkpt>
      <trkpt lat="46.75882" lon="5.9285">
        <ele>726.3</ele>
        <time>2019-10-31T10:01:54Z</time>
      </trkpt>
      <trkpt lat="46.75879" lon="5.92844">
        <ele>727.3</ele>
        <time>2019-10-31T10:02:00Z</time>
      </trkpt>
      <trkpt lat="46.75875" lon="5.9284">
        <ele>727.8</ele>
        <time>2019-10-31T10:02:03Z</time>
      </trkpt>
      <trkpt lat="46.75872" lon="5.92834">
        <ele>728.5</ele>
        <time>2019-10-31T10:02:07Z</time>
      </trkpt>
      <trkpt lat="46.75867" lon="5.9283">
        <ele>729.6</ele>
        <time>2019-10-31T10:02:13Z</time>
      </trkpt>
      <trkpt lat="46.75864" lon="5.92825">
        <ele>730.4</ele>
        <time>2019-10-31T10:02:21Z</time>
      </trkpt>
      <trkpt lat="46.75861" lon="5.9282">
        <ele>730.6</ele>
        <time>2019-10-31T10:02:26Z</time>
      </trkpt>
      <trkpt lat="46.75857" lon="5.92814">
        <ele>730.3</ele>
        <time>2019-10-31T10:02:34Z</time>
      </trkpt>
      <trkpt lat="46.75854" lon="5.92808">
        <ele>729.5</ele>
        <time>2019-10-31T10:02:40Z</time>
      </trkpt>
      <trkpt lat="46.7585" lon="5.92802">
        <ele>729</ele>
        <time>2019-10-31T10:02:45Z</time>
      </trkpt>
      <trkpt lat="46.75848" lon="5.92796">
        <ele>728.8</ele>
        <time>2019-10-31T10:02:49Z</time>
      </trkpt>
      <trkpt lat="46.75847" lon="5.9279">
        <ele>729</ele>
        <time>2019-10-31T10:03:03Z</time>
      </trkpt>
      <trkpt lat="46.75844" lon="5.92784">
        <ele>729.4</ele>
        <time>2019-10-31T10:03:12Z</time>
      </trkpt>
      <trkpt lat="46.7584" lon="5.92779">
        <ele>730.1</ele>
        <time>2019-10-31T10:03:22Z</time>
      </trkpt>
      <trkpt lat="46.75836" lon="5.92773">
        <ele>730.4</ele>
        <time>2019-10-31T10:03:24Z</time>
      </trkpt>
      <trkpt lat="46.75833" lon="5.92767">
        <ele>731.1</ele>
        <time>2019-10-31T10:03:27Z</time>
      </trkpt>
      <trkpt lat="46.75829" lon="5.9276">
        <ele>731.5</ele>
        <time>2019-10-31T10:03:29Z</time>
      </trkpt>
      <trkpt lat="46.75826" lon="5.92753">
        <ele>732.5</ele>
        <time>2019-10-31T10:03:34Z</time>
      </trkpt>
      <trkpt lat="46.75825" lon="5.92746">
        <ele>733.5</ele>
        <time>2019-10-31T10:03:39Z</time>
      </trkpt>
      <trkpt lat="46.75822" lon="5.92739">
        <ele>734.2</ele>
        <time>2019-10-31T10:03:44Z</time>
      </trkpt>
      <trkpt lat="46.75819" lon="5.92732">
        <ele>734.8</ele>
        <time>2019-10-31T10:03:52Z</time>
      </trkpt>
      <trkpt lat="46.75817" lon="5.92726">
        <ele>735.3</ele>
        <time>2019-10-31T10:03:58Z</time>
      </trkpt>
      <trkpt lat="46.75813" lon="5.92719">
        <ele>735.7</ele>
        <time>2019-10-31T10:04:01Z</time>
      </trkpt>
      <trkpt lat="46.75809" lon="5.92715">
        <ele>735.9</ele>
        <time>2019-10-31T10:04:03Z</time>
      </trkpt>
      <trkpt lat="46.75803" lon="5.92705">
        <ele>738</ele>
        <time>2019-10-31T10:04:18Z</time>
      </trkpt>
      <trkpt lat="46.758" lon="5.927">
        <ele>738.5</ele>
        <time>2019-10-31T10:04:28Z</time>
      </trkpt>
      <trkpt lat="46.75797" lon="5.92692">
        <ele>738.5</ele>
        <time>2019-10-31T10:04:31Z</time>
      </trkpt>
      <trkpt lat="46.75795" lon="5.92686">
        <ele>738.7</ele>
        <time>2019-10-31T10:04:37Z</time>
      </trkpt>
      <trkpt lat="46.75792" lon="5.92679">
        <ele>739.1</ele>
        <time>2019-10-31T10:04:43Z</time>
      </trkpt>
      <trkpt lat="46.75783" lon="5.92671">
        <ele>740</ele>
        <time>2019-10-31T10:04:56Z</time>
      </trkpt>
      <trkpt lat="46.7578" lon="5.92665">
        <ele>740.1</ele>
        <time>2019-10-31T10:05:01Z</time>
      </trkpt>
      <trkpt lat="46.75776" lon="5.9265">
        <ele>739.1</ele>
        <time>2019-10-31T10:05:15Z</time>
      </trkpt>
      <trkpt lat="46.75774" lon="5.92644">
        <ele>738.6</ele>
        <time>2019-10-31T10:05:21Z</time>
      </trkpt>
      <trkpt lat="46.75771" lon="5.92638">
        <ele>738.1</ele>
        <time>2019-10-31T10:05:27Z</time>
      </trkpt>
      <trkpt lat="46.7577" lon="5.92632">
        <ele>737.8</ele>
        <time>2019-10-31T10:05:29Z</time>
      </trkpt>
      <trkpt lat="46.75768" lon="5.92623">
        <ele>737.1</ele>
        <time>2019-10-31T10:05:33Z</time>
      </trkpt>
      <trkpt lat="46.75763" lon="5.92606">
        <ele>734.8</ele>
        <time>2019-10-31T10:05:47Z</time>
      </trkpt>
      <trkpt lat="46.7576" lon="5.92597">
        <ele>733.7</ele>
        <time>2019-10-31T10:06:04Z</time>
      </trkpt>
      <trkpt lat="46.75757" lon="5.9259">
        <ele>733.3</ele>
        <time>2019-10-31T10:06:08Z</time>
      </trkpt>
      <trkpt lat="46.75754" lon="5.92585">
        <ele>733.1</ele>
        <time>2019-10-31T10:06:10Z</time>
      </trkpt>
      <trkpt lat="46.7575" lon="5.9258">
        <ele>732.8</ele>
        <time>2019-10-31T10:06:13Z</time>
      </trkpt>
      <trkpt lat="46.75746" lon="5.92564">
        <ele>731</ele>
        <time>2019-10-31T10:06:33Z</time>
      </trkpt>
      <trkpt lat="46.75745" lon="5.92557">
        <ele>730.8</ele>
        <time>2019-10-31T10:06:39Z</time>
      </trkpt>
      <trkpt lat="46.75744" lon="5.9255">
        <ele>731.1</ele>
        <time>2019-10-31T10:06:46Z</time>
      </trkpt>
      <trkpt lat="46.75742" lon="5.92543">
        <ele>731.9</ele>
        <time>2019-10-31T10:06:53Z</time>
      </trkpt>
      <trkpt lat="46.75739" lon="5.92537">
        <ele>732.9</ele>
        <time>2019-10-31T10:06:58Z</time>
      </trkpt>
      <trkpt lat="46.75737" lon="5.9253">
        <ele>734</ele>
        <time>2019-10-31T10:07:03Z</time>
      </trkpt>
      <trkpt lat="46.75736" lon="5.92523">
        <ele>734.4</ele>
        <time>2019-10-31T10:07:05Z</time>
      </trkpt>
      <trkpt lat="46.75733" lon="5.92517">
        <ele>735.4</ele>
        <time>2019-10-31T10:07:09Z</time>
      </trkpt>
      <trkpt lat="46.75729" lon="5.92513">
        <ele>736.6</ele>
        <time>2019-10-31T10:07:14Z</time>
      </trkpt>
      <trkpt lat="46.75726" lon="5.92507">
        <ele>738</ele>
        <time>2019-10-31T10:07:21Z</time>
      </trkpt>
      <trkpt lat="46.75724" lon="5.925">
        <ele>738.7</ele>
        <time>2019-10-31T10:07:27Z</time>
      </trkpt>
      <trkpt lat="46.75723" lon="5.92494">
        <ele>739.7</ele>
        <time>2019-10-31T10:07:38Z</time>
      </trkpt>
      <trkpt lat="46.75722" lon="5.92487">
        <ele>740.2</ele>
        <time>2019-10-31T10:07:45Z</time>
      </trkpt>
      <trkpt lat="46.7572" lon="5.9248">
        <ele>740.5</ele>
        <time>2019-10-31T10:07:54Z</time>
      </trkpt>
      <trkpt lat="46.75718" lon="5.92473">
        <ele>740.8</ele>
        <time>2019-10-31T10:07:57Z</time>
      </trkpt>
      <trkpt lat="46.75716" lon="5.92466">
        <ele>741.4</ele>
        <time>2019-10-31T10:08:02Z</time>
      </trkpt>
      <trkpt lat="46.75716" lon="5.92458">
        <ele>743.1</ele>
        <time>2019-10-31T10:08:12Z</time>
      </trkpt>
      <trkpt lat="46.75704" lon="5.92408">
        <ele>743.9</ele>
        <time>2019-10-31T10:08:58Z</time>
      </trkpt>
      <trkpt lat="46.757" lon="5.924">
        <ele>747.1</ele>
        <time>2019-10-31T10:09:19Z</time>
      </trkpt>
      <trkpt lat="46.75698" lon="5.92392">
        <ele>747.4</ele>
        <time>2019-10-31T10:09:21Z</time>
      </trkpt>
      <trkpt lat="46.75694" lon="5.92387">
        <ele>747.8</ele>
        <time>2019-10-31T10:09:23Z</time>
      </trkpt>
      <trkpt lat="46.75691" lon="5.92382">
        <ele>748.5</ele>
        <time>2019-10-31T10:09:27Z</time>
      </trkpt>
      <trkpt lat="46.75688" lon="5.92378">
        <ele>749.1</ele>
        <time>2019-10-31T10:09:32Z</time>
      </trkpt>
      <trkpt lat="46.75683" lon="5.92376">
        <ele>755.5</ele>
        <time>2019-10-31T10:10:30Z</time>
      </trkpt>
      <trkpt lat="46.75679" lon="5.92373">
        <ele>756.4</ele>
        <time>2019-10-31T10:10:35Z</time>
      </trkpt>
      <trkpt lat="46.75674" lon="5.92373">
        <ele>757.6</ele>
        <time>2019-10-31T10:10:59Z</time>
      </trkpt>
      <trkpt lat="46.75669" lon="5.92371">
        <ele>758.1</ele>
        <time>2019-10-31T10:11:06Z</time>
      </trkpt>
      <trkpt lat="46.75663" lon="5.92368">
        <ele>758.7</ele>
        <time>2019-10-31T10:11:09Z</time>
      </trkpt>
      <trkpt lat="46.75646" lon="5.92348">
        <ele>760.1</ele>
        <time>2019-10-31T10:12:05Z</time>
      </trkpt>
      <trkpt lat="46.75641" lon="5.92342">
        <ele>759.6</ele>
        <time>2019-10-31T10:12:22Z</time>
      </trkpt>
      <trkpt lat="46.75639" lon="5.92337">
        <ele>760.1</ele>
        <time>2019-10-31T10:12:29Z</time>
      </trkpt>
      <trkpt lat="46.75638" lon="5.9233">
        <ele>761.4</ele>
        <time>2019-10-31T10:12:41Z</time>
      </trkpt>
      <trkpt lat="46.75636" lon="5.92321">
        <ele>762.8</ele>
        <time>2019-10-31T10:12:48Z</time>
      </trkpt>
      <trkpt lat="46.75645" lon="5.92321">
        <ele>766</ele>
        <time>2019-10-31T10:13:17Z</time>
      </trkpt>
      <trkpt lat="46.7565" lon="5.9232">
        <ele>767.4</ele>
        <time>2019-10-31T10:13:31Z</time>
      </trkpt>
      <trkpt lat="46.75655" lon="5.92318">
        <ele>770.1</ele>
        <time>2019-10-31T10:13:49Z</time>
      </trkpt>
      <trkpt lat="46.75667" lon="5.9231">
        <ele>772.7</ele>
        <time>2019-10-31T10:14:01Z</time>
      </trkpt>
      <trkpt lat="46.75671" lon="5.92308">
        <ele>773.4</ele>
        <time>2019-10-31T10:14:09Z</time>
      </trkpt>
      <trkpt lat="46.75676" lon="5.92303">
        <ele>774</ele>
        <time>2019-10-31T10:14:14Z</time>
      </trkpt>
      <trkpt lat="46.75682" lon="5.92302">
        <ele>774.6</ele>
        <time>2019-10-31T10:14:19Z</time>
      </trkpt>
      <trkpt lat="46.75687" lon="5.92303">
        <ele>774.8</ele>
        <time>2019-10-31T10:14:22Z</time>
      </trkpt>
      <trkpt lat="46.75691" lon="5.92306">
        <ele>775.1</ele>
        <time>2019-10-31T10:14:29Z</time>
      </trkpt>
      <trkpt lat="46.75696" lon="5.92311">
        <ele>775.2</ele>
        <time>2019-10-31T10:14:35Z</time>
      </trkpt>
      <trkpt lat="46.757" lon="5.92315">
        <ele>775.3</ele>
        <time>2019-10-31T10:14:42Z</time>
      </trkpt>
      <trkpt lat="46.75704" lon="5.92321">
        <ele>776</ele>
        <time>2019-10-31T10:14:51Z</time>
      </trkpt>
      <trkpt lat="46.75707" lon="5.92324">
        <ele>776.1</ele>
        <time>2019-10-31T10:14:53Z</time>
      </trkpt>
      <trkpt lat="46.75712" lon="5.92328">
        <ele>776.2</ele>
        <time>2019-10-31T10:14:55Z</time>
      </trkpt>
      <trkpt lat="46.75717" lon="5.92332">
        <ele>776.2</ele>
        <time>2019-10-31T10:14:57Z</time>
      </trkpt>
      <trkpt lat="46.75721" lon="5.92338">
        <ele>776.1</ele>
        <time>2019-10-31T10:14:59Z</time>
      </trkpt>
      <trkpt lat="46.75727" lon="5.92344">
        <ele>776</ele>
        <time>2019-10-31T10:15:01Z</time>
      </trkpt>
      <trkpt lat="46.75731" lon="5.92348">
        <ele>775.9</ele>
        <time>2019-10-31T10:15:03Z</time>
      </trkpt>
      <trkpt lat="46.75735" lon="5.92352">
        <ele>775.8</ele>
        <time>2019-10-31T10:15:06Z</time>
      </trkpt>
      <trkpt lat="46.75739" lon="5.92355">
        <ele>775.7</ele>
        <time>2019-10-31T10:15:13Z</time>
      </trkpt>
      <trkpt lat="46.75746" lon="5.92366">
        <ele>778</ele>
        <time>2019-10-31T10:15:36Z</time>
      </trkpt>
      <trkpt lat="46.75758" lon="5.92377">
        <ele>779.9</ele>
        <time>2019-10-31T10:15:49Z</time>
      </trkpt>
      <trkpt lat="46.75761" lon="5.92384">
        <ele>780</ele>
        <time>2019-10-31T10:15:51Z</time>
      </trkpt>
      <trkpt lat="46.75765" lon="5.9239">
        <ele>780.1</ele>
        <time>2019-10-31T10:15:54Z</time>
      </trkpt>
      <trkpt lat="46.75769" lon="5.92395">
        <ele>780.7</ele>
        <time>2019-10-31T10:16:02Z</time>
      </trkpt>
      <trkpt lat="46.75771" lon="5.92401">
        <ele>780.9</ele>
        <time>2019-10-31T10:16:05Z</time>
      </trkpt>
      <trkpt lat="46.75775" lon="5.92406">
        <ele>781.7</ele>
        <time>2019-10-31T10:16:13Z</time>
      </trkpt>
      <trkpt lat="46.75777" lon="5.92412">
        <ele>782</ele>
        <time>2019-10-31T10:16:20Z</time>
      </trkpt>
      <trkpt lat="46.75781" lon="5.92416">
        <ele>782.1</ele>
        <time>2019-10-31T10:16:24Z</time>
      </trkpt>
      <trkpt lat="46.75784" lon="5.92421">
        <ele>782.1</ele>
        <time>2019-10-31T10:16:28Z</time>
      </trkpt>
      <trkpt lat="46.75787" lon="5.92427">
        <ele>782.2</ele>
        <time>2019-10-31T10:16:32Z</time>
      </trkpt>
      <trkpt lat="46.75791" lon="5.92432">
        <ele>782.3</ele>
        <time>2019-10-31T10:16:38Z</time>
      </trkpt>
      <trkpt lat="46.75793" lon="5.92438">
        <ele>782.3</ele>
        <time>2019-10-31T10:16:41Z</time>
      </trkpt>
      <trkpt lat="46.75796" lon="5.92445">
        <ele>782.4</ele>
        <time>2019-10-31T10:16:46Z</time>
      </trkpt>
      <trkpt lat="46.75799" lon="5.92449">
        <ele>782.6</ele>
        <time>2019-10-31T10:16:51Z</time>
      </trkpt>
      <trkpt lat="46.75801" lon="5.92455">
        <ele>783.1</ele>
        <time>2019-10-31T10:17:01Z</time>
      </trkpt>
      <trkpt lat="46.75805" lon="5.92459">
        <ele>783.2</ele>
        <time>2019-10-31T10:17:07Z</time>
      </trkpt>
      <trkpt lat="46.75808" lon="5.92464">
        <ele>783.3</ele>
        <time>2019-10-31T10:17:10Z</time>
      </trkpt>
      <trkpt lat="46.75812" lon="5.92469">
        <ele>783.3</ele>
        <time>2019-10-31T10:17:13Z</time>
      </trkpt>
      <trkpt lat="46.75816" lon="5.92476">
        <ele>783.3</ele>
        <time>2019-10-31T10:17:15Z</time>
      </trkpt>
      <trkpt lat="46.75819" lon="5.92481">
        <ele>783.2</ele>
        <time>2019-10-31T10:17:18Z</time>
      </trkpt>
      <trkpt lat="46.75822" lon="5.92486">
        <ele>783.2</ele>
        <time>2019-10-31T10:17:23Z</time>
      </trkpt>
      <trkpt lat="46.75824" lon="5.92492">
        <ele>783</ele>
        <time>2019-10-31T10:17:29Z</time>
      </trkpt>
      <trkpt lat="46.75827" lon="5.92498">
        <ele>782.9</ele>
        <time>2019-10-31T10:17:34Z</time>
      </trkpt>
      <trkpt lat="46.75831" lon="5.92502">
        <ele>782.8</ele>
        <time>2019-10-31T10:17:39Z</time>
      </trkpt>
      <trkpt lat="46.75834" lon="5.92507">
        <ele>783.3</ele>
        <time>2019-10-31T10:17:48Z</time>
      </trkpt>
      <trkpt lat="46.75838" lon="5.92512">
        <ele>783.6</ele>
        <time>2019-10-31T10:17:54Z</time>
      </trkpt>
      <trkpt lat="46.75842" lon="5.92516">
        <ele>783.6</ele>
        <time>2019-10-31T10:17:59Z</time>
      </trkpt>
      <trkpt lat="46.75847" lon="5.92518">
        <ele>783.5</ele>
        <time>2019-10-31T10:18:05Z</time>
      </trkpt>
      <trkpt lat="46.75851" lon="5.92522">
        <ele>783.3</ele>
        <time>2019-10-31T10:18:09Z</time>
      </trkpt>
      <trkpt lat="46.75854" lon="5.92526">
        <ele>783.3</ele>
        <time>2019-10-31T10:18:13Z</time>
      </trkpt>
      <trkpt lat="46.75856" lon="5.92533">
        <ele>783.2</ele>
        <time>2019-10-31T10:18:17Z</time>
      </trkpt>
      <trkpt lat="46.75858" lon="5.92539">
        <ele>783.2</ele>
        <time>2019-10-31T10:18:22Z</time>
      </trkpt>
      <trkpt lat="46.75861" lon="5.92543">
        <ele>783.3</ele>
        <time>2019-10-31T10:18:28Z</time>
      </trkpt>
      <trkpt lat="46.75865" lon="5.92548">
        <ele>783.4</ele>
        <time>2019-10-31T10:18:34Z</time>
      </trkpt>
      <trkpt lat="46.75867" lon="5.92553">
        <ele>783.4</ele>
        <time>2019-10-31T10:18:47Z</time>
      </trkpt>
      <trkpt lat="46.75871" lon="5.92557">
        <ele>783.1</ele>
        <time>2019-10-31T10:18:54Z</time>
      </trkpt>
      <trkpt lat="46.75881" lon="5.92581">
        <ele>781.8</ele>
        <time>2019-10-31T10:19:18Z</time>
      </trkpt>
      <trkpt lat="46.75885" lon="5.92588">
        <ele>781.7</ele>
        <time>2019-10-31T10:19:22Z</time>
      </trkpt>
      <trkpt lat="46.75889" lon="5.92591">
        <ele>781.6</ele>
        <time>2019-10-31T10:19:25Z</time>
      </trkpt>
      <trkpt lat="46.75893" lon="5.92596">
        <ele>781.6</ele>
        <time>2019-10-31T10:19:30Z</time>
      </trkpt>
      <trkpt lat="46.75896" lon="5.92602">
        <ele>781.7</ele>
        <time>2019-10-31T10:19:34Z</time>
      </trkpt>
      <trkpt lat="46.75899" lon="5.92608">
        <ele>781.9</ele>
        <time>2019-10-31T10:19:38Z</time>
      </trkpt>
      <trkpt lat="46.75903" lon="5.92611">
        <ele>782</ele>
        <time>2019-10-31T10:19:43Z</time>
      </trkpt>
      <trkpt lat="46.75904" lon="5.92618">
        <ele>782.3</ele>
        <time>2019-10-31T10:19:51Z</time>
      </trkpt>
      <trkpt lat="46.75906" lon="5.92624">
        <ele>782.9</ele>
        <time>2019-10-31T10:20:02Z</time>
      </trkpt>
      <trkpt lat="46.75908" lon="5.92632">
        <ele>783.2</ele>
        <time>2019-10-31T10:20:08Z</time>
      </trkpt>
      <trkpt lat="46.75912" lon="5.92636">
        <ele>783.5</ele>
        <time>2019-10-31T10:20:14Z</time>
      </trkpt>
      <trkpt lat="46.75917" lon="5.92637">
        <ele>784.2</ele>
        <time>2019-10-31T10:20:23Z</time>
      </trkpt>
      <trkpt lat="46.75922" lon="5.92639">
        <ele>785</ele>
        <time>2019-10-31T10:20:30Z</time>
      </trkpt>
      <trkpt lat="46.75925" lon="5.92645">
        <ele>785.6</ele>
        <time>2019-10-31T10:20:39Z</time>
      </trkpt>
      <trkpt lat="46.75928" lon="5.9265">
        <ele>785.9</ele>
        <time>2019-10-31T10:20:46Z</time>
      </trkpt>
      <trkpt lat="46.7593" lon="5.92656">
        <ele>786.1</ele>
        <time>2019-10-31T10:20:52Z</time>
      </trkpt>
      <trkpt lat="46.75932" lon="5.92663">
        <ele>785.9</ele>
        <time>2019-10-31T10:20:57Z</time>
      </trkpt>
      <trkpt lat="46.75934" lon="5.92669">
        <ele>785.7</ele>
        <time>2019-10-31T10:21:01Z</time>
      </trkpt>
      <trkpt lat="46.75936" lon="5.92675">
        <ele>785.1</ele>
        <time>2019-10-31T10:21:09Z</time>
      </trkpt>
      <trkpt lat="46.75939" lon="5.9268">
        <ele>784.5</ele>
        <time>2019-10-31T10:21:14Z</time>
      </trkpt>
      <trkpt lat="46.75942" lon="5.92687">
        <ele>784</ele>
        <time>2019-10-31T10:21:19Z</time>
      </trkpt>
      <trkpt lat="46.75945" lon="5.92692">
        <ele>782.7</ele>
        <time>2019-10-31T10:21:27Z</time>
      </trkpt>
      <trkpt lat="46.75953" lon="5.92706">
        <ele>778.6</ele>
        <time>2019-10-31T10:21:43Z</time>
      </trkpt>
      <trkpt lat="46.75964" lon="5.92721">
        <ele>774</ele>
        <time>2019-10-31T10:22:32Z</time>
      </trkpt>
      <trkpt lat="46.75967" lon="5.9273">
        <ele>773.6</ele>
        <time>2019-10-31T10:22:34Z</time>
      </trkpt>
      <trkpt lat="46.75969" lon="5.92736">
        <ele>773.1</ele>
        <time>2019-10-31T10:22:37Z</time>
      </trkpt>
      <trkpt lat="46.75975" lon="5.92737">
        <ele>773.1</ele>
        <time>2019-10-31T10:23:02Z</time>
      </trkpt>
      <trkpt lat="46.75979" lon="5.92743">
        <ele>775.2</ele>
        <time>2019-10-31T10:23:33Z</time>
      </trkpt>
      <trkpt lat="46.75984" lon="5.92757">
        <ele>775.1</ele>
        <time>2019-10-31T10:23:53Z</time>
      </trkpt>
      <trkpt lat="46.7599" lon="5.92771">
        <ele>776.3</ele>
        <time>2019-10-31T10:26:37Z</time>
      </trkpt>
      <trkpt lat="46.75986" lon="5.92767">
        <ele>773.1</ele>
        <time>2019-10-31T10:26:55Z</time>
      </trkpt>
      <trkpt lat="46.75985" lon="5.9276">
        <ele>771.7</ele>
        <time>2019-10-31T10:27:02Z</time>
      </trkpt>
      <trkpt lat="46.75982" lon="5.92754">
        <ele>770.4</ele>
        <time>2019-10-31T10:27:13Z</time>
      </trkpt>
      <trkpt lat="46.75972" lon="5.92731">
        <ele>767</ele>
        <time>2019-10-31T10:28:29Z</time>
      </trkpt>
      <trkpt lat="46.75968" lon="5.92725">
        <ele>766.9</ele>
        <time>2019-10-31T10:28:34Z</time>
      </trkpt>
      <trkpt lat="46.75966" lon="5.92719">
        <ele>766.7</ele>
        <time>2019-10-31T10:28:39Z</time>
      </trkpt>
      <trkpt lat="46.7596" lon="5.92715">
        <ele>766.5</ele>
        <time>2019-10-31T10:28:46Z</time>
      </trkpt>
      <trkpt lat="46.7595" lon="5.92693">
        <ele>766.5</ele>
        <time>2019-10-31T10:29:03Z</time>
      </trkpt>
      <trkpt lat="46.75949" lon="5.92686">
        <ele>766.4</ele>
        <time>2019-10-31T10:29:15Z</time>
      </trkpt>
      <trkpt lat="46.75944" lon="5.92679">
        <ele>766.2</ele>
        <time>2019-10-31T10:29:19Z</time>
      </trkpt>
      <trkpt lat="46.75941" lon="5.92673">
        <ele>766</ele>
        <time>2019-10-31T10:29:22Z</time>
      </trkpt>
      <trkpt lat="46.75938" lon="5.92663">
        <ele>766.9</ele>
        <time>2019-10-31T10:30:16Z</time>
      </trkpt>
      <trkpt lat="46.75941" lon="5.9266">
        <ele>771.4</ele>
        <time>2019-10-31T10:30:39Z</time>
      </trkpt>
      <trkpt lat="46.75946" lon="5.92662">
        <ele>773.4</ele>
        <time>2019-10-31T10:30:43Z</time>
      </trkpt>
      <trkpt lat="46.75951" lon="5.92664">
        <ele>774.3</ele>
        <time>2019-10-31T10:30:46Z</time>
      </trkpt>
      <trkpt lat="46.75956" lon="5.92666">
        <ele>775.7</ele>
        <time>2019-10-31T10:30:49Z</time>
      </trkpt>
      <trkpt lat="46.75962" lon="5.92674">
        <ele>783.2</ele>
        <time>2019-10-31T10:31:03Z</time>
      </trkpt>
      <trkpt lat="46.75966" lon="5.92679">
        <ele>785.2</ele>
        <time>2019-10-31T10:31:10Z</time>
      </trkpt>
      <trkpt lat="46.75969" lon="5.92685">
        <ele>786.4</ele>
        <time>2019-10-31T10:31:15Z</time>
      </trkpt>
      <trkpt lat="46.75971" lon="5.92691">
        <ele>787.8</ele>
        <time>2019-10-31T10:31:20Z</time>
      </trkpt>
      <trkpt lat="46.75976" lon="5.92694">
        <ele>789.8</ele>
        <time>2019-10-31T10:31:27Z</time>
      </trkpt>
      <trkpt lat="46.75982" lon="5.92694">
        <ele>790.5</ele>
        <time>2019-10-31T10:31:30Z</time>
      </trkpt>
      <trkpt lat="46.75988" lon="5.92698">
        <ele>791.7</ele>
        <time>2019-10-31T10:31:34Z</time>
      </trkpt>
      <trkpt lat="46.75993" lon="5.92701">
        <ele>792.5</ele>
        <time>2019-10-31T10:31:37Z</time>
      </trkpt>
      <trkpt lat="46.75997" lon="5.92705">
        <ele>793.3</ele>
        <time>2019-10-31T10:31:41Z</time>
      </trkpt>
      <trkpt lat="46.76001" lon="5.92711">
        <ele>794.4</ele>
        <time>2019-10-31T10:31:49Z</time>
      </trkpt>
      <trkpt lat="46.76005" lon="5.92715">
        <ele>796.6</ele>
        <time>2019-10-31T10:32:06Z</time>
      </trkpt>
      <trkpt lat="46.76009" lon="5.92717">
        <ele>798.4</ele>
        <time>2019-10-31T10:32:16Z</time>
      </trkpt>
      <trkpt lat="46.76014" lon="5.92715">
        <ele>799.7</ele>
        <time>2019-10-31T10:32:22Z</time>
      </trkpt>
      <trkpt lat="46.76018" lon="5.92718">
        <ele>801.6</ele>
        <time>2019-10-31T10:32:33Z</time>
      </trkpt>
      <trkpt lat="46.76022" lon="5.92722">
        <ele>802.1</ele>
        <time>2019-10-31T10:32:38Z</time>
      </trkpt>
      <trkpt lat="46.76024" lon="5.92729">
        <ele>802.1</ele>
        <time>2019-10-31T10:32:42Z</time>
      </trkpt>
      <trkpt lat="46.76026" lon="5.92736">
        <ele>801.8</ele>
        <time>2019-10-31T10:32:48Z</time>
      </trkpt>
      <trkpt lat="46.7603" lon="5.9274">
        <ele>801.5</ele>
        <time>2019-10-31T10:32:51Z</time>
      </trkpt>
      <trkpt lat="46.76034" lon="5.92744">
        <ele>800.8</ele>
        <time>2019-10-31T10:32:56Z</time>
      </trkpt>
      <trkpt lat="46.76038" lon="5.92749">
        <ele>800.4</ele>
        <time>2019-10-31T10:33:02Z</time>
      </trkpt>
      <trkpt lat="46.76041" lon="5.92754">
        <ele>800.6</ele>
        <time>2019-10-31T10:33:07Z</time>
      </trkpt>
      <trkpt lat="46.76044" lon="5.9276">
        <ele>800.9</ele>
        <time>2019-10-31T10:33:13Z</time>
      </trkpt>
      <trkpt lat="46.76051" lon="5.92765">
        <ele>798.6</ele>
        <time>2019-10-31T10:35:36Z</time>
      </trkpt>
      <trkpt lat="46.76054" lon="5.92772">
        <ele>799.5</ele>
        <time>2019-10-31T10:35:49Z</time>
      </trkpt>
      <trkpt lat="46.76057" lon="5.92778">
        <ele>800.2</ele>
        <time>2019-10-31T10:35:53Z</time>
      </trkpt>
      <trkpt lat="46.76061" lon="5.92782">
        <ele>800.6</ele>
        <time>2019-10-31T10:35:55Z</time>
      </trkpt>
      <trkpt lat="46.76065" lon="5.92787">
        <ele>801.1</ele>
        <time>2019-10-31T10:35:58Z</time>
      </trkpt>
      <trkpt lat="46.76069" lon="5.92792">
        <ele>801.7</ele>
        <time>2019-10-31T10:36:02Z</time>
      </trkpt>
      <trkpt lat="46.76071" lon="5.92798">
        <ele>803.4</ele>
        <time>2019-10-31T10:36:11Z</time>
      </trkpt>
      <trkpt lat="46.76075" lon="5.92803">
        <ele>804.3</ele>
        <time>2019-10-31T10:36:15Z</time>
      </trkpt>
      <trkpt lat="46.76074" lon="5.92797">
        <ele>798.3</ele>
        <time>2019-10-31T10:37:08Z</time>
      </trkpt>
      <trkpt lat="46.76072" lon="5.9279">
        <ele>793.8</ele>
        <time>2019-10-31T10:37:17Z</time>
      </trkpt>
      <trkpt lat="46.76072" lon="5.92783">
        <ele>790.3</ele>
        <time>2019-10-31T10:37:25Z</time>
      </trkpt>
      <trkpt lat="46.76076" lon="5.92781">
        <ele>789.4</ele>
        <time>2019-10-31T10:37:39Z</time>
      </trkpt>
      <trkpt lat="46.7608" lon="5.92776">
        <ele>790.4</ele>
        <time>2019-10-31T10:37:47Z</time>
      </trkpt>
      <trkpt lat="46.76084" lon="5.92772">
        <ele>791.6</ele>
        <time>2019-10-31T10:37:55Z</time>
      </trkpt>
      <trkpt lat="46.76087" lon="5.92765">
        <ele>792.3</ele>
        <time>2019-10-31T10:38:00Z</time>
      </trkpt>
      <trkpt lat="46.76089" lon="5.92759">
        <ele>792.8</ele>
        <time>2019-10-31T10:38:04Z</time>
      </trkpt>
      <trkpt lat="46.76092" lon="5.92751">
        <ele>793.5</ele>
        <time>2019-10-31T10:38:11Z</time>
      </trkpt>
      <trkpt lat="46.76093" lon="5.92745">
        <ele>794.2</ele>
        <time>2019-10-31T10:38:16Z</time>
      </trkpt>
      <trkpt lat="46.76095" lon="5.92738">
        <ele>795</ele>
        <time>2019-10-31T10:38:22Z</time>
      </trkpt>
      <trkpt lat="46.76095" lon="5.92731">
        <ele>795.9</ele>
        <time>2019-10-31T10:38:28Z</time>
      </trkpt>
      <trkpt lat="46.76097" lon="5.92725">
        <ele>796.8</ele>
        <time>2019-10-31T10:38:37Z</time>
      </trkpt>
      <trkpt lat="46.76102" lon="5.92723">
        <ele>797.7</ele>
        <time>2019-10-31T10:38:45Z</time>
      </trkpt>
      <trkpt lat="46.76104" lon="5.92717">
        <ele>798.2</ele>
        <time>2019-10-31T10:38:50Z</time>
      </trkpt>
      <trkpt lat="46.76106" lon="5.9271">
        <ele>798.5</ele>
        <time>2019-10-31T10:38:53Z</time>
      </trkpt>
      <trkpt lat="46.76108" lon="5.92703">
        <ele>799</ele>
        <time>2019-10-31T10:38:58Z</time>
      </trkpt>
      <trkpt lat="46.76109" lon="5.92697">
        <ele>799.4</ele>
        <time>2019-10-31T10:39:03Z</time>
      </trkpt>
      <trkpt lat="46.76111" lon="5.92689">
        <ele>799.9</ele>
        <time>2019-10-31T10:39:08Z</time>
      </trkpt>
      <trkpt lat="46.7611" lon="5.92682">
        <ele>800.4</ele>
        <time>2019-10-31T10:39:12Z</time>
      </trkpt>
      <trkpt lat="46.76112" lon="5.92674">
        <ele>801</ele>
        <time>2019-10-31T10:39:16Z</time>
      </trkpt>
      <trkpt lat="46.76112" lon="5.92668">
        <ele>801.7</ele>
        <time>2019-10-31T10:39:21Z</time>
      </trkpt>
      <trkpt lat="46.76113" lon="5.92661">
        <ele>802.8</ele>
        <time>2019-10-31T10:39:29Z</time>
      </trkpt>
      <trkpt lat="46.76116" lon="5.92654">
        <ele>804</ele>
        <time>2019-10-31T10:39:37Z</time>
      </trkpt>
      <trkpt lat="46.76116" lon="5.92647">
        <ele>804.6</ele>
        <time>2019-10-31T10:39:41Z</time>
      </trkpt>
      <trkpt lat="46.76115" lon="5.9264">
        <ele>804.2</ele>
        <time>2019-10-31T10:39:50Z</time>
      </trkpt>
      <trkpt lat="46.76113" lon="5.92633">
        <ele>802.2</ele>
        <time>2019-10-31T10:39:57Z</time>
      </trkpt>
      <trkpt lat="46.76111" lon="5.92627">
        <ele>800.3</ele>
        <time>2019-10-31T10:40:04Z</time>
      </trkpt>
      <trkpt lat="46.76111" lon="5.92619">
        <ele>799.2</ele>
        <time>2019-10-31T10:40:10Z</time>
      </trkpt>
      <trkpt lat="46.76112" lon="5.92612">
        <ele>798.5</ele>
        <time>2019-10-31T10:40:15Z</time>
      </trkpt>
      <trkpt lat="46.76112" lon="5.92605">
        <ele>798</ele>
        <time>2019-10-31T10:40:20Z</time>
      </trkpt>
      <trkpt lat="46.76111" lon="5.92598">
        <ele>797.8</ele>
        <time>2019-10-31T10:40:26Z</time>
      </trkpt>
      <trkpt lat="46.76109" lon="5.92591">
        <ele>797.8</ele>
        <time>2019-10-31T10:40:32Z</time>
      </trkpt>
      <trkpt lat="46.76107" lon="5.92584">
        <ele>797.7</ele>
        <time>2019-10-31T10:40:38Z</time>
      </trkpt>
      <trkpt lat="46.76102" lon="5.92581">
        <ele>797.5</ele>
        <time>2019-10-31T10:40:44Z</time>
      </trkpt>
      <trkpt lat="46.76098" lon="5.92578">
        <ele>797.5</ele>
        <time>2019-10-31T10:40:55Z</time>
      </trkpt>
      <trkpt lat="46.76099" lon="5.9257">
        <ele>798</ele>
        <time>2019-10-31T10:41:03Z</time>
      </trkpt>
      <trkpt lat="46.76097" lon="5.92564">
        <ele>798.7</ele>
        <time>2019-10-31T10:41:13Z</time>
      </trkpt>
      <trkpt lat="46.76099" lon="5.92558">
        <ele>800.1</ele>
        <time>2019-10-31T10:41:26Z</time>
      </trkpt>
      <trkpt lat="46.76099" lon="5.92551">
        <ele>799.9</ele>
        <time>2019-10-31T10:41:34Z</time>
      </trkpt>
      <trkpt lat="46.76097" lon="5.92543">
        <ele>799.5</ele>
        <time>2019-10-31T10:41:38Z</time>
      </trkpt>
      <trkpt lat="46.76095" lon="5.92537">
        <ele>799</ele>
        <time>2019-10-31T10:41:42Z</time>
      </trkpt>
      <trkpt lat="46.76094" lon="5.9253">
        <ele>798.4</ele>
        <time>2019-10-31T10:41:47Z</time>
      </trkpt>
      <trkpt lat="46.76092" lon="5.92524">
        <ele>797.5</ele>
        <time>2019-10-31T10:41:54Z</time>
      </trkpt>
      <trkpt lat="46.7609" lon="5.92516">
        <ele>797.1</ele>
        <time>2019-10-31T10:41:58Z</time>
      </trkpt>
      <trkpt lat="46.76088" lon="5.9251">
        <ele>796.9</ele>
        <time>2019-10-31T10:42:01Z</time>
      </trkpt>
      <trkpt lat="46.76086" lon="5.92501">
        <ele>796.8</ele>
        <time>2019-10-31T10:42:05Z</time>
      </trkpt>
      <trkpt lat="46.76086" lon="5.92495">
        <ele>796.9</ele>
        <time>2019-10-31T10:42:09Z</time>
      </trkpt>
      <trkpt lat="46.76086" lon="5.92487">
        <ele>797.2</ele>
        <time>2019-10-31T10:42:14Z</time>
      </trkpt>
      <trkpt lat="46.76087" lon="5.9248">
        <ele>797.8</ele>
        <time>2019-10-31T10:42:19Z</time>
      </trkpt>
      <trkpt lat="46.76088" lon="5.92474">
        <ele>798.3</ele>
        <time>2019-10-31T10:42:26Z</time>
      </trkpt>
      <trkpt lat="46.76089" lon="5.92466">
        <ele>798.3</ele>
        <time>2019-10-31T10:42:31Z</time>
      </trkpt>
      <trkpt lat="46.7609" lon="5.9246">
        <ele>798.2</ele>
        <time>2019-10-31T10:42:35Z</time>
      </trkpt>
      <trkpt lat="46.76091" lon="5.92453">
        <ele>798.2</ele>
        <time>2019-10-31T10:42:38Z</time>
      </trkpt>
      <trkpt lat="46.76092" lon="5.92446">
        <ele>798.2</ele>
        <time>2019-10-31T10:42:41Z</time>
      </trkpt>
      <trkpt lat="46.76092" lon="5.9244">
        <ele>798.4</ele>
        <time>2019-10-31T10:42:46Z</time>
      </trkpt>
      <trkpt lat="46.76093" lon="5.92433">
        <ele>798.7</ele>
        <time>2019-10-31T10:42:50Z</time>
      </trkpt>
      <trkpt lat="46.76095" lon="5.92426">
        <ele>799.1</ele>
        <time>2019-10-31T10:42:54Z</time>
      </trkpt>
      <trkpt lat="46.76096" lon="5.92419">
        <ele>799.5</ele>
        <time>2019-10-31T10:43:00Z</time>
      </trkpt>
      <trkpt lat="46.76097" lon="5.92411">
        <ele>799.6</ele>
        <time>2019-10-31T10:43:07Z</time>
      </trkpt>
      <trkpt lat="46.76099" lon="5.92404">
        <ele>799.2</ele>
        <time>2019-10-31T10:43:13Z</time>
      </trkpt>
      <trkpt lat="46.76102" lon="5.92398">
        <ele>798.1</ele>
        <time>2019-10-31T10:43:20Z</time>
      </trkpt>
      <trkpt lat="46.76103" lon="5.9239">
        <ele>796.8</ele>
        <time>2019-10-31T10:43:27Z</time>
      </trkpt>
      <trkpt lat="46.76101" lon="5.92384">
        <ele>795.4</ele>
        <time>2019-10-31T10:43:35Z</time>
      </trkpt>
      <trkpt lat="46.76098" lon="5.92379">
        <ele>794.3</ele>
        <time>2019-10-31T10:43:41Z</time>
      </trkpt>
      <trkpt lat="46.76095" lon="5.92374">
        <ele>793.6</ele>
        <time>2019-10-31T10:43:46Z</time>
      </trkpt>
      <trkpt lat="46.76092" lon="5.92369">
        <ele>793</ele>
        <time>2019-10-31T10:43:50Z</time>
      </trkpt>
      <trkpt lat="46.76089" lon="5.92365">
        <ele>791.6</ele>
        <time>2019-10-31T10:43:56Z</time>
      </trkpt>
      <trkpt lat="46.76085" lon="5.92361">
        <ele>790.4</ele>
        <time>2019-10-31T10:44:01Z</time>
      </trkpt>
      <trkpt lat="46.76082" lon="5.92356">
        <ele>789.1</ele>
        <time>2019-10-31T10:44:06Z</time>
      </trkpt>
      <trkpt lat="46.7608" lon="5.92348">
        <ele>788.2</ele>
        <time>2019-10-31T10:44:10Z</time>
      </trkpt>
      <trkpt lat="46.76079" lon="5.92341">
        <ele>787.1</ele>
        <time>2019-10-31T10:44:15Z</time>
      </trkpt>
      <trkpt lat="46.76077" lon="5.92334">
        <ele>785.9</ele>
        <time>2019-10-31T10:44:21Z</time>
      </trkpt>
      <trkpt lat="46.76075" lon="5.92328">
        <ele>784.7</ele>
        <time>2019-10-31T10:44:27Z</time>
      </trkpt>
      <trkpt lat="46.76074" lon="5.9232">
        <ele>783.7</ele>
        <time>2019-10-31T10:44:33Z</time>
      </trkpt>
      <trkpt lat="46.76073" lon="5.92313">
        <ele>782.9</ele>
        <time>2019-10-31T10:44:37Z</time>
      </trkpt>
      <trkpt lat="46.76072" lon="5.92306">
        <ele>782.4</ele>
        <time>2019-10-31T10:44:40Z</time>
      </trkpt>
      <trkpt lat="46.76071" lon="5.92298">
        <ele>781.9</ele>
        <time>2019-10-31T10:44:44Z</time>
      </trkpt>
      <trkpt lat="46.7607" lon="5.92291">
        <ele>781.2</ele>
        <time>2019-10-31T10:44:49Z</time>
      </trkpt>
      <trkpt lat="46.76068" lon="5.92284">
        <ele>780.9</ele>
        <time>2019-10-31T10:44:54Z</time>
      </trkpt>
      <trkpt lat="46.76071" lon="5.92279">
        <ele>781.3</ele>
        <time>2019-10-31T10:45:05Z</time>
      </trkpt>
      <trkpt lat="46.76068" lon="5.92273">
        <ele>782.4</ele>
        <time>2019-10-31T10:45:19Z</time>
      </trkpt>
      <trkpt lat="46.76066" lon="5.92267">
        <ele>783.6</ele>
        <time>2019-10-31T10:45:26Z</time>
      </trkpt>
      <trkpt lat="46.76066" lon="5.92259">
        <ele>784.9</ele>
        <time>2019-10-31T10:45:31Z</time>
      </trkpt>
      <trkpt lat="46.76064" lon="5.92253">
        <ele>787</ele>
        <time>2019-10-31T10:45:39Z</time>
      </trkpt>
      <trkpt lat="46.76065" lon="5.92247">
        <ele>791.5</ele>
        <time>2019-10-31T10:45:54Z</time>
      </trkpt>
      <trkpt lat="46.76067" lon="5.9224">
        <ele>796.1</ele>
        <time>2019-10-31T10:46:08Z</time>
      </trkpt>
      <trkpt lat="46.76071" lon="5.92237">
        <ele>798</ele>
        <time>2019-10-31T10:46:16Z</time>
      </trkpt>
      <trkpt lat="46.76075" lon="5.92235">
        <ele>799</ele>
        <time>2019-10-31T10:46:21Z</time>
      </trkpt>
      <trkpt lat="46.7608" lon="5.92234">
        <ele>799.8</ele>
        <time>2019-10-31T10:46:26Z</time>
      </trkpt>
      <trkpt lat="46.76078" lon="5.92228">
        <ele>801.8</ele>
        <time>2019-10-31T10:46:52Z</time>
      </trkpt>
      <trkpt lat="46.76078" lon="5.9222">
        <ele>801.6</ele>
        <time>2019-10-31T10:47:05Z</time>
      </trkpt>
      <trkpt lat="46.76076" lon="5.92214">
        <ele>801.1</ele>
        <time>2019-10-31T10:47:12Z</time>
      </trkpt>
      <trkpt lat="46.76076" lon="5.92207">
        <ele>800.8</ele>
        <time>2019-10-31T10:47:25Z</time>
      </trkpt>
      <trkpt lat="46.7608" lon="5.9221">
        <ele>797.9</ele>
        <time>2019-10-31T10:48:18Z</time>
      </trkpt>
      <trkpt lat="46.76081" lon="5.92204">
        <ele>798.4</ele>
        <time>2019-10-31T10:48:40Z</time>
      </trkpt>
      <trkpt lat="46.76076" lon="5.92205">
        <ele>798.9</ele>
        <time>2019-10-31T10:49:02Z</time>
      </trkpt>
      <trkpt lat="46.76072" lon="5.92208">
        <ele>801.1</ele>
        <time>2019-10-31T10:49:38Z</time>
      </trkpt>
      <trkpt lat="46.76067" lon="5.92208">
        <ele>801</ele>
        <time>2019-10-31T10:49:42Z</time>
      </trkpt>
      <trkpt lat="46.76062" lon="5.92209">
        <ele>798</ele>
        <time>2019-10-31T10:49:56Z</time>
      </trkpt>
      <trkpt lat="46.76057" lon="5.9221">
        <ele>797</ele>
        <time>2019-10-31T10:50:00Z</time>
      </trkpt>
      <trkpt lat="46.76051" lon="5.92209">
        <ele>796.4</ele>
        <time>2019-10-31T10:50:04Z</time>
      </trkpt>
      <trkpt lat="46.76046" lon="5.92209">
        <ele>795.7</ele>
        <time>2019-10-31T10:50:10Z</time>
      </trkpt>
      <trkpt lat="46.76041" lon="5.92212">
        <ele>794.3</ele>
        <time>2019-10-31T10:50:17Z</time>
      </trkpt>
      <trkpt lat="46.76036" lon="5.92214">
        <ele>793.1</ele>
        <time>2019-10-31T10:50:22Z</time>
      </trkpt>
      <trkpt lat="46.76032" lon="5.92216">
        <ele>791.9</ele>
        <time>2019-10-31T10:50:27Z</time>
      </trkpt>
      <trkpt lat="46.76027" lon="5.92216">
        <ele>790.5</ele>
        <time>2019-10-31T10:50:32Z</time>
      </trkpt>
      <trkpt lat="46.76022" lon="5.92218">
        <ele>789.3</ele>
        <time>2019-10-31T10:50:36Z</time>
      </trkpt>
      <trkpt lat="46.76017" lon="5.9222">
        <ele>787.6</ele>
        <time>2019-10-31T10:50:41Z</time>
      </trkpt>
      <trkpt lat="46.76012" lon="5.92223">
        <ele>785.8</ele>
        <time>2019-10-31T10:50:46Z</time>
      </trkpt>
      <trkpt lat="46.76007" lon="5.92224">
        <ele>784.4</ele>
        <time>2019-10-31T10:50:50Z</time>
      </trkpt>
      <trkpt lat="46.76002" lon="5.92226">
        <ele>783.2</ele>
        <time>2019-10-31T10:50:54Z</time>
      </trkpt>
      <trkpt lat="46.75997" lon="5.92228">
        <ele>782.2</ele>
        <time>2019-10-31T10:50:58Z</time>
      </trkpt>
      <trkpt lat="46.75992" lon="5.92228">
        <ele>781</ele>
        <time>2019-10-31T10:51:03Z</time>
      </trkpt>
      <trkpt lat="46.75987" lon="5.92228">
        <ele>780</ele>
        <time>2019-10-31T10:51:08Z</time>
      </trkpt>
      <trkpt lat="46.75982" lon="5.92227">
        <ele>779.3</ele>
        <time>2019-10-31T10:51:12Z</time>
      </trkpt>
      <trkpt lat="46.75978" lon="5.92226">
        <ele>778.4</ele>
        <time>2019-10-31T10:51:17Z</time>
      </trkpt>
      <trkpt lat="46.75973" lon="5.92225">
        <ele>777.8</ele>
        <time>2019-10-31T10:51:21Z</time>
      </trkpt>
      <trkpt lat="46.75968" lon="5.92224">
        <ele>777.2</ele>
        <time>2019-10-31T10:51:26Z</time>
      </trkpt>
      <trkpt lat="46.75963" lon="5.92224">
        <ele>776.9</ele>
        <time>2019-10-31T10:51:30Z</time>
      </trkpt>
      <trkpt lat="46.75959" lon="5.92222">
        <ele>776.6</ele>
        <time>2019-10-31T10:51:34Z</time>
      </trkpt>
      <trkpt lat="46.75955" lon="5.92218">
        <ele>776.2</ele>
        <time>2019-10-31T10:51:39Z</time>
      </trkpt>
      <trkpt lat="46.7595" lon="5.92215">
        <ele>775.6</ele>
        <time>2019-10-31T10:51:44Z</time>
      </trkpt>
      <trkpt lat="46.75946" lon="5.9221">
        <ele>772.8</ele>
        <time>2019-10-31T10:52:01Z</time>
      </trkpt>
      <trkpt lat="46.75941" lon="5.9221">
        <ele>771.9</ele>
        <time>2019-10-31T10:52:06Z</time>
      </trkpt>
      <trkpt lat="46.75936" lon="5.9221">
        <ele>771.2</ele>
        <time>2019-10-31T10:52:11Z</time>
      </trkpt>
      <trkpt lat="46.75932" lon="5.92213">
        <ele>770.5</ele>
        <time>2019-10-31T10:52:15Z</time>
      </trkpt>
      <trkpt lat="46.75928" lon="5.92217">
        <ele>769.8</ele>
        <time>2019-10-31T10:52:19Z</time>
      </trkpt>
      <trkpt lat="46.75924" lon="5.92221">
        <ele>768.9</ele>
        <time>2019-10-31T10:52:24Z</time>
      </trkpt>
      <trkpt lat="46.75919" lon="5.92225">
        <ele>768.1</ele>
        <time>2019-10-31T10:52:28Z</time>
      </trkpt>
      <trkpt lat="46.75914" lon="5.92229">
        <ele>767.6</ele>
        <time>2019-10-31T10:52:31Z</time>
      </trkpt>
      <trkpt lat="46.7591" lon="5.92233">
        <ele>767.2</ele>
        <time>2019-10-31T10:52:34Z</time>
      </trkpt>
      <trkpt lat="46.75906" lon="5.92237">
        <ele>766.7</ele>
        <time>2019-10-31T10:52:38Z</time>
      </trkpt>
      <trkpt lat="46.75901" lon="5.9224">
        <ele>766.2</ele>
        <time>2019-10-31T10:52:43Z</time>
      </trkpt>
      <trkpt lat="46.75894" lon="5.92205">
        <ele>774.5</ele>
        <time>2019-10-31T11:35:13Z</time>
      </trkpt>
      <trkpt lat="46.7589" lon="5.92209">
        <ele>777</ele>
        <time>2019-10-31T11:35:23Z</time>
      </trkpt>
      <trkpt lat="46.75886" lon="5.92215">
        <ele>778.4</ele>
        <time>2019-10-31T11:35:30Z</time>
      </trkpt>
      <trkpt lat="46.75882" lon="5.92221">
        <ele>779.2</ele>
        <time>2019-10-31T11:35:33Z</time>
      </trkpt>
      <trkpt lat="46.75878" lon="5.92228">
        <ele>780</ele>
        <time>2019-10-31T11:35:36Z</time>
      </trkpt>
      <trkpt lat="46.75877" lon="5.92235">
        <ele>780.9</ele>
        <time>2019-10-31T11:35:40Z</time>
      </trkpt>
      <trkpt lat="46.75872" lon="5.92239">
        <ele>785.2</ele>
        <time>2019-10-31T11:36:21Z</time>
      </trkpt>
      <trkpt lat="46.75867" lon="5.92234">
        <ele>791.5</ele>
        <time>2019-10-31T11:38:22Z</time>
      </trkpt>
      <trkpt lat="46.75862" lon="5.92233">
        <ele>791.1</ele>
        <time>2019-10-31T11:38:35Z</time>
      </trkpt>
      <trkpt lat="46.75857" lon="5.92235">
        <ele>791</ele>
        <time>2019-10-31T11:38:39Z</time>
      </trkpt>
      <trkpt lat="46.75852" lon="5.92235">
        <ele>791.2</ele>
        <time>2019-10-31T11:38:43Z</time>
      </trkpt>
      <trkpt lat="46.75847" lon="5.92234">
        <ele>791.8</ele>
        <time>2019-10-31T11:38:50Z</time>
      </trkpt>
      <trkpt lat="46.7584" lon="5.92231">
        <ele>794.3</ele>
        <time>2019-10-31T11:39:28Z</time>
      </trkpt>
      <trkpt lat="46.75836" lon="5.92229">
        <ele>794.3</ele>
        <time>2019-10-31T11:39:34Z</time>
      </trkpt>
      <trkpt lat="46.75832" lon="5.92226">
        <ele>793.6</ele>
        <time>2019-10-31T11:39:43Z</time>
      </trkpt>
      <trkpt lat="46.75828" lon="5.92222">
        <ele>792.6</ele>
        <time>2019-10-31T11:39:53Z</time>
      </trkpt>
      <trkpt lat="46.75824" lon="5.9222">
        <ele>791.8</ele>
        <time>2019-10-31T11:40:01Z</time>
      </trkpt>
      <trkpt lat="46.75819" lon="5.92221">
        <ele>791.5</ele>
        <time>2019-10-31T11:40:05Z</time>
      </trkpt>
      <trkpt lat="46.75814" lon="5.92221">
        <ele>791.3</ele>
        <time>2019-10-31T11:40:10Z</time>
      </trkpt>
      <trkpt lat="46.75809" lon="5.92222">
        <ele>791.4</ele>
        <time>2019-10-31T11:40:16Z</time>
      </trkpt>
      <trkpt lat="46.75797" lon="5.92227">
        <ele>792</ele>
        <time>2019-10-31T11:40:25Z</time>
      </trkpt>
      <trkpt lat="46.75792" lon="5.92229">
        <ele>792</ele>
        <time>2019-10-31T11:40:28Z</time>
      </trkpt>
      <trkpt lat="46.75787" lon="5.92231">
        <ele>791.7</ele>
        <time>2019-10-31T11:40:34Z</time>
      </trkpt>
      <trkpt lat="46.75783" lon="5.92235">
        <ele>790.6</ele>
        <time>2019-10-31T11:40:43Z</time>
      </trkpt>
      <trkpt lat="46.75779" lon="5.92239">
        <ele>789.4</ele>
        <time>2019-10-31T11:40:53Z</time>
      </trkpt>
      <trkpt lat="46.75775" lon="5.92242">
        <ele>788.6</ele>
        <time>2019-10-31T11:41:00Z</time>
      </trkpt>
      <trkpt lat="46.7577" lon="5.92244">
        <ele>786.7</ele>
        <time>2019-10-31T11:41:10Z</time>
      </trkpt>
      <trkpt lat="46.75766" lon="5.92247">
        <ele>786.1</ele>
        <time>2019-10-31T11:41:15Z</time>
      </trkpt>
      <trkpt lat="46.75762" lon="5.92247">
        <ele>785</ele>
        <time>2019-10-31T11:41:24Z</time>
      </trkpt>
      <trkpt lat="46.75757" lon="5.92245">
        <ele>783.3</ele>
        <time>2019-10-31T11:41:35Z</time>
      </trkpt>
      <trkpt lat="46.75755" lon="5.92249">
        <ele>776.3</ele>
        <time>2019-10-31T11:42:06Z</time>
      </trkpt>
      <trkpt lat="46.75751" lon="5.92254">
        <ele>777.4</ele>
        <time>2019-10-31T11:42:15Z</time>
      </trkpt>
      <trkpt lat="46.75747" lon="5.92259">
        <ele>778.1</ele>
        <time>2019-10-31T11:42:19Z</time>
      </trkpt>
      <trkpt lat="46.75729" lon="5.92278">
        <ele>779.9</ele>
        <time>2019-10-31T11:42:30Z</time>
      </trkpt>
      <trkpt lat="46.75722" lon="5.92282">
        <ele>779.8</ele>
        <time>2019-10-31T11:42:35Z</time>
      </trkpt>
      <trkpt lat="46.75716" lon="5.92286">
        <ele>779.7</ele>
        <time>2019-10-31T11:42:38Z</time>
      </trkpt>
      <trkpt lat="46.75712" lon="5.9229">
        <ele>779.4</ele>
        <time>2019-10-31T11:42:41Z</time>
      </trkpt>
      <trkpt lat="46.75708" lon="5.92293">
        <ele>779</ele>
        <time>2019-10-31T11:42:44Z</time>
      </trkpt>
      <trkpt lat="46.75703" lon="5.92296">
        <ele>778.5</ele>
        <time>2019-10-31T11:42:48Z</time>
      </trkpt>
      <trkpt lat="46.75699" lon="5.923">
        <ele>777.8</ele>
        <time>2019-10-31T11:42:53Z</time>
      </trkpt>
      <trkpt lat="46.75695" lon="5.92304">
        <ele>777.1</ele>
        <time>2019-10-31T11:42:57Z</time>
      </trkpt>
      <trkpt lat="46.7569" lon="5.92308">
        <ele>776.2</ele>
        <time>2019-10-31T11:43:01Z</time>
      </trkpt>
      <trkpt lat="46.75686" lon="5.92311">
        <ele>775.4</ele>
        <time>2019-10-31T11:43:04Z</time>
      </trkpt>
      <trkpt lat="46.75682" lon="5.92314">
        <ele>774</ele>
        <time>2019-10-31T11:43:09Z</time>
      </trkpt>
      <trkpt lat="46.75678" lon="5.92318">
        <ele>772.3</ele>
        <time>2019-10-31T11:43:16Z</time>
      </trkpt>
      <trkpt lat="46.75673" lon="5.92315">
        <ele>770.5</ele>
        <time>2019-10-31T11:43:25Z</time>
      </trkpt>
      <trkpt lat="46.75667" lon="5.92313">
        <ele>769.6</ele>
        <time>2019-10-31T11:43:31Z</time>
      </trkpt>
      <trkpt lat="46.75663" lon="5.92311">
        <ele>768.1</ele>
        <time>2019-10-31T11:43:38Z</time>
      </trkpt>
      <trkpt lat="46.75659" lon="5.92308">
        <ele>766.6</ele>
        <time>2019-10-31T11:43:45Z</time>
      </trkpt>
      <trkpt lat="46.75654" lon="5.92305">
        <ele>765.3</ele>
        <time>2019-10-31T11:43:51Z</time>
      </trkpt>
      <trkpt lat="46.75643" lon="5.92304">
        <ele>762.7</ele>
        <time>2019-10-31T11:44:06Z</time>
      </trkpt>
      <trkpt lat="46.75638" lon="5.92305">
        <ele>762.7</ele>
        <time>2019-10-31T11:44:15Z</time>
      </trkpt>
      <trkpt lat="46.75634" lon="5.92308">
        <ele>762.8</ele>
        <time>2019-10-31T11:44:18Z</time>
      </trkpt>
      <trkpt lat="46.7561" lon="5.92311">
        <ele>767.2</ele>
        <time>2019-10-31T11:44:45Z</time>
      </trkpt>
      <trkpt lat="46.75596" lon="5.92308">
        <ele>768.9</ele>
        <time>2019-10-31T11:45:48Z</time>
      </trkpt>
      <trkpt lat="46.75597" lon="5.92301">
        <ele>768.9</ele>
        <time>2019-10-31T11:45:58Z</time>
      </trkpt>
      <trkpt lat="46.75594" lon="5.92291">
        <ele>768.6</ele>
        <time>2019-10-31T11:46:12Z</time>
      </trkpt>
      <trkpt lat="46.75589" lon="5.92289">
        <ele>768.8</ele>
        <time>2019-10-31T11:46:19Z</time>
      </trkpt>
      <trkpt lat="46.75585" lon="5.92283">
        <ele>774.3</ele>
        <time>2019-10-31T11:47:28Z</time>
      </trkpt>
      <trkpt lat="46.75581" lon="5.9228">
        <ele>775</ele>
        <time>2019-10-31T11:47:37Z</time>
      </trkpt>
      <trkpt lat="46.75575" lon="5.92278">
        <ele>774.9</ele>
        <time>2019-10-31T11:47:41Z</time>
      </trkpt>
      <trkpt lat="46.75571" lon="5.92278">
        <ele>774.5</ele>
        <time>2019-10-31T11:47:47Z</time>
      </trkpt>
      <trkpt lat="46.75566" lon="5.9228">
        <ele>773.9</ele>
        <time>2019-10-31T11:47:59Z</time>
      </trkpt>
      <trkpt lat="46.75562" lon="5.92284">
        <ele>774</ele>
        <time>2019-10-31T11:48:08Z</time>
      </trkpt>
      <trkpt lat="46.75557" lon="5.92288">
        <ele>774.3</ele>
        <time>2019-10-31T11:48:12Z</time>
      </trkpt>
      <trkpt lat="46.75553" lon="5.92292">
        <ele>774.5</ele>
        <time>2019-10-31T11:48:15Z</time>
      </trkpt>
      <trkpt lat="46.75548" lon="5.92294">
        <ele>774.9</ele>
        <time>2019-10-31T11:48:20Z</time>
      </trkpt>
      <trkpt lat="46.75544" lon="5.92292">
        <ele>775</ele>
        <time>2019-10-31T11:48:24Z</time>
      </trkpt>
      <trkpt lat="46.7554" lon="5.92295">
        <ele>774.9</ele>
        <time>2019-10-31T11:48:33Z</time>
      </trkpt>
      <trkpt lat="46.75536" lon="5.92301">
        <ele>774.6</ele>
        <time>2019-10-31T11:48:40Z</time>
      </trkpt>
      <trkpt lat="46.75533" lon="5.92306">
        <ele>775</ele>
        <time>2019-10-31T11:48:53Z</time>
      </trkpt>
      <trkpt lat="46.75529" lon="5.92308">
        <ele>774.7</ele>
        <time>2019-10-31T11:49:26Z</time>
      </trkpt>
      <trkpt lat="46.75532" lon="5.92302">
        <ele>773.7</ele>
        <time>2019-10-31T11:52:58Z</time>
      </trkpt>
      <trkpt lat="46.75536" lon="5.923">
        <ele>772.9</ele>
        <time>2019-10-31T11:53:07Z</time>
      </trkpt>
      <trkpt lat="46.75541" lon="5.92299">
        <ele>772.5</ele>
        <time>2019-10-31T11:53:15Z</time>
      </trkpt>
      <trkpt lat="46.75546" lon="5.92296">
        <ele>772.3</ele>
        <time>2019-10-31T11:53:23Z</time>
      </trkpt>
      <trkpt lat="46.7555" lon="5.92293">
        <ele>772.3</ele>
        <time>2019-10-31T11:53:25Z</time>
      </trkpt>
      <trkpt lat="46.75555" lon="5.92291">
        <ele>771.8</ele>
        <time>2019-10-31T11:53:37Z</time>
      </trkpt>
      <trkpt lat="46.75563" lon="5.92286">
        <ele>771.4</ele>
        <time>2019-10-31T11:53:55Z</time>
      </trkpt>
      <trkpt lat="46.75567" lon="5.92283">
        <ele>771.6</ele>
        <time>2019-10-31T11:53:58Z</time>
      </trkpt>
      <trkpt lat="46.75572" lon="5.9228">
        <ele>771.7</ele>
        <time>2019-10-31T11:54:03Z</time>
      </trkpt>
      <trkpt lat="46.75576" lon="5.9228">
        <ele>770.8</ele>
        <time>2019-10-31T11:54:22Z</time>
      </trkpt>
      <trkpt lat="46.75579" lon="5.92285">
        <ele>770.4</ele>
        <time>2019-10-31T11:54:45Z</time>
      </trkpt>
      <trkpt lat="46.75586" lon="5.92286">
        <ele>768</ele>
        <time>2019-10-31T11:55:20Z</time>
      </trkpt>
      <trkpt lat="46.75585" lon="5.923">
        <ele>768.2</ele>
        <time>2019-10-31T11:56:40Z</time>
      </trkpt>
      <trkpt lat="46.7559" lon="5.92303">
        <ele>767.1</ele>
        <time>2019-10-31T11:56:52Z</time>
      </trkpt>
      <trkpt lat="46.756" lon="5.92309">
        <ele>765.6</ele>
        <time>2019-10-31T11:57:25Z</time>
      </trkpt>
      <trkpt lat="46.75604" lon="5.92313">
        <ele>765.8</ele>
        <time>2019-10-31T11:57:29Z</time>
      </trkpt>
      <trkpt lat="46.7561" lon="5.92319">
        <ele>766.8</ele>
        <time>2019-10-31T11:57:41Z</time>
      </trkpt>
      <trkpt lat="46.75614" lon="5.92319">
        <ele>767</ele>
        <time>2019-10-31T11:57:47Z</time>
      </trkpt>
      <trkpt lat="46.75629" lon="5.92309">
        <ele>767.9</ele>
        <time>2019-10-31T11:58:06Z</time>
      </trkpt>
      <trkpt lat="46.75634" lon="5.92308">
        <ele>768.5</ele>
        <time>2019-10-31T11:58:13Z</time>
      </trkpt>
      <trkpt lat="46.75639" lon="5.92309">
        <ele>769.1</ele>
        <time>2019-10-31T11:58:18Z</time>
      </trkpt>
      <trkpt lat="46.75643" lon="5.92312">
        <ele>769.9</ele>
        <time>2019-10-31T11:58:29Z</time>
      </trkpt>
      <trkpt lat="46.75648" lon="5.92312">
        <ele>770.1</ele>
        <time>2019-10-31T11:58:38Z</time>
      </trkpt>
      <trkpt lat="46.75653" lon="5.92311">
        <ele>769.9</ele>
        <time>2019-10-31T11:58:44Z</time>
      </trkpt>
      <trkpt lat="46.75657" lon="5.92311">
        <ele>769.5</ele>
        <time>2019-10-31T11:58:51Z</time>
      </trkpt>
      <trkpt lat="46.75663" lon="5.9231">
        <ele>769.2</ele>
        <time>2019-10-31T11:58:56Z</time>
      </trkpt>
      <trkpt lat="46.75667" lon="5.9231">
        <ele>769.1</ele>
        <time>2019-10-31T11:59:01Z</time>
      </trkpt>
      <trkpt lat="46.75672" lon="5.92308">
        <ele>769.1</ele>
        <time>2019-10-31T11:59:03Z</time>
      </trkpt>
      <trkpt lat="46.75677" lon="5.92307">
        <ele>769.2</ele>
        <time>2019-10-31T11:59:06Z</time>
      </trkpt>
      <trkpt lat="46.75682" lon="5.92304">
        <ele>769.5</ele>
        <time>2019-10-31T11:59:09Z</time>
      </trkpt>
      <trkpt lat="46.75687" lon="5.92301">
        <ele>769.9</ele>
        <time>2019-10-31T11:59:13Z</time>
      </trkpt>
      <trkpt lat="46.75692" lon="5.92299">
        <ele>770.5</ele>
        <time>2019-10-31T11:59:18Z</time>
      </trkpt>
      <trkpt lat="46.75696" lon="5.92297">
        <ele>770.8</ele>
        <time>2019-10-31T11:59:23Z</time>
      </trkpt>
      <trkpt lat="46.757" lon="5.92292">
        <ele>771.1</ele>
        <time>2019-10-31T11:59:29Z</time>
      </trkpt>
      <trkpt lat="46.75704" lon="5.92289">
        <ele>771.4</ele>
        <time>2019-10-31T11:59:34Z</time>
      </trkpt>
      <trkpt lat="46.75709" lon="5.92286">
        <ele>771.5</ele>
        <time>2019-10-31T11:59:40Z</time>
      </trkpt>
      <trkpt lat="46.75713" lon="5.92283">
        <ele>771.4</ele>
        <time>2019-10-31T11:59:46Z</time>
      </trkpt>
      <trkpt lat="46.75717" lon="5.92278">
        <ele>771.4</ele>
        <time>2019-10-31T11:59:54Z</time>
      </trkpt>
      <trkpt lat="46.75722" lon="5.92275">
        <ele>771.6</ele>
        <time>2019-10-31T11:59:59Z</time>
      </trkpt>
      <trkpt lat="46.75727" lon="5.92273">
        <ele>772</ele>
        <time>2019-10-31T12:00:05Z</time>
      </trkpt>
      <trkpt lat="46.75731" lon="5.92269">
        <ele>772.1</ele>
        <time>2019-10-31T12:00:09Z</time>
      </trkpt>
      <trkpt lat="46.75736" lon="5.92265">
        <ele>772.1</ele>
        <time>2019-10-31T12:00:13Z</time>
      </trkpt>
      <trkpt lat="46.7574" lon="5.92263">
        <ele>772.2</ele>
        <time>2019-10-31T12:00:18Z</time>
      </trkpt>
      <trkpt lat="46.75744" lon="5.9226">
        <ele>772.4</ele>
        <time>2019-10-31T12:00:23Z</time>
      </trkpt>
      <trkpt lat="46.75749" lon="5.92258">
        <ele>772.8</ele>
        <time>2019-10-31T12:00:28Z</time>
      </trkpt>
      <trkpt lat="46.75754" lon="5.92255">
        <ele>773.3</ele>
        <time>2019-10-31T12:00:34Z</time>
      </trkpt>
      <trkpt lat="46.75759" lon="5.92253">
        <ele>773.7</ele>
        <time>2019-10-31T12:00:41Z</time>
      </trkpt>
      <trkpt lat="46.75763" lon="5.92251">
        <ele>773.8</ele>
        <time>2019-10-31T12:00:45Z</time>
      </trkpt>
      <trkpt lat="46.75767" lon="5.92246">
        <ele>773.9</ele>
        <time>2019-10-31T12:00:50Z</time>
      </trkpt>
      <trkpt lat="46.75772" lon="5.92243">
        <ele>773.9</ele>
        <time>2019-10-31T12:00:55Z</time>
      </trkpt>
      <trkpt lat="46.75775" lon="5.92238">
        <ele>774</ele>
        <time>2019-10-31T12:00:59Z</time>
      </trkpt>
      <trkpt lat="46.75779" lon="5.92233">
        <ele>774.1</ele>
        <time>2019-10-31T12:01:04Z</time>
      </trkpt>
      <trkpt lat="46.75783" lon="5.9223">
        <ele>774.4</ele>
        <time>2019-10-31T12:01:09Z</time>
      </trkpt>
      <trkpt lat="46.75789" lon="5.92227">
        <ele>775</ele>
        <time>2019-10-31T12:01:14Z</time>
      </trkpt>
      <trkpt lat="46.75793" lon="5.92224">
        <ele>775.4</ele>
        <time>2019-10-31T12:01:17Z</time>
      </trkpt>
      <trkpt lat="46.75797" lon="5.92222">
        <ele>776.2</ele>
        <time>2019-10-31T12:01:22Z</time>
      </trkpt>
      <trkpt lat="46.75801" lon="5.9222">
        <ele>777.1</ele>
        <time>2019-10-31T12:01:26Z</time>
      </trkpt>
      <trkpt lat="46.75806" lon="5.92217">
        <ele>778.4</ele>
        <time>2019-10-31T12:01:32Z</time>
      </trkpt>
      <trkpt lat="46.75811" lon="5.92218">
        <ele>779.4</ele>
        <time>2019-10-31T12:01:39Z</time>
      </trkpt>
      <trkpt lat="46.75816" lon="5.92218">
        <ele>780.3</ele>
        <time>2019-10-31T12:01:46Z</time>
      </trkpt>
      <trkpt lat="46.75821" lon="5.92218">
        <ele>781.2</ele>
        <time>2019-10-31T12:01:52Z</time>
      </trkpt>
      <trkpt lat="46.75826" lon="5.92218">
        <ele>782.3</ele>
        <time>2019-10-31T12:01:58Z</time>
      </trkpt>
      <trkpt lat="46.75831" lon="5.92219">
        <ele>782.9</ele>
        <time>2019-10-31T12:02:03Z</time>
      </trkpt>
      <trkpt lat="46.75836" lon="5.92218">
        <ele>783.4</ele>
        <time>2019-10-31T12:02:08Z</time>
      </trkpt>
      <trkpt lat="46.75841" lon="5.92218">
        <ele>783.9</ele>
        <time>2019-10-31T12:02:14Z</time>
      </trkpt>
      <trkpt lat="46.75846" lon="5.92217">
        <ele>784</ele>
        <time>2019-10-31T12:02:21Z</time>
      </trkpt>
      <trkpt lat="46.75851" lon="5.92215">
        <ele>783.6</ele>
        <time>2019-10-31T12:02:28Z</time>
      </trkpt>
      <trkpt lat="46.75855" lon="5.92212">
        <ele>783.1</ele>
        <time>2019-10-31T12:02:35Z</time>
      </trkpt>
      <trkpt lat="46.7586" lon="5.92211">
        <ele>784.3</ele>
        <time>2019-10-31T12:02:50Z</time>
      </trkpt>
      <trkpt lat="46.75865" lon="5.92212">
        <ele>784.6</ele>
        <time>2019-10-31T12:02:54Z</time>
      </trkpt>
      <trkpt lat="46.75869" lon="5.92216">
        <ele>785.1</ele>
        <time>2019-10-31T12:02:59Z</time>
      </trkpt>
      <trkpt lat="46.75869" lon="5.92222">
        <ele>785.5</ele>
        <time>2019-10-31T12:03:04Z</time>
      </trkpt>
      <trkpt lat="46.75872" lon="5.92228">
        <ele>785.7</ele>
        <time>2019-10-31T12:03:09Z</time>
      </trkpt>
      <trkpt lat="46.75877" lon="5.9223">
        <ele>785.7</ele>
        <time>2019-10-31T12:03:12Z</time>
      </trkpt>
      <trkpt lat="46.75881" lon="5.92229">
        <ele>785.6</ele>
        <time>2019-10-31T12:03:16Z</time>
      </trkpt>
      <trkpt lat="46.75887" lon="5.92228">
        <ele>785.6</ele>
        <time>2019-10-31T12:03:21Z</time>
      </trkpt>
      <trkpt lat="46.75891" lon="5.92226">
        <ele>785.5</ele>
        <time>2019-10-31T12:03:25Z</time>
      </trkpt>
      <trkpt lat="46.75896" lon="5.92222">
        <ele>785.5</ele>
        <time>2019-10-31T12:03:29Z</time>
      </trkpt>
      <trkpt lat="46.759" lon="5.92218">
        <ele>786.2</ele>
        <time>2019-10-31T12:03:36Z</time>
      </trkpt>
      <trkpt lat="46.75907" lon="5.9221">
        <ele>787</ele>
        <time>2019-10-31T12:03:47Z</time>
      </trkpt>
      <trkpt lat="46.75912" lon="5.92207">
        <ele>787.1</ele>
        <time>2019-10-31T12:03:53Z</time>
      </trkpt>
      <trkpt lat="46.75915" lon="5.92203">
        <ele>787.2</ele>
        <time>2019-10-31T12:03:57Z</time>
      </trkpt>
      <trkpt lat="46.75919" lon="5.92198">
        <ele>787.3</ele>
        <time>2019-10-31T12:04:02Z</time>
      </trkpt>
      <trkpt lat="46.75923" lon="5.92191">
        <ele>787.6</ele>
        <time>2019-10-31T12:04:07Z</time>
      </trkpt>
      <trkpt lat="46.75926" lon="5.92186">
        <ele>787.8</ele>
        <time>2019-10-31T12:04:11Z</time>
      </trkpt>
      <trkpt lat="46.75928" lon="5.92179">
        <ele>788</ele>
        <time>2019-10-31T12:04:16Z</time>
      </trkpt>
      <trkpt lat="46.75929" lon="5.92172">
        <ele>788.2</ele>
        <time>2019-10-31T12:04:21Z</time>
      </trkpt>
      <trkpt lat="46.7593" lon="5.92165">
        <ele>788.4</ele>
        <time>2019-10-31T12:04:26Z</time>
      </trkpt>
      <trkpt lat="46.75931" lon="5.92158">
        <ele>788.8</ele>
        <time>2019-10-31T12:04:31Z</time>
      </trkpt>
      <trkpt lat="46.75931" lon="5.92151">
        <ele>788.9</ele>
        <time>2019-10-31T12:04:36Z</time>
      </trkpt>
      <trkpt lat="46.75933" lon="5.92144">
        <ele>788.8</ele>
        <time>2019-10-31T12:04:40Z</time>
      </trkpt>
      <trkpt lat="46.75936" lon="5.92138">
        <ele>788.8</ele>
        <time>2019-10-31T12:04:46Z</time>
      </trkpt>
      <trkpt lat="46.75939" lon="5.92132">
        <ele>788.8</ele>
        <time>2019-10-31T12:04:50Z</time>
      </trkpt>
      <trkpt lat="46.7594" lon="5.92126">
        <ele>788.5</ele>
        <time>2019-10-31T12:04:55Z</time>
      </trkpt>
      <trkpt lat="46.7594" lon="5.92119">
        <ele>788.4</ele>
        <time>2019-10-31T12:05:00Z</time>
      </trkpt>
      <trkpt lat="46.75941" lon="5.92112">
        <ele>788.1</ele>
        <time>2019-10-31T12:05:06Z</time>
      </trkpt>
      <trkpt lat="46.75944" lon="5.92106">
        <ele>787.7</ele>
        <time>2019-10-31T12:05:12Z</time>
      </trkpt>
      <trkpt lat="46.75947" lon="5.92101">
        <ele>787.3</ele>
        <time>2019-10-31T12:05:18Z</time>
      </trkpt>
      <trkpt lat="46.75949" lon="5.92095">
        <ele>786.9</ele>
        <time>2019-10-31T12:05:24Z</time>
      </trkpt>
      <trkpt lat="46.75951" lon="5.92088">
        <ele>786.7</ele>
        <time>2019-10-31T12:05:29Z</time>
      </trkpt>
      <trkpt lat="46.75953" lon="5.92081">
        <ele>786.6</ele>
        <time>2019-10-31T12:05:34Z</time>
      </trkpt>
      <trkpt lat="46.75955" lon="5.92074">
        <ele>786.5</ele>
        <time>2019-10-31T12:05:39Z</time>
      </trkpt>
      <trkpt lat="46.75956" lon="5.92066">
        <ele>786.4</ele>
        <time>2019-10-31T12:05:44Z</time>
      </trkpt>
      <trkpt lat="46.75957" lon="5.92059">
        <ele>786.1</ele>
        <time>2019-10-31T12:05:49Z</time>
      </trkpt>
      <trkpt lat="46.75959" lon="5.92052">
        <ele>785.6</ele>
        <time>2019-10-31T12:05:54Z</time>
      </trkpt>
      <trkpt lat="46.75966" lon="5.92037">
        <ele>783.2</ele>
        <time>2019-10-31T12:06:07Z</time>
      </trkpt>
      <trkpt lat="46.75969" lon="5.92032">
        <ele>782.5</ele>
        <time>2019-10-31T12:06:12Z</time>
      </trkpt>
      <trkpt lat="46.75972" lon="5.92026">
        <ele>781.8</ele>
        <time>2019-10-31T12:06:17Z</time>
      </trkpt>
      <trkpt lat="46.75975" lon="5.92021">
        <ele>780.9</ele>
        <time>2019-10-31T12:06:23Z</time>
      </trkpt>
      <trkpt lat="46.75978" lon="5.92015">
        <ele>780.1</ele>
        <time>2019-10-31T12:06:30Z</time>
      </trkpt>
      <trkpt lat="46.75981" lon="5.92009">
        <ele>779.2</ele>
        <time>2019-10-31T12:06:36Z</time>
      </trkpt>
      <trkpt lat="46.75982" lon="5.92001">
        <ele>778.4</ele>
        <time>2019-10-31T12:06:41Z</time>
      </trkpt>
      <trkpt lat="46.75983" lon="5.91994">
        <ele>777.4</ele>
        <time>2019-10-31T12:06:46Z</time>
      </trkpt>
      <trkpt lat="46.75985" lon="5.91988">
        <ele>776.4</ele>
        <time>2019-10-31T12:06:51Z</time>
      </trkpt>
      <trkpt lat="46.75986" lon="5.91981">
        <ele>775.5</ele>
        <time>2019-10-31T12:06:55Z</time>
      </trkpt>
      <trkpt lat="46.75989" lon="5.91976">
        <ele>774.6</ele>
        <time>2019-10-31T12:06:59Z</time>
      </trkpt>
      <trkpt lat="46.75992" lon="5.9197">
        <ele>773.4</ele>
        <time>2019-10-31T12:07:05Z</time>
      </trkpt>
      <trkpt lat="46.75994" lon="5.91965">
        <ele>772.3</ele>
        <time>2019-10-31T12:07:10Z</time>
      </trkpt>
      <trkpt lat="46.75997" lon="5.91959">
        <ele>771.4</ele>
        <time>2019-10-31T12:07:16Z</time>
      </trkpt>
      <trkpt lat="46.76" lon="5.91952">
        <ele>770.8</ele>
        <time>2019-10-31T12:07:20Z</time>
      </trkpt>
      <trkpt lat="46.76003" lon="5.91944">
        <ele>770.1</ele>
        <time>2019-10-31T12:07:25Z</time>
      </trkpt>
      <trkpt lat="46.76006" lon="5.91937">
        <ele>769.1</ele>
        <time>2019-10-31T12:07:31Z</time>
      </trkpt>
      <trkpt lat="46.76014" lon="5.91913">
        <ele>766.7</ele>
        <time>2019-10-31T12:07:43Z</time>
      </trkpt>
      <trkpt lat="46.76017" lon="5.91907">
        <ele>766.4</ele>
        <time>2019-10-31T12:07:49Z</time>
      </trkpt>
      <trkpt lat="46.76017" lon="5.919">
        <ele>766.1</ele>
        <time>2019-10-31T12:07:55Z</time>
      </trkpt>
      <trkpt lat="46.76018" lon="5.91892">
        <ele>766</ele>
        <time>2019-10-31T12:08:03Z</time>
      </trkpt>
      <trkpt lat="46.7602" lon="5.91885">
        <ele>766.1</ele>
        <time>2019-10-31T12:08:07Z</time>
      </trkpt>
      <trkpt lat="46.76021" lon="5.91877">
        <ele>766.4</ele>
        <time>2019-10-31T12:08:11Z</time>
      </trkpt>
      <trkpt lat="46.76022" lon="5.91868">
        <ele>766.8</ele>
        <time>2019-10-31T12:08:15Z</time>
      </trkpt>
      <trkpt lat="46.76022" lon="5.9186">
        <ele>767.1</ele>
        <time>2019-10-31T12:08:19Z</time>
      </trkpt>
      <trkpt lat="46.76024" lon="5.91853">
        <ele>767.3</ele>
        <time>2019-10-31T12:08:23Z</time>
      </trkpt>
      <trkpt lat="46.76025" lon="5.91847">
        <ele>767.4</ele>
        <time>2019-10-31T12:08:27Z</time>
      </trkpt>
      <trkpt lat="46.76026" lon="5.9184">
        <ele>767.6</ele>
        <time>2019-10-31T12:08:33Z</time>
      </trkpt>
      <trkpt lat="46.76029" lon="5.91834">
        <ele>767.5</ele>
        <time>2019-10-31T12:08:37Z</time>
      </trkpt>
      <trkpt lat="46.76033" lon="5.91829">
        <ele>767.3</ele>
        <time>2019-10-31T12:08:41Z</time>
      </trkpt>
      <trkpt lat="46.76036" lon="5.91823">
        <ele>767</ele>
        <time>2019-10-31T12:08:45Z</time>
      </trkpt>
      <trkpt lat="46.76038" lon="5.91816">
        <ele>766.2</ele>
        <time>2019-10-31T12:08:52Z</time>
      </trkpt>
      <trkpt lat="46.76038" lon="5.91809">
        <ele>765.2</ele>
        <time>2019-10-31T12:08:59Z</time>
      </trkpt>
      <trkpt lat="46.76037" lon="5.91802">
        <ele>764.4</ele>
        <time>2019-10-31T12:09:04Z</time>
      </trkpt>
      <trkpt lat="46.76042" lon="5.91799">
        <ele>762</ele>
        <time>2019-10-31T12:09:25Z</time>
      </trkpt>
      <trkpt lat="46.76046" lon="5.91797">
        <ele>761.5</ele>
        <time>2019-10-31T12:09:30Z</time>
      </trkpt>
      <trkpt lat="46.7605" lon="5.91795">
        <ele>760.9</ele>
        <time>2019-10-31T12:09:35Z</time>
      </trkpt>
      <trkpt lat="46.76055" lon="5.91791">
        <ele>760</ele>
        <time>2019-10-31T12:09:43Z</time>
      </trkpt>
      <trkpt lat="46.7606" lon="5.91792">
        <ele>759.2</ele>
        <time>2019-10-31T12:09:51Z</time>
      </trkpt>
      <trkpt lat="46.76064" lon="5.91793">
        <ele>759.1</ele>
        <time>2019-10-31T12:09:56Z</time>
      </trkpt>
      <trkpt lat="46.76069" lon="5.91793">
        <ele>759</ele>
        <time>2019-10-31T12:10:04Z</time>
      </trkpt>
      <trkpt lat="46.76074" lon="5.91793">
        <ele>758.9</ele>
        <time>2019-10-31T12:10:12Z</time>
      </trkpt>
      <trkpt lat="46.7608" lon="5.91793">
        <ele>759</ele>
        <time>2019-10-31T12:10:18Z</time>
      </trkpt>
      <trkpt lat="46.76084" lon="5.91793">
        <ele>759.4</ele>
        <time>2019-10-31T12:10:24Z</time>
      </trkpt>
      <trkpt lat="46.76089" lon="5.91792">
        <ele>759.3</ele>
        <time>2019-10-31T12:10:29Z</time>
      </trkpt>
      <trkpt lat="46.76093" lon="5.91791">
        <ele>760</ele>
        <time>2019-10-31T12:10:49Z</time>
      </trkpt>
      <trkpt lat="46.76094" lon="5.91798">
        <ele>756.3</ele>
        <time>2019-10-31T12:13:17Z</time>
      </trkpt>
      <trkpt lat="46.76096" lon="5.91804">
        <ele>755.6</ele>
        <time>2019-10-31T12:13:24Z</time>
      </trkpt>
      <trkpt lat="46.761" lon="5.9181">
        <ele>755.4</ele>
        <time>2019-10-31T12:13:31Z</time>
      </trkpt>
      <trkpt lat="46.76101" lon="5.91817">
        <ele>755.2</ele>
        <time>2019-10-31T12:13:36Z</time>
      </trkpt>
      <trkpt lat="46.76104" lon="5.91822">
        <ele>755.3</ele>
        <time>2019-10-31T12:13:42Z</time>
      </trkpt>
      <trkpt lat="46.76107" lon="5.91828">
        <ele>756.1</ele>
        <time>2019-10-31T12:13:50Z</time>
      </trkpt>
      <trkpt lat="46.76108" lon="5.91837">
        <ele>756.5</ele>
        <time>2019-10-31T12:13:55Z</time>
      </trkpt>
      <trkpt lat="46.76107" lon="5.91844">
        <ele>756.7</ele>
        <time>2019-10-31T12:14:01Z</time>
      </trkpt>
      <trkpt lat="46.76105" lon="5.91849">
        <ele>756.9</ele>
        <time>2019-10-31T12:14:10Z</time>
      </trkpt>
      <trkpt lat="46.76098" lon="5.91875">
        <ele>762.7</ele>
        <time>2019-10-31T12:14:40Z</time>
      </trkpt>
      <trkpt lat="46.76102" lon="5.9187">
        <ele>762.6</ele>
        <time>2019-10-31T12:16:12Z</time>
      </trkpt>
      <trkpt lat="46.76105" lon="5.91864">
        <ele>763.1</ele>
        <time>2019-10-31T12:16:17Z</time>
      </trkpt>
      <trkpt lat="46.76107" lon="5.91858">
        <ele>763.6</ele>
        <time>2019-10-31T12:16:22Z</time>
      </trkpt>
      <trkpt lat="46.76108" lon="5.91849">
        <ele>764.1</ele>
        <time>2019-10-31T12:16:27Z</time>
      </trkpt>
      <trkpt lat="46.76108" lon="5.91842">
        <ele>764.3</ele>
        <time>2019-10-31T12:16:30Z</time>
      </trkpt>
      <trkpt lat="46.76109" lon="5.91834">
        <ele>764.3</ele>
        <time>2019-10-31T12:16:34Z</time>
      </trkpt>
      <trkpt lat="46.76108" lon="5.91827">
        <ele>764</ele>
        <time>2019-10-31T12:16:40Z</time>
      </trkpt>
      <trkpt lat="46.76106" lon="5.91821">
        <ele>763.5</ele>
        <time>2019-10-31T12:16:45Z</time>
      </trkpt>
      <trkpt lat="46.76102" lon="5.91816">
        <ele>763.1</ele>
        <time>2019-10-31T12:16:50Z</time>
      </trkpt>
      <trkpt lat="46.76099" lon="5.91811">
        <ele>762.8</ele>
        <time>2019-10-31T12:16:56Z</time>
      </trkpt>
      <trkpt lat="46.76095" lon="5.91806">
        <ele>762.5</ele>
        <time>2019-10-31T12:17:01Z</time>
      </trkpt>
      <trkpt lat="46.76091" lon="5.91802">
        <ele>762</ele>
        <time>2019-10-31T12:17:07Z</time>
      </trkpt>
      <trkpt lat="46.76086" lon="5.918">
        <ele>761.5</ele>
        <time>2019-10-31T12:17:14Z</time>
      </trkpt>
      <trkpt lat="46.76081" lon="5.91796">
        <ele>761.2</ele>
        <time>2019-10-31T12:17:19Z</time>
      </trkpt>
      <trkpt lat="46.76076" lon="5.91795">
        <ele>761</ele>
        <time>2019-10-31T12:17:23Z</time>
      </trkpt>
      <trkpt lat="46.76072" lon="5.91795">
        <ele>760.5</ele>
        <time>2019-10-31T12:17:28Z</time>
      </trkpt>
      <trkpt lat="46.76067" lon="5.91796">
        <ele>760.3</ele>
        <time>2019-10-31T12:17:33Z</time>
      </trkpt>
      <trkpt lat="46.76062" lon="5.91796">
        <ele>760.2</ele>
        <time>2019-10-31T12:17:38Z</time>
      </trkpt>
      <trkpt lat="46.76057" lon="5.91795">
        <ele>760.1</ele>
        <time>2019-10-31T12:17:44Z</time>
      </trkpt>
      <trkpt lat="46.76052" lon="5.91796">
        <ele>759.8</ele>
        <time>2019-10-31T12:17:50Z</time>
      </trkpt>
      <trkpt lat="46.76048" lon="5.91798">
        <ele>759.7</ele>
        <time>2019-10-31T12:17:57Z</time>
      </trkpt>
      <trkpt lat="46.76044" lon="5.91801">
        <ele>759.5</ele>
        <time>2019-10-31T12:18:05Z</time>
      </trkpt>
      <trkpt lat="46.76039" lon="5.91802">
        <ele>759.4</ele>
        <time>2019-10-31T12:18:11Z</time>
      </trkpt>
      <trkpt lat="46.76036" lon="5.91808">
        <ele>759.4</ele>
        <time>2019-10-31T12:18:19Z</time>
      </trkpt>
      <trkpt lat="46.76032" lon="5.91812">
        <ele>759.5</ele>
        <time>2019-10-31T12:18:24Z</time>
      </trkpt>
      <trkpt lat="46.76037" lon="5.91815">
        <ele>759.6</ele>
        <time>2019-10-31T12:18:32Z</time>
      </trkpt>
      <trkpt lat="46.76042" lon="5.91817">
        <ele>759.6</ele>
        <time>2019-10-31T12:18:36Z</time>
      </trkpt>
      <trkpt lat="46.76039" lon="5.91822">
        <ele>759.4</ele>
        <time>2019-10-31T12:18:56Z</time>
      </trkpt>
      <trkpt lat="46.76036" lon="5.91828">
        <ele>759</ele>
        <time>2019-10-31T12:19:02Z</time>
      </trkpt>
      <trkpt lat="46.76033" lon="5.91834">
        <ele>758.4</ele>
        <time>2019-10-31T12:19:08Z</time>
      </trkpt>
      <trkpt lat="46.76029" lon="5.9184">
        <ele>758</ele>
        <time>2019-10-31T12:19:13Z</time>
      </trkpt>
      <trkpt lat="46.76025" lon="5.91844">
        <ele>757.7</ele>
        <time>2019-10-31T12:19:17Z</time>
      </trkpt>
      <trkpt lat="46.76021" lon="5.91848">
        <ele>757.5</ele>
        <time>2019-10-31T12:19:22Z</time>
      </trkpt>
      <trkpt lat="46.76018" lon="5.91852">
        <ele>757.4</ele>
        <time>2019-10-31T12:19:26Z</time>
      </trkpt>
      <trkpt lat="46.76014" lon="5.91858">
        <ele>757.2</ele>
        <time>2019-10-31T12:19:32Z</time>
      </trkpt>
      <trkpt lat="46.76011" lon="5.91863">
        <ele>757.1</ele>
        <time>2019-10-31T12:19:37Z</time>
      </trkpt>
      <trkpt lat="46.76007" lon="5.91869">
        <ele>756.9</ele>
        <time>2019-10-31T12:19:42Z</time>
      </trkpt>
      <trkpt lat="46.76003" lon="5.91874">
        <ele>756.7</ele>
        <time>2019-10-31T12:19:46Z</time>
      </trkpt>
      <trkpt lat="46.76" lon="5.91879">
        <ele>756.6</ele>
        <time>2019-10-31T12:19:51Z</time>
      </trkpt>
      <trkpt lat="46.75997" lon="5.91885">
        <ele>756.3</ele>
        <time>2019-10-31T12:19:56Z</time>
      </trkpt>
      <trkpt lat="46.75994" lon="5.91891">
        <ele>756</ele>
        <time>2019-10-31T12:20:01Z</time>
      </trkpt>
      <trkpt lat="46.7599" lon="5.91895">
        <ele>755.7</ele>
        <time>2019-10-31T12:20:07Z</time>
      </trkpt>
      <trkpt lat="46.75986" lon="5.91901">
        <ele>755.4</ele>
        <time>2019-10-31T12:20:12Z</time>
      </trkpt>
      <trkpt lat="46.75983" lon="5.91907">
        <ele>755.2</ele>
        <time>2019-10-31T12:20:16Z</time>
      </trkpt>
      <trkpt lat="46.7598" lon="5.91913">
        <ele>754.7</ele>
        <time>2019-10-31T12:20:23Z</time>
      </trkpt>
      <trkpt lat="46.75977" lon="5.91919">
        <ele>754.2</ele>
        <time>2019-10-31T12:20:30Z</time>
      </trkpt>
      <trkpt lat="46.75975" lon="5.91926">
        <ele>753.8</ele>
        <time>2019-10-31T12:20:37Z</time>
      </trkpt>
      <trkpt lat="46.75971" lon="5.91932">
        <ele>753</ele>
        <time>2019-10-31T12:20:46Z</time>
      </trkpt>
      <trkpt lat="46.75961" lon="5.91944">
        <ele>751.9</ele>
        <time>2019-10-31T12:20:57Z</time>
      </trkpt>
      <trkpt lat="46.75958" lon="5.91949">
        <ele>751.6</ele>
        <time>2019-10-31T12:21:02Z</time>
      </trkpt>
      <trkpt lat="46.75955" lon="5.91955">
        <ele>751.1</ele>
        <time>2019-10-31T12:21:09Z</time>
      </trkpt>
      <trkpt lat="46.75952" lon="5.91961">
        <ele>751</ele>
        <time>2019-10-31T12:21:14Z</time>
      </trkpt>
      <trkpt lat="46.75943" lon="5.91975">
        <ele>750.6</ele>
        <time>2019-10-31T12:21:25Z</time>
      </trkpt>
      <trkpt lat="46.7594" lon="5.9198">
        <ele>750.7</ele>
        <time>2019-10-31T12:21:28Z</time>
      </trkpt>
      <trkpt lat="46.75936" lon="5.91986">
        <ele>751</ele>
        <time>2019-10-31T12:21:32Z</time>
      </trkpt>
      <trkpt lat="46.75933" lon="5.9199">
        <ele>751.2</ele>
        <time>2019-10-31T12:21:35Z</time>
      </trkpt>
      <trkpt lat="46.75921" lon="5.92002">
        <ele>751.5</ele>
        <time>2019-10-31T12:21:53Z</time>
      </trkpt>
      <trkpt lat="46.75915" lon="5.92007">
        <ele>751.3</ele>
        <time>2019-10-31T12:21:57Z</time>
      </trkpt>
      <trkpt lat="46.75911" lon="5.9201">
        <ele>751</ele>
        <time>2019-10-31T12:22:02Z</time>
      </trkpt>
      <trkpt lat="46.75906" lon="5.92011">
        <ele>750.6</ele>
        <time>2019-10-31T12:22:09Z</time>
      </trkpt>
      <trkpt lat="46.75896" lon="5.92007">
        <ele>750</ele>
        <time>2019-10-31T12:22:25Z</time>
      </trkpt>
      <trkpt lat="46.75893" lon="5.92001">
        <ele>750.2</ele>
        <time>2019-10-31T12:22:45Z</time>
      </trkpt>
      <trkpt lat="46.75891" lon="5.91995">
        <ele>749.9</ele>
        <time>2019-10-31T12:22:53Z</time>
      </trkpt>
      <trkpt lat="46.75891" lon="5.91988">
        <ele>749.6</ele>
        <time>2019-10-31T12:22:59Z</time>
      </trkpt>
      <trkpt lat="46.75893" lon="5.9198">
        <ele>749.4</ele>
        <time>2019-10-31T12:23:05Z</time>
      </trkpt>
      <trkpt lat="46.75895" lon="5.91974">
        <ele>749.4</ele>
        <time>2019-10-31T12:23:09Z</time>
      </trkpt>
      <trkpt lat="46.75898" lon="5.91968">
        <ele>749.4</ele>
        <time>2019-10-31T12:23:14Z</time>
      </trkpt>
      <trkpt lat="46.75901" lon="5.91962">
        <ele>749.3</ele>
        <time>2019-10-31T12:23:19Z</time>
      </trkpt>
      <trkpt lat="46.75904" lon="5.91957">
        <ele>749.2</ele>
        <time>2019-10-31T12:23:23Z</time>
      </trkpt>
      <trkpt lat="46.75908" lon="5.91953">
        <ele>749</ele>
        <time>2019-10-31T12:23:27Z</time>
      </trkpt>
      <trkpt lat="46.75913" lon="5.91949">
        <ele>748.8</ele>
        <time>2019-10-31T12:23:32Z</time>
      </trkpt>
      <trkpt lat="46.75916" lon="5.91943">
        <ele>748.4</ele>
        <time>2019-10-31T12:23:38Z</time>
      </trkpt>
      <trkpt lat="46.75918" lon="5.91936">
        <ele>748</ele>
        <time>2019-10-31T12:23:44Z</time>
      </trkpt>
      <trkpt lat="46.75921" lon="5.91931">
        <ele>747.5</ele>
        <time>2019-10-31T12:23:50Z</time>
      </trkpt>
      <trkpt lat="46.75924" lon="5.91925">
        <ele>747</ele>
        <time>2019-10-31T12:23:54Z</time>
      </trkpt>
      <trkpt lat="46.75928" lon="5.91919">
        <ele>746.2</ele>
        <time>2019-10-31T12:23:59Z</time>
      </trkpt>
      <trkpt lat="46.75931" lon="5.91913">
        <ele>745.6</ele>
        <time>2019-10-31T12:24:04Z</time>
      </trkpt>
      <trkpt lat="46.75934" lon="5.91906">
        <ele>744.9</ele>
        <time>2019-10-31T12:24:10Z</time>
      </trkpt>
      <trkpt lat="46.75936" lon="5.919">
        <ele>744.4</ele>
        <time>2019-10-31T12:24:15Z</time>
      </trkpt>
      <trkpt lat="46.75937" lon="5.91893">
        <ele>744</ele>
        <time>2019-10-31T12:24:20Z</time>
      </trkpt>
      <trkpt lat="46.75939" lon="5.91886">
        <ele>743.5</ele>
        <time>2019-10-31T12:24:26Z</time>
      </trkpt>
      <trkpt lat="46.75941" lon="5.91879">
        <ele>743.2</ele>
        <time>2019-10-31T12:24:31Z</time>
      </trkpt>
      <trkpt lat="46.75943" lon="5.91872">
        <ele>742.9</ele>
        <time>2019-10-31T12:24:36Z</time>
      </trkpt>
      <trkpt lat="46.75945" lon="5.91866">
        <ele>742.6</ele>
        <time>2019-10-31T12:24:40Z</time>
      </trkpt>
      <trkpt lat="46.75947" lon="5.91859">
        <ele>742.3</ele>
        <time>2019-10-31T12:24:44Z</time>
      </trkpt>
      <trkpt lat="46.7595" lon="5.91853">
        <ele>741.9</ele>
        <time>2019-10-31T12:24:49Z</time>
      </trkpt>
      <trkpt lat="46.75954" lon="5.91847">
        <ele>741.5</ele>
        <time>2019-10-31T12:24:54Z</time>
      </trkpt>
      <trkpt lat="46.75956" lon="5.91842">
        <ele>741</ele>
        <time>2019-10-31T12:24:59Z</time>
      </trkpt>
      <trkpt lat="46.75959" lon="5.91836">
        <ele>740.5</ele>
        <time>2019-10-31T12:25:06Z</time>
      </trkpt>
      <trkpt lat="46.7596" lon="5.91829">
        <ele>740.1</ele>
        <time>2019-10-31T12:25:12Z</time>
      </trkpt>
      <trkpt lat="46.75963" lon="5.91822">
        <ele>739.8</ele>
        <time>2019-10-31T12:25:16Z</time>
      </trkpt>
      <trkpt lat="46.75966" lon="5.91816">
        <ele>739.5</ele>
        <time>2019-10-31T12:25:20Z</time>
      </trkpt>
      <trkpt lat="46.75968" lon="5.91809">
        <ele>739.1</ele>
        <time>2019-10-31T12:25:25Z</time>
      </trkpt>
      <trkpt lat="46.75971" lon="5.91802">
        <ele>738.9</ele>
        <time>2019-10-31T12:25:29Z</time>
      </trkpt>
      <trkpt lat="46.75973" lon="5.91795">
        <ele>738.7</ele>
        <time>2019-10-31T12:25:35Z</time>
      </trkpt>
      <trkpt lat="46.75976" lon="5.91789">
        <ele>738.5</ele>
        <time>2019-10-31T12:25:41Z</time>
      </trkpt>
      <trkpt lat="46.75977" lon="5.91783">
        <ele>738.5</ele>
        <time>2019-10-31T12:25:48Z</time>
      </trkpt>
      <trkpt lat="46.7598" lon="5.91776">
        <ele>738.3</ele>
        <time>2019-10-31T12:25:54Z</time>
      </trkpt>
      <trkpt lat="46.75981" lon="5.9177">
        <ele>738.1</ele>
        <time>2019-10-31T12:25:58Z</time>
      </trkpt>
      <trkpt lat="46.75984" lon="5.91764">
        <ele>738</ele>
        <time>2019-10-31T12:26:02Z</time>
      </trkpt>
      <trkpt lat="46.75988" lon="5.91757">
        <ele>738</ele>
        <time>2019-10-31T12:26:07Z</time>
      </trkpt>
      <trkpt lat="46.7599" lon="5.91752">
        <ele>737.8</ele>
        <time>2019-10-31T12:26:11Z</time>
      </trkpt>
      <trkpt lat="46.75992" lon="5.91745">
        <ele>737.6</ele>
        <time>2019-10-31T12:26:15Z</time>
      </trkpt>
      <trkpt lat="46.75994" lon="5.91737">
        <ele>737.3</ele>
        <time>2019-10-31T12:26:20Z</time>
      </trkpt>
      <trkpt lat="46.75996" lon="5.91731">
        <ele>737.1</ele>
        <time>2019-10-31T12:26:25Z</time>
      </trkpt>
      <trkpt lat="46.75998" lon="5.91724">
        <ele>736.9</ele>
        <time>2019-10-31T12:26:30Z</time>
      </trkpt>
      <trkpt lat="46.76" lon="5.91717">
        <ele>736.7</ele>
        <time>2019-10-31T12:26:35Z</time>
      </trkpt>
      <trkpt lat="46.76003" lon="5.91711">
        <ele>736.6</ele>
        <time>2019-10-31T12:26:40Z</time>
      </trkpt>
      <trkpt lat="46.76005" lon="5.91705">
        <ele>736.5</ele>
        <time>2019-10-31T12:26:44Z</time>
      </trkpt>
      <trkpt lat="46.76008" lon="5.917">
        <ele>736.2</ele>
        <time>2019-10-31T12:26:48Z</time>
      </trkpt>
      <trkpt lat="46.76011" lon="5.91694">
        <ele>735.9</ele>
        <time>2019-10-31T12:26:53Z</time>
      </trkpt>
      <trkpt lat="46.76014" lon="5.91688">
        <ele>735.5</ele>
        <time>2019-10-31T12:26:59Z</time>
      </trkpt>
      <trkpt lat="46.76015" lon="5.9168">
        <ele>734.9</ele>
        <time>2019-10-31T12:27:05Z</time>
      </trkpt>
      <trkpt lat="46.76014" lon="5.91673">
        <ele>734.4</ele>
        <time>2019-10-31T12:27:11Z</time>
      </trkpt>
      <trkpt lat="46.76013" lon="5.91666">
        <ele>734</ele>
        <time>2019-10-31T12:27:16Z</time>
      </trkpt>
      <trkpt lat="46.76016" lon="5.91662">
        <ele>729.9</ele>
        <time>2019-10-31T12:28:16Z</time>
      </trkpt>
      <trkpt lat="46.76012" lon="5.91666">
        <ele>731</ele>
        <time>2019-10-31T12:34:08Z</time>
      </trkpt>
      <trkpt lat="46.76015" lon="5.91662">
        <ele>730.5</ele>
        <time>2019-10-31T12:36:54Z</time>
      </trkpt>
      <trkpt lat="46.7602" lon="5.9166">
        <ele>730.8</ele>
        <time>2019-10-31T12:37:00Z</time>
      </trkpt>
      <trkpt lat="46.76024" lon="5.91658">
        <ele>731</ele>
        <time>2019-10-31T12:37:04Z</time>
      </trkpt>
      <trkpt lat="46.76029" lon="5.91659">
        <ele>731.3</ele>
        <time>2019-10-31T12:37:09Z</time>
      </trkpt>
      <trkpt lat="46.76033" lon="5.91663">
        <ele>731.1</ele>
        <time>2019-10-31T12:37:15Z</time>
      </trkpt>
      <trkpt lat="46.76038" lon="5.91666">
        <ele>730.7</ele>
        <time>2019-10-31T12:37:20Z</time>
      </trkpt>
      <trkpt lat="46.76042" lon="5.91669">
        <ele>729.9</ele>
        <time>2019-10-31T12:37:26Z</time>
      </trkpt>
      <trkpt lat="46.76047" lon="5.91671">
        <ele>729.5</ele>
        <time>2019-10-31T12:37:34Z</time>
      </trkpt>
      <trkpt lat="46.76052" lon="5.91672">
        <ele>729.5</ele>
        <time>2019-10-31T12:37:40Z</time>
      </trkpt>
      <trkpt lat="46.76057" lon="5.91674">
        <ele>729.6</ele>
        <time>2019-10-31T12:37:44Z</time>
      </trkpt>
      <trkpt lat="46.76062" lon="5.91675">
        <ele>729.7</ele>
        <time>2019-10-31T12:37:49Z</time>
      </trkpt>
      <trkpt lat="46.76064" lon="5.91681">
        <ele>729.6</ele>
        <time>2019-10-31T12:37:55Z</time>
      </trkpt>
      <trkpt lat="46.76064" lon="5.91688">
        <ele>729.1</ele>
        <time>2019-10-31T12:38:01Z</time>
      </trkpt>
      <trkpt lat="46.76062" lon="5.91695">
        <ele>728.6</ele>
        <time>2019-10-31T12:38:09Z</time>
      </trkpt>
      <trkpt lat="46.76057" lon="5.91696">
        <ele>728.4</ele>
        <time>2019-10-31T12:38:21Z</time>
      </trkpt>
      <trkpt lat="46.76062" lon="5.91695">
        <ele>725.8</ele>
        <time>2019-10-31T12:39:06Z</time>
      </trkpt>
      <trkpt lat="46.76066" lon="5.91691">
        <ele>725.5</ele>
        <time>2019-10-31T12:39:12Z</time>
      </trkpt>
      <trkpt lat="46.76071" lon="5.91688">
        <ele>725.3</ele>
        <time>2019-10-31T12:39:15Z</time>
      </trkpt>
      <trkpt lat="46.76075" lon="5.91686">
        <ele>725.4</ele>
        <time>2019-10-31T12:39:18Z</time>
      </trkpt>
      <trkpt lat="46.7608" lon="5.91684">
        <ele>725.7</ele>
        <time>2019-10-31T12:39:24Z</time>
      </trkpt>
      <trkpt lat="46.76085" lon="5.91684">
        <ele>726</ele>
        <time>2019-10-31T12:39:30Z</time>
      </trkpt>
      <trkpt lat="46.7609" lon="5.91684">
        <ele>726.3</ele>
        <time>2019-10-31T12:39:35Z</time>
      </trkpt>
      <trkpt lat="46.76094" lon="5.91686">
        <ele>726.4</ele>
        <time>2019-10-31T12:39:39Z</time>
      </trkpt>
      <trkpt lat="46.76099" lon="5.91689">
        <ele>726.4</ele>
        <time>2019-10-31T12:39:43Z</time>
      </trkpt>
      <trkpt lat="46.76103" lon="5.91691">
        <ele>726.3</ele>
        <time>2019-10-31T12:39:47Z</time>
      </trkpt>
      <trkpt lat="46.76108" lon="5.91693">
        <ele>726.2</ele>
        <time>2019-10-31T12:39:52Z</time>
      </trkpt>
      <trkpt lat="46.76113" lon="5.91695">
        <ele>726.1</ele>
        <time>2019-10-31T12:39:56Z</time>
      </trkpt>
      <trkpt lat="46.76118" lon="5.91697">
        <ele>725.8</ele>
        <time>2019-10-31T12:40:00Z</time>
      </trkpt>
      <trkpt lat="46.76123" lon="5.91698">
        <ele>725.3</ele>
        <time>2019-10-31T12:40:04Z</time>
      </trkpt>
      <trkpt lat="46.76129" lon="5.91697">
        <ele>724.9</ele>
        <time>2019-10-31T12:40:08Z</time>
      </trkpt>
      <trkpt lat="46.76134" lon="5.91699">
        <ele>724.6</ele>
        <time>2019-10-31T12:40:12Z</time>
      </trkpt>
      <trkpt lat="46.76138" lon="5.91703">
        <ele>724.3</ele>
        <time>2019-10-31T12:40:16Z</time>
      </trkpt>
      <trkpt lat="46.76142" lon="5.91708">
        <ele>724</ele>
        <time>2019-10-31T12:40:20Z</time>
      </trkpt>
      <trkpt lat="46.76146" lon="5.91712">
        <ele>723.9</ele>
        <time>2019-10-31T12:40:23Z</time>
      </trkpt>
      <trkpt lat="46.7615" lon="5.91717">
        <ele>723.9</ele>
        <time>2019-10-31T12:40:26Z</time>
      </trkpt>
      <trkpt lat="46.76153" lon="5.91722">
        <ele>724</ele>
        <time>2019-10-31T12:40:30Z</time>
      </trkpt>
      <trkpt lat="46.76156" lon="5.91729">
        <ele>724.2</ele>
        <time>2019-10-31T12:40:33Z</time>
      </trkpt>
      <trkpt lat="46.76159" lon="5.91736">
        <ele>724.4</ele>
        <time>2019-10-31T12:40:36Z</time>
      </trkpt>
      <trkpt lat="46.76155" lon="5.9173">
        <ele>725.7</ele>
        <time>2019-10-31T12:40:55Z</time>
      </trkpt>
      <trkpt lat="46.76152" lon="5.91725">
        <ele>726.4</ele>
        <time>2019-10-31T12:41:04Z</time>
      </trkpt>
      <trkpt lat="46.76151" lon="5.91718">
        <ele>727</ele>
        <time>2019-10-31T12:41:11Z</time>
      </trkpt>
      <trkpt lat="46.7615" lon="5.91711">
        <ele>727.3</ele>
        <time>2019-10-31T12:41:14Z</time>
      </trkpt>
      <trkpt lat="46.76147" lon="5.91705">
        <ele>727.4</ele>
        <time>2019-10-31T12:41:18Z</time>
      </trkpt>
      <trkpt lat="46.76142" lon="5.91703">
        <ele>727.3</ele>
        <time>2019-10-31T12:41:25Z</time>
      </trkpt>
      <trkpt lat="46.76137" lon="5.91703">
        <ele>727.1</ele>
        <time>2019-10-31T12:41:31Z</time>
      </trkpt>
      <trkpt lat="46.76132" lon="5.91702">
        <ele>726.9</ele>
        <time>2019-10-31T12:41:35Z</time>
      </trkpt>
      <trkpt lat="46.76127" lon="5.91701">
        <ele>726.8</ele>
        <time>2019-10-31T12:41:40Z</time>
      </trkpt>
      <trkpt lat="46.76122" lon="5.917">
        <ele>726.9</ele>
        <time>2019-10-31T12:41:46Z</time>
      </trkpt>
      <trkpt lat="46.76117" lon="5.91698">
        <ele>726.8</ele>
        <time>2019-10-31T12:41:51Z</time>
      </trkpt>
      <trkpt lat="46.76112" lon="5.91695">
        <ele>726.6</ele>
        <time>2019-10-31T12:41:56Z</time>
      </trkpt>
      <trkpt lat="46.76108" lon="5.91691">
        <ele>726.4</ele>
        <time>2019-10-31T12:42:01Z</time>
      </trkpt>
      <trkpt lat="46.76104" lon="5.91688">
        <ele>725.8</ele>
        <time>2019-10-31T12:42:07Z</time>
      </trkpt>
      <trkpt lat="46.76099" lon="5.91686">
        <ele>725.3</ele>
        <time>2019-10-31T12:42:11Z</time>
      </trkpt>
      <trkpt lat="46.76095" lon="5.91685">
        <ele>724.8</ele>
        <time>2019-10-31T12:42:16Z</time>
      </trkpt>
      <trkpt lat="46.76089" lon="5.91684">
        <ele>724.2</ele>
        <time>2019-10-31T12:42:22Z</time>
      </trkpt>
      <trkpt lat="46.76084" lon="5.91681">
        <ele>723.8</ele>
        <time>2019-10-31T12:42:26Z</time>
      </trkpt>
      <trkpt lat="46.7608" lon="5.91678">
        <ele>723.2</ele>
        <time>2019-10-31T12:42:31Z</time>
      </trkpt>
      <trkpt lat="46.7607" lon="5.91673">
        <ele>722.1</ele>
        <time>2019-10-31T12:42:40Z</time>
      </trkpt>
      <trkpt lat="46.76065" lon="5.91673">
        <ele>722.1</ele>
        <time>2019-10-31T12:42:43Z</time>
      </trkpt>
      <trkpt lat="46.76059" lon="5.91673">
        <ele>722.3</ele>
        <time>2019-10-31T12:42:47Z</time>
      </trkpt>
      <trkpt lat="46.76054" lon="5.91671">
        <ele>722.6</ele>
        <time>2019-10-31T12:42:51Z</time>
      </trkpt>
      <trkpt lat="46.7605" lon="5.91668">
        <ele>722.8</ele>
        <time>2019-10-31T12:42:55Z</time>
      </trkpt>
      <trkpt lat="46.76045" lon="5.91665">
        <ele>722.8</ele>
        <time>2019-10-31T12:43:01Z</time>
      </trkpt>
      <trkpt lat="46.7604" lon="5.91663">
        <ele>722.6</ele>
        <time>2019-10-31T12:43:05Z</time>
      </trkpt>
      <trkpt lat="46.76036" lon="5.91658">
        <ele>722.3</ele>
        <time>2019-10-31T12:43:10Z</time>
      </trkpt>
      <trkpt lat="46.76031" lon="5.91654">
        <ele>722.1</ele>
        <time>2019-10-31T12:43:14Z</time>
      </trkpt>
      <trkpt lat="46.76026" lon="5.91655">
        <ele>722.3</ele>
        <time>2019-10-31T12:43:20Z</time>
      </trkpt>
      <trkpt lat="46.76022" lon="5.91655">
        <ele>722.8</ele>
        <time>2019-10-31T12:43:27Z</time>
      </trkpt>
      <trkpt lat="46.76017" lon="5.91653">
        <ele>723.6</ele>
        <time>2019-10-31T12:43:38Z</time>
      </trkpt>
      <trkpt lat="46.76022" lon="5.91652">
        <ele>724.4</ele>
        <time>2019-10-31T12:43:57Z</time>
      </trkpt>
      <trkpt lat="46.76019" lon="5.91647">
        <ele>725.3</ele>
        <time>2019-10-31T12:44:29Z</time>
      </trkpt>
      <trkpt lat="46.76018" lon="5.91654">
        <ele>723.3</ele>
        <time>2019-10-31T12:44:45Z</time>
      </trkpt>
      <trkpt lat="46.76016" lon="5.91661">
        <ele>723.3</ele>
        <time>2019-10-31T12:44:49Z</time>
      </trkpt>
      <trkpt lat="46.7602" lon="5.91655">
        <ele>723.8</ele>
        <time>2019-10-31T12:44:58Z</time>
      </trkpt>
      <trkpt lat="46.76024" lon="5.91649">
        <ele>724</ele>
        <time>2019-10-31T12:45:02Z</time>
      </trkpt>
      <trkpt lat="46.76027" lon="5.91642">
        <ele>724.3</ele>
        <time>2019-10-31T12:45:06Z</time>
      </trkpt>
      <trkpt lat="46.76029" lon="5.91635">
        <ele>724.7</ele>
        <time>2019-10-31T12:45:10Z</time>
      </trkpt>
      <trkpt lat="46.76031" lon="5.91628">
        <ele>725.1</ele>
        <time>2019-10-31T12:45:14Z</time>
      </trkpt>
      <trkpt lat="46.76032" lon="5.91622">
        <ele>725.3</ele>
        <time>2019-10-31T12:45:17Z</time>
      </trkpt>
      <trkpt lat="46.76034" lon="5.91614">
        <ele>725.4</ele>
        <time>2019-10-31T12:45:21Z</time>
      </trkpt>
      <trkpt lat="46.76036" lon="5.91607">
        <ele>725.6</ele>
        <time>2019-10-31T12:45:25Z</time>
      </trkpt>
      <trkpt lat="46.76039" lon="5.91601">
        <ele>725.7</ele>
        <time>2019-10-31T12:45:29Z</time>
      </trkpt>
      <trkpt lat="46.76041" lon="5.91595">
        <ele>725.9</ele>
        <time>2019-10-31T12:45:33Z</time>
      </trkpt>
      <trkpt lat="46.76044" lon="5.91587">
        <ele>725.9</ele>
        <time>2019-10-31T12:45:37Z</time>
      </trkpt>
      <trkpt lat="46.76046" lon="5.91581">
        <ele>725.9</ele>
        <time>2019-10-31T12:45:40Z</time>
      </trkpt>
      <trkpt lat="46.76048" lon="5.91575">
        <ele>725.9</ele>
        <time>2019-10-31T12:45:43Z</time>
      </trkpt>
      <trkpt lat="46.76052" lon="5.91569">
        <ele>725.8</ele>
        <time>2019-10-31T12:45:47Z</time>
      </trkpt>
      <trkpt lat="46.76055" lon="5.91563">
        <ele>725.8</ele>
        <time>2019-10-31T12:45:51Z</time>
      </trkpt>
      <trkpt lat="46.76057" lon="5.91555">
        <ele>725.6</ele>
        <time>2019-10-31T12:45:55Z</time>
      </trkpt>
      <trkpt lat="46.76059" lon="5.91548">
        <ele>725.5</ele>
        <time>2019-10-31T12:45:59Z</time>
      </trkpt>
      <trkpt lat="46.76062" lon="5.9154">
        <ele>725.2</ele>
        <time>2019-10-31T12:46:03Z</time>
      </trkpt>
      <trkpt lat="46.76064" lon="5.91533">
        <ele>724.7</ele>
        <time>2019-10-31T12:46:07Z</time>
      </trkpt>
      <trkpt lat="46.76066" lon="5.91526">
        <ele>724.4</ele>
        <time>2019-10-31T12:46:10Z</time>
      </trkpt>
      <trkpt lat="46.76067" lon="5.91519">
        <ele>724.1</ele>
        <time>2019-10-31T12:46:13Z</time>
      </trkpt>
      <trkpt lat="46.76069" lon="5.91513">
        <ele>723.9</ele>
        <time>2019-10-31T12:46:16Z</time>
      </trkpt>
      <trkpt lat="46.76071" lon="5.91506">
        <ele>723.6</ele>
        <time>2019-10-31T12:46:19Z</time>
      </trkpt>
      <trkpt lat="46.76074" lon="5.91499">
        <ele>723.3</ele>
        <time>2019-10-31T12:46:23Z</time>
      </trkpt>
      <trkpt lat="46.76077" lon="5.91492">
        <ele>723</ele>
        <time>2019-10-31T12:46:28Z</time>
      </trkpt>
      <trkpt lat="46.76078" lon="5.91485">
        <ele>722.8</ele>
        <time>2019-10-31T12:46:32Z</time>
      </trkpt>
      <trkpt lat="46.76079" lon="5.91478">
        <ele>722.6</ele>
        <time>2019-10-31T12:46:36Z</time>
      </trkpt>
      <trkpt lat="46.7608" lon="5.9147">
        <ele>722.1</ele>
        <time>2019-10-31T12:46:40Z</time>
      </trkpt>
      <trkpt lat="46.76079" lon="5.91463">
        <ele>721.5</ele>
        <time>2019-10-31T12:46:44Z</time>
      </trkpt>
      <trkpt lat="46.76075" lon="5.91459">
        <ele>720.3</ele>
        <time>2019-10-31T12:46:50Z</time>
      </trkpt>
      <trkpt lat="46.76071" lon="5.91462">
        <ele>718.7</ele>
        <time>2019-10-31T12:46:57Z</time>
      </trkpt>
      <trkpt lat="46.76068" lon="5.91468">
        <ele>717.3</ele>
        <time>2019-10-31T12:47:04Z</time>
      </trkpt>
      <trkpt lat="46.76064" lon="5.91471">
        <ele>715.7</ele>
        <time>2019-10-31T12:47:11Z</time>
      </trkpt>
      <trkpt lat="46.7606" lon="5.91475">
        <ele>713.5</ele>
        <time>2019-10-31T12:47:18Z</time>
      </trkpt>
      <trkpt lat="46.76056" lon="5.91479">
        <ele>711.7</ele>
        <time>2019-10-31T12:47:24Z</time>
      </trkpt>
      <trkpt lat="46.76052" lon="5.91483">
        <ele>709.5</ele>
        <time>2019-10-31T12:47:30Z</time>
      </trkpt>
      <trkpt lat="46.76048" lon="5.91487">
        <ele>706.4</ele>
        <time>2019-10-31T12:47:38Z</time>
      </trkpt>
      <trkpt lat="46.76039" lon="5.91492">
        <ele>699.4</ele>
        <time>2019-10-31T12:47:54Z</time>
      </trkpt>
      <trkpt lat="46.76034" lon="5.91493">
        <ele>697.3</ele>
        <time>2019-10-31T12:47:59Z</time>
      </trkpt>
      <trkpt lat="46.76029" lon="5.91493">
        <ele>694</ele>
        <time>2019-10-31T12:48:06Z</time>
      </trkpt>
      <trkpt lat="46.76025" lon="5.91499">
        <ele>689.7</ele>
        <time>2019-10-31T12:48:14Z</time>
      </trkpt>
      <trkpt lat="46.76023" lon="5.91506">
        <ele>688.7</ele>
        <time>2019-10-31T12:48:16Z</time>
      </trkpt>
      <trkpt lat="46.7602" lon="5.91512">
        <ele>686.6</ele>
        <time>2019-10-31T12:48:21Z</time>
      </trkpt>
      <trkpt lat="46.76018" lon="5.91517">
        <ele>685.5</ele>
        <time>2019-10-31T12:48:25Z</time>
      </trkpt>
      <trkpt lat="46.76014" lon="5.91521">
        <ele>685</ele>
        <time>2019-10-31T12:48:28Z</time>
      </trkpt>
      <trkpt lat="46.76011" lon="5.91526">
        <ele>684.7</ele>
        <time>2019-10-31T12:48:30Z</time>
      </trkpt>
      <trkpt lat="46.76008" lon="5.91532">
        <ele>684.5</ele>
        <time>2019-10-31T12:48:32Z</time>
      </trkpt>
      <trkpt lat="46.76002" lon="5.91536">
        <ele>684.3</ele>
        <time>2019-10-31T12:48:35Z</time>
      </trkpt>
      <trkpt lat="46.75996" lon="5.91537">
        <ele>684.3</ele>
        <time>2019-10-31T12:48:37Z</time>
      </trkpt>
      <trkpt lat="46.75992" lon="5.9154">
        <ele>684.7</ele>
        <time>2019-10-31T12:48:44Z</time>
      </trkpt>
      <trkpt lat="46.75988" lon="5.91544">
        <ele>685.6</ele>
        <time>2019-10-31T12:48:51Z</time>
      </trkpt>
      <trkpt lat="46.75984" lon="5.9155">
        <ele>686.5</ele>
        <time>2019-10-31T12:48:56Z</time>
      </trkpt>
      <trkpt lat="46.75982" lon="5.91555">
        <ele>687</ele>
        <time>2019-10-31T12:48:59Z</time>
      </trkpt>
      <trkpt lat="46.75978" lon="5.91562">
        <ele>687.7</ele>
        <time>2019-10-31T12:49:04Z</time>
      </trkpt>
      <trkpt lat="46.75974" lon="5.91566">
        <ele>688.2</ele>
        <time>2019-10-31T12:49:09Z</time>
      </trkpt>
      <trkpt lat="46.75968" lon="5.91569">
        <ele>688.3</ele>
        <time>2019-10-31T12:49:14Z</time>
      </trkpt>
      <trkpt lat="46.75965" lon="5.91574">
        <ele>688.2</ele>
        <time>2019-10-31T12:49:19Z</time>
      </trkpt>
      <trkpt lat="46.75962" lon="5.91579">
        <ele>687.7</ele>
        <time>2019-10-31T12:49:24Z</time>
      </trkpt>
      <trkpt lat="46.75958" lon="5.91585">
        <ele>687.1</ele>
        <time>2019-10-31T12:49:30Z</time>
      </trkpt>
      <trkpt lat="46.75953" lon="5.91599">
        <ele>684.7</ele>
        <time>2019-10-31T12:49:44Z</time>
      </trkpt>
      <trkpt lat="46.75948" lon="5.91603">
        <ele>684</ele>
        <time>2019-10-31T12:49:49Z</time>
      </trkpt>
      <trkpt lat="46.75944" lon="5.91605">
        <ele>683.2</ele>
        <time>2019-10-31T12:49:55Z</time>
      </trkpt>
      <trkpt lat="46.75938" lon="5.91605">
        <ele>682.5</ele>
        <time>2019-10-31T12:50:01Z</time>
      </trkpt>
      <trkpt lat="46.75934" lon="5.91602">
        <ele>682.1</ele>
        <time>2019-10-31T12:50:07Z</time>
      </trkpt>
      <trkpt lat="46.75931" lon="5.91596">
        <ele>681.8</ele>
        <time>2019-10-31T12:50:12Z</time>
      </trkpt>
      <trkpt lat="46.75929" lon="5.9159">
        <ele>681.4</ele>
        <time>2019-10-31T12:50:18Z</time>
      </trkpt>
      <trkpt lat="46.75928" lon="5.91583">
        <ele>683</ele>
        <time>2019-10-31T12:50:58Z</time>
      </trkpt>
      <trkpt lat="46.75931" lon="5.91577">
        <ele>683</ele>
        <time>2019-10-31T12:51:04Z</time>
      </trkpt>
      <trkpt lat="46.75934" lon="5.91572">
        <ele>683.1</ele>
        <time>2019-10-31T12:51:08Z</time>
      </trkpt>
      <trkpt lat="46.75936" lon="5.91565">
        <ele>683.3</ele>
        <time>2019-10-31T12:51:13Z</time>
      </trkpt>
      <trkpt lat="46.75938" lon="5.91559">
        <ele>683.3</ele>
        <time>2019-10-31T12:51:19Z</time>
      </trkpt>
      <trkpt lat="46.75941" lon="5.91552">
        <ele>683.1</ele>
        <time>2019-10-31T12:51:24Z</time>
      </trkpt>
      <trkpt lat="46.75943" lon="5.91545">
        <ele>683.1</ele>
        <time>2019-10-31T12:51:30Z</time>
      </trkpt>
      <trkpt lat="46.75943" lon="5.91538">
        <ele>683</ele>
        <time>2019-10-31T12:51:35Z</time>
      </trkpt>
      <trkpt lat="46.75942" lon="5.91531">
        <ele>682.9</ele>
        <time>2019-10-31T12:51:40Z</time>
      </trkpt>
      <trkpt lat="46.75941" lon="5.91524">
        <ele>682.5</ele>
        <time>2019-10-31T12:51:45Z</time>
      </trkpt>
      <trkpt lat="46.75943" lon="5.91518">
        <ele>682</ele>
        <time>2019-10-31T12:51:52Z</time>
      </trkpt>
      <trkpt lat="46.75945" lon="5.9151">
        <ele>681.9</ele>
        <time>2019-10-31T12:51:57Z</time>
      </trkpt>
      <trkpt lat="46.75945" lon="5.91503">
        <ele>681.8</ele>
        <time>2019-10-31T12:52:01Z</time>
      </trkpt>
      <trkpt lat="46.75945" lon="5.91496">
        <ele>681.5</ele>
        <time>2019-10-31T12:52:06Z</time>
      </trkpt>
      <trkpt lat="46.75947" lon="5.9149">
        <ele>681.1</ele>
        <time>2019-10-31T12:52:11Z</time>
      </trkpt>
      <trkpt lat="46.75949" lon="5.91482">
        <ele>680.3</ele>
        <time>2019-10-31T12:52:18Z</time>
      </trkpt>
      <trkpt lat="46.75949" lon="5.91476">
        <ele>679.7</ele>
        <time>2019-10-31T12:52:23Z</time>
      </trkpt>
      <trkpt lat="46.75952" lon="5.9147">
        <ele>678.8</ele>
        <time>2019-10-31T12:52:29Z</time>
      </trkpt>
      <trkpt lat="46.75956" lon="5.91462">
        <ele>678.1</ele>
        <time>2019-10-31T12:52:33Z</time>
      </trkpt>
      <trkpt lat="46.75957" lon="5.91455">
        <ele>677.5</ele>
        <time>2019-10-31T12:52:37Z</time>
      </trkpt>
      <trkpt lat="46.75958" lon="5.91447">
        <ele>676.7</ele>
        <time>2019-10-31T12:52:42Z</time>
      </trkpt>
      <trkpt lat="46.75957" lon="5.91439">
        <ele>676.2</ele>
        <time>2019-10-31T12:52:46Z</time>
      </trkpt>
      <trkpt lat="46.75955" lon="5.91433">
        <ele>675.5</ele>
        <time>2019-10-31T12:52:51Z</time>
      </trkpt>
      <trkpt lat="46.75952" lon="5.91427">
        <ele>674.6</ele>
        <time>2019-10-31T12:52:56Z</time>
      </trkpt>
      <trkpt lat="46.75947" lon="5.91426">
        <ele>672.8</ele>
        <time>2019-10-31T12:53:05Z</time>
      </trkpt>
      <trkpt lat="46.75944" lon="5.91431">
        <ele>672.1</ele>
        <time>2019-10-31T12:53:14Z</time>
      </trkpt>
      <trkpt lat="46.75941" lon="5.91437">
        <ele>671.7</ele>
        <time>2019-10-31T12:53:20Z</time>
      </trkpt>
      <trkpt lat="46.75938" lon="5.91442">
        <ele>671.1</ele>
        <time>2019-10-31T12:53:25Z</time>
      </trkpt>
      <trkpt lat="46.75934" lon="5.91446">
        <ele>670.5</ele>
        <time>2019-10-31T12:53:30Z</time>
      </trkpt>
      <trkpt lat="46.75931" lon="5.91451">
        <ele>669.5</ele>
        <time>2019-10-31T12:53:37Z</time>
      </trkpt>
      <trkpt lat="46.75927" lon="5.91456">
        <ele>668.7</ele>
        <time>2019-10-31T12:53:43Z</time>
      </trkpt>
      <trkpt lat="46.75924" lon="5.91462">
        <ele>667.9</ele>
        <time>2019-10-31T12:53:48Z</time>
      </trkpt>
      <trkpt lat="46.75921" lon="5.91468">
        <ele>667</ele>
        <time>2019-10-31T12:53:53Z</time>
      </trkpt>
      <trkpt lat="46.75918" lon="5.91474">
        <ele>665.8</ele>
        <time>2019-10-31T12:53:58Z</time>
      </trkpt>
      <trkpt lat="46.75914" lon="5.91478">
        <ele>664.8</ele>
        <time>2019-10-31T12:54:02Z</time>
      </trkpt>
      <trkpt lat="46.7591" lon="5.91483">
        <ele>663.7</ele>
        <time>2019-10-31T12:54:08Z</time>
      </trkpt>
      <trkpt lat="46.75905" lon="5.91486">
        <ele>662.7</ele>
        <time>2019-10-31T12:54:13Z</time>
      </trkpt>
      <trkpt lat="46.75901" lon="5.91489">
        <ele>661.5</ele>
        <time>2019-10-31T12:54:20Z</time>
      </trkpt>
      <trkpt lat="46.75897" lon="5.91494">
        <ele>660.2</ele>
        <time>2019-10-31T12:54:26Z</time>
      </trkpt>
      <trkpt lat="46.75894" lon="5.915">
        <ele>658.8</ele>
        <time>2019-10-31T12:54:32Z</time>
      </trkpt>
      <trkpt lat="46.75891" lon="5.91505">
        <ele>657.7</ele>
        <time>2019-10-31T12:54:37Z</time>
      </trkpt>
      <trkpt lat="46.75887" lon="5.9151">
        <ele>656.7</ele>
        <time>2019-10-31T12:54:42Z</time>
      </trkpt>
      <trkpt lat="46.75883" lon="5.91515">
        <ele>655.6</ele>
        <time>2019-10-31T12:54:47Z</time>
      </trkpt>
      <trkpt lat="46.7588" lon="5.91522">
        <ele>653.9</ele>
        <time>2019-10-31T12:54:54Z</time>
      </trkpt>
      <trkpt lat="46.75878" lon="5.91527">
        <ele>652.4</ele>
        <time>2019-10-31T12:55:00Z</time>
      </trkpt>
      <trkpt lat="46.75875" lon="5.91533">
        <ele>650.8</ele>
        <time>2019-10-31T12:55:06Z</time>
      </trkpt>
      <trkpt lat="46.75872" lon="5.91538">
        <ele>649.4</ele>
        <time>2019-10-31T12:55:11Z</time>
      </trkpt>
      <trkpt lat="46.75862" lon="5.91547">
        <ele>645.1</ele>
        <time>2019-10-31T12:55:24Z</time>
      </trkpt>
      <trkpt lat="46.75859" lon="5.91551">
        <ele>643.6</ele>
        <time>2019-10-31T12:55:31Z</time>
      </trkpt>
      <trkpt lat="46.75855" lon="5.91555">
        <ele>639.5</ele>
        <time>2019-10-31T12:55:49Z</time>
      </trkpt>
      <trkpt lat="46.7585" lon="5.91558">
        <ele>638.3</ele>
        <time>2019-10-31T12:55:57Z</time>
      </trkpt>
      <trkpt lat="46.75846" lon="5.91556">
        <ele>637.8</ele>
        <time>2019-10-31T12:56:03Z</time>
      </trkpt>
      <trkpt lat="46.75843" lon="5.9155">
        <ele>637.4</ele>
        <time>2019-10-31T12:56:09Z</time>
      </trkpt>
      <trkpt lat="46.75841" lon="5.91544">
        <ele>637.5</ele>
        <time>2019-10-31T12:56:19Z</time>
      </trkpt>
      <trkpt lat="46.75839" lon="5.91538">
        <ele>637.6</ele>
        <time>2019-10-31T12:56:24Z</time>
      </trkpt>
      <trkpt lat="46.75838" lon="5.91531">
        <ele>637.9</ele>
        <time>2019-10-31T12:56:30Z</time>
      </trkpt>
      <trkpt lat="46.75839" lon="5.91523">
        <ele>638.2</ele>
        <time>2019-10-31T12:56:36Z</time>
      </trkpt>
      <trkpt lat="46.75838" lon="5.91517">
        <ele>638.5</ele>
        <time>2019-10-31T12:56:41Z</time>
      </trkpt>
      <trkpt lat="46.75839" lon="5.9151">
        <ele>638.3</ele>
        <time>2019-10-31T12:56:47Z</time>
      </trkpt>
      <trkpt lat="46.7584" lon="5.91503">
        <ele>638.1</ele>
        <time>2019-10-31T12:56:52Z</time>
      </trkpt>
      <trkpt lat="46.75845" lon="5.91489">
        <ele>638.4</ele>
        <time>2019-10-31T12:57:02Z</time>
      </trkpt>
      <trkpt lat="46.75847" lon="5.91482">
        <ele>638.6</ele>
        <time>2019-10-31T12:57:07Z</time>
      </trkpt>
      <trkpt lat="46.75848" lon="5.91475">
        <ele>638.5</ele>
        <time>2019-10-31T12:57:12Z</time>
      </trkpt>
      <trkpt lat="46.75846" lon="5.91467">
        <ele>638.4</ele>
        <time>2019-10-31T12:57:16Z</time>
      </trkpt>
      <trkpt lat="46.75847" lon="5.91459">
        <ele>638.1</ele>
        <time>2019-10-31T12:57:21Z</time>
      </trkpt>
      <trkpt lat="46.75848" lon="5.91452">
        <ele>638</ele>
        <time>2019-10-31T12:57:26Z</time>
      </trkpt>
      <trkpt lat="46.75849" lon="5.91446">
        <ele>638.1</ele>
        <time>2019-10-31T12:57:32Z</time>
      </trkpt>
      <trkpt lat="46.75851" lon="5.91438">
        <ele>638.2</ele>
        <time>2019-10-31T12:57:37Z</time>
      </trkpt>
      <trkpt lat="46.75851" lon="5.9143">
        <ele>638.3</ele>
        <time>2019-10-31T12:57:42Z</time>
      </trkpt>
      <trkpt lat="46.75858" lon="5.91413">
        <ele>638</ele>
        <time>2019-10-31T12:57:54Z</time>
      </trkpt>
      <trkpt lat="46.75858" lon="5.91406">
        <ele>637.8</ele>
        <time>2019-10-31T12:57:58Z</time>
      </trkpt>
      <trkpt lat="46.75858" lon="5.91399">
        <ele>637.3</ele>
        <time>2019-10-31T12:58:05Z</time>
      </trkpt>
      <trkpt lat="46.75857" lon="5.91392">
        <ele>636.4</ele>
        <time>2019-10-31T12:58:11Z</time>
      </trkpt>
      <trkpt lat="46.75856" lon="5.91384">
        <ele>635</ele>
        <time>2019-10-31T12:58:17Z</time>
      </trkpt>
      <trkpt lat="46.75854" lon="5.91379">
        <ele>633.3</ele>
        <time>2019-10-31T12:58:23Z</time>
      </trkpt>
      <trkpt lat="46.7585" lon="5.91375">
        <ele>632.1</ele>
        <time>2019-10-31T12:58:28Z</time>
      </trkpt>
      <trkpt lat="46.75845" lon="5.91371">
        <ele>630.9</ele>
        <time>2019-10-31T12:58:33Z</time>
      </trkpt>
      <trkpt lat="46.7584" lon="5.91369">
        <ele>630</ele>
        <time>2019-10-31T12:58:37Z</time>
      </trkpt>
      <trkpt lat="46.75835" lon="5.91368">
        <ele>628.7</ele>
        <time>2019-10-31T12:58:43Z</time>
      </trkpt>
      <trkpt lat="46.7583" lon="5.91368">
        <ele>627.1</ele>
        <time>2019-10-31T12:58:50Z</time>
      </trkpt>
      <trkpt lat="46.75819" lon="5.91374">
        <ele>624.6</ele>
        <time>2019-10-31T12:59:46Z</time>
      </trkpt>
      <trkpt lat="46.75817" lon="5.9138">
        <ele>622.5</ele>
        <time>2019-10-31T12:59:59Z</time>
      </trkpt>
      <trkpt lat="46.75804" lon="5.91388">
        <ele>622.8</ele>
        <time>2019-10-31T13:00:29Z</time>
      </trkpt>
      <trkpt lat="46.75798" lon="5.9139">
        <ele>623</ele>
        <time>2019-10-31T13:00:32Z</time>
      </trkpt>
      <trkpt lat="46.75794" lon="5.91393">
        <ele>623.1</ele>
        <time>2019-10-31T13:00:37Z</time>
      </trkpt>
      <trkpt lat="46.75791" lon="5.91398">
        <ele>623.1</ele>
        <time>2019-10-31T13:00:43Z</time>
      </trkpt>
      <trkpt lat="46.75786" lon="5.914">
        <ele>622.6</ele>
        <time>2019-10-31T13:00:50Z</time>
      </trkpt>
      <trkpt lat="46.75783" lon="5.91406">
        <ele>622.2</ele>
        <time>2019-10-31T13:00:59Z</time>
      </trkpt>
      <trkpt lat="46.75779" lon="5.9141">
        <ele>622.2</ele>
        <time>2019-10-31T13:01:06Z</time>
      </trkpt>
      <trkpt lat="46.75775" lon="5.91413">
        <ele>622.2</ele>
        <time>2019-10-31T13:01:13Z</time>
      </trkpt>
      <trkpt lat="46.75771" lon="5.91417">
        <ele>622</ele>
        <time>2019-10-31T13:01:21Z</time>
      </trkpt>
      <trkpt lat="46.75768" lon="5.91421">
        <ele>621.7</ele>
        <time>2019-10-31T13:01:24Z</time>
      </trkpt>
      <trkpt lat="46.75763" lon="5.91424">
        <ele>621.3</ele>
        <time>2019-10-31T13:01:28Z</time>
      </trkpt>
      <trkpt lat="46.75756" lon="5.91435">
        <ele>618.5</ele>
        <time>2019-10-31T13:01:42Z</time>
      </trkpt>
      <trkpt lat="46.75751" lon="5.91439">
        <ele>617</ele>
        <time>2019-10-31T13:01:50Z</time>
      </trkpt>
      <trkpt lat="46.75747" lon="5.91441">
        <ele>615.5</ele>
        <time>2019-10-31T13:01:56Z</time>
      </trkpt>
      <trkpt lat="46.75741" lon="5.91446">
        <ele>612.9</ele>
        <time>2019-10-31T13:02:09Z</time>
      </trkpt>
      <trkpt lat="46.75737" lon="5.9145">
        <ele>612.4</ele>
        <time>2019-10-31T13:02:12Z</time>
      </trkpt>
      <trkpt lat="46.75731" lon="5.91454">
        <ele>609.7</ele>
        <time>2019-10-31T13:02:36Z</time>
      </trkpt>
      <trkpt lat="46.75727" lon="5.91455">
        <ele>608.6</ele>
        <time>2019-10-31T13:02:42Z</time>
      </trkpt>
      <trkpt lat="46.75723" lon="5.91459">
        <ele>608.1</ele>
        <time>2019-10-31T13:02:45Z</time>
      </trkpt>
      <trkpt lat="46.75718" lon="5.91465">
        <ele>607.5</ele>
        <time>2019-10-31T13:02:48Z</time>
      </trkpt>
      <trkpt lat="46.75715" lon="5.91468">
        <ele>607</ele>
        <time>2019-10-31T13:02:52Z</time>
      </trkpt>
      <trkpt lat="46.75711" lon="5.91472">
        <ele>606.3</ele>
        <time>2019-10-31T13:02:57Z</time>
      </trkpt>
      <trkpt lat="46.75707" lon="5.91476">
        <ele>605.4</ele>
        <time>2019-10-31T13:03:03Z</time>
      </trkpt>
      <trkpt lat="46.75702" lon="5.91479">
        <ele>604.3</ele>
        <time>2019-10-31T13:03:09Z</time>
      </trkpt>
      <trkpt lat="46.75697" lon="5.91482">
        <ele>602.8</ele>
        <time>2019-10-31T13:03:16Z</time>
      </trkpt>
      <trkpt lat="46.75693" lon="5.91486">
        <ele>601.7</ele>
        <time>2019-10-31T13:03:23Z</time>
      </trkpt>
      <trkpt lat="46.75688" lon="5.91489">
        <ele>600.3</ele>
        <time>2019-10-31T13:03:30Z</time>
      </trkpt>
      <trkpt lat="46.75683" lon="5.91489">
        <ele>599.2</ele>
        <time>2019-10-31T13:03:36Z</time>
      </trkpt>
      <trkpt lat="46.75678" lon="5.91491">
        <ele>598.4</ele>
        <time>2019-10-31T13:03:42Z</time>
      </trkpt>
      <trkpt lat="46.75674" lon="5.91494">
        <ele>597.7</ele>
        <time>2019-10-31T13:03:48Z</time>
      </trkpt>
      <trkpt lat="46.7567" lon="5.91497">
        <ele>597.3</ele>
        <time>2019-10-31T13:03:52Z</time>
      </trkpt>
      <trkpt lat="46.75666" lon="5.915">
        <ele>596.8</ele>
        <time>2019-10-31T13:03:58Z</time>
      </trkpt>
      <trkpt lat="46.75661" lon="5.91503">
        <ele>596.6</ele>
        <time>2019-10-31T13:04:07Z</time>
      </trkpt>
      <trkpt lat="46.75657" lon="5.91507">
        <ele>596.7</ele>
        <time>2019-10-31T13:04:12Z</time>
      </trkpt>
      <trkpt lat="46.75654" lon="5.91513">
        <ele>597.2</ele>
        <time>2019-10-31T13:04:19Z</time>
      </trkpt>
      <trkpt lat="46.7565" lon="5.91518">
        <ele>597.4</ele>
        <time>2019-10-31T13:04:25Z</time>
      </trkpt>
      <trkpt lat="46.75646" lon="5.91521">
        <ele>597.4</ele>
        <time>2019-10-31T13:04:29Z</time>
      </trkpt>
      <trkpt lat="46.75642" lon="5.91525">
        <ele>597.4</ele>
        <time>2019-10-31T13:04:34Z</time>
      </trkpt>
      <trkpt lat="46.75637" lon="5.91527">
        <ele>597.5</ele>
        <time>2019-10-31T13:04:40Z</time>
      </trkpt>
      <trkpt lat="46.75633" lon="5.91531">
        <ele>597.5</ele>
        <time>2019-10-31T13:04:45Z</time>
      </trkpt>
      <trkpt lat="46.7563" lon="5.91535">
        <ele>597.2</ele>
        <time>2019-10-31T13:04:51Z</time>
      </trkpt>
      <trkpt lat="46.75625" lon="5.91538">
        <ele>596.8</ele>
        <time>2019-10-31T13:05:11Z</time>
      </trkpt>
      <trkpt lat="46.75622" lon="5.91543">
        <ele>596.6</ele>
        <time>2019-10-31T13:05:16Z</time>
      </trkpt>
      <trkpt lat="46.75619" lon="5.91549">
        <ele>596.2</ele>
        <time>2019-10-31T13:05:20Z</time>
      </trkpt>
      <trkpt lat="46.75617" lon="5.91556">
        <ele>595.7</ele>
        <time>2019-10-31T13:05:25Z</time>
      </trkpt>
      <trkpt lat="46.75614" lon="5.91561">
        <ele>595.3</ele>
        <time>2019-10-31T13:05:29Z</time>
      </trkpt>
      <trkpt lat="46.7561" lon="5.91566">
        <ele>595</ele>
        <time>2019-10-31T13:05:35Z</time>
      </trkpt>
      <trkpt lat="46.75607" lon="5.91572">
        <ele>594.8</ele>
        <time>2019-10-31T13:05:40Z</time>
      </trkpt>
      <trkpt lat="46.75605" lon="5.91579">
        <ele>595</ele>
        <time>2019-10-31T13:05:45Z</time>
      </trkpt>
      <trkpt lat="46.75603" lon="5.91585">
        <ele>595.3</ele>
        <time>2019-10-31T13:05:50Z</time>
      </trkpt>
      <trkpt lat="46.75599" lon="5.91588">
        <ele>597.3</ele>
        <time>2019-10-31T13:06:10Z</time>
      </trkpt>
      <trkpt lat="46.75595" lon="5.91593">
        <ele>598.2</ele>
        <time>2019-10-31T13:06:15Z</time>
      </trkpt>
      <trkpt lat="46.75594" lon="5.91599">
        <ele>598.9</ele>
        <time>2019-10-31T13:06:20Z</time>
      </trkpt>
      <trkpt lat="46.75593" lon="5.91606">
        <ele>599.4</ele>
        <time>2019-10-31T13:06:25Z</time>
      </trkpt>
      <trkpt lat="46.75591" lon="5.91613">
        <ele>599.5</ele>
        <time>2019-10-31T13:06:30Z</time>
      </trkpt>
      <trkpt lat="46.75589" lon="5.91619">
        <ele>599.5</ele>
        <time>2019-10-31T13:06:35Z</time>
      </trkpt>
      <trkpt lat="46.75586" lon="5.91626">
        <ele>599.5</ele>
        <time>2019-10-31T13:06:40Z</time>
      </trkpt>
      <trkpt lat="46.75584" lon="5.91631">
        <ele>599.5</ele>
        <time>2019-10-31T13:06:45Z</time>
      </trkpt>
      <trkpt lat="46.75582" lon="5.91638">
        <ele>599.7</ele>
        <time>2019-10-31T13:06:51Z</time>
      </trkpt>
      <trkpt lat="46.7558" lon="5.91645">
        <ele>600.2</ele>
        <time>2019-10-31T13:06:57Z</time>
      </trkpt>
      <trkpt lat="46.75577" lon="5.91652">
        <ele>600.8</ele>
        <time>2019-10-31T13:07:03Z</time>
      </trkpt>
      <trkpt lat="46.75574" lon="5.91658">
        <ele>601.2</ele>
        <time>2019-10-31T13:07:09Z</time>
      </trkpt>
      <trkpt lat="46.75569" lon="5.91662">
        <ele>601.6</ele>
        <time>2019-10-31T13:07:15Z</time>
      </trkpt>
      <trkpt lat="46.75566" lon="5.91666">
        <ele>601.9</ele>
        <time>2019-10-31T13:07:20Z</time>
      </trkpt>
      <trkpt lat="46.75561" lon="5.91668">
        <ele>601.9</ele>
        <time>2019-10-31T13:07:25Z</time>
      </trkpt>
      <trkpt lat="46.75556" lon="5.91667">
        <ele>601.5</ele>
        <time>2019-10-31T13:07:29Z</time>
      </trkpt>
      <trkpt lat="46.75552" lon="5.91666">
        <ele>601.1</ele>
        <time>2019-10-31T13:07:34Z</time>
      </trkpt>
      <trkpt lat="46.75547" lon="5.91666">
        <ele>600.7</ele>
        <time>2019-10-31T13:07:41Z</time>
      </trkpt>
      <trkpt lat="46.75543" lon="5.91667">
        <ele>600.3</ele>
        <time>2019-10-31T13:07:45Z</time>
      </trkpt>
      <trkpt lat="46.75537" lon="5.91667">
        <ele>599.2</ele>
        <time>2019-10-31T13:07:52Z</time>
      </trkpt>
      <trkpt lat="46.75532" lon="5.91666">
        <ele>598.4</ele>
        <time>2019-10-31T13:07:57Z</time>
      </trkpt>
      <trkpt lat="46.75527" lon="5.91666">
        <ele>597.5</ele>
        <time>2019-10-31T13:08:02Z</time>
      </trkpt>
      <trkpt lat="46.75516" lon="5.91668">
        <ele>595.6</ele>
        <time>2019-10-31T13:08:15Z</time>
      </trkpt>
      <trkpt lat="46.75509" lon="5.91678">
        <ele>594.8</ele>
        <time>2019-10-31T13:08:25Z</time>
      </trkpt>
      <trkpt lat="46.75506" lon="5.91684">
        <ele>594.9</ele>
        <time>2019-10-31T13:08:27Z</time>
      </trkpt>
      <trkpt lat="46.75503" lon="5.9169">
        <ele>595.4</ele>
        <time>2019-10-31T13:08:30Z</time>
      </trkpt>
      <trkpt lat="46.755" lon="5.91696">
        <ele>597.1</ele>
        <time>2019-10-31T13:08:37Z</time>
      </trkpt>
      <trkpt lat="46.75497" lon="5.91704">
        <ele>598.9</ele>
        <time>2019-10-31T13:08:43Z</time>
      </trkpt>
      <trkpt lat="46.75494" lon="5.9171">
        <ele>600.3</ele>
        <time>2019-10-31T13:08:48Z</time>
      </trkpt>
      <trkpt lat="46.75491" lon="5.91715">
        <ele>602.1</ele>
        <time>2019-10-31T13:08:54Z</time>
      </trkpt>
      <trkpt lat="46.75486" lon="5.91719">
        <ele>602.9</ele>
        <time>2019-10-31T13:08:57Z</time>
      </trkpt>
      <trkpt lat="46.75482" lon="5.91723">
        <ele>604</ele>
        <time>2019-10-31T13:09:01Z</time>
      </trkpt>
      <trkpt lat="46.75478" lon="5.91726">
        <ele>604.7</ele>
        <time>2019-10-31T13:09:05Z</time>
      </trkpt>
      <trkpt lat="46.75476" lon="5.91733">
        <ele>605.6</ele>
        <time>2019-10-31T13:09:10Z</time>
      </trkpt>
      <trkpt lat="46.75474" lon="5.91739">
        <ele>606.5</ele>
        <time>2019-10-31T13:09:16Z</time>
      </trkpt>
      <trkpt lat="46.7547" lon="5.91743">
        <ele>607.1</ele>
        <time>2019-10-31T13:09:21Z</time>
      </trkpt>
      <trkpt lat="46.75468" lon="5.91749">
        <ele>608.4</ele>
        <time>2019-10-31T13:09:29Z</time>
      </trkpt>
      <trkpt lat="46.75472" lon="5.91753">
        <ele>613.1</ele>
        <time>2019-10-31T13:09:51Z</time>
      </trkpt>
      <trkpt lat="46.75475" lon="5.91759">
        <ele>614.5</ele>
        <time>2019-10-31T13:10:07Z</time>
      </trkpt>
      <trkpt lat="46.75476" lon="5.91766">
        <ele>614.2</ele>
        <time>2019-10-31T13:10:13Z</time>
      </trkpt>
      <trkpt lat="46.75475" lon="5.91759">
        <ele>610.9</ele>
        <time>2019-10-31T13:15:52Z</time>
      </trkpt>
      <trkpt lat="46.75474" lon="5.91753">
        <ele>610.1</ele>
        <time>2019-10-31T13:15:58Z</time>
      </trkpt>
      <trkpt lat="46.75474" lon="5.91746">
        <ele>609.2</ele>
        <time>2019-10-31T13:16:03Z</time>
      </trkpt>
      <trkpt lat="46.75473" lon="5.91738">
        <ele>608.4</ele>
        <time>2019-10-31T13:16:09Z</time>
      </trkpt>
      <trkpt lat="46.75472" lon="5.91731">
        <ele>607.9</ele>
        <time>2019-10-31T13:16:16Z</time>
      </trkpt>
      <trkpt lat="46.75473" lon="5.91723">
        <ele>607.9</ele>
        <time>2019-10-31T13:16:21Z</time>
      </trkpt>
      <trkpt lat="46.75473" lon="5.91717">
        <ele>608.1</ele>
        <time>2019-10-31T13:16:26Z</time>
      </trkpt>
      <trkpt lat="46.75476" lon="5.91709">
        <ele>608.1</ele>
        <time>2019-10-31T13:16:31Z</time>
      </trkpt>
      <trkpt lat="46.75479" lon="5.91704">
        <ele>607.9</ele>
        <time>2019-10-31T13:16:35Z</time>
      </trkpt>
      <trkpt lat="46.75482" lon="5.91699">
        <ele>607.8</ele>
        <time>2019-10-31T13:16:39Z</time>
      </trkpt>
      <trkpt lat="46.75486" lon="5.91695">
        <ele>607.6</ele>
        <time>2019-10-31T13:16:44Z</time>
      </trkpt>
      <trkpt lat="46.7549" lon="5.91689">
        <ele>607.2</ele>
        <time>2019-10-31T13:16:49Z</time>
      </trkpt>
      <trkpt lat="46.75494" lon="5.91685">
        <ele>606.9</ele>
        <time>2019-10-31T13:16:55Z</time>
      </trkpt>
      <trkpt lat="46.75498" lon="5.91682">
        <ele>607</ele>
        <time>2019-10-31T13:16:59Z</time>
      </trkpt>
      <trkpt lat="46.75503" lon="5.91679">
        <ele>607.2</ele>
        <time>2019-10-31T13:17:03Z</time>
      </trkpt>
      <trkpt lat="46.75507" lon="5.91677">
        <ele>607.5</ele>
        <time>2019-10-31T13:17:07Z</time>
      </trkpt>
      <trkpt lat="46.75513" lon="5.91674">
        <ele>607.9</ele>
        <time>2019-10-31T13:17:12Z</time>
      </trkpt>
      <trkpt lat="46.75517" lon="5.9167">
        <ele>608.4</ele>
        <time>2019-10-31T13:17:17Z</time>
      </trkpt>
      <trkpt lat="46.75522" lon="5.91667">
        <ele>609.1</ele>
        <time>2019-10-31T13:17:23Z</time>
      </trkpt>
      <trkpt lat="46.75527" lon="5.91664">
        <ele>609.4</ele>
        <time>2019-10-31T13:17:28Z</time>
      </trkpt>
      <trkpt lat="46.75532" lon="5.91665">
        <ele>609.4</ele>
        <time>2019-10-31T13:17:34Z</time>
      </trkpt>
      <trkpt lat="46.75536" lon="5.91666">
        <ele>609.3</ele>
        <time>2019-10-31T13:17:40Z</time>
      </trkpt>
      <trkpt lat="46.75542" lon="5.91667">
        <ele>608.9</ele>
        <time>2019-10-31T13:17:46Z</time>
      </trkpt>
      <trkpt lat="46.75546" lon="5.91667">
        <ele>608.4</ele>
        <time>2019-10-31T13:17:50Z</time>
      </trkpt>
      <trkpt lat="46.75551" lon="5.91667">
        <ele>607.8</ele>
        <time>2019-10-31T13:17:55Z</time>
      </trkpt>
      <trkpt lat="46.75556" lon="5.91666">
        <ele>607.5</ele>
        <time>2019-10-31T13:18:01Z</time>
      </trkpt>
      <trkpt lat="46.75561" lon="5.91664">
        <ele>607.5</ele>
        <time>2019-10-31T13:18:06Z</time>
      </trkpt>
      <trkpt lat="46.75567" lon="5.91662">
        <ele>607.4</ele>
        <time>2019-10-31T13:18:10Z</time>
      </trkpt>
      <trkpt lat="46.75571" lon="5.91658">
        <ele>607.5</ele>
        <time>2019-10-31T13:18:14Z</time>
      </trkpt>
      <trkpt lat="46.75574" lon="5.91653">
        <ele>607.5</ele>
        <time>2019-10-31T13:18:17Z</time>
      </trkpt>
      <trkpt lat="46.75578" lon="5.91647">
        <ele>607.3</ele>
        <time>2019-10-31T13:18:22Z</time>
      </trkpt>
      <trkpt lat="46.75578" lon="5.91639">
        <ele>606.7</ele>
        <time>2019-10-31T13:18:28Z</time>
      </trkpt>
      <trkpt lat="46.75577" lon="5.91633">
        <ele>605.7</ele>
        <time>2019-10-31T13:18:34Z</time>
      </trkpt>
      <trkpt lat="46.75573" lon="5.91629">
        <ele>605.2</ele>
        <time>2019-10-31T13:18:38Z</time>
      </trkpt>
      <trkpt lat="46.75568" lon="5.91626">
        <ele>604.4</ele>
        <time>2019-10-31T13:18:45Z</time>
      </trkpt>
      <trkpt lat="46.75564" lon="5.91622">
        <ele>603.7</ele>
        <time>2019-10-31T13:18:51Z</time>
      </trkpt>
      <trkpt lat="46.7556" lon="5.91616">
        <ele>603.3</ele>
        <time>2019-10-31T13:18:56Z</time>
      </trkpt>
      <trkpt lat="46.75556" lon="5.91612">
        <ele>603</ele>
        <time>2019-10-31T13:19:02Z</time>
      </trkpt>
      <trkpt lat="46.75552" lon="5.91608">
        <ele>603</ele>
        <time>2019-10-31T13:19:08Z</time>
      </trkpt>
      <trkpt lat="46.75548" lon="5.91603">
        <ele>602.9</ele>
        <time>2019-10-31T13:19:13Z</time>
      </trkpt>
      <trkpt lat="46.75544" lon="5.91599">
        <ele>602.8</ele>
        <time>2019-10-31T13:19:18Z</time>
      </trkpt>
      <trkpt lat="46.75542" lon="5.91593">
        <ele>602.3</ele>
        <time>2019-10-31T13:19:25Z</time>
      </trkpt>
      <trkpt lat="46.75539" lon="5.91587">
        <ele>601.8</ele>
        <time>2019-10-31T13:19:32Z</time>
      </trkpt>
      <trkpt lat="46.75538" lon="5.9158">
        <ele>600.6</ele>
        <time>2019-10-31T13:19:39Z</time>
      </trkpt>
      <trkpt lat="46.75536" lon="5.91573">
        <ele>599.8</ele>
        <time>2019-10-31T13:19:44Z</time>
      </trkpt>
      <trkpt lat="46.75533" lon="5.91566">
        <ele>598.5</ele>
        <time>2019-10-31T13:19:50Z</time>
      </trkpt>
      <trkpt lat="46.75532" lon="5.9156">
        <ele>597.5</ele>
        <time>2019-10-31T13:19:55Z</time>
      </trkpt>
      <trkpt lat="46.75529" lon="5.91554">
        <ele>596.3</ele>
        <time>2019-10-31T13:20:00Z</time>
      </trkpt>
      <trkpt lat="46.75526" lon="5.91548">
        <ele>594.8</ele>
        <time>2019-10-31T13:20:06Z</time>
      </trkpt>
      <trkpt lat="46.75525" lon="5.9154">
        <ele>593.5</ele>
        <time>2019-10-31T13:20:12Z</time>
      </trkpt>
      <trkpt lat="46.75524" lon="5.91532">
        <ele>592.7</ele>
        <time>2019-10-31T13:20:17Z</time>
      </trkpt>
      <trkpt lat="46.75521" lon="5.91525">
        <ele>591.8</ele>
        <time>2019-10-31T13:20:22Z</time>
      </trkpt>
      <trkpt lat="46.75519" lon="5.91518">
        <ele>590.7</ele>
        <time>2019-10-31T13:20:27Z</time>
      </trkpt>
      <trkpt lat="46.75516" lon="5.91511">
        <ele>589.8</ele>
        <time>2019-10-31T13:20:32Z</time>
      </trkpt>
      <trkpt lat="46.75512" lon="5.91506">
        <ele>589.2</ele>
        <time>2019-10-31T13:20:36Z</time>
      </trkpt>
      <trkpt lat="46.7551" lon="5.915">
        <ele>588.5</ele>
        <time>2019-10-31T13:20:42Z</time>
      </trkpt>
      <trkpt lat="46.75509" lon="5.91493">
        <ele>587.8</ele>
        <time>2019-10-31T13:20:51Z</time>
      </trkpt>
      <trkpt lat="46.75507" lon="5.91485">
        <ele>587</ele>
        <time>2019-10-31T13:20:59Z</time>
      </trkpt>
      <trkpt lat="46.75506" lon="5.91462">
        <ele>584.4</ele>
        <time>2019-10-31T13:21:20Z</time>
      </trkpt>
      <trkpt lat="46.75503" lon="5.91456">
        <ele>584</ele>
        <time>2019-10-31T13:21:25Z</time>
      </trkpt>
      <trkpt lat="46.75499" lon="5.91451">
        <ele>583.3</ele>
        <time>2019-10-31T13:21:32Z</time>
      </trkpt>
      <trkpt lat="46.75495" lon="5.91447">
        <ele>582.3</ele>
        <time>2019-10-31T13:21:39Z</time>
      </trkpt>
      <trkpt lat="46.7549" lon="5.91442">
        <ele>581.3</ele>
        <time>2019-10-31T13:21:44Z</time>
      </trkpt>
      <trkpt lat="46.75486" lon="5.91439">
        <ele>580.5</ele>
        <time>2019-10-31T13:21:48Z</time>
      </trkpt>
      <trkpt lat="46.75482" lon="5.91435">
        <ele>579.7</ele>
        <time>2019-10-31T13:21:52Z</time>
      </trkpt>
      <trkpt lat="46.75478" lon="5.91431">
        <ele>579.2</ele>
        <time>2019-10-31T13:21:55Z</time>
      </trkpt>
      <trkpt lat="46.75475" lon="5.91426">
        <ele>578.7</ele>
        <time>2019-10-31T13:21:58Z</time>
      </trkpt>
      <trkpt lat="46.75471" lon="5.91421">
        <ele>578.2</ele>
        <time>2019-10-31T13:22:02Z</time>
      </trkpt>
      <trkpt lat="46.75467" lon="5.91418">
        <ele>577.6</ele>
        <time>2019-10-31T13:22:06Z</time>
      </trkpt>
      <trkpt lat="46.75463" lon="5.91413">
        <ele>576.9</ele>
        <time>2019-10-31T13:22:11Z</time>
      </trkpt>
      <trkpt lat="46.75459" lon="5.91409">
        <ele>576.2</ele>
        <time>2019-10-31T13:22:17Z</time>
      </trkpt>
      <trkpt lat="46.75457" lon="5.91403">
        <ele>575.5</ele>
        <time>2019-10-31T13:22:23Z</time>
      </trkpt>
      <trkpt lat="46.75453" lon="5.91397">
        <ele>574.8</ele>
        <time>2019-10-31T13:22:31Z</time>
      </trkpt>
      <trkpt lat="46.75449" lon="5.91394">
        <ele>574.3</ele>
        <time>2019-10-31T13:22:37Z</time>
      </trkpt>
      <trkpt lat="46.75444" lon="5.91392">
        <ele>574</ele>
        <time>2019-10-31T13:22:41Z</time>
      </trkpt>
      <trkpt lat="46.7544" lon="5.91389">
        <ele>573.3</ele>
        <time>2019-10-31T13:22:46Z</time>
      </trkpt>
      <trkpt lat="46.75435" lon="5.91387">
        <ele>572.5</ele>
        <time>2019-10-31T13:22:52Z</time>
      </trkpt>
      <trkpt lat="46.7543" lon="5.91385">
        <ele>571.9</ele>
        <time>2019-10-31T13:22:57Z</time>
      </trkpt>
      <trkpt lat="46.75426" lon="5.91382">
        <ele>571.4</ele>
        <time>2019-10-31T13:23:01Z</time>
      </trkpt>
      <trkpt lat="46.75421" lon="5.91381">
        <ele>570.5</ele>
        <time>2019-10-31T13:23:10Z</time>
      </trkpt>
      <trkpt lat="46.75417" lon="5.91378">
        <ele>570</ele>
        <time>2019-10-31T13:23:16Z</time>
      </trkpt>
      <trkpt lat="46.75412" lon="5.91375">
        <ele>569.8</ele>
        <time>2019-10-31T13:23:21Z</time>
      </trkpt>
      <trkpt lat="46.75407" lon="5.91373">
        <ele>569.5</ele>
        <time>2019-10-31T13:23:26Z</time>
      </trkpt>
      <trkpt lat="46.75403" lon="5.91375">
        <ele>571</ele>
        <time>2019-10-31T13:23:59Z</time>
      </trkpt>
      <trkpt lat="46.75405" lon="5.91381">
        <ele>571.8</ele>
        <time>2019-10-31T13:24:13Z</time>
      </trkpt>
      <trkpt lat="46.754" lon="5.91376">
        <ele>572</ele>
        <time>2019-10-31T13:24:26Z</time>
      </trkpt>
      <trkpt lat="46.75397" lon="5.91372">
        <ele>572.1</ele>
        <time>2019-10-31T13:24:31Z</time>
      </trkpt>
      <trkpt lat="46.75393" lon="5.91367">
        <ele>572.2</ele>
        <time>2019-10-31T13:24:36Z</time>
      </trkpt>
      <trkpt lat="46.75398" lon="5.91369">
        <ele>572.6</ele>
        <time>2019-10-31T13:25:20Z</time>
      </trkpt>
      <trkpt lat="46.75403" lon="5.91371">
        <ele>572.4</ele>
        <time>2019-10-31T13:25:31Z</time>
      </trkpt>
      <trkpt lat="46.75407" lon="5.91368">
        <ele>574.2</ele>
        <time>2019-10-31T13:26:04Z</time>
      </trkpt>
      <trkpt lat="46.75412" lon="5.91369">
        <ele>572.8</ele>
        <time>2019-10-31T13:26:19Z</time>
      </trkpt>
      <trkpt lat="46.75416" lon="5.91366">
        <ele>572.1</ele>
        <time>2019-10-31T13:26:24Z</time>
      </trkpt>
      <trkpt lat="46.75421" lon="5.91363">
        <ele>571.3</ele>
        <time>2019-10-31T13:26:28Z</time>
      </trkpt>
      <trkpt lat="46.75425" lon="5.91359">
        <ele>570.6</ele>
        <time>2019-10-31T13:26:32Z</time>
      </trkpt>
      <trkpt lat="46.75429" lon="5.91355">
        <ele>569.5</ele>
        <time>2019-10-31T13:26:38Z</time>
      </trkpt>
      <trkpt lat="46.75434" lon="5.91351">
        <ele>568.7</ele>
        <time>2019-10-31T13:26:43Z</time>
      </trkpt>
      <trkpt lat="46.75439" lon="5.91348">
        <ele>568.1</ele>
        <time>2019-10-31T13:26:48Z</time>
      </trkpt>
      <trkpt lat="46.75442" lon="5.91344">
        <ele>567.5</ele>
        <time>2019-10-31T13:26:58Z</time>
      </trkpt>
      <trkpt lat="46.75445" lon="5.91337">
        <ele>567.4</ele>
        <time>2019-10-31T13:27:07Z</time>
      </trkpt>
      <trkpt lat="46.75442" lon="5.91332">
        <ele>567.4</ele>
        <time>2019-10-31T13:27:12Z</time>
      </trkpt>
      <trkpt lat="46.75438" lon="5.91328">
        <ele>567.2</ele>
        <time>2019-10-31T13:27:21Z</time>
      </trkpt>
      <trkpt lat="46.75436" lon="5.91322">
        <ele>566.7</ele>
        <time>2019-10-31T13:27:31Z</time>
      </trkpt>
      <trkpt lat="46.75433" lon="5.91317">
        <ele>565.7</ele>
        <time>2019-10-31T13:27:39Z</time>
      </trkpt>
      <trkpt lat="46.75428" lon="5.91317">
        <ele>565.2</ele>
        <time>2019-10-31T13:27:51Z</time>
      </trkpt>
      <trkpt lat="46.75424" lon="5.91312">
        <ele>565.5</ele>
        <time>2019-10-31T13:27:59Z</time>
      </trkpt>
      <trkpt lat="46.75419" lon="5.9131">
        <ele>565.9</ele>
        <time>2019-10-31T13:28:04Z</time>
      </trkpt>
      <trkpt lat="46.75422" lon="5.91306">
        <ele>565.3</ele>
        <time>2019-10-31T13:28:18Z</time>
      </trkpt>
      <trkpt lat="46.75426" lon="5.91302">
        <ele>564.1</ele>
        <time>2019-10-31T13:28:25Z</time>
      </trkpt>
      <trkpt lat="46.75431" lon="5.91298">
        <ele>562</ele>
        <time>2019-10-31T13:29:05Z</time>
      </trkpt>
      <trkpt lat="46.75426" lon="5.91294">
        <ele>563.6</ele>
        <time>2019-10-31T13:29:23Z</time>
      </trkpt>
      <trkpt lat="46.7542" lon="5.91291">
        <ele>564</ele>
        <time>2019-10-31T13:29:27Z</time>
      </trkpt>
      <trkpt lat="46.75416" lon="5.91288">
        <ele>564.3</ele>
        <time>2019-10-31T13:29:30Z</time>
      </trkpt>
      <trkpt lat="46.75411" lon="5.91283">
        <ele>564.7</ele>
        <time>2019-10-31T13:29:35Z</time>
      </trkpt>
      <trkpt lat="46.75408" lon="5.91279">
        <ele>564.9</ele>
        <time>2019-10-31T13:29:41Z</time>
      </trkpt>
      <trkpt lat="46.75404" lon="5.91274">
        <ele>564.6</ele>
        <time>2019-10-31T13:29:48Z</time>
      </trkpt>
      <trkpt lat="46.754" lon="5.9127">
        <ele>563.8</ele>
        <time>2019-10-31T13:29:57Z</time>
      </trkpt>
      <trkpt lat="46.75397" lon="5.91265">
        <ele>563.6</ele>
        <time>2019-10-31T13:30:01Z</time>
      </trkpt>
      <trkpt lat="46.75394" lon="5.9126">
        <ele>563.4</ele>
        <time>2019-10-31T13:30:06Z</time>
      </trkpt>
      <trkpt lat="46.75391" lon="5.91254">
        <ele>563.1</ele>
        <time>2019-10-31T13:30:13Z</time>
      </trkpt>
      <trkpt lat="46.75389" lon="5.91249">
        <ele>562.5</ele>
        <time>2019-10-31T13:30:19Z</time>
      </trkpt>
      <trkpt lat="46.75388" lon="5.91242">
        <ele>560.4</ele>
        <time>2019-10-31T13:30:31Z</time>
      </trkpt>
      <trkpt lat="46.75386" lon="5.91235">
        <ele>558.9</ele>
        <time>2019-10-31T13:30:37Z</time>
      </trkpt>
      <trkpt lat="46.75383" lon="5.9123">
        <ele>557.4</ele>
        <time>2019-10-31T13:30:43Z</time>
      </trkpt>
      <trkpt lat="46.75379" lon="5.91228">
        <ele>556.4</ele>
        <time>2019-10-31T13:30:48Z</time>
      </trkpt>
      <trkpt lat="46.75375" lon="5.91223">
        <ele>555.3</ele>
        <time>2019-10-31T13:30:54Z</time>
      </trkpt>
      <trkpt lat="46.75373" lon="5.91216">
        <ele>554.7</ele>
        <time>2019-10-31T13:30:59Z</time>
      </trkpt>
      <trkpt lat="46.7537" lon="5.9121">
        <ele>554.5</ele>
        <time>2019-10-31T13:31:03Z</time>
      </trkpt>
      <trkpt lat="46.75368" lon="5.91204">
        <ele>554</ele>
        <time>2019-10-31T13:31:09Z</time>
      </trkpt>
      <trkpt lat="46.75365" lon="5.91198">
        <ele>553.5</ele>
        <time>2019-10-31T13:31:15Z</time>
      </trkpt>
      <trkpt lat="46.75363" lon="5.91191">
        <ele>553</ele>
        <time>2019-10-31T13:31:21Z</time>
      </trkpt>
      <trkpt lat="46.7536" lon="5.91185">
        <ele>552.9</ele>
        <time>2019-10-31T13:31:25Z</time>
      </trkpt>
      <trkpt lat="46.75357" lon="5.91179">
        <ele>552.8</ele>
        <time>2019-10-31T13:31:31Z</time>
      </trkpt>
      <trkpt lat="46.75354" lon="5.91172">
        <ele>552.7</ele>
        <time>2019-10-31T13:31:37Z</time>
      </trkpt>
      <trkpt lat="46.75351" lon="5.91166">
        <ele>552.6</ele>
        <time>2019-10-31T13:31:41Z</time>
      </trkpt>
      <trkpt lat="46.75349" lon="5.91159">
        <ele>552.7</ele>
        <time>2019-10-31T13:31:46Z</time>
      </trkpt>
      <trkpt lat="46.75346" lon="5.91154">
        <ele>552.9</ele>
        <time>2019-10-31T13:31:51Z</time>
      </trkpt>
      <trkpt lat="46.75343" lon="5.91148">
        <ele>552.7</ele>
        <time>2019-10-31T13:31:56Z</time>
      </trkpt>
      <trkpt lat="46.7534" lon="5.91143">
        <ele>552.4</ele>
        <time>2019-10-31T13:32:01Z</time>
      </trkpt>
      <trkpt lat="46.75338" lon="5.91136">
        <ele>552.1</ele>
        <time>2019-10-31T13:32:06Z</time>
      </trkpt>
      <trkpt lat="46.75335" lon="5.91129">
        <ele>551.8</ele>
        <time>2019-10-31T13:32:10Z</time>
      </trkpt>
      <trkpt lat="46.75333" lon="5.91123">
        <ele>551.8</ele>
        <time>2019-10-31T13:32:15Z</time>
      </trkpt>
      <trkpt lat="46.7533" lon="5.91116">
        <ele>551.9</ele>
        <time>2019-10-31T13:32:19Z</time>
      </trkpt>
      <trkpt lat="46.75327" lon="5.91109">
        <ele>551.8</ele>
        <time>2019-10-31T13:32:24Z</time>
      </trkpt>
      <trkpt lat="46.75324" lon="5.91104">
        <ele>551.6</ele>
        <time>2019-10-31T13:32:29Z</time>
      </trkpt>
      <trkpt lat="46.75321" lon="5.91099">
        <ele>551.3</ele>
        <time>2019-10-31T13:32:35Z</time>
      </trkpt>
      <trkpt lat="46.75316" lon="5.91097">
        <ele>551</ele>
        <time>2019-10-31T13:32:42Z</time>
      </trkpt>
      <trkpt lat="46.75311" lon="5.91099">
        <ele>550.3</ele>
        <time>2019-10-31T13:32:50Z</time>
      </trkpt>
      <trkpt lat="46.75306" lon="5.91097">
        <ele>550</ele>
        <time>2019-10-31T13:32:55Z</time>
      </trkpt>
      <trkpt lat="46.75303" lon="5.91102">
        <ele>548.5</ele>
        <time>2019-10-31T13:33:08Z</time>
      </trkpt>
      <trkpt lat="46.753" lon="5.91108">
        <ele>547.8</ele>
        <time>2019-10-31T13:33:15Z</time>
      </trkpt>
      <trkpt lat="46.75296" lon="5.91113">
        <ele>547.4</ele>
        <time>2019-10-31T13:33:20Z</time>
      </trkpt>
      <trkpt lat="46.75292" lon="5.91117">
        <ele>547</ele>
        <time>2019-10-31T13:33:26Z</time>
      </trkpt>
      <trkpt lat="46.75288" lon="5.91122">
        <ele>546.7</ele>
        <time>2019-10-31T13:33:32Z</time>
      </trkpt>
      <trkpt lat="46.75285" lon="5.91128">
        <ele>546.6</ele>
        <time>2019-10-31T13:33:37Z</time>
      </trkpt>
      <trkpt lat="46.75281" lon="5.91132">
        <ele>546.7</ele>
        <time>2019-10-31T13:33:41Z</time>
      </trkpt>
      <trkpt lat="46.75277" lon="5.91135">
        <ele>546.5</ele>
        <time>2019-10-31T13:33:46Z</time>
      </trkpt>
      <trkpt lat="46.75272" lon="5.9114">
        <ele>546.3</ele>
        <time>2019-10-31T13:33:51Z</time>
      </trkpt>
      <trkpt lat="46.75269" lon="5.91144">
        <ele>546.1</ele>
        <time>2019-10-31T13:33:57Z</time>
      </trkpt>
      <trkpt lat="46.75266" lon="5.91149">
        <ele>546</ele>
        <time>2019-10-31T13:34:02Z</time>
      </trkpt>
      <trkpt lat="46.75261" lon="5.91152">
        <ele>546</ele>
        <time>2019-10-31T13:34:06Z</time>
      </trkpt>
      <trkpt lat="46.75257" lon="5.91155">
        <ele>546.1</ele>
        <time>2019-10-31T13:34:10Z</time>
      </trkpt>
      <trkpt lat="46.75253" lon="5.9116">
        <ele>546.1</ele>
        <time>2019-10-31T13:34:16Z</time>
      </trkpt>
      <trkpt lat="46.75249" lon="5.91166">
        <ele>546.2</ele>
        <time>2019-10-31T13:34:21Z</time>
      </trkpt>
      <trkpt lat="46.75245" lon="5.91169">
        <ele>546.3</ele>
        <time>2019-10-31T13:34:26Z</time>
      </trkpt>
      <trkpt lat="46.75241" lon="5.9117">
        <ele>546.2</ele>
        <time>2019-10-31T13:34:33Z</time>
      </trkpt>
      <trkpt lat="46.75238" lon="5.91176">
        <ele>545.7</ele>
        <time>2019-10-31T13:34:42Z</time>
      </trkpt>
      <trkpt lat="46.7524" lon="5.91184">
        <ele>545.5</ele>
        <time>2019-10-31T13:34:48Z</time>
      </trkpt>
      <trkpt lat="46.75241" lon="5.91191">
        <ele>545.3</ele>
        <time>2019-10-31T13:34:52Z</time>
      </trkpt>
      <trkpt lat="46.75242" lon="5.91199">
        <ele>545.1</ele>
        <time>2019-10-31T13:34:56Z</time>
      </trkpt>
      <trkpt lat="46.75243" lon="5.91206">
        <ele>545.1</ele>
        <time>2019-10-31T13:35:02Z</time>
      </trkpt>
      <trkpt lat="46.75246" lon="5.91211">
        <ele>545.2</ele>
        <time>2019-10-31T13:35:06Z</time>
      </trkpt>
      <trkpt lat="46.75249" lon="5.91216">
        <ele>545.4</ele>
        <time>2019-10-31T13:35:10Z</time>
      </trkpt>
      <trkpt lat="46.75252" lon="5.9122">
        <ele>545.7</ele>
        <time>2019-10-31T13:35:17Z</time>
      </trkpt>
      <trkpt lat="46.75256" lon="5.91225">
        <ele>545.7</ele>
        <time>2019-10-31T13:35:22Z</time>
      </trkpt>
      <trkpt lat="46.75259" lon="5.9123">
        <ele>545.8</ele>
        <time>2019-10-31T13:35:26Z</time>
      </trkpt>
      <trkpt lat="46.75264" lon="5.91233">
        <ele>546</ele>
        <time>2019-10-31T13:35:32Z</time>
      </trkpt>
      <trkpt lat="46.75268" lon="5.91238">
        <ele>545.9</ele>
        <time>2019-10-31T13:35:38Z</time>
      </trkpt>
      <trkpt lat="46.75271" lon="5.91245">
        <ele>545.7</ele>
        <time>2019-10-31T13:35:43Z</time>
      </trkpt>
      <trkpt lat="46.75273" lon="5.9125">
        <ele>545.6</ele>
        <time>2019-10-31T13:35:47Z</time>
      </trkpt>
      <trkpt lat="46.75276" lon="5.91257">
        <ele>545.7</ele>
        <time>2019-10-31T13:35:52Z</time>
      </trkpt>
      <trkpt lat="46.75275" lon="5.91267">
        <ele>547.1</ele>
        <time>2019-10-31T13:36:24Z</time>
      </trkpt>
      <trkpt lat="46.75279" lon="5.91268">
        <ele>549.3</ele>
        <time>2019-10-31T13:36:37Z</time>
      </trkpt>
      <trkpt lat="46.75283" lon="5.91272">
        <ele>549.8</ele>
        <time>2019-10-31T13:36:44Z</time>
      </trkpt>
      <trkpt lat="46.75287" lon="5.91277">
        <ele>550.3</ele>
        <time>2019-10-31T13:36:52Z</time>
      </trkpt>
      <trkpt lat="46.75289" lon="5.91283">
        <ele>550.8</ele>
        <time>2019-10-31T13:36:58Z</time>
      </trkpt>
      <trkpt lat="46.75293" lon="5.9129">
        <ele>550.9</ele>
        <time>2019-10-31T13:37:02Z</time>
      </trkpt>
      <trkpt lat="46.75295" lon="5.91295">
        <ele>550.8</ele>
        <time>2019-10-31T13:37:06Z</time>
      </trkpt>
      <trkpt lat="46.75295" lon="5.91288">
        <ele>548.5</ele>
        <time>2019-10-31T13:37:33Z</time>
      </trkpt>
      <trkpt lat="46.75293" lon="5.91282">
        <ele>548.4</ele>
        <time>2019-10-31T13:37:37Z</time>
      </trkpt>
      <trkpt lat="46.75289" lon="5.91276">
        <ele>548.5</ele>
        <time>2019-10-31T13:37:41Z</time>
      </trkpt>
      <trkpt lat="46.75287" lon="5.91269">
        <ele>548.7</ele>
        <time>2019-10-31T13:37:47Z</time>
      </trkpt>
      <trkpt lat="46.75284" lon="5.91263">
        <ele>548.9</ele>
        <time>2019-10-31T13:37:52Z</time>
      </trkpt>
      <trkpt lat="46.75281" lon="5.91258">
        <ele>549.2</ele>
        <time>2019-10-31T13:37:56Z</time>
      </trkpt>
      <trkpt lat="46.75278" lon="5.91251">
        <ele>549.6</ele>
        <time>2019-10-31T13:38:01Z</time>
      </trkpt>
      <trkpt lat="46.75276" lon="5.91245">
        <ele>549.8</ele>
        <time>2019-10-31T13:38:06Z</time>
      </trkpt>
      <trkpt lat="46.75273" lon="5.91239">
        <ele>550.1</ele>
        <time>2019-10-31T13:38:11Z</time>
      </trkpt>
      <trkpt lat="46.7527" lon="5.91234">
        <ele>550.6</ele>
        <time>2019-10-31T13:38:17Z</time>
      </trkpt>
      <trkpt lat="46.75266" lon="5.91229">
        <ele>550.9</ele>
        <time>2019-10-31T13:38:22Z</time>
      </trkpt>
      <trkpt lat="46.75261" lon="5.91226">
        <ele>551.2</ele>
        <time>2019-10-31T13:38:27Z</time>
      </trkpt>
      <trkpt lat="46.75256" lon="5.91223">
        <ele>551.4</ele>
        <time>2019-10-31T13:38:31Z</time>
      </trkpt>
      <trkpt lat="46.75252" lon="5.91219">
        <ele>551.5</ele>
        <time>2019-10-31T13:38:35Z</time>
      </trkpt>
      <trkpt lat="46.75248" lon="5.91216">
        <ele>551.5</ele>
        <time>2019-10-31T13:38:38Z</time>
      </trkpt>
      <trkpt lat="46.75244" lon="5.91213">
        <ele>551.6</ele>
        <time>2019-10-31T13:38:43Z</time>
      </trkpt>
      <trkpt lat="46.7524" lon="5.9121">
        <ele>551.7</ele>
        <time>2019-10-31T13:38:49Z</time>
      </trkpt>
      <trkpt lat="46.75236" lon="5.91207">
        <ele>551.8</ele>
        <time>2019-10-31T13:38:54Z</time>
      </trkpt>
      <trkpt lat="46.75231" lon="5.91204">
        <ele>551.7</ele>
        <time>2019-10-31T13:38:59Z</time>
      </trkpt>
      <trkpt lat="46.75228" lon="5.912">
        <ele>551.3</ele>
        <time>2019-10-31T13:39:04Z</time>
      </trkpt>
      <trkpt lat="46.75224" lon="5.91195">
        <ele>550.5</ele>
        <time>2019-10-31T13:39:10Z</time>
      </trkpt>
      <trkpt lat="46.75221" lon="5.91191">
        <ele>550.3</ele>
        <time>2019-10-31T13:39:16Z</time>
      </trkpt>
      <trkpt lat="46.75216" lon="5.91185">
        <ele>550.3</ele>
        <time>2019-10-31T13:39:21Z</time>
      </trkpt>
      <trkpt lat="46.75211" lon="5.91183">
        <ele>550.5</ele>
        <time>2019-10-31T13:39:26Z</time>
      </trkpt>
      <trkpt lat="46.75207" lon="5.91178">
        <ele>550.5</ele>
        <time>2019-10-31T13:39:31Z</time>
      </trkpt>
      <trkpt lat="46.75203" lon="5.91174">
        <ele>550.5</ele>
        <time>2019-10-31T13:39:36Z</time>
      </trkpt>
      <trkpt lat="46.75198" lon="5.91171">
        <ele>550.6</ele>
        <time>2019-10-31T13:39:41Z</time>
      </trkpt>
      <trkpt lat="46.75194" lon="5.91168">
        <ele>550.6</ele>
        <time>2019-10-31T13:39:45Z</time>
      </trkpt>
      <trkpt lat="46.75189" lon="5.91165">
        <ele>550.5</ele>
        <time>2019-10-31T13:39:50Z</time>
      </trkpt>
      <trkpt lat="46.75184" lon="5.91162">
        <ele>550.2</ele>
        <time>2019-10-31T13:39:55Z</time>
      </trkpt>
      <trkpt lat="46.75179" lon="5.91158">
        <ele>550</ele>
        <time>2019-10-31T13:39:59Z</time>
      </trkpt>
      <trkpt lat="46.75175" lon="5.91154">
        <ele>549.7</ele>
        <time>2019-10-31T13:40:04Z</time>
      </trkpt>
      <trkpt lat="46.75171" lon="5.9115">
        <ele>549.6</ele>
        <time>2019-10-31T13:40:09Z</time>
      </trkpt>
      <trkpt lat="46.75166" lon="5.91148">
        <ele>549.4</ele>
        <time>2019-10-31T13:40:14Z</time>
      </trkpt>
      <trkpt lat="46.75161" lon="5.91146">
        <ele>549</ele>
        <time>2019-10-31T13:40:19Z</time>
      </trkpt>
      <trkpt lat="46.75156" lon="5.91144">
        <ele>548.6</ele>
        <time>2019-10-31T13:40:25Z</time>
      </trkpt>
      <trkpt lat="46.75151" lon="5.91142">
        <ele>548.2</ele>
        <time>2019-10-31T13:40:29Z</time>
      </trkpt>
      <trkpt lat="46.75147" lon="5.9114">
        <ele>547.8</ele>
        <time>2019-10-31T13:40:33Z</time>
      </trkpt>
      <trkpt lat="46.75143" lon="5.91136">
        <ele>547.5</ele>
        <time>2019-10-31T13:40:37Z</time>
      </trkpt>
      <trkpt lat="46.75139" lon="5.91133">
        <ele>547.3</ele>
        <time>2019-10-31T13:40:41Z</time>
      </trkpt>
      <trkpt lat="46.75135" lon="5.9113">
        <ele>547.1</ele>
        <time>2019-10-31T13:40:47Z</time>
      </trkpt>
      <trkpt lat="46.7513" lon="5.91127">
        <ele>546.9</ele>
        <time>2019-10-31T13:40:51Z</time>
      </trkpt>
      <trkpt lat="46.75125" lon="5.91124">
        <ele>546.9</ele>
        <time>2019-10-31T13:40:56Z</time>
      </trkpt>
      <trkpt lat="46.7512" lon="5.91124">
        <ele>546.9</ele>
        <time>2019-10-31T13:41:00Z</time>
      </trkpt>
      <trkpt lat="46.75115" lon="5.91123">
        <ele>547</ele>
        <time>2019-10-31T13:41:04Z</time>
      </trkpt>
      <trkpt lat="46.7511" lon="5.91122">
        <ele>547.2</ele>
        <time>2019-10-31T13:41:09Z</time>
      </trkpt>
      <trkpt lat="46.75106" lon="5.91126">
        <ele>547.6</ele>
        <time>2019-10-31T13:41:17Z</time>
      </trkpt>
      <trkpt lat="46.75105" lon="5.91133">
        <ele>547.5</ele>
        <time>2019-10-31T13:41:23Z</time>
      </trkpt>
      <trkpt lat="46.75102" lon="5.91138">
        <ele>546.9</ele>
        <time>2019-10-31T13:41:30Z</time>
      </trkpt>
      <trkpt lat="46.75103" lon="5.91145">
        <ele>546.4</ele>
        <time>2019-10-31T13:41:35Z</time>
      </trkpt>
      <trkpt lat="46.75104" lon="5.91152">
        <ele>546.2</ele>
        <time>2019-10-31T13:41:40Z</time>
      </trkpt>
      <trkpt lat="46.75103" lon="5.9116">
        <ele>546</ele>
        <time>2019-10-31T13:41:45Z</time>
      </trkpt>
      <trkpt lat="46.75102" lon="5.91168">
        <ele>545.8</ele>
        <time>2019-10-31T13:41:50Z</time>
      </trkpt>
      <trkpt lat="46.75102" lon="5.91176">
        <ele>546.1</ele>
        <time>2019-10-31T13:41:55Z</time>
      </trkpt>
      <trkpt lat="46.75102" lon="5.91183">
        <ele>546.6</ele>
        <time>2019-10-31T13:42:00Z</time>
      </trkpt>
      <trkpt lat="46.75102" lon="5.91191">
        <ele>546.9</ele>
        <time>2019-10-31T13:42:04Z</time>
      </trkpt>
      <trkpt lat="46.75104" lon="5.91198">
        <ele>547</ele>
        <time>2019-10-31T13:42:08Z</time>
      </trkpt>
      <trkpt lat="46.75103" lon="5.91206">
        <ele>546.9</ele>
        <time>2019-10-31T13:42:13Z</time>
      </trkpt>
      <trkpt lat="46.75104" lon="5.91213">
        <ele>546.6</ele>
        <time>2019-10-31T13:42:16Z</time>
      </trkpt>
      <trkpt lat="46.75105" lon="5.9122">
        <ele>546.1</ele>
        <time>2019-10-31T13:42:20Z</time>
      </trkpt>
      <trkpt lat="46.75107" lon="5.91227">
        <ele>545.6</ele>
        <time>2019-10-31T13:42:25Z</time>
      </trkpt>
      <trkpt lat="46.75106" lon="5.91234">
        <ele>545.4</ele>
        <time>2019-10-31T13:42:31Z</time>
      </trkpt>
      <trkpt lat="46.75102" lon="5.9124">
        <ele>545.1</ele>
        <time>2019-10-31T13:42:36Z</time>
      </trkpt>
      <trkpt lat="46.751" lon="5.91247">
        <ele>544.7</ele>
        <time>2019-10-31T13:42:42Z</time>
      </trkpt>
      <trkpt lat="46.75099" lon="5.91254">
        <ele>544.5</ele>
        <time>2019-10-31T13:42:47Z</time>
      </trkpt>
      <trkpt lat="46.75099" lon="5.91262">
        <ele>544.5</ele>
        <time>2019-10-31T13:42:52Z</time>
      </trkpt>
      <trkpt lat="46.75098" lon="5.91269">
        <ele>544.5</ele>
        <time>2019-10-31T13:42:57Z</time>
      </trkpt>
      <trkpt lat="46.75096" lon="5.91277">
        <ele>544.6</ele>
        <time>2019-10-31T13:43:01Z</time>
      </trkpt>
      <trkpt lat="46.75095" lon="5.91285">
        <ele>544.6</ele>
        <time>2019-10-31T13:43:06Z</time>
      </trkpt>
      <trkpt lat="46.75094" lon="5.91291">
        <ele>544.8</ele>
        <time>2019-10-31T13:43:10Z</time>
      </trkpt>
      <trkpt lat="46.75094" lon="5.91299">
        <ele>544.8</ele>
        <time>2019-10-31T13:43:14Z</time>
      </trkpt>
      <trkpt lat="46.75093" lon="5.91306">
        <ele>544.8</ele>
        <time>2019-10-31T13:43:18Z</time>
      </trkpt>
      <trkpt lat="46.75092" lon="5.91313">
        <ele>544.7</ele>
        <time>2019-10-31T13:43:23Z</time>
      </trkpt>
      <trkpt lat="46.75089" lon="5.91319">
        <ele>544.3</ele>
        <time>2019-10-31T13:43:30Z</time>
      </trkpt>
      <trkpt lat="46.75086" lon="5.91326">
        <ele>544</ele>
        <time>2019-10-31T13:43:35Z</time>
      </trkpt>
      <trkpt lat="46.75084" lon="5.91333">
        <ele>544</ele>
        <time>2019-10-31T13:43:38Z</time>
      </trkpt>
      <trkpt lat="46.75083" lon="5.91339">
        <ele>544.2</ele>
        <time>2019-10-31T13:43:42Z</time>
      </trkpt>
      <trkpt lat="46.75082" lon="5.91346">
        <ele>544.7</ele>
        <time>2019-10-31T13:43:46Z</time>
      </trkpt>
      <trkpt lat="46.7508" lon="5.91352">
        <ele>545.1</ele>
        <time>2019-10-31T13:43:50Z</time>
      </trkpt>
      <trkpt lat="46.7508" lon="5.91359">
        <ele>545.6</ele>
        <time>2019-10-31T13:43:55Z</time>
      </trkpt>
      <trkpt lat="46.7508" lon="5.91366">
        <ele>546.1</ele>
        <time>2019-10-31T13:44:00Z</time>
      </trkpt>
      <trkpt lat="46.75078" lon="5.91372">
        <ele>546.5</ele>
        <time>2019-10-31T13:44:05Z</time>
      </trkpt>
      <trkpt lat="46.75077" lon="5.91379">
        <ele>546.9</ele>
        <time>2019-10-31T13:44:10Z</time>
      </trkpt>
      <trkpt lat="46.75077" lon="5.91388">
        <ele>547.1</ele>
        <time>2019-10-31T13:44:15Z</time>
      </trkpt>
      <trkpt lat="46.75077" lon="5.91394">
        <ele>547</ele>
        <time>2019-10-31T13:44:19Z</time>
      </trkpt>
      <trkpt lat="46.75075" lon="5.91402">
        <ele>546.7</ele>
        <time>2019-10-31T13:44:25Z</time>
      </trkpt>
      <trkpt lat="46.75073" lon="5.9141">
        <ele>546.5</ele>
        <time>2019-10-31T13:44:29Z</time>
      </trkpt>
      <trkpt lat="46.75072" lon="5.91417">
        <ele>546.4</ele>
        <time>2019-10-31T13:44:33Z</time>
      </trkpt>
      <trkpt lat="46.75072" lon="5.91424">
        <ele>546.5</ele>
        <time>2019-10-31T13:44:38Z</time>
      </trkpt>
      <trkpt lat="46.75072" lon="5.91431">
        <ele>546.8</ele>
        <time>2019-10-31T13:44:42Z</time>
      </trkpt>
      <trkpt lat="46.75072" lon="5.91438">
        <ele>546.9</ele>
        <time>2019-10-31T13:44:46Z</time>
      </trkpt>
      <trkpt lat="46.75072" lon="5.91445">
        <ele>546.8</ele>
        <time>2019-10-31T13:44:50Z</time>
      </trkpt>
      <trkpt lat="46.75072" lon="5.91453">
        <ele>546.9</ele>
        <time>2019-10-31T13:44:55Z</time>
      </trkpt>
      <trkpt lat="46.75072" lon="5.91459">
        <ele>546.8</ele>
        <time>2019-10-31T13:45:01Z</time>
      </trkpt>
      <trkpt lat="46.7507" lon="5.91466">
        <ele>546.4</ele>
        <time>2019-10-31T13:45:09Z</time>
      </trkpt>
      <trkpt lat="46.75071" lon="5.91473">
        <ele>544.9</ele>
        <time>2019-10-31T13:45:16Z</time>
      </trkpt>
      <trkpt lat="46.75069" lon="5.9148">
        <ele>543.1</ele>
        <time>2019-10-31T13:45:21Z</time>
      </trkpt>
      <trkpt lat="46.7507" lon="5.91486">
        <ele>540.2</ele>
        <time>2019-10-31T13:45:27Z</time>
      </trkpt>
      <trkpt lat="46.75068" lon="5.915">
        <ele>530.8</ele>
        <time>2019-10-31T13:45:52Z</time>
      </trkpt>
      <trkpt lat="46.75062" lon="5.91513">
        <ele>535.2</ele>
        <time>2019-10-31T13:46:10Z</time>
      </trkpt>
      <trkpt lat="46.75059" lon="5.91519">
        <ele>536.2</ele>
        <time>2019-10-31T13:46:13Z</time>
      </trkpt>
      <trkpt lat="46.75057" lon="5.91525">
        <ele>537.4</ele>
        <time>2019-10-31T13:46:16Z</time>
      </trkpt>
      <trkpt lat="46.75053" lon="5.91546">
        <ele>543.3</ele>
        <time>2019-10-31T13:46:30Z</time>
      </trkpt>
      <trkpt lat="46.75045" lon="5.91568">
        <ele>546</ele>
        <time>2019-10-31T13:46:44Z</time>
      </trkpt>
      <trkpt lat="46.75048" lon="5.91585">
        <ele>545.1</ele>
        <time>2019-10-31T13:46:54Z</time>
      </trkpt>
      <trkpt lat="46.7505" lon="5.91592">
        <ele>544.4</ele>
        <time>2019-10-31T13:46:57Z</time>
      </trkpt>
      <trkpt lat="46.75052" lon="5.91598">
        <ele>543.9</ele>
        <time>2019-10-31T13:47:00Z</time>
      </trkpt>
      <trkpt lat="46.75049" lon="5.91605">
        <ele>543.4</ele>
        <time>2019-10-31T13:47:05Z</time>
      </trkpt>
      <trkpt lat="46.75047" lon="5.91611">
        <ele>543</ele>
        <time>2019-10-31T13:47:11Z</time>
      </trkpt>
      <trkpt lat="46.75044" lon="5.91617">
        <ele>543</ele>
        <time>2019-10-31T13:47:16Z</time>
      </trkpt>
      <trkpt lat="46.75044" lon="5.91625">
        <ele>543.4</ele>
        <time>2019-10-31T13:47:22Z</time>
      </trkpt>
      <trkpt lat="46.75043" lon="5.91633">
        <ele>543.9</ele>
        <time>2019-10-31T13:47:27Z</time>
      </trkpt>
      <trkpt lat="46.75044" lon="5.91639">
        <ele>544.3</ele>
        <time>2019-10-31T13:47:31Z</time>
      </trkpt>
      <trkpt lat="46.75044" lon="5.91647">
        <ele>544.6</ele>
        <time>2019-10-31T13:47:35Z</time>
      </trkpt>
      <trkpt lat="46.75043" lon="5.91654">
        <ele>545.1</ele>
        <time>2019-10-31T13:47:39Z</time>
      </trkpt>
      <trkpt lat="46.75042" lon="5.91661">
        <ele>546.2</ele>
        <time>2019-10-31T13:47:45Z</time>
      </trkpt>
      <trkpt lat="46.75041" lon="5.91667">
        <ele>546.7</ele>
        <time>2019-10-31T13:47:48Z</time>
      </trkpt>
      <trkpt lat="46.75038" lon="5.91676">
        <ele>547.2</ele>
        <time>2019-10-31T13:47:51Z</time>
      </trkpt>
      <trkpt lat="46.75035" lon="5.91684">
        <ele>547.9</ele>
        <time>2019-10-31T13:47:54Z</time>
      </trkpt>
      <trkpt lat="46.75033" lon="5.91692">
        <ele>548.6</ele>
        <time>2019-10-31T13:47:58Z</time>
      </trkpt>
      <trkpt lat="46.75032" lon="5.91699">
        <ele>549.2</ele>
        <time>2019-10-31T13:48:01Z</time>
      </trkpt>
      <trkpt lat="46.7503" lon="5.91705">
        <ele>550.2</ele>
        <time>2019-10-31T13:48:08Z</time>
      </trkpt>
      <trkpt lat="46.75029" lon="5.91698">
        <ele>552</ele>
        <time>2019-10-31T13:48:24Z</time>
      </trkpt>
      <trkpt lat="46.75026" lon="5.91691">
        <ele>551.8</ele>
        <time>2019-10-31T13:48:33Z</time>
      </trkpt>
      <trkpt lat="46.75025" lon="5.91685">
        <ele>551.4</ele>
        <time>2019-10-31T13:48:38Z</time>
      </trkpt>
      <trkpt lat="46.75022" lon="5.91677">
        <ele>551.1</ele>
        <time>2019-10-31T13:48:42Z</time>
      </trkpt>
      <trkpt lat="46.7502" lon="5.91671">
        <ele>550.9</ele>
        <time>2019-10-31T13:48:46Z</time>
      </trkpt>
      <trkpt lat="46.75015" lon="5.91669">
        <ele>550.5</ele>
        <time>2019-10-31T13:48:54Z</time>
      </trkpt>
      <trkpt lat="46.7501" lon="5.91666">
        <ele>549.6</ele>
        <time>2019-10-31T13:49:01Z</time>
      </trkpt>
      <trkpt lat="46.75005" lon="5.91665">
        <ele>549.2</ele>
        <time>2019-10-31T13:49:06Z</time>
      </trkpt>
      <trkpt lat="46.75" lon="5.91664">
        <ele>549</ele>
        <time>2019-10-31T13:49:11Z</time>
      </trkpt>
      <trkpt lat="46.74995" lon="5.91661">
        <ele>548.9</ele>
        <time>2019-10-31T13:49:16Z</time>
      </trkpt>
      <trkpt lat="46.74991" lon="5.91657">
        <ele>548.9</ele>
        <time>2019-10-31T13:49:22Z</time>
      </trkpt>
      <trkpt lat="46.74992" lon="5.91649">
        <ele>549</ele>
        <time>2019-10-31T13:49:27Z</time>
      </trkpt>
      <trkpt lat="46.74992" lon="5.91643">
        <ele>549.2</ele>
        <time>2019-10-31T13:49:32Z</time>
      </trkpt>
      <trkpt lat="46.74989" lon="5.91637">
        <ele>549.6</ele>
        <time>2019-10-31T13:49:38Z</time>
      </trkpt>
      <trkpt lat="46.74983" lon="5.91635">
        <ele>549.7</ele>
        <time>2019-10-31T13:49:44Z</time>
      </trkpt>
      <trkpt lat="46.74979" lon="5.91631">
        <ele>549.3</ele>
        <time>2019-10-31T13:49:49Z</time>
      </trkpt>
      <trkpt lat="46.74976" lon="5.91625">
        <ele>548.8</ele>
        <time>2019-10-31T13:49:54Z</time>
      </trkpt>
      <trkpt lat="46.74975" lon="5.91618">
        <ele>548.5</ele>
        <time>2019-10-31T13:49:57Z</time>
      </trkpt>
      <trkpt lat="46.74975" lon="5.91612">
        <ele>548.4</ele>
        <time>2019-10-31T13:50:00Z</time>
      </trkpt>
      <trkpt lat="46.74972" lon="5.91606">
        <ele>548.4</ele>
        <time>2019-10-31T13:50:07Z</time>
      </trkpt>
      <trkpt lat="46.74967" lon="5.91605">
        <ele>548.1</ele>
        <time>2019-10-31T13:50:14Z</time>
      </trkpt>
      <trkpt lat="46.74962" lon="5.91606">
        <ele>547.5</ele>
        <time>2019-10-31T13:50:18Z</time>
      </trkpt>
      <trkpt lat="46.74957" lon="5.91608">
        <ele>546.6</ele>
        <time>2019-10-31T13:50:24Z</time>
      </trkpt>
      <trkpt lat="46.74952" lon="5.91612">
        <ele>545.8</ele>
        <time>2019-10-31T13:50:29Z</time>
      </trkpt>
      <trkpt lat="46.74946" lon="5.91611">
        <ele>544.2</ele>
        <time>2019-10-31T13:50:56Z</time>
      </trkpt>
      <trkpt lat="46.74941" lon="5.91609">
        <ele>544.3</ele>
        <time>2019-10-31T13:51:00Z</time>
      </trkpt>
      <trkpt lat="46.74936" lon="5.91608">
        <ele>544.4</ele>
        <time>2019-10-31T13:51:05Z</time>
      </trkpt>
      <trkpt lat="46.74931" lon="5.91606">
        <ele>544.3</ele>
        <time>2019-10-31T13:51:10Z</time>
      </trkpt>
      <trkpt lat="46.74927" lon="5.91603">
        <ele>544.1</ele>
        <time>2019-10-31T13:51:15Z</time>
      </trkpt>
      <trkpt lat="46.74923" lon="5.91597">
        <ele>544.2</ele>
        <time>2019-10-31T13:51:21Z</time>
      </trkpt>
      <trkpt lat="46.74919" lon="5.91594">
        <ele>544.3</ele>
        <time>2019-10-31T13:51:26Z</time>
      </trkpt>
      <trkpt lat="46.74914" lon="5.91591">
        <ele>544.2</ele>
        <time>2019-10-31T13:51:31Z</time>
      </trkpt>
      <trkpt lat="46.74909" lon="5.91589">
        <ele>543.9</ele>
        <time>2019-10-31T13:51:37Z</time>
      </trkpt>
      <trkpt lat="46.74905" lon="5.91586">
        <ele>543.8</ele>
        <time>2019-10-31T13:51:41Z</time>
      </trkpt>
      <trkpt lat="46.74899" lon="5.91584">
        <ele>543.8</ele>
        <time>2019-10-31T13:51:46Z</time>
      </trkpt>
      <trkpt lat="46.74894" lon="5.91583">
        <ele>543.9</ele>
        <time>2019-10-31T13:51:49Z</time>
      </trkpt>
      <trkpt lat="46.74889" lon="5.91581">
        <ele>544</ele>
        <time>2019-10-31T13:51:53Z</time>
      </trkpt>
      <trkpt lat="46.74885" lon="5.91579">
        <ele>544.1</ele>
        <time>2019-10-31T13:52:00Z</time>
      </trkpt>
      <trkpt lat="46.7488" lon="5.91575">
        <ele>544</ele>
        <time>2019-10-31T13:52:05Z</time>
      </trkpt>
      <trkpt lat="46.74875" lon="5.91572">
        <ele>544</ele>
        <time>2019-10-31T13:52:10Z</time>
      </trkpt>
      <trkpt lat="46.74871" lon="5.91569">
        <ele>544</ele>
        <time>2019-10-31T13:52:14Z</time>
      </trkpt>
      <trkpt lat="46.74867" lon="5.91565">
        <ele>543.9</ele>
        <time>2019-10-31T13:52:19Z</time>
      </trkpt>
      <trkpt lat="46.74862" lon="5.91562">
        <ele>543.8</ele>
        <time>2019-10-31T13:52:23Z</time>
      </trkpt>
      <trkpt lat="46.74857" lon="5.91559">
        <ele>543.8</ele>
        <time>2019-10-31T13:52:27Z</time>
      </trkpt>
      <trkpt lat="46.74852" lon="5.91557">
        <ele>543.9</ele>
        <time>2019-10-31T13:52:32Z</time>
      </trkpt>
      <trkpt lat="46.74848" lon="5.91554">
        <ele>543.9</ele>
        <time>2019-10-31T13:52:36Z</time>
      </trkpt>
      <trkpt lat="46.74844" lon="5.91551">
        <ele>543.7</ele>
        <time>2019-10-31T13:52:40Z</time>
      </trkpt>
      <trkpt lat="46.74839" lon="5.91549">
        <ele>543.4</ele>
        <time>2019-10-31T13:52:45Z</time>
      </trkpt>
      <trkpt lat="46.74834" lon="5.91548">
        <ele>543.2</ele>
        <time>2019-10-31T13:52:51Z</time>
      </trkpt>
      <trkpt lat="46.7483" lon="5.91546">
        <ele>543.1</ele>
        <time>2019-10-31T13:52:55Z</time>
      </trkpt>
      <trkpt lat="46.74824" lon="5.91545">
        <ele>543.1</ele>
        <time>2019-10-31T13:53:00Z</time>
      </trkpt>
      <trkpt lat="46.74821" lon="5.91541">
        <ele>542.9</ele>
        <time>2019-10-31T13:53:06Z</time>
      </trkpt>
      <trkpt lat="46.74816" lon="5.91537">
        <ele>542.5</ele>
        <time>2019-10-31T13:53:12Z</time>
      </trkpt>
      <trkpt lat="46.74812" lon="5.91534">
        <ele>542.2</ele>
        <time>2019-10-31T13:53:17Z</time>
      </trkpt>
      <trkpt lat="46.74806" lon="5.91533">
        <ele>542.1</ele>
        <time>2019-10-31T13:53:22Z</time>
      </trkpt>
      <trkpt lat="46.74801" lon="5.91533">
        <ele>542.2</ele>
        <time>2019-10-31T13:53:27Z</time>
      </trkpt>
      <trkpt lat="46.74797" lon="5.91527">
        <ele>542.3</ele>
        <time>2019-10-31T13:53:34Z</time>
      </trkpt>
      <trkpt lat="46.74796" lon="5.91521">
        <ele>542.6</ele>
        <time>2019-10-31T13:53:38Z</time>
      </trkpt>
      <trkpt lat="46.74794" lon="5.91515">
        <ele>542.7</ele>
        <time>2019-10-31T13:53:41Z</time>
      </trkpt>
      <trkpt lat="46.74792" lon="5.91509">
        <ele>542.9</ele>
        <time>2019-10-31T13:53:45Z</time>
      </trkpt>
      <trkpt lat="46.74791" lon="5.91502">
        <ele>543</ele>
        <time>2019-10-31T13:53:49Z</time>
      </trkpt>
      <trkpt lat="46.74792" lon="5.91495">
        <ele>543.2</ele>
        <time>2019-10-31T13:53:54Z</time>
      </trkpt>
      <trkpt lat="46.74791" lon="5.91488">
        <ele>543.9</ele>
        <time>2019-10-31T13:54:08Z</time>
      </trkpt>
      <trkpt lat="46.74789" lon="5.91481">
        <ele>543.8</ele>
        <time>2019-10-31T13:54:13Z</time>
      </trkpt>
      <trkpt lat="46.74786" lon="5.91475">
        <ele>543.7</ele>
        <time>2019-10-31T13:54:18Z</time>
      </trkpt>
      <trkpt lat="46.74783" lon="5.91468">
        <ele>544</ele>
        <time>2019-10-31T13:54:22Z</time>
      </trkpt>
      <trkpt lat="46.7478" lon="5.91464">
        <ele>544.3</ele>
        <time>2019-10-31T13:54:26Z</time>
      </trkpt>
      <trkpt lat="46.74776" lon="5.91459">
        <ele>544.4</ele>
        <time>2019-10-31T13:54:31Z</time>
      </trkpt>
      <trkpt lat="46.74773" lon="5.91455">
        <ele>544.7</ele>
        <time>2019-10-31T13:54:37Z</time>
      </trkpt>
      <trkpt lat="46.74769" lon="5.91451">
        <ele>544.8</ele>
        <time>2019-10-31T13:54:42Z</time>
      </trkpt>
      <trkpt lat="46.74765" lon="5.91447">
        <ele>544.7</ele>
        <time>2019-10-31T13:54:46Z</time>
      </trkpt>
      <trkpt lat="46.74761" lon="5.91442">
        <ele>544.4</ele>
        <time>2019-10-31T13:54:52Z</time>
      </trkpt>
      <trkpt lat="46.74757" lon="5.91438">
        <ele>544.1</ele>
        <time>2019-10-31T13:54:56Z</time>
      </trkpt>
      <trkpt lat="46.74753" lon="5.91434">
        <ele>544</ele>
        <time>2019-10-31T13:55:00Z</time>
      </trkpt>
      <trkpt lat="46.7475" lon="5.91429">
        <ele>543.9</ele>
        <time>2019-10-31T13:55:03Z</time>
      </trkpt>
      <trkpt lat="46.74747" lon="5.91423">
        <ele>543.8</ele>
        <time>2019-10-31T13:55:07Z</time>
      </trkpt>
      <trkpt lat="46.74745" lon="5.91416">
        <ele>543.4</ele>
        <time>2019-10-31T13:55:13Z</time>
      </trkpt>
      <trkpt lat="46.74744" lon="5.91407">
        <ele>543.1</ele>
        <time>2019-10-31T13:55:19Z</time>
      </trkpt>
      <trkpt lat="46.74742" lon="5.91401">
        <ele>543</ele>
        <time>2019-10-31T13:55:22Z</time>
      </trkpt>
      <trkpt lat="46.7474" lon="5.91392">
        <ele>543</ele>
        <time>2019-10-31T13:55:26Z</time>
      </trkpt>
      <trkpt lat="46.7474" lon="5.91385">
        <ele>543</ele>
        <time>2019-10-31T13:55:29Z</time>
      </trkpt>
      <trkpt lat="46.7474" lon="5.91378">
        <ele>543.1</ele>
        <time>2019-10-31T13:55:32Z</time>
      </trkpt>
      <trkpt lat="46.7474" lon="5.91371">
        <ele>543.3</ele>
        <time>2019-10-31T13:55:36Z</time>
      </trkpt>
      <trkpt lat="46.7474" lon="5.91364">
        <ele>543.7</ele>
        <time>2019-10-31T13:55:41Z</time>
      </trkpt>
      <trkpt lat="46.74741" lon="5.91357">
        <ele>544.3</ele>
        <time>2019-10-31T13:55:47Z</time>
      </trkpt>
      <trkpt lat="46.74742" lon="5.9135">
        <ele>544.6</ele>
        <time>2019-10-31T13:55:52Z</time>
      </trkpt>
      <trkpt lat="46.74745" lon="5.91344">
        <ele>544.9</ele>
        <time>2019-10-31T13:55:58Z</time>
      </trkpt>
      <trkpt lat="46.74748" lon="5.91338">
        <ele>545.2</ele>
        <time>2019-10-31T13:56:04Z</time>
      </trkpt>
      <trkpt lat="46.74752" lon="5.91331">
        <ele>545.4</ele>
        <time>2019-10-31T13:56:09Z</time>
      </trkpt>
      <trkpt lat="46.74754" lon="5.91325">
        <ele>545.8</ele>
        <time>2019-10-31T13:56:14Z</time>
      </trkpt>
      <trkpt lat="46.74755" lon="5.91319">
        <ele>546.2</ele>
        <time>2019-10-31T13:56:18Z</time>
      </trkpt>
      <trkpt lat="46.74756" lon="5.91313">
        <ele>546.6</ele>
        <time>2019-10-31T13:56:22Z</time>
      </trkpt>
      <trkpt lat="46.74756" lon="5.91306">
        <ele>547.1</ele>
        <time>2019-10-31T13:56:27Z</time>
      </trkpt>
      <trkpt lat="46.74756" lon="5.91299">
        <ele>547.2</ele>
        <time>2019-10-31T13:56:32Z</time>
      </trkpt>
      <trkpt lat="46.74755" lon="5.91292">
        <ele>547.1</ele>
        <time>2019-10-31T13:56:37Z</time>
      </trkpt>
      <trkpt lat="46.74754" lon="5.91283">
        <ele>546.8</ele>
        <time>2019-10-31T13:56:41Z</time>
      </trkpt>
      <trkpt lat="46.74754" lon="5.91276">
        <ele>546.3</ele>
        <time>2019-10-31T13:56:46Z</time>
      </trkpt>
      <trkpt lat="46.74755" lon="5.91269">
        <ele>546.1</ele>
        <time>2019-10-31T13:56:50Z</time>
      </trkpt>
      <trkpt lat="46.74756" lon="5.91263">
        <ele>545.8</ele>
        <time>2019-10-31T13:56:55Z</time>
      </trkpt>
      <trkpt lat="46.74755" lon="5.91255">
        <ele>545.6</ele>
        <time>2019-10-31T13:57:00Z</time>
      </trkpt>
      <trkpt lat="46.74754" lon="5.91247">
        <ele>545.2</ele>
        <time>2019-10-31T13:57:05Z</time>
      </trkpt>
      <trkpt lat="46.74753" lon="5.91241">
        <ele>544.7</ele>
        <time>2019-10-31T13:57:10Z</time>
      </trkpt>
      <trkpt lat="46.74751" lon="5.91234">
        <ele>544.6</ele>
        <time>2019-10-31T13:57:13Z</time>
      </trkpt>
      <trkpt lat="46.74748" lon="5.91228">
        <ele>544.5</ele>
        <time>2019-10-31T13:57:17Z</time>
      </trkpt>
      <trkpt lat="46.74746" lon="5.91221">
        <ele>544.3</ele>
        <time>2019-10-31T13:57:22Z</time>
      </trkpt>
      <trkpt lat="46.74745" lon="5.91215">
        <ele>544</ele>
        <time>2019-10-31T13:57:27Z</time>
      </trkpt>
      <trkpt lat="46.74743" lon="5.91207">
        <ele>543.6</ele>
        <time>2019-10-31T13:57:32Z</time>
      </trkpt>
      <trkpt lat="46.74742" lon="5.91199">
        <ele>543.4</ele>
        <time>2019-10-31T13:57:37Z</time>
      </trkpt>
      <trkpt lat="46.7474" lon="5.91193">
        <ele>543.3</ele>
        <time>2019-10-31T13:57:42Z</time>
      </trkpt>
      <trkpt lat="46.74736" lon="5.91186">
        <ele>543.1</ele>
        <time>2019-10-31T13:57:47Z</time>
      </trkpt>
      <trkpt lat="46.74735" lon="5.91179">
        <ele>542.9</ele>
        <time>2019-10-31T13:57:52Z</time>
      </trkpt>
      <trkpt lat="46.74733" lon="5.91172">
        <ele>542.8</ele>
        <time>2019-10-31T13:57:57Z</time>
      </trkpt>
      <trkpt lat="46.7473" lon="5.91165">
        <ele>542.7</ele>
        <time>2019-10-31T13:58:02Z</time>
      </trkpt>
      <trkpt lat="46.74728" lon="5.91159">
        <ele>542.6</ele>
        <time>2019-10-31T13:58:06Z</time>
      </trkpt>
      <trkpt lat="46.74726" lon="5.91152">
        <ele>542.4</ele>
        <time>2019-10-31T13:58:10Z</time>
      </trkpt>
      <trkpt lat="46.74724" lon="5.91146">
        <ele>542</ele>
        <time>2019-10-31T13:58:15Z</time>
      </trkpt>
      <trkpt lat="46.74722" lon="5.91139">
        <ele>541.7</ele>
        <time>2019-10-31T13:58:21Z</time>
      </trkpt>
      <trkpt lat="46.7472" lon="5.91132">
        <ele>541.3</ele>
        <time>2019-10-31T13:58:26Z</time>
      </trkpt>
      <trkpt lat="46.74718" lon="5.91126">
        <ele>540.8</ele>
        <time>2019-10-31T13:58:31Z</time>
      </trkpt>
      <trkpt lat="46.74716" lon="5.9112">
        <ele>540.5</ele>
        <time>2019-10-31T13:58:35Z</time>
      </trkpt>
      <trkpt lat="46.74713" lon="5.91114">
        <ele>540.1</ele>
        <time>2019-10-31T13:58:40Z</time>
      </trkpt>
      <trkpt lat="46.7471" lon="5.9111">
        <ele>540</ele>
        <time>2019-10-31T13:58:45Z</time>
      </trkpt>
      <trkpt lat="46.74706" lon="5.91105">
        <ele>539.9</ele>
        <time>2019-10-31T13:58:52Z</time>
      </trkpt>
      <trkpt lat="46.74702" lon="5.91102">
        <ele>539.4</ele>
        <time>2019-10-31T13:59:07Z</time>
      </trkpt>
    </trkseg>
  </trk>
</gpx>